<?xml version="1.0" encoding="UTF-8" standalone="no" ?>
<gpx xmlns="http://www.topografix.com/GPX/1/1" xmlns:xsi="http://www.w3.org/2001/XMLSchema-instance" xsi:schemaLocation="http://www.topografix.com/GPX/1/1 http://www.topografix.com/GPX/1/1/gpx.xsd" version="1.1" creator="VisuGPX - https://www.visugpx.com">
  <metadata>
    <name>Marigny,le tour de Chalain,belvédères et  bord de lac</name>
  </metadata>
  <trk>
    <name><![CDATA[Marigny,le tour de Chalain,belvédères et  bord de lac_1]]></name>
    <extensions>
      <line xmlns="http://www.topografix.com/GPX/gpx_style/0/2">
        <color>0000FF</color>
        <width>4</width>
      </line>
    </extensions>
    <trkseg>
      <trkpt lat="46.67869" lon="5.77964">
        <ele>490.4</ele>
        <time>2021-09-07T11:37:43Z</time>
      </trkpt>
      <trkpt lat="46.67868" lon="5.77958">
        <ele>490.2</ele>
        <time>2021-09-07T11:38:07Z</time>
      </trkpt>
      <trkpt lat="46.67872" lon="5.77953">
        <ele>489.2</ele>
        <time>2021-09-07T11:38:14Z</time>
      </trkpt>
      <trkpt lat="46.67877" lon="5.7795">
        <ele>488.3</ele>
        <time>2021-09-07T11:38:18Z</time>
      </trkpt>
      <trkpt lat="46.6788" lon="5.77945">
        <ele>488</ele>
        <time>2021-09-07T11:38:22Z</time>
      </trkpt>
      <trkpt lat="46.67884" lon="5.77942">
        <ele>488.6</ele>
        <time>2021-09-07T11:38:28Z</time>
      </trkpt>
      <trkpt lat="46.67888" lon="5.77942">
        <ele>487.8</ele>
        <time>2021-09-07T11:38:49Z</time>
      </trkpt>
      <trkpt lat="46.67892" lon="5.77947">
        <ele>486.6</ele>
        <time>2021-09-07T11:38:57Z</time>
      </trkpt>
      <trkpt lat="46.67895" lon="5.77952">
        <ele>485.6</ele>
        <time>2021-09-07T11:39:02Z</time>
      </trkpt>
      <trkpt lat="46.67899" lon="5.77956">
        <ele>484.4</ele>
        <time>2021-09-07T11:39:07Z</time>
      </trkpt>
      <trkpt lat="46.67901" lon="5.77962">
        <ele>482.1</ele>
        <time>2021-09-07T11:39:17Z</time>
      </trkpt>
      <trkpt lat="46.67913" lon="5.77973">
        <ele>479.1</ele>
        <time>2021-09-07T11:39:35Z</time>
      </trkpt>
      <trkpt lat="46.67915" lon="5.7798">
        <ele>478.3</ele>
        <time>2021-09-07T11:39:39Z</time>
      </trkpt>
      <trkpt lat="46.67914" lon="5.77988">
        <ele>477.7</ele>
        <time>2021-09-07T11:39:42Z</time>
      </trkpt>
      <trkpt lat="46.67912" lon="5.77997">
        <ele>477.1</ele>
        <time>2021-09-07T11:39:45Z</time>
      </trkpt>
      <trkpt lat="46.67908" lon="5.78003">
        <ele>476.7</ele>
        <time>2021-09-07T11:39:48Z</time>
      </trkpt>
      <trkpt lat="46.67906" lon="5.7801">
        <ele>477.4</ele>
        <time>2021-09-07T11:39:53Z</time>
      </trkpt>
      <trkpt lat="46.67902" lon="5.78013">
        <ele>477.7</ele>
        <time>2021-09-07T11:40:27Z</time>
      </trkpt>
      <trkpt lat="46.67906" lon="5.78015">
        <ele>481.3</ele>
        <time>2021-09-07T11:40:36Z</time>
      </trkpt>
      <trkpt lat="46.67911" lon="5.78016">
        <ele>482.3</ele>
        <time>2021-09-07T11:40:40Z</time>
      </trkpt>
      <trkpt lat="46.67915" lon="5.78012">
        <ele>483.2</ele>
        <time>2021-09-07T11:40:46Z</time>
      </trkpt>
      <trkpt lat="46.67919" lon="5.78007">
        <ele>483.6</ele>
        <time>2021-09-07T11:40:51Z</time>
      </trkpt>
      <trkpt lat="46.67924" lon="5.78004">
        <ele>484</ele>
        <time>2021-09-07T11:40:55Z</time>
      </trkpt>
      <trkpt lat="46.67927" lon="5.77999">
        <ele>485.1</ele>
        <time>2021-09-07T11:41:01Z</time>
      </trkpt>
      <trkpt lat="46.67932" lon="5.78">
        <ele>486.4</ele>
        <time>2021-09-07T11:41:07Z</time>
      </trkpt>
      <trkpt lat="46.67937" lon="5.77999">
        <ele>487.2</ele>
        <time>2021-09-07T11:41:11Z</time>
      </trkpt>
      <trkpt lat="46.67942" lon="5.77998">
        <ele>487.9</ele>
        <time>2021-09-07T11:41:15Z</time>
      </trkpt>
      <trkpt lat="46.67947" lon="5.77997">
        <ele>488.5</ele>
        <time>2021-09-07T11:41:20Z</time>
      </trkpt>
      <trkpt lat="46.67952" lon="5.77995">
        <ele>489</ele>
        <time>2021-09-07T11:41:25Z</time>
      </trkpt>
      <trkpt lat="46.67957" lon="5.77992">
        <ele>489.1</ele>
        <time>2021-09-07T11:41:31Z</time>
      </trkpt>
      <trkpt lat="46.67962" lon="5.77991">
        <ele>489.1</ele>
        <time>2021-09-07T11:41:36Z</time>
      </trkpt>
      <trkpt lat="46.67966" lon="5.77989">
        <ele>489.3</ele>
        <time>2021-09-07T11:41:40Z</time>
      </trkpt>
      <trkpt lat="46.67971" lon="5.77986">
        <ele>489.8</ele>
        <time>2021-09-07T11:41:45Z</time>
      </trkpt>
      <trkpt lat="46.67975" lon="5.77984">
        <ele>490.2</ele>
        <time>2021-09-07T11:41:49Z</time>
      </trkpt>
      <trkpt lat="46.6798" lon="5.77982">
        <ele>490.6</ele>
        <time>2021-09-07T11:41:54Z</time>
      </trkpt>
      <trkpt lat="46.67984" lon="5.77978">
        <ele>490.8</ele>
        <time>2021-09-07T11:42:00Z</time>
      </trkpt>
      <trkpt lat="46.67988" lon="5.77975">
        <ele>490.9</ele>
        <time>2021-09-07T11:42:05Z</time>
      </trkpt>
      <trkpt lat="46.67992" lon="5.77971">
        <ele>490.9</ele>
        <time>2021-09-07T11:42:09Z</time>
      </trkpt>
      <trkpt lat="46.67997" lon="5.77969">
        <ele>490.8</ele>
        <time>2021-09-07T11:42:13Z</time>
      </trkpt>
      <trkpt lat="46.68002" lon="5.77967">
        <ele>490.4</ele>
        <time>2021-09-07T11:42:18Z</time>
      </trkpt>
      <trkpt lat="46.68007" lon="5.77964">
        <ele>490.1</ele>
        <time>2021-09-07T11:42:23Z</time>
      </trkpt>
      <trkpt lat="46.6801" lon="5.77958">
        <ele>490.2</ele>
        <time>2021-09-07T11:42:29Z</time>
      </trkpt>
      <trkpt lat="46.68014" lon="5.77953">
        <ele>490.4</ele>
        <time>2021-09-07T11:42:34Z</time>
      </trkpt>
      <trkpt lat="46.68018" lon="5.77948">
        <ele>490.5</ele>
        <time>2021-09-07T11:42:38Z</time>
      </trkpt>
      <trkpt lat="46.68022" lon="5.77944">
        <ele>489.8</ele>
        <time>2021-09-07T11:42:43Z</time>
      </trkpt>
      <trkpt lat="46.68026" lon="5.7794">
        <ele>489.6</ele>
        <time>2021-09-07T11:42:47Z</time>
      </trkpt>
      <trkpt lat="46.6803" lon="5.77935">
        <ele>489.1</ele>
        <time>2021-09-07T11:42:53Z</time>
      </trkpt>
      <trkpt lat="46.68034" lon="5.77932">
        <ele>489</ele>
        <time>2021-09-07T11:42:57Z</time>
      </trkpt>
      <trkpt lat="46.68039" lon="5.77928">
        <ele>489.5</ele>
        <time>2021-09-07T11:43:01Z</time>
      </trkpt>
      <trkpt lat="46.68043" lon="5.77925">
        <ele>489.5</ele>
        <time>2021-09-07T11:43:05Z</time>
      </trkpt>
      <trkpt lat="46.68048" lon="5.77924">
        <ele>489.5</ele>
        <time>2021-09-07T11:43:11Z</time>
      </trkpt>
      <trkpt lat="46.68053" lon="5.77926">
        <ele>490</ele>
        <time>2021-09-07T11:43:16Z</time>
      </trkpt>
      <trkpt lat="46.68058" lon="5.77927">
        <ele>490.3</ele>
        <time>2021-09-07T11:43:20Z</time>
      </trkpt>
      <trkpt lat="46.68062" lon="5.7793">
        <ele>490.7</ele>
        <time>2021-09-07T11:43:26Z</time>
      </trkpt>
      <trkpt lat="46.68066" lon="5.77934">
        <ele>490.9</ele>
        <time>2021-09-07T11:43:32Z</time>
      </trkpt>
      <trkpt lat="46.6807" lon="5.77939">
        <ele>490.9</ele>
        <time>2021-09-07T11:43:37Z</time>
      </trkpt>
      <trkpt lat="46.68074" lon="5.77943">
        <ele>491.3</ele>
        <time>2021-09-07T11:43:43Z</time>
      </trkpt>
      <trkpt lat="46.68077" lon="5.77948">
        <ele>491.3</ele>
        <time>2021-09-07T11:43:52Z</time>
      </trkpt>
      <trkpt lat="46.6808" lon="5.77954">
        <ele>491.3</ele>
        <time>2021-09-07T11:43:58Z</time>
      </trkpt>
      <trkpt lat="46.68083" lon="5.7796">
        <ele>491.3</ele>
        <time>2021-09-07T11:44:03Z</time>
      </trkpt>
      <trkpt lat="46.68085" lon="5.77966">
        <ele>491.4</ele>
        <time>2021-09-07T11:44:07Z</time>
      </trkpt>
      <trkpt lat="46.68087" lon="5.77973">
        <ele>491.5</ele>
        <time>2021-09-07T11:44:13Z</time>
      </trkpt>
      <trkpt lat="46.68088" lon="5.7798">
        <ele>492</ele>
        <time>2021-09-07T11:44:19Z</time>
      </trkpt>
      <trkpt lat="46.68091" lon="5.77985">
        <ele>492.3</ele>
        <time>2021-09-07T11:44:24Z</time>
      </trkpt>
      <trkpt lat="46.68094" lon="5.77992">
        <ele>492.4</ele>
        <time>2021-09-07T11:44:29Z</time>
      </trkpt>
      <trkpt lat="46.68097" lon="5.77997">
        <ele>492.5</ele>
        <time>2021-09-07T11:44:34Z</time>
      </trkpt>
      <trkpt lat="46.681" lon="5.78003">
        <ele>492.4</ele>
        <time>2021-09-07T11:44:40Z</time>
      </trkpt>
      <trkpt lat="46.68102" lon="5.78009">
        <ele>492.3</ele>
        <time>2021-09-07T11:44:45Z</time>
      </trkpt>
      <trkpt lat="46.68104" lon="5.78016">
        <ele>491.8</ele>
        <time>2021-09-07T11:44:52Z</time>
      </trkpt>
      <trkpt lat="46.68106" lon="5.78022">
        <ele>491.5</ele>
        <time>2021-09-07T11:44:58Z</time>
      </trkpt>
      <trkpt lat="46.68109" lon="5.78028">
        <ele>491.6</ele>
        <time>2021-09-07T11:45:03Z</time>
      </trkpt>
      <trkpt lat="46.68111" lon="5.78034">
        <ele>492</ele>
        <time>2021-09-07T11:45:08Z</time>
      </trkpt>
      <trkpt lat="46.68114" lon="5.7804">
        <ele>492.7</ele>
        <time>2021-09-07T11:45:13Z</time>
      </trkpt>
      <trkpt lat="46.68115" lon="5.78047">
        <ele>493</ele>
        <time>2021-09-07T11:45:18Z</time>
      </trkpt>
      <trkpt lat="46.68116" lon="5.78054">
        <ele>493.4</ele>
        <time>2021-09-07T11:45:24Z</time>
      </trkpt>
      <trkpt lat="46.68118" lon="5.78061">
        <ele>493.6</ele>
        <time>2021-09-07T11:45:29Z</time>
      </trkpt>
      <trkpt lat="46.68119" lon="5.78067">
        <ele>493.8</ele>
        <time>2021-09-07T11:45:34Z</time>
      </trkpt>
      <trkpt lat="46.68121" lon="5.78074">
        <ele>494.2</ele>
        <time>2021-09-07T11:45:40Z</time>
      </trkpt>
      <trkpt lat="46.68123" lon="5.78081">
        <ele>494.9</ele>
        <time>2021-09-07T11:45:46Z</time>
      </trkpt>
      <trkpt lat="46.68123" lon="5.78088">
        <ele>495.5</ele>
        <time>2021-09-07T11:45:51Z</time>
      </trkpt>
      <trkpt lat="46.68123" lon="5.78095">
        <ele>496.2</ele>
        <time>2021-09-07T11:45:59Z</time>
      </trkpt>
      <trkpt lat="46.68121" lon="5.78101">
        <ele>496.5</ele>
        <time>2021-09-07T11:46:05Z</time>
      </trkpt>
      <trkpt lat="46.68122" lon="5.78108">
        <ele>496.6</ele>
        <time>2021-09-07T11:46:10Z</time>
      </trkpt>
      <trkpt lat="46.68125" lon="5.78114">
        <ele>496.6</ele>
        <time>2021-09-07T11:46:15Z</time>
      </trkpt>
      <trkpt lat="46.68128" lon="5.7812">
        <ele>496.8</ele>
        <time>2021-09-07T11:46:19Z</time>
      </trkpt>
      <trkpt lat="46.6813" lon="5.78126">
        <ele>497.4</ele>
        <time>2021-09-07T11:46:23Z</time>
      </trkpt>
      <trkpt lat="46.68132" lon="5.78132">
        <ele>498.3</ele>
        <time>2021-09-07T11:46:27Z</time>
      </trkpt>
      <trkpt lat="46.68133" lon="5.78139">
        <ele>499.1</ele>
        <time>2021-09-07T11:46:31Z</time>
      </trkpt>
      <trkpt lat="46.68133" lon="5.78146">
        <ele>499.5</ele>
        <time>2021-09-07T11:46:35Z</time>
      </trkpt>
      <trkpt lat="46.68133" lon="5.78153">
        <ele>500.7</ele>
        <time>2021-09-07T11:46:41Z</time>
      </trkpt>
      <trkpt lat="46.68134" lon="5.7816">
        <ele>502.1</ele>
        <time>2021-09-07T11:46:47Z</time>
      </trkpt>
      <trkpt lat="46.68135" lon="5.78167">
        <ele>503.3</ele>
        <time>2021-09-07T11:46:52Z</time>
      </trkpt>
      <trkpt lat="46.68136" lon="5.78174">
        <ele>504.2</ele>
        <time>2021-09-07T11:46:57Z</time>
      </trkpt>
      <trkpt lat="46.68136" lon="5.7818">
        <ele>505.6</ele>
        <time>2021-09-07T11:47:04Z</time>
      </trkpt>
      <trkpt lat="46.6814" lon="5.78185">
        <ele>506.2</ele>
        <time>2021-09-07T11:47:09Z</time>
      </trkpt>
      <trkpt lat="46.68144" lon="5.78189">
        <ele>506.6</ele>
        <time>2021-09-07T11:47:14Z</time>
      </trkpt>
      <trkpt lat="46.68148" lon="5.78194">
        <ele>507.4</ele>
        <time>2021-09-07T11:47:19Z</time>
      </trkpt>
      <trkpt lat="46.68153" lon="5.78198">
        <ele>508.3</ele>
        <time>2021-09-07T11:47:23Z</time>
      </trkpt>
      <trkpt lat="46.68158" lon="5.78202">
        <ele>509.3</ele>
        <time>2021-09-07T11:47:27Z</time>
      </trkpt>
      <trkpt lat="46.68162" lon="5.78205">
        <ele>510.2</ele>
        <time>2021-09-07T11:47:32Z</time>
      </trkpt>
      <trkpt lat="46.68166" lon="5.78209">
        <ele>510.8</ele>
        <time>2021-09-07T11:47:37Z</time>
      </trkpt>
      <trkpt lat="46.6817" lon="5.78215">
        <ele>510.7</ele>
        <time>2021-09-07T11:47:42Z</time>
      </trkpt>
      <trkpt lat="46.68172" lon="5.78221">
        <ele>510.1</ele>
        <time>2021-09-07T11:47:48Z</time>
      </trkpt>
      <trkpt lat="46.68174" lon="5.78228">
        <ele>509.6</ele>
        <time>2021-09-07T11:47:53Z</time>
      </trkpt>
      <trkpt lat="46.68176" lon="5.78234">
        <ele>509.6</ele>
        <time>2021-09-07T11:47:58Z</time>
      </trkpt>
      <trkpt lat="46.68176" lon="5.78241">
        <ele>509.4</ele>
        <time>2021-09-07T11:48:05Z</time>
      </trkpt>
      <trkpt lat="46.68174" lon="5.78247">
        <ele>509.2</ele>
        <time>2021-09-07T11:48:12Z</time>
      </trkpt>
      <trkpt lat="46.68171" lon="5.78254">
        <ele>509.2</ele>
        <time>2021-09-07T11:48:18Z</time>
      </trkpt>
      <trkpt lat="46.68169" lon="5.78261">
        <ele>509.3</ele>
        <time>2021-09-07T11:48:24Z</time>
      </trkpt>
      <trkpt lat="46.68166" lon="5.78267">
        <ele>509.2</ele>
        <time>2021-09-07T11:48:29Z</time>
      </trkpt>
      <trkpt lat="46.68164" lon="5.78273">
        <ele>509.3</ele>
        <time>2021-09-07T11:48:33Z</time>
      </trkpt>
      <trkpt lat="46.68161" lon="5.78279">
        <ele>509.4</ele>
        <time>2021-09-07T11:48:37Z</time>
      </trkpt>
      <trkpt lat="46.68158" lon="5.78285">
        <ele>509.4</ele>
        <time>2021-09-07T11:48:42Z</time>
      </trkpt>
      <trkpt lat="46.68157" lon="5.78292">
        <ele>509.3</ele>
        <time>2021-09-07T11:48:46Z</time>
      </trkpt>
      <trkpt lat="46.68155" lon="5.78299">
        <ele>509.5</ele>
        <time>2021-09-07T11:48:51Z</time>
      </trkpt>
      <trkpt lat="46.68152" lon="5.78306">
        <ele>509.9</ele>
        <time>2021-09-07T11:48:57Z</time>
      </trkpt>
      <trkpt lat="46.6815" lon="5.78311">
        <ele>510.2</ele>
        <time>2021-09-07T11:49:01Z</time>
      </trkpt>
      <trkpt lat="46.68146" lon="5.78317">
        <ele>510.6</ele>
        <time>2021-09-07T11:49:06Z</time>
      </trkpt>
      <trkpt lat="46.68143" lon="5.78322">
        <ele>511</ele>
        <time>2021-09-07T11:49:11Z</time>
      </trkpt>
      <trkpt lat="46.68139" lon="5.78327">
        <ele>511.4</ele>
        <time>2021-09-07T11:49:17Z</time>
      </trkpt>
      <trkpt lat="46.68135" lon="5.78328">
        <ele>511.3</ele>
        <time>2021-09-07T11:49:22Z</time>
      </trkpt>
      <trkpt lat="46.68132" lon="5.78333">
        <ele>511.1</ele>
        <time>2021-09-07T11:49:27Z</time>
      </trkpt>
      <trkpt lat="46.68129" lon="5.78341">
        <ele>511.1</ele>
        <time>2021-09-07T11:49:32Z</time>
      </trkpt>
      <trkpt lat="46.68126" lon="5.78345">
        <ele>510.9</ele>
        <time>2021-09-07T11:49:36Z</time>
      </trkpt>
      <trkpt lat="46.68125" lon="5.78352">
        <ele>510.3</ele>
        <time>2021-09-07T11:49:47Z</time>
      </trkpt>
      <trkpt lat="46.68125" lon="5.7836">
        <ele>510.7</ele>
        <time>2021-09-07T11:49:57Z</time>
      </trkpt>
      <trkpt lat="46.68123" lon="5.78367">
        <ele>510.5</ele>
        <time>2021-09-07T11:50:03Z</time>
      </trkpt>
      <trkpt lat="46.68123" lon="5.78374">
        <ele>510.3</ele>
        <time>2021-09-07T11:50:08Z</time>
      </trkpt>
      <trkpt lat="46.68121" lon="5.78381">
        <ele>510.9</ele>
        <time>2021-09-07T11:50:12Z</time>
      </trkpt>
      <trkpt lat="46.6812" lon="5.78389">
        <ele>511.9</ele>
        <time>2021-09-07T11:50:16Z</time>
      </trkpt>
      <trkpt lat="46.68118" lon="5.78396">
        <ele>512.8</ele>
        <time>2021-09-07T11:50:21Z</time>
      </trkpt>
      <trkpt lat="46.68117" lon="5.78403">
        <ele>513.6</ele>
        <time>2021-09-07T11:50:26Z</time>
      </trkpt>
      <trkpt lat="46.68116" lon="5.7841">
        <ele>514.5</ele>
        <time>2021-09-07T11:50:31Z</time>
      </trkpt>
      <trkpt lat="46.68116" lon="5.78418">
        <ele>515.2</ele>
        <time>2021-09-07T11:50:36Z</time>
      </trkpt>
      <trkpt lat="46.68114" lon="5.78425">
        <ele>515.6</ele>
        <time>2021-09-07T11:50:41Z</time>
      </trkpt>
      <trkpt lat="46.68113" lon="5.78432">
        <ele>515.6</ele>
        <time>2021-09-07T11:50:46Z</time>
      </trkpt>
      <trkpt lat="46.68111" lon="5.78438">
        <ele>515.2</ele>
        <time>2021-09-07T11:50:51Z</time>
      </trkpt>
      <trkpt lat="46.6811" lon="5.78445">
        <ele>514.9</ele>
        <time>2021-09-07T11:50:55Z</time>
      </trkpt>
      <trkpt lat="46.68109" lon="5.78451">
        <ele>514.8</ele>
        <time>2021-09-07T11:50:59Z</time>
      </trkpt>
      <trkpt lat="46.68107" lon="5.78458">
        <ele>514.6</ele>
        <time>2021-09-07T11:51:04Z</time>
      </trkpt>
      <trkpt lat="46.68106" lon="5.78466">
        <ele>514.4</ele>
        <time>2021-09-07T11:51:08Z</time>
      </trkpt>
      <trkpt lat="46.68105" lon="5.78473">
        <ele>514.1</ele>
        <time>2021-09-07T11:51:12Z</time>
      </trkpt>
      <trkpt lat="46.68104" lon="5.78481">
        <ele>513.7</ele>
        <time>2021-09-07T11:51:17Z</time>
      </trkpt>
      <trkpt lat="46.68103" lon="5.78488">
        <ele>513.4</ele>
        <time>2021-09-07T11:51:22Z</time>
      </trkpt>
      <trkpt lat="46.68103" lon="5.78495">
        <ele>513.3</ele>
        <time>2021-09-07T11:51:26Z</time>
      </trkpt>
      <trkpt lat="46.68102" lon="5.78503">
        <ele>512.9</ele>
        <time>2021-09-07T11:51:31Z</time>
      </trkpt>
      <trkpt lat="46.68102" lon="5.7851">
        <ele>512.2</ele>
        <time>2021-09-07T11:51:35Z</time>
      </trkpt>
      <trkpt lat="46.68102" lon="5.78517">
        <ele>511.4</ele>
        <time>2021-09-07T11:51:40Z</time>
      </trkpt>
      <trkpt lat="46.68101" lon="5.78524">
        <ele>510.8</ele>
        <time>2021-09-07T11:51:45Z</time>
      </trkpt>
      <trkpt lat="46.681" lon="5.78532">
        <ele>510.2</ele>
        <time>2021-09-07T11:51:50Z</time>
      </trkpt>
      <trkpt lat="46.68101" lon="5.78538">
        <ele>509.7</ele>
        <time>2021-09-07T11:51:56Z</time>
      </trkpt>
      <trkpt lat="46.68102" lon="5.78545">
        <ele>509.3</ele>
        <time>2021-09-07T11:52:02Z</time>
      </trkpt>
      <trkpt lat="46.68102" lon="5.78552">
        <ele>509.3</ele>
        <time>2021-09-07T11:52:06Z</time>
      </trkpt>
      <trkpt lat="46.68102" lon="5.78559">
        <ele>509.2</ele>
        <time>2021-09-07T11:52:10Z</time>
      </trkpt>
      <trkpt lat="46.68102" lon="5.78566">
        <ele>508.9</ele>
        <time>2021-09-07T11:52:14Z</time>
      </trkpt>
      <trkpt lat="46.68102" lon="5.78573">
        <ele>508.3</ele>
        <time>2021-09-07T11:52:20Z</time>
      </trkpt>
      <trkpt lat="46.68101" lon="5.7858">
        <ele>509.6</ele>
        <time>2021-09-07T11:52:34Z</time>
      </trkpt>
      <trkpt lat="46.681" lon="5.78587">
        <ele>510.2</ele>
        <time>2021-09-07T11:52:41Z</time>
      </trkpt>
      <trkpt lat="46.681" lon="5.78594">
        <ele>510</ele>
        <time>2021-09-07T11:52:47Z</time>
      </trkpt>
      <trkpt lat="46.68101" lon="5.78601">
        <ele>509.7</ele>
        <time>2021-09-07T11:52:52Z</time>
      </trkpt>
      <trkpt lat="46.681" lon="5.78609">
        <ele>509</ele>
        <time>2021-09-07T11:52:57Z</time>
      </trkpt>
      <trkpt lat="46.68097" lon="5.78615">
        <ele>508.1</ele>
        <time>2021-09-07T11:53:02Z</time>
      </trkpt>
      <trkpt lat="46.68094" lon="5.7862">
        <ele>506.9</ele>
        <time>2021-09-07T11:53:09Z</time>
      </trkpt>
      <trkpt lat="46.68092" lon="5.78626">
        <ele>506.4</ele>
        <time>2021-09-07T11:53:14Z</time>
      </trkpt>
      <trkpt lat="46.6809" lon="5.78633">
        <ele>506.6</ele>
        <time>2021-09-07T11:53:19Z</time>
      </trkpt>
      <trkpt lat="46.68088" lon="5.78639">
        <ele>507.2</ele>
        <time>2021-09-07T11:53:27Z</time>
      </trkpt>
      <trkpt lat="46.68086" lon="5.78647">
        <ele>507.6</ele>
        <time>2021-09-07T11:53:33Z</time>
      </trkpt>
      <trkpt lat="46.68084" lon="5.78652">
        <ele>507.9</ele>
        <time>2021-09-07T11:53:37Z</time>
      </trkpt>
      <trkpt lat="46.68081" lon="5.78659">
        <ele>508.2</ele>
        <time>2021-09-07T11:53:42Z</time>
      </trkpt>
      <trkpt lat="46.68081" lon="5.78666">
        <ele>508.2</ele>
        <time>2021-09-07T11:53:47Z</time>
      </trkpt>
      <trkpt lat="46.68079" lon="5.78672">
        <ele>507.9</ele>
        <time>2021-09-07T11:53:52Z</time>
      </trkpt>
      <trkpt lat="46.68076" lon="5.78679">
        <ele>507.5</ele>
        <time>2021-09-07T11:53:57Z</time>
      </trkpt>
      <trkpt lat="46.68074" lon="5.78685">
        <ele>507.1</ele>
        <time>2021-09-07T11:54:02Z</time>
      </trkpt>
      <trkpt lat="46.68073" lon="5.78692">
        <ele>506.4</ele>
        <time>2021-09-07T11:54:09Z</time>
      </trkpt>
      <trkpt lat="46.6807" lon="5.78699">
        <ele>505.6</ele>
        <time>2021-09-07T11:54:17Z</time>
      </trkpt>
      <trkpt lat="46.68069" lon="5.78706">
        <ele>505.2</ele>
        <time>2021-09-07T11:54:22Z</time>
      </trkpt>
      <trkpt lat="46.68067" lon="5.78713">
        <ele>504.2</ele>
        <time>2021-09-07T11:54:29Z</time>
      </trkpt>
      <trkpt lat="46.68067" lon="5.78719">
        <ele>503.4</ele>
        <time>2021-09-07T11:54:35Z</time>
      </trkpt>
      <trkpt lat="46.68066" lon="5.78726">
        <ele>502.8</ele>
        <time>2021-09-07T11:54:40Z</time>
      </trkpt>
      <trkpt lat="46.68065" lon="5.78733">
        <ele>502.3</ele>
        <time>2021-09-07T11:54:44Z</time>
      </trkpt>
      <trkpt lat="46.68065" lon="5.7874">
        <ele>501.8</ele>
        <time>2021-09-07T11:54:49Z</time>
      </trkpt>
      <trkpt lat="46.68064" lon="5.78748">
        <ele>501</ele>
        <time>2021-09-07T11:54:55Z</time>
      </trkpt>
      <trkpt lat="46.68063" lon="5.78756">
        <ele>500.5</ele>
        <time>2021-09-07T11:54:59Z</time>
      </trkpt>
      <trkpt lat="46.68061" lon="5.78763">
        <ele>500.1</ele>
        <time>2021-09-07T11:55:02Z</time>
      </trkpt>
      <trkpt lat="46.68061" lon="5.78771">
        <ele>499.8</ele>
        <time>2021-09-07T11:55:06Z</time>
      </trkpt>
      <trkpt lat="46.68063" lon="5.78777">
        <ele>499.1</ele>
        <time>2021-09-07T11:55:11Z</time>
      </trkpt>
      <trkpt lat="46.68064" lon="5.78784">
        <ele>499</ele>
        <time>2021-09-07T11:55:16Z</time>
      </trkpt>
      <trkpt lat="46.68066" lon="5.78792">
        <ele>498.8</ele>
        <time>2021-09-07T11:55:21Z</time>
      </trkpt>
      <trkpt lat="46.68067" lon="5.78799">
        <ele>498.4</ele>
        <time>2021-09-07T11:55:27Z</time>
      </trkpt>
      <trkpt lat="46.68068" lon="5.78807">
        <ele>498.3</ele>
        <time>2021-09-07T11:55:32Z</time>
      </trkpt>
      <trkpt lat="46.68069" lon="5.78814">
        <ele>498.5</ele>
        <time>2021-09-07T11:55:36Z</time>
      </trkpt>
      <trkpt lat="46.68068" lon="5.78821">
        <ele>498.7</ele>
        <time>2021-09-07T11:55:40Z</time>
      </trkpt>
      <trkpt lat="46.68068" lon="5.78828">
        <ele>498.3</ele>
        <time>2021-09-07T11:55:46Z</time>
      </trkpt>
      <trkpt lat="46.68069" lon="5.78835">
        <ele>498.3</ele>
        <time>2021-09-07T11:55:51Z</time>
      </trkpt>
      <trkpt lat="46.6807" lon="5.78842">
        <ele>498.4</ele>
        <time>2021-09-07T11:55:56Z</time>
      </trkpt>
      <trkpt lat="46.68074" lon="5.78848">
        <ele>497.9</ele>
        <time>2021-09-07T11:56:00Z</time>
      </trkpt>
      <trkpt lat="46.68075" lon="5.78855">
        <ele>497.5</ele>
        <time>2021-09-07T11:56:04Z</time>
      </trkpt>
      <trkpt lat="46.68075" lon="5.78862">
        <ele>496.8</ele>
        <time>2021-09-07T11:56:09Z</time>
      </trkpt>
      <trkpt lat="46.68075" lon="5.78869">
        <ele>496.4</ele>
        <time>2021-09-07T11:56:13Z</time>
      </trkpt>
      <trkpt lat="46.68075" lon="5.78877">
        <ele>495.5</ele>
        <time>2021-09-07T11:56:18Z</time>
      </trkpt>
      <trkpt lat="46.68076" lon="5.78883">
        <ele>494.7</ele>
        <time>2021-09-07T11:56:23Z</time>
      </trkpt>
      <trkpt lat="46.68078" lon="5.7889">
        <ele>493.4</ele>
        <time>2021-09-07T11:56:30Z</time>
      </trkpt>
      <trkpt lat="46.6808" lon="5.78896">
        <ele>492.3</ele>
        <time>2021-09-07T11:56:36Z</time>
      </trkpt>
      <trkpt lat="46.68081" lon="5.78903">
        <ele>491.9</ele>
        <time>2021-09-07T11:56:40Z</time>
      </trkpt>
      <trkpt lat="46.68082" lon="5.78909">
        <ele>491.6</ele>
        <time>2021-09-07T11:56:45Z</time>
      </trkpt>
      <trkpt lat="46.68083" lon="5.78916">
        <ele>491.4</ele>
        <time>2021-09-07T11:56:50Z</time>
      </trkpt>
      <trkpt lat="46.68082" lon="5.78923">
        <ele>491.4</ele>
        <time>2021-09-07T11:56:55Z</time>
      </trkpt>
      <trkpt lat="46.68082" lon="5.78931">
        <ele>491.5</ele>
        <time>2021-09-07T11:56:59Z</time>
      </trkpt>
      <trkpt lat="46.68083" lon="5.78938">
        <ele>491.7</ele>
        <time>2021-09-07T11:57:03Z</time>
      </trkpt>
      <trkpt lat="46.68082" lon="5.78945">
        <ele>491.9</ele>
        <time>2021-09-07T11:57:08Z</time>
      </trkpt>
      <trkpt lat="46.6808" lon="5.78952">
        <ele>492.1</ele>
        <time>2021-09-07T11:57:13Z</time>
      </trkpt>
      <trkpt lat="46.68078" lon="5.78958">
        <ele>492.2</ele>
        <time>2021-09-07T11:57:18Z</time>
      </trkpt>
      <trkpt lat="46.68074" lon="5.78963">
        <ele>492.2</ele>
        <time>2021-09-07T11:57:23Z</time>
      </trkpt>
      <trkpt lat="46.68071" lon="5.78969">
        <ele>492.1</ele>
        <time>2021-09-07T11:57:27Z</time>
      </trkpt>
      <trkpt lat="46.68068" lon="5.78975">
        <ele>492.1</ele>
        <time>2021-09-07T11:57:32Z</time>
      </trkpt>
      <trkpt lat="46.68065" lon="5.7898">
        <ele>491.9</ele>
        <time>2021-09-07T11:57:38Z</time>
      </trkpt>
      <trkpt lat="46.6806" lon="5.78985">
        <ele>491.3</ele>
        <time>2021-09-07T11:57:43Z</time>
      </trkpt>
      <trkpt lat="46.68057" lon="5.78989">
        <ele>491</ele>
        <time>2021-09-07T11:57:47Z</time>
      </trkpt>
      <trkpt lat="46.68052" lon="5.78991">
        <ele>490.6</ele>
        <time>2021-09-07T11:57:53Z</time>
      </trkpt>
      <trkpt lat="46.68048" lon="5.78994">
        <ele>490.4</ele>
        <time>2021-09-07T11:57:59Z</time>
      </trkpt>
      <trkpt lat="46.68044" lon="5.79001">
        <ele>490.3</ele>
        <time>2021-09-07T11:58:04Z</time>
      </trkpt>
      <trkpt lat="46.68042" lon="5.79006">
        <ele>490</ele>
        <time>2021-09-07T11:58:09Z</time>
      </trkpt>
      <trkpt lat="46.6804" lon="5.79013">
        <ele>489.3</ele>
        <time>2021-09-07T11:58:15Z</time>
      </trkpt>
      <trkpt lat="46.68038" lon="5.79021">
        <ele>488.6</ele>
        <time>2021-09-07T11:58:20Z</time>
      </trkpt>
      <trkpt lat="46.68037" lon="5.79027">
        <ele>488.2</ele>
        <time>2021-09-07T11:58:24Z</time>
      </trkpt>
      <trkpt lat="46.68037" lon="5.79035">
        <ele>488</ele>
        <time>2021-09-07T11:58:29Z</time>
      </trkpt>
      <trkpt lat="46.68035" lon="5.79043">
        <ele>487.9</ele>
        <time>2021-09-07T11:58:34Z</time>
      </trkpt>
      <trkpt lat="46.68034" lon="5.79049">
        <ele>487.9</ele>
        <time>2021-09-07T11:58:38Z</time>
      </trkpt>
      <trkpt lat="46.68033" lon="5.79057">
        <ele>488.1</ele>
        <time>2021-09-07T11:58:42Z</time>
      </trkpt>
      <trkpt lat="46.68031" lon="5.79064">
        <ele>488.3</ele>
        <time>2021-09-07T11:58:46Z</time>
      </trkpt>
      <trkpt lat="46.68029" lon="5.7907">
        <ele>488.9</ele>
        <time>2021-09-07T11:58:52Z</time>
      </trkpt>
      <trkpt lat="46.68026" lon="5.79077">
        <ele>489.5</ele>
        <time>2021-09-07T11:58:57Z</time>
      </trkpt>
      <trkpt lat="46.68025" lon="5.79084">
        <ele>489.8</ele>
        <time>2021-09-07T11:59:02Z</time>
      </trkpt>
      <trkpt lat="46.68023" lon="5.79092">
        <ele>490.2</ele>
        <time>2021-09-07T11:59:07Z</time>
      </trkpt>
      <trkpt lat="46.68023" lon="5.79098">
        <ele>490.9</ele>
        <time>2021-09-07T11:59:13Z</time>
      </trkpt>
      <trkpt lat="46.68022" lon="5.79106">
        <ele>492.2</ele>
        <time>2021-09-07T11:59:19Z</time>
      </trkpt>
      <trkpt lat="46.6802" lon="5.79112">
        <ele>492.9</ele>
        <time>2021-09-07T11:59:24Z</time>
      </trkpt>
      <trkpt lat="46.68018" lon="5.79119">
        <ele>493.4</ele>
        <time>2021-09-07T11:59:29Z</time>
      </trkpt>
      <trkpt lat="46.68017" lon="5.79127">
        <ele>493.7</ele>
        <time>2021-09-07T11:59:35Z</time>
      </trkpt>
      <trkpt lat="46.68015" lon="5.79133">
        <ele>493.8</ele>
        <time>2021-09-07T11:59:39Z</time>
      </trkpt>
      <trkpt lat="46.68012" lon="5.7914">
        <ele>494.4</ele>
        <time>2021-09-07T11:59:44Z</time>
      </trkpt>
      <trkpt lat="46.6801" lon="5.79146">
        <ele>494.8</ele>
        <time>2021-09-07T11:59:49Z</time>
      </trkpt>
      <trkpt lat="46.68007" lon="5.79152">
        <ele>494.9</ele>
        <time>2021-09-07T11:59:54Z</time>
      </trkpt>
      <trkpt lat="46.68004" lon="5.79157">
        <ele>494.9</ele>
        <time>2021-09-07T11:59:59Z</time>
      </trkpt>
      <trkpt lat="46.68" lon="5.79162">
        <ele>495</ele>
        <time>2021-09-07T12:00:04Z</time>
      </trkpt>
      <trkpt lat="46.67997" lon="5.79167">
        <ele>495.1</ele>
        <time>2021-09-07T12:00:09Z</time>
      </trkpt>
      <trkpt lat="46.67995" lon="5.79173">
        <ele>495.3</ele>
        <time>2021-09-07T12:00:16Z</time>
      </trkpt>
      <trkpt lat="46.67992" lon="5.79181">
        <ele>495.6</ele>
        <time>2021-09-07T12:00:21Z</time>
      </trkpt>
      <trkpt lat="46.6799" lon="5.79187">
        <ele>495.8</ele>
        <time>2021-09-07T12:00:24Z</time>
      </trkpt>
      <trkpt lat="46.67987" lon="5.79192">
        <ele>496</ele>
        <time>2021-09-07T12:00:28Z</time>
      </trkpt>
      <trkpt lat="46.67984" lon="5.79198">
        <ele>496.4</ele>
        <time>2021-09-07T12:00:33Z</time>
      </trkpt>
      <trkpt lat="46.67981" lon="5.79204">
        <ele>497.1</ele>
        <time>2021-09-07T12:00:38Z</time>
      </trkpt>
      <trkpt lat="46.67978" lon="5.79209">
        <ele>498.4</ele>
        <time>2021-09-07T12:00:46Z</time>
      </trkpt>
      <trkpt lat="46.67973" lon="5.79213">
        <ele>499.6</ele>
        <time>2021-09-07T12:00:52Z</time>
      </trkpt>
      <trkpt lat="46.67969" lon="5.79215">
        <ele>500.3</ele>
        <time>2021-09-07T12:00:58Z</time>
      </trkpt>
      <trkpt lat="46.67964" lon="5.79217">
        <ele>500.7</ele>
        <time>2021-09-07T12:01:04Z</time>
      </trkpt>
      <trkpt lat="46.6796" lon="5.79221">
        <ele>501.3</ele>
        <time>2021-09-07T12:01:08Z</time>
      </trkpt>
      <trkpt lat="46.67955" lon="5.79223">
        <ele>501.8</ele>
        <time>2021-09-07T12:01:13Z</time>
      </trkpt>
      <trkpt lat="46.6795" lon="5.79224">
        <ele>502.6</ele>
        <time>2021-09-07T12:01:18Z</time>
      </trkpt>
      <trkpt lat="46.67946" lon="5.79227">
        <ele>503.5</ele>
        <time>2021-09-07T12:01:22Z</time>
      </trkpt>
      <trkpt lat="46.67941" lon="5.7923">
        <ele>505.1</ele>
        <time>2021-09-07T12:01:27Z</time>
      </trkpt>
      <trkpt lat="46.67936" lon="5.79233">
        <ele>507.5</ele>
        <time>2021-09-07T12:01:32Z</time>
      </trkpt>
      <trkpt lat="46.67931" lon="5.79236">
        <ele>509.8</ele>
        <time>2021-09-07T12:01:37Z</time>
      </trkpt>
      <trkpt lat="46.67927" lon="5.79238">
        <ele>511.7</ele>
        <time>2021-09-07T12:01:42Z</time>
      </trkpt>
      <trkpt lat="46.67922" lon="5.79239">
        <ele>514.2</ele>
        <time>2021-09-07T12:01:49Z</time>
      </trkpt>
      <trkpt lat="46.67917" lon="5.79242">
        <ele>515.9</ele>
        <time>2021-09-07T12:01:55Z</time>
      </trkpt>
      <trkpt lat="46.67913" lon="5.79245">
        <ele>517.9</ele>
        <time>2021-09-07T12:02:02Z</time>
      </trkpt>
      <trkpt lat="46.67908" lon="5.79248">
        <ele>519.6</ele>
        <time>2021-09-07T12:02:10Z</time>
      </trkpt>
      <trkpt lat="46.67905" lon="5.79252">
        <ele>520.4</ele>
        <time>2021-09-07T12:02:15Z</time>
      </trkpt>
      <trkpt lat="46.67901" lon="5.79256">
        <ele>521</ele>
        <time>2021-09-07T12:02:21Z</time>
      </trkpt>
      <trkpt lat="46.67898" lon="5.79261">
        <ele>521.1</ele>
        <time>2021-09-07T12:02:25Z</time>
      </trkpt>
      <trkpt lat="46.67895" lon="5.79266">
        <ele>521</ele>
        <time>2021-09-07T12:02:29Z</time>
      </trkpt>
      <trkpt lat="46.67891" lon="5.79271">
        <ele>521</ele>
        <time>2021-09-07T12:02:33Z</time>
      </trkpt>
      <trkpt lat="46.67886" lon="5.79276">
        <ele>521.4</ele>
        <time>2021-09-07T12:02:38Z</time>
      </trkpt>
      <trkpt lat="46.67883" lon="5.7928">
        <ele>521.9</ele>
        <time>2021-09-07T12:02:43Z</time>
      </trkpt>
      <trkpt lat="46.67878" lon="5.79283">
        <ele>522.4</ele>
        <time>2021-09-07T12:02:48Z</time>
      </trkpt>
      <trkpt lat="46.67874" lon="5.79286">
        <ele>522.8</ele>
        <time>2021-09-07T12:02:53Z</time>
      </trkpt>
      <trkpt lat="46.6787" lon="5.79289">
        <ele>522.8</ele>
        <time>2021-09-07T12:02:57Z</time>
      </trkpt>
      <trkpt lat="46.67865" lon="5.79292">
        <ele>522.4</ele>
        <time>2021-09-07T12:03:02Z</time>
      </trkpt>
      <trkpt lat="46.6786" lon="5.79295">
        <ele>522.2</ele>
        <time>2021-09-07T12:03:08Z</time>
      </trkpt>
      <trkpt lat="46.67856" lon="5.79299">
        <ele>521.8</ele>
        <time>2021-09-07T12:03:13Z</time>
      </trkpt>
      <trkpt lat="46.67851" lon="5.79303">
        <ele>521.5</ele>
        <time>2021-09-07T12:03:18Z</time>
      </trkpt>
      <trkpt lat="46.67847" lon="5.79306">
        <ele>521.4</ele>
        <time>2021-09-07T12:03:22Z</time>
      </trkpt>
      <trkpt lat="46.67842" lon="5.79308">
        <ele>521.6</ele>
        <time>2021-09-07T12:03:27Z</time>
      </trkpt>
      <trkpt lat="46.67837" lon="5.7931">
        <ele>522</ele>
        <time>2021-09-07T12:03:32Z</time>
      </trkpt>
      <trkpt lat="46.67832" lon="5.79311">
        <ele>522.2</ele>
        <time>2021-09-07T12:03:38Z</time>
      </trkpt>
      <trkpt lat="46.67827" lon="5.79312">
        <ele>522.2</ele>
        <time>2021-09-07T12:03:43Z</time>
      </trkpt>
      <trkpt lat="46.67822" lon="5.79312">
        <ele>522.2</ele>
        <time>2021-09-07T12:03:48Z</time>
      </trkpt>
      <trkpt lat="46.67817" lon="5.79312">
        <ele>522.1</ele>
        <time>2021-09-07T12:03:55Z</time>
      </trkpt>
      <trkpt lat="46.67812" lon="5.79311">
        <ele>521.4</ele>
        <time>2021-09-07T12:04:01Z</time>
      </trkpt>
      <trkpt lat="46.67807" lon="5.79311">
        <ele>520.3</ele>
        <time>2021-09-07T12:04:06Z</time>
      </trkpt>
      <trkpt lat="46.67802" lon="5.79309">
        <ele>519</ele>
        <time>2021-09-07T12:04:12Z</time>
      </trkpt>
      <trkpt lat="46.67797" lon="5.79308">
        <ele>518.4</ele>
        <time>2021-09-07T12:04:16Z</time>
      </trkpt>
      <trkpt lat="46.67792" lon="5.79308">
        <ele>517.9</ele>
        <time>2021-09-07T12:04:20Z</time>
      </trkpt>
      <trkpt lat="46.67787" lon="5.79309">
        <ele>517.5</ele>
        <time>2021-09-07T12:04:24Z</time>
      </trkpt>
      <trkpt lat="46.67782" lon="5.7931">
        <ele>516.7</ele>
        <time>2021-09-07T12:04:29Z</time>
      </trkpt>
      <trkpt lat="46.67776" lon="5.79311">
        <ele>516.2</ele>
        <time>2021-09-07T12:04:34Z</time>
      </trkpt>
      <trkpt lat="46.67771" lon="5.79311">
        <ele>515.9</ele>
        <time>2021-09-07T12:04:39Z</time>
      </trkpt>
      <trkpt lat="46.67767" lon="5.79314">
        <ele>515.3</ele>
        <time>2021-09-07T12:04:45Z</time>
      </trkpt>
      <trkpt lat="46.67762" lon="5.79316">
        <ele>514.4</ele>
        <time>2021-09-07T12:04:51Z</time>
      </trkpt>
      <trkpt lat="46.67757" lon="5.79319">
        <ele>513.7</ele>
        <time>2021-09-07T12:04:56Z</time>
      </trkpt>
      <trkpt lat="46.67753" lon="5.79323">
        <ele>513.3</ele>
        <time>2021-09-07T12:05:00Z</time>
      </trkpt>
      <trkpt lat="46.6775" lon="5.79327">
        <ele>513.3</ele>
        <time>2021-09-07T12:05:04Z</time>
      </trkpt>
      <trkpt lat="46.67744" lon="5.7933">
        <ele>513.1</ele>
        <time>2021-09-07T12:05:09Z</time>
      </trkpt>
      <trkpt lat="46.6774" lon="5.79331">
        <ele>513</ele>
        <time>2021-09-07T12:05:14Z</time>
      </trkpt>
      <trkpt lat="46.67734" lon="5.79332">
        <ele>512.9</ele>
        <time>2021-09-07T12:05:20Z</time>
      </trkpt>
      <trkpt lat="46.6773" lon="5.79334">
        <ele>512.7</ele>
        <time>2021-09-07T12:05:26Z</time>
      </trkpt>
      <trkpt lat="46.67725" lon="5.79332">
        <ele>512.8</ele>
        <time>2021-09-07T12:05:33Z</time>
      </trkpt>
      <trkpt lat="46.6772" lon="5.79331">
        <ele>513.1</ele>
        <time>2021-09-07T12:05:39Z</time>
      </trkpt>
      <trkpt lat="46.67716" lon="5.79327">
        <ele>515.5</ele>
        <time>2021-09-07T12:06:25Z</time>
      </trkpt>
      <trkpt lat="46.67713" lon="5.79322">
        <ele>516.8</ele>
        <time>2021-09-07T12:06:28Z</time>
      </trkpt>
      <trkpt lat="46.67709" lon="5.79318">
        <ele>518.2</ele>
        <time>2021-09-07T12:06:32Z</time>
      </trkpt>
      <trkpt lat="46.67704" lon="5.79313">
        <ele>519.3</ele>
        <time>2021-09-07T12:06:36Z</time>
      </trkpt>
      <trkpt lat="46.67701" lon="5.79308">
        <ele>520.1</ele>
        <time>2021-09-07T12:06:39Z</time>
      </trkpt>
      <trkpt lat="46.67698" lon="5.79303">
        <ele>521</ele>
        <time>2021-09-07T12:06:43Z</time>
      </trkpt>
      <trkpt lat="46.67694" lon="5.79298">
        <ele>522.7</ele>
        <time>2021-09-07T12:06:50Z</time>
      </trkpt>
      <trkpt lat="46.67691" lon="5.79292">
        <ele>523.5</ele>
        <time>2021-09-07T12:06:57Z</time>
      </trkpt>
      <trkpt lat="46.67687" lon="5.79289">
        <ele>524.3</ele>
        <time>2021-09-07T12:07:02Z</time>
      </trkpt>
      <trkpt lat="46.67683" lon="5.79286">
        <ele>524.9</ele>
        <time>2021-09-07T12:07:07Z</time>
      </trkpt>
      <trkpt lat="46.67678" lon="5.79283">
        <ele>525.4</ele>
        <time>2021-09-07T12:07:12Z</time>
      </trkpt>
      <trkpt lat="46.67673" lon="5.7928">
        <ele>525.6</ele>
        <time>2021-09-07T12:07:16Z</time>
      </trkpt>
      <trkpt lat="46.67668" lon="5.79278">
        <ele>525.8</ele>
        <time>2021-09-07T12:07:21Z</time>
      </trkpt>
      <trkpt lat="46.67663" lon="5.79278">
        <ele>525.8</ele>
        <time>2021-09-07T12:07:25Z</time>
      </trkpt>
      <trkpt lat="46.67658" lon="5.79278">
        <ele>525.6</ele>
        <time>2021-09-07T12:07:29Z</time>
      </trkpt>
      <trkpt lat="46.67653" lon="5.79278">
        <ele>525.6</ele>
        <time>2021-09-07T12:07:35Z</time>
      </trkpt>
      <trkpt lat="46.67649" lon="5.7928">
        <ele>525.8</ele>
        <time>2021-09-07T12:07:41Z</time>
      </trkpt>
      <trkpt lat="46.67644" lon="5.79282">
        <ele>525.7</ele>
        <time>2021-09-07T12:07:45Z</time>
      </trkpt>
      <trkpt lat="46.6764" lon="5.79284">
        <ele>525.4</ele>
        <time>2021-09-07T12:07:49Z</time>
      </trkpt>
      <trkpt lat="46.67635" lon="5.79285">
        <ele>525.1</ele>
        <time>2021-09-07T12:07:53Z</time>
      </trkpt>
      <trkpt lat="46.67631" lon="5.79287">
        <ele>525</ele>
        <time>2021-09-07T12:07:57Z</time>
      </trkpt>
      <trkpt lat="46.67625" lon="5.79288">
        <ele>524.7</ele>
        <time>2021-09-07T12:08:03Z</time>
      </trkpt>
      <trkpt lat="46.67621" lon="5.79291">
        <ele>524.8</ele>
        <time>2021-09-07T12:08:07Z</time>
      </trkpt>
      <trkpt lat="46.67616" lon="5.79295">
        <ele>525.3</ele>
        <time>2021-09-07T12:08:14Z</time>
      </trkpt>
      <trkpt lat="46.67612" lon="5.79299">
        <ele>525.7</ele>
        <time>2021-09-07T12:08:19Z</time>
      </trkpt>
      <trkpt lat="46.67609" lon="5.79303">
        <ele>525.9</ele>
        <time>2021-09-07T12:08:23Z</time>
      </trkpt>
      <trkpt lat="46.67605" lon="5.79308">
        <ele>526.2</ele>
        <time>2021-09-07T12:08:29Z</time>
      </trkpt>
      <trkpt lat="46.67602" lon="5.79313">
        <ele>526.3</ele>
        <time>2021-09-07T12:08:34Z</time>
      </trkpt>
      <trkpt lat="46.67599" lon="5.79319">
        <ele>526.2</ele>
        <time>2021-09-07T12:08:38Z</time>
      </trkpt>
      <trkpt lat="46.67597" lon="5.79326">
        <ele>526</ele>
        <time>2021-09-07T12:08:42Z</time>
      </trkpt>
      <trkpt lat="46.67595" lon="5.79333">
        <ele>525.8</ele>
        <time>2021-09-07T12:08:45Z</time>
      </trkpt>
      <trkpt lat="46.67591" lon="5.79339">
        <ele>525.3</ele>
        <time>2021-09-07T12:08:49Z</time>
      </trkpt>
      <trkpt lat="46.6759" lon="5.79346">
        <ele>524</ele>
        <time>2021-09-07T12:08:55Z</time>
      </trkpt>
      <trkpt lat="46.67587" lon="5.79351">
        <ele>523.1</ele>
        <time>2021-09-07T12:09:04Z</time>
      </trkpt>
      <trkpt lat="46.67585" lon="5.79359">
        <ele>520.9</ele>
        <time>2021-09-07T12:09:33Z</time>
      </trkpt>
      <trkpt lat="46.67584" lon="5.79365">
        <ele>519.8</ele>
        <time>2021-09-07T12:09:36Z</time>
      </trkpt>
      <trkpt lat="46.67582" lon="5.79372">
        <ele>518.1</ele>
        <time>2021-09-07T12:09:44Z</time>
      </trkpt>
      <trkpt lat="46.6758" lon="5.79379">
        <ele>517.9</ele>
        <time>2021-09-07T12:09:47Z</time>
      </trkpt>
      <trkpt lat="46.67578" lon="5.79385">
        <ele>517.6</ele>
        <time>2021-09-07T12:09:51Z</time>
      </trkpt>
      <trkpt lat="46.67576" lon="5.79392">
        <ele>517.4</ele>
        <time>2021-09-07T12:09:55Z</time>
      </trkpt>
      <trkpt lat="46.67575" lon="5.79398">
        <ele>517.3</ele>
        <time>2021-09-07T12:09:59Z</time>
      </trkpt>
      <trkpt lat="46.67573" lon="5.79406">
        <ele>517.4</ele>
        <time>2021-09-07T12:10:04Z</time>
      </trkpt>
      <trkpt lat="46.67571" lon="5.79412">
        <ele>517.7</ele>
        <time>2021-09-07T12:10:08Z</time>
      </trkpt>
      <trkpt lat="46.67569" lon="5.79419">
        <ele>518.6</ele>
        <time>2021-09-07T12:10:13Z</time>
      </trkpt>
      <trkpt lat="46.67568" lon="5.79427">
        <ele>519.5</ele>
        <time>2021-09-07T12:10:18Z</time>
      </trkpt>
      <trkpt lat="46.67567" lon="5.79435">
        <ele>520.3</ele>
        <time>2021-09-07T12:10:24Z</time>
      </trkpt>
      <trkpt lat="46.67566" lon="5.79441">
        <ele>521</ele>
        <time>2021-09-07T12:10:29Z</time>
      </trkpt>
      <trkpt lat="46.67568" lon="5.79448">
        <ele>521.9</ele>
        <time>2021-09-07T12:10:35Z</time>
      </trkpt>
      <trkpt lat="46.67567" lon="5.79456">
        <ele>522.6</ele>
        <time>2021-09-07T12:10:42Z</time>
      </trkpt>
      <trkpt lat="46.67565" lon="5.79462">
        <ele>523</ele>
        <time>2021-09-07T12:10:47Z</time>
      </trkpt>
      <trkpt lat="46.67562" lon="5.79468">
        <ele>523.2</ele>
        <time>2021-09-07T12:10:53Z</time>
      </trkpt>
      <trkpt lat="46.67559" lon="5.79473">
        <ele>524.2</ele>
        <time>2021-09-07T12:10:59Z</time>
      </trkpt>
      <trkpt lat="46.67559" lon="5.7948">
        <ele>526</ele>
        <time>2021-09-07T12:11:13Z</time>
      </trkpt>
      <trkpt lat="46.67557" lon="5.79488">
        <ele>526.8</ele>
        <time>2021-09-07T12:11:20Z</time>
      </trkpt>
      <trkpt lat="46.67562" lon="5.79492">
        <ele>528.5</ele>
        <time>2021-09-07T12:11:47Z</time>
      </trkpt>
      <trkpt lat="46.67562" lon="5.795">
        <ele>532.4</ele>
        <time>2021-09-07T12:12:06Z</time>
      </trkpt>
      <trkpt lat="46.67561" lon="5.79509">
        <ele>533</ele>
        <time>2021-09-07T12:12:09Z</time>
      </trkpt>
      <trkpt lat="46.67558" lon="5.79516">
        <ele>533.9</ele>
        <time>2021-09-07T12:12:13Z</time>
      </trkpt>
      <trkpt lat="46.67559" lon="5.79524">
        <ele>535</ele>
        <time>2021-09-07T12:12:22Z</time>
      </trkpt>
      <trkpt lat="46.67561" lon="5.79531">
        <ele>535.4</ele>
        <time>2021-09-07T12:12:27Z</time>
      </trkpt>
      <trkpt lat="46.67564" lon="5.79538">
        <ele>535.9</ele>
        <time>2021-09-07T12:12:33Z</time>
      </trkpt>
      <trkpt lat="46.67564" lon="5.79545">
        <ele>536.8</ele>
        <time>2021-09-07T12:12:40Z</time>
      </trkpt>
      <trkpt lat="46.67564" lon="5.79552">
        <ele>539.2</ele>
        <time>2021-09-07T12:12:49Z</time>
      </trkpt>
      <trkpt lat="46.67565" lon="5.79559">
        <ele>540.9</ele>
        <time>2021-09-07T12:12:57Z</time>
      </trkpt>
      <trkpt lat="46.67566" lon="5.79566">
        <ele>541.9</ele>
        <time>2021-09-07T12:13:03Z</time>
      </trkpt>
      <trkpt lat="46.67567" lon="5.79573">
        <ele>542.8</ele>
        <time>2021-09-07T12:13:09Z</time>
      </trkpt>
      <trkpt lat="46.67568" lon="5.79579">
        <ele>543.6</ele>
        <time>2021-09-07T12:13:15Z</time>
      </trkpt>
      <trkpt lat="46.6757" lon="5.79587">
        <ele>544.7</ele>
        <time>2021-09-07T12:13:28Z</time>
      </trkpt>
      <trkpt lat="46.67573" lon="5.79592">
        <ele>545.3</ele>
        <time>2021-09-07T12:13:34Z</time>
      </trkpt>
      <trkpt lat="46.67575" lon="5.79599">
        <ele>546.2</ele>
        <time>2021-09-07T12:13:45Z</time>
      </trkpt>
      <trkpt lat="46.67575" lon="5.79607">
        <ele>547.9</ele>
        <time>2021-09-07T12:13:57Z</time>
      </trkpt>
      <trkpt lat="46.67576" lon="5.79614">
        <ele>548.1</ele>
        <time>2021-09-07T12:14:04Z</time>
      </trkpt>
      <trkpt lat="46.67578" lon="5.7962">
        <ele>547.9</ele>
        <time>2021-09-07T12:14:10Z</time>
      </trkpt>
      <trkpt lat="46.67581" lon="5.79625">
        <ele>548.8</ele>
        <time>2021-09-07T12:14:19Z</time>
      </trkpt>
      <trkpt lat="46.67584" lon="5.7963">
        <ele>549.4</ele>
        <time>2021-09-07T12:14:24Z</time>
      </trkpt>
      <trkpt lat="46.67587" lon="5.79637">
        <ele>550</ele>
        <time>2021-09-07T12:14:31Z</time>
      </trkpt>
      <trkpt lat="46.67591" lon="5.79641">
        <ele>551.5</ele>
        <time>2021-09-07T12:14:35Z</time>
      </trkpt>
      <trkpt lat="46.67595" lon="5.79646">
        <ele>553.5</ele>
        <time>2021-09-07T12:14:41Z</time>
      </trkpt>
      <trkpt lat="46.67596" lon="5.79652">
        <ele>555</ele>
        <time>2021-09-07T12:14:48Z</time>
      </trkpt>
      <trkpt lat="46.67599" lon="5.79657">
        <ele>555.4</ele>
        <time>2021-09-07T12:14:56Z</time>
      </trkpt>
      <trkpt lat="46.67603" lon="5.79661">
        <ele>555.7</ele>
        <time>2021-09-07T12:15:03Z</time>
      </trkpt>
      <trkpt lat="46.67607" lon="5.79666">
        <ele>556.3</ele>
        <time>2021-09-07T12:15:09Z</time>
      </trkpt>
      <trkpt lat="46.67611" lon="5.79671">
        <ele>557.8</ele>
        <time>2021-09-07T12:15:14Z</time>
      </trkpt>
      <trkpt lat="46.67606" lon="5.79677">
        <ele>561.5</ele>
        <time>2021-09-07T12:16:50Z</time>
      </trkpt>
      <trkpt lat="46.67602" lon="5.79679">
        <ele>560.7</ele>
        <time>2021-09-07T12:16:54Z</time>
      </trkpt>
      <trkpt lat="46.67606" lon="5.79686">
        <ele>559.5</ele>
        <time>2021-09-07T12:17:18Z</time>
      </trkpt>
      <trkpt lat="46.6761" lon="5.7969">
        <ele>559.7</ele>
        <time>2021-09-07T12:17:22Z</time>
      </trkpt>
      <trkpt lat="46.67614" lon="5.79695">
        <ele>560.2</ele>
        <time>2021-09-07T12:17:28Z</time>
      </trkpt>
      <trkpt lat="46.67618" lon="5.79699">
        <ele>561</ele>
        <time>2021-09-07T12:17:33Z</time>
      </trkpt>
      <trkpt lat="46.6762" lon="5.79706">
        <ele>561.9</ele>
        <time>2021-09-07T12:17:40Z</time>
      </trkpt>
      <trkpt lat="46.67617" lon="5.79712">
        <ele>562.1</ele>
        <time>2021-09-07T12:17:45Z</time>
      </trkpt>
      <trkpt lat="46.67619" lon="5.79718">
        <ele>563</ele>
        <time>2021-09-07T12:17:53Z</time>
      </trkpt>
      <trkpt lat="46.6762" lon="5.79725">
        <ele>564.7</ele>
        <time>2021-09-07T12:17:59Z</time>
      </trkpt>
      <trkpt lat="46.67625" lon="5.79729">
        <ele>568.5</ele>
        <time>2021-09-07T12:18:23Z</time>
      </trkpt>
      <trkpt lat="46.67627" lon="5.79735">
        <ele>570.6</ele>
        <time>2021-09-07T12:18:30Z</time>
      </trkpt>
      <trkpt lat="46.67628" lon="5.79743">
        <ele>572.2</ele>
        <time>2021-09-07T12:18:40Z</time>
      </trkpt>
      <trkpt lat="46.67629" lon="5.7975">
        <ele>573</ele>
        <time>2021-09-07T12:18:47Z</time>
      </trkpt>
      <trkpt lat="46.6763" lon="5.79756">
        <ele>573.2</ele>
        <time>2021-09-07T12:18:54Z</time>
      </trkpt>
      <trkpt lat="46.67631" lon="5.79763">
        <ele>572.5</ele>
        <time>2021-09-07T12:19:01Z</time>
      </trkpt>
      <trkpt lat="46.67635" lon="5.79769">
        <ele>572.5</ele>
        <time>2021-09-07T12:19:06Z</time>
      </trkpt>
      <trkpt lat="46.67639" lon="5.79773">
        <ele>572.7</ele>
        <time>2021-09-07T12:19:11Z</time>
      </trkpt>
      <trkpt lat="46.67644" lon="5.79771">
        <ele>574.6</ele>
        <time>2021-09-07T12:19:19Z</time>
      </trkpt>
      <trkpt lat="46.67646" lon="5.79778">
        <ele>576.8</ele>
        <time>2021-09-07T12:19:46Z</time>
      </trkpt>
      <trkpt lat="46.6765" lon="5.79783">
        <ele>577.6</ele>
        <time>2021-09-07T12:19:50Z</time>
      </trkpt>
      <trkpt lat="46.67652" lon="5.79789">
        <ele>578.9</ele>
        <time>2021-09-07T12:19:55Z</time>
      </trkpt>
      <trkpt lat="46.67655" lon="5.79794">
        <ele>580.4</ele>
        <time>2021-09-07T12:20:01Z</time>
      </trkpt>
      <trkpt lat="46.67656" lon="5.79801">
        <ele>582</ele>
        <time>2021-09-07T12:20:08Z</time>
      </trkpt>
      <trkpt lat="46.67659" lon="5.79808">
        <ele>583.7</ele>
        <time>2021-09-07T12:20:17Z</time>
      </trkpt>
      <trkpt lat="46.67659" lon="5.79816">
        <ele>584.6</ele>
        <time>2021-09-07T12:20:23Z</time>
      </trkpt>
      <trkpt lat="46.67656" lon="5.79822">
        <ele>584.5</ele>
        <time>2021-09-07T12:20:28Z</time>
      </trkpt>
      <trkpt lat="46.67656" lon="5.79829">
        <ele>584.3</ele>
        <time>2021-09-07T12:20:35Z</time>
      </trkpt>
      <trkpt lat="46.67657" lon="5.79836">
        <ele>584.9</ele>
        <time>2021-09-07T12:20:42Z</time>
      </trkpt>
      <trkpt lat="46.67659" lon="5.79849">
        <ele>589</ele>
        <time>2021-09-07T12:22:03Z</time>
      </trkpt>
      <trkpt lat="46.67661" lon="5.79855">
        <ele>590.7</ele>
        <time>2021-09-07T12:22:06Z</time>
      </trkpt>
      <trkpt lat="46.67662" lon="5.79862">
        <ele>594.2</ele>
        <time>2021-09-07T12:22:15Z</time>
      </trkpt>
      <trkpt lat="46.67662" lon="5.79868">
        <ele>597.8</ele>
        <time>2021-09-07T12:22:32Z</time>
      </trkpt>
      <trkpt lat="46.67663" lon="5.79876">
        <ele>598.3</ele>
        <time>2021-09-07T12:22:39Z</time>
      </trkpt>
      <trkpt lat="46.67663" lon="5.79883">
        <ele>598.7</ele>
        <time>2021-09-07T12:22:46Z</time>
      </trkpt>
      <trkpt lat="46.67661" lon="5.79889">
        <ele>599.3</ele>
        <time>2021-09-07T12:22:52Z</time>
      </trkpt>
      <trkpt lat="46.6766" lon="5.79896">
        <ele>599.8</ele>
        <time>2021-09-07T12:22:57Z</time>
      </trkpt>
      <trkpt lat="46.6766" lon="5.79903">
        <ele>600.2</ele>
        <time>2021-09-07T12:23:01Z</time>
      </trkpt>
      <trkpt lat="46.6766" lon="5.7991">
        <ele>600.2</ele>
        <time>2021-09-07T12:23:05Z</time>
      </trkpt>
      <trkpt lat="46.67657" lon="5.79915">
        <ele>599.5</ele>
        <time>2021-09-07T12:23:21Z</time>
      </trkpt>
      <trkpt lat="46.67652" lon="5.79917">
        <ele>599.5</ele>
        <time>2021-09-07T12:23:27Z</time>
      </trkpt>
      <trkpt lat="46.67648" lon="5.79916">
        <ele>599.7</ele>
        <time>2021-09-07T12:23:33Z</time>
      </trkpt>
      <trkpt lat="46.67645" lon="5.79909">
        <ele>599.1</ele>
        <time>2021-09-07T12:23:59Z</time>
      </trkpt>
      <trkpt lat="46.67642" lon="5.79903">
        <ele>600.1</ele>
        <time>2021-09-07T12:24:03Z</time>
      </trkpt>
      <trkpt lat="46.6764" lon="5.79897">
        <ele>601</ele>
        <time>2021-09-07T12:24:10Z</time>
      </trkpt>
      <trkpt lat="46.6764" lon="5.7989">
        <ele>603.3</ele>
        <time>2021-09-07T12:24:47Z</time>
      </trkpt>
      <trkpt lat="46.67636" lon="5.79886">
        <ele>603.5</ele>
        <time>2021-09-07T12:24:52Z</time>
      </trkpt>
      <trkpt lat="46.67633" lon="5.79881">
        <ele>603.2</ele>
        <time>2021-09-07T12:24:57Z</time>
      </trkpt>
      <trkpt lat="46.67629" lon="5.79876">
        <ele>602.6</ele>
        <time>2021-09-07T12:25:02Z</time>
      </trkpt>
      <trkpt lat="46.67625" lon="5.79872">
        <ele>600.9</ele>
        <time>2021-09-07T12:25:08Z</time>
      </trkpt>
      <trkpt lat="46.67626" lon="5.79879">
        <ele>599.6</ele>
        <time>2021-09-07T12:25:22Z</time>
      </trkpt>
      <trkpt lat="46.67629" lon="5.79883">
        <ele>598.6</ele>
        <time>2021-09-07T12:25:29Z</time>
      </trkpt>
      <trkpt lat="46.67633" lon="5.79889">
        <ele>597.8</ele>
        <time>2021-09-07T12:25:33Z</time>
      </trkpt>
      <trkpt lat="46.67636" lon="5.79895">
        <ele>597.4</ele>
        <time>2021-09-07T12:25:37Z</time>
      </trkpt>
      <trkpt lat="46.67639" lon="5.799">
        <ele>597.1</ele>
        <time>2021-09-07T12:25:41Z</time>
      </trkpt>
      <trkpt lat="46.67643" lon="5.79905">
        <ele>597</ele>
        <time>2021-09-07T12:25:45Z</time>
      </trkpt>
      <trkpt lat="46.67645" lon="5.79911">
        <ele>597.3</ele>
        <time>2021-09-07T12:25:49Z</time>
      </trkpt>
      <trkpt lat="46.67648" lon="5.79917">
        <ele>598.4</ele>
        <time>2021-09-07T12:25:55Z</time>
      </trkpt>
      <trkpt lat="46.67653" lon="5.7992">
        <ele>600.2</ele>
        <time>2021-09-07T12:26:02Z</time>
      </trkpt>
      <trkpt lat="46.67658" lon="5.79918">
        <ele>601</ele>
        <time>2021-09-07T12:26:07Z</time>
      </trkpt>
      <trkpt lat="46.67663" lon="5.79915">
        <ele>602.1</ele>
        <time>2021-09-07T12:26:14Z</time>
      </trkpt>
      <trkpt lat="46.67658" lon="5.79915">
        <ele>602.5</ele>
        <time>2021-09-07T12:26:33Z</time>
      </trkpt>
      <trkpt lat="46.67653" lon="5.79915">
        <ele>602.3</ele>
        <time>2021-09-07T12:26:39Z</time>
      </trkpt>
      <trkpt lat="46.67649" lon="5.79918">
        <ele>602.9</ele>
        <time>2021-09-07T12:26:45Z</time>
      </trkpt>
      <trkpt lat="46.67648" lon="5.79925">
        <ele>603</ele>
        <time>2021-09-07T12:26:51Z</time>
      </trkpt>
      <trkpt lat="46.67644" lon="5.79929">
        <ele>602.9</ele>
        <time>2021-09-07T12:26:57Z</time>
      </trkpt>
      <trkpt lat="46.67639" lon="5.79932">
        <ele>602.9</ele>
        <time>2021-09-07T12:27:03Z</time>
      </trkpt>
      <trkpt lat="46.67635" lon="5.79937">
        <ele>602.8</ele>
        <time>2021-09-07T12:27:08Z</time>
      </trkpt>
      <trkpt lat="46.6763" lon="5.79938">
        <ele>602.7</ele>
        <time>2021-09-07T12:27:14Z</time>
      </trkpt>
      <trkpt lat="46.67625" lon="5.7994">
        <ele>602.5</ele>
        <time>2021-09-07T12:27:18Z</time>
      </trkpt>
      <trkpt lat="46.6762" lon="5.79941">
        <ele>602.2</ele>
        <time>2021-09-07T12:27:22Z</time>
      </trkpt>
      <trkpt lat="46.67616" lon="5.79944">
        <ele>601.7</ele>
        <time>2021-09-07T12:27:28Z</time>
      </trkpt>
      <trkpt lat="46.67611" lon="5.79946">
        <ele>601.6</ele>
        <time>2021-09-07T12:27:35Z</time>
      </trkpt>
      <trkpt lat="46.67607" lon="5.79947">
        <ele>601.7</ele>
        <time>2021-09-07T12:27:41Z</time>
      </trkpt>
      <trkpt lat="46.67602" lon="5.7995">
        <ele>602</ele>
        <time>2021-09-07T12:27:46Z</time>
      </trkpt>
      <trkpt lat="46.67598" lon="5.79956">
        <ele>602.3</ele>
        <time>2021-09-07T12:27:49Z</time>
      </trkpt>
      <trkpt lat="46.67594" lon="5.79962">
        <ele>602.7</ele>
        <time>2021-09-07T12:27:52Z</time>
      </trkpt>
      <trkpt lat="46.6759" lon="5.79968">
        <ele>603.3</ele>
        <time>2021-09-07T12:27:56Z</time>
      </trkpt>
      <trkpt lat="46.67587" lon="5.79973">
        <ele>604.3</ele>
        <time>2021-09-07T12:28:01Z</time>
      </trkpt>
      <trkpt lat="46.67583" lon="5.79977">
        <ele>605.2</ele>
        <time>2021-09-07T12:28:09Z</time>
      </trkpt>
      <trkpt lat="46.67579" lon="5.79981">
        <ele>606</ele>
        <time>2021-09-07T12:28:15Z</time>
      </trkpt>
      <trkpt lat="46.67574" lon="5.79989">
        <ele>607.9</ele>
        <time>2021-09-07T12:28:39Z</time>
      </trkpt>
      <trkpt lat="46.67571" lon="5.79995">
        <ele>608.6</ele>
        <time>2021-09-07T12:28:42Z</time>
      </trkpt>
      <trkpt lat="46.67568" lon="5.80005">
        <ele>610.4</ele>
        <time>2021-09-07T12:28:58Z</time>
      </trkpt>
      <trkpt lat="46.67565" lon="5.80015">
        <ele>610.7</ele>
        <time>2021-09-07T12:29:01Z</time>
      </trkpt>
      <trkpt lat="46.67562" lon="5.80025">
        <ele>610.9</ele>
        <time>2021-09-07T12:29:04Z</time>
      </trkpt>
      <trkpt lat="46.67559" lon="5.80031">
        <ele>610.9</ele>
        <time>2021-09-07T12:29:07Z</time>
      </trkpt>
      <trkpt lat="46.67556" lon="5.80037">
        <ele>610.8</ele>
        <time>2021-09-07T12:29:11Z</time>
      </trkpt>
      <trkpt lat="46.67553" lon="5.80042">
        <ele>610.6</ele>
        <time>2021-09-07T12:29:15Z</time>
      </trkpt>
      <trkpt lat="46.67551" lon="5.80049">
        <ele>609.9</ele>
        <time>2021-09-07T12:29:21Z</time>
      </trkpt>
      <trkpt lat="46.67552" lon="5.80056">
        <ele>610.2</ele>
        <time>2021-09-07T12:29:35Z</time>
      </trkpt>
      <trkpt lat="46.67549" lon="5.80062">
        <ele>611.3</ele>
        <time>2021-09-07T12:29:40Z</time>
      </trkpt>
      <trkpt lat="46.67547" lon="5.8007">
        <ele>613.2</ele>
        <time>2021-09-07T12:29:51Z</time>
      </trkpt>
      <trkpt lat="46.67544" lon="5.80078">
        <ele>612.5</ele>
        <time>2021-09-07T12:29:56Z</time>
      </trkpt>
      <trkpt lat="46.67541" lon="5.80084">
        <ele>612</ele>
        <time>2021-09-07T12:30:00Z</time>
      </trkpt>
      <trkpt lat="46.67538" lon="5.80092">
        <ele>611.7</ele>
        <time>2021-09-07T12:30:09Z</time>
      </trkpt>
      <trkpt lat="46.67535" lon="5.80097">
        <ele>611.7</ele>
        <time>2021-09-07T12:30:13Z</time>
      </trkpt>
      <trkpt lat="46.67531" lon="5.80101">
        <ele>611.5</ele>
        <time>2021-09-07T12:30:18Z</time>
      </trkpt>
      <trkpt lat="46.67528" lon="5.80108">
        <ele>611.5</ele>
        <time>2021-09-07T12:30:24Z</time>
      </trkpt>
      <trkpt lat="46.67527" lon="5.80115">
        <ele>612.1</ele>
        <time>2021-09-07T12:30:29Z</time>
      </trkpt>
      <trkpt lat="46.67526" lon="5.80121">
        <ele>613</ele>
        <time>2021-09-07T12:30:35Z</time>
      </trkpt>
      <trkpt lat="46.67523" lon="5.80127">
        <ele>613.4</ele>
        <time>2021-09-07T12:30:42Z</time>
      </trkpt>
      <trkpt lat="46.6752" lon="5.80133">
        <ele>613.8</ele>
        <time>2021-09-07T12:30:49Z</time>
      </trkpt>
      <trkpt lat="46.67524" lon="5.80138">
        <ele>609.7</ele>
        <time>2021-09-07T12:31:58Z</time>
      </trkpt>
      <trkpt lat="46.67523" lon="5.80144">
        <ele>608.9</ele>
        <time>2021-09-07T12:32:02Z</time>
      </trkpt>
      <trkpt lat="46.6752" lon="5.8015">
        <ele>608.8</ele>
        <time>2021-09-07T12:32:08Z</time>
      </trkpt>
      <trkpt lat="46.67518" lon="5.80156">
        <ele>608.7</ele>
        <time>2021-09-07T12:32:15Z</time>
      </trkpt>
      <trkpt lat="46.67516" lon="5.80163">
        <ele>609.1</ele>
        <time>2021-09-07T12:32:34Z</time>
      </trkpt>
      <trkpt lat="46.67517" lon="5.8017">
        <ele>609.7</ele>
        <time>2021-09-07T12:32:38Z</time>
      </trkpt>
      <trkpt lat="46.67514" lon="5.80177">
        <ele>610.3</ele>
        <time>2021-09-07T12:32:45Z</time>
      </trkpt>
      <trkpt lat="46.67511" lon="5.80183">
        <ele>610</ele>
        <time>2021-09-07T12:32:51Z</time>
      </trkpt>
      <trkpt lat="46.67509" lon="5.8019">
        <ele>609.3</ele>
        <time>2021-09-07T12:32:58Z</time>
      </trkpt>
      <trkpt lat="46.67507" lon="5.80196">
        <ele>608.5</ele>
        <time>2021-09-07T12:33:03Z</time>
      </trkpt>
      <trkpt lat="46.67504" lon="5.80202">
        <ele>607.6</ele>
        <time>2021-09-07T12:33:08Z</time>
      </trkpt>
      <trkpt lat="46.67503" lon="5.80209">
        <ele>607.3</ele>
        <time>2021-09-07T12:33:13Z</time>
      </trkpt>
      <trkpt lat="46.67501" lon="5.80216">
        <ele>607.2</ele>
        <time>2021-09-07T12:33:19Z</time>
      </trkpt>
      <trkpt lat="46.67498" lon="5.80223">
        <ele>607.2</ele>
        <time>2021-09-07T12:33:24Z</time>
      </trkpt>
      <trkpt lat="46.67498" lon="5.80231">
        <ele>607</ele>
        <time>2021-09-07T12:33:29Z</time>
      </trkpt>
      <trkpt lat="46.67496" lon="5.80239">
        <ele>606.9</ele>
        <time>2021-09-07T12:33:33Z</time>
      </trkpt>
      <trkpt lat="46.67494" lon="5.80246">
        <ele>606.7</ele>
        <time>2021-09-07T12:33:38Z</time>
      </trkpt>
      <trkpt lat="46.67492" lon="5.80253">
        <ele>606.2</ele>
        <time>2021-09-07T12:33:44Z</time>
      </trkpt>
      <trkpt lat="46.6749" lon="5.8026">
        <ele>604.9</ele>
        <time>2021-09-07T12:33:50Z</time>
      </trkpt>
      <trkpt lat="46.67488" lon="5.80266">
        <ele>603.1</ele>
        <time>2021-09-07T12:33:56Z</time>
      </trkpt>
      <trkpt lat="46.67486" lon="5.80272">
        <ele>601.8</ele>
        <time>2021-09-07T12:34:02Z</time>
      </trkpt>
      <trkpt lat="46.67483" lon="5.80278">
        <ele>601.4</ele>
        <time>2021-09-07T12:34:08Z</time>
      </trkpt>
      <trkpt lat="46.67481" lon="5.80284">
        <ele>601</ele>
        <time>2021-09-07T12:34:12Z</time>
      </trkpt>
      <trkpt lat="46.67479" lon="5.8029">
        <ele>600.3</ele>
        <time>2021-09-07T12:34:18Z</time>
      </trkpt>
      <trkpt lat="46.67477" lon="5.80297">
        <ele>600.6</ele>
        <time>2021-09-07T12:34:27Z</time>
      </trkpt>
      <trkpt lat="46.67474" lon="5.80302">
        <ele>601.6</ele>
        <time>2021-09-07T12:34:33Z</time>
      </trkpt>
      <trkpt lat="46.6747" lon="5.80308">
        <ele>602.2</ele>
        <time>2021-09-07T12:34:39Z</time>
      </trkpt>
      <trkpt lat="46.67468" lon="5.80314">
        <ele>602.6</ele>
        <time>2021-09-07T12:34:44Z</time>
      </trkpt>
      <trkpt lat="46.67467" lon="5.80321">
        <ele>602.8</ele>
        <time>2021-09-07T12:34:49Z</time>
      </trkpt>
      <trkpt lat="46.67465" lon="5.80328">
        <ele>602.6</ele>
        <time>2021-09-07T12:34:54Z</time>
      </trkpt>
      <trkpt lat="46.67464" lon="5.80334">
        <ele>602.4</ele>
        <time>2021-09-07T12:34:59Z</time>
      </trkpt>
      <trkpt lat="46.67461" lon="5.80341">
        <ele>602.4</ele>
        <time>2021-09-07T12:35:04Z</time>
      </trkpt>
      <trkpt lat="46.67459" lon="5.80347">
        <ele>602.1</ele>
        <time>2021-09-07T12:35:09Z</time>
      </trkpt>
      <trkpt lat="46.67458" lon="5.80355">
        <ele>601.6</ele>
        <time>2021-09-07T12:35:15Z</time>
      </trkpt>
      <trkpt lat="46.67458" lon="5.80361">
        <ele>601</ele>
        <time>2021-09-07T12:35:20Z</time>
      </trkpt>
      <trkpt lat="46.67457" lon="5.80368">
        <ele>600.4</ele>
        <time>2021-09-07T12:35:25Z</time>
      </trkpt>
      <trkpt lat="46.67455" lon="5.80375">
        <ele>599.4</ele>
        <time>2021-09-07T12:35:31Z</time>
      </trkpt>
      <trkpt lat="46.67453" lon="5.80383">
        <ele>598.8</ele>
        <time>2021-09-07T12:35:36Z</time>
      </trkpt>
      <trkpt lat="46.6745" lon="5.80389">
        <ele>598.1</ele>
        <time>2021-09-07T12:35:40Z</time>
      </trkpt>
      <trkpt lat="46.67447" lon="5.80394">
        <ele>597.6</ele>
        <time>2021-09-07T12:35:44Z</time>
      </trkpt>
      <trkpt lat="46.67444" lon="5.80399">
        <ele>596.9</ele>
        <time>2021-09-07T12:35:49Z</time>
      </trkpt>
      <trkpt lat="46.67441" lon="5.80405">
        <ele>596.1</ele>
        <time>2021-09-07T12:35:54Z</time>
      </trkpt>
      <trkpt lat="46.67439" lon="5.80411">
        <ele>595.6</ele>
        <time>2021-09-07T12:35:59Z</time>
      </trkpt>
      <trkpt lat="46.67435" lon="5.80415">
        <ele>595.7</ele>
        <time>2021-09-07T12:36:03Z</time>
      </trkpt>
      <trkpt lat="46.67434" lon="5.80423">
        <ele>596.3</ele>
        <time>2021-09-07T12:36:09Z</time>
      </trkpt>
      <trkpt lat="46.67431" lon="5.80429">
        <ele>596.2</ele>
        <time>2021-09-07T12:36:14Z</time>
      </trkpt>
      <trkpt lat="46.67428" lon="5.80435">
        <ele>596</ele>
        <time>2021-09-07T12:36:19Z</time>
      </trkpt>
      <trkpt lat="46.67425" lon="5.8044">
        <ele>595.9</ele>
        <time>2021-09-07T12:36:23Z</time>
      </trkpt>
      <trkpt lat="46.67421" lon="5.80446">
        <ele>595.8</ele>
        <time>2021-09-07T12:36:27Z</time>
      </trkpt>
      <trkpt lat="46.67417" lon="5.80452">
        <ele>595.7</ele>
        <time>2021-09-07T12:36:31Z</time>
      </trkpt>
      <trkpt lat="46.67414" lon="5.80457">
        <ele>595.5</ele>
        <time>2021-09-07T12:36:35Z</time>
      </trkpt>
      <trkpt lat="46.67411" lon="5.80462">
        <ele>594.7</ele>
        <time>2021-09-07T12:36:40Z</time>
      </trkpt>
      <trkpt lat="46.67409" lon="5.80469">
        <ele>594.3</ele>
        <time>2021-09-07T12:36:46Z</time>
      </trkpt>
      <trkpt lat="46.67407" lon="5.80476">
        <ele>594.3</ele>
        <time>2021-09-07T12:36:52Z</time>
      </trkpt>
      <trkpt lat="46.67406" lon="5.80482">
        <ele>594.5</ele>
        <time>2021-09-07T12:36:57Z</time>
      </trkpt>
      <trkpt lat="46.67404" lon="5.80489">
        <ele>594.3</ele>
        <time>2021-09-07T12:37:01Z</time>
      </trkpt>
      <trkpt lat="46.67403" lon="5.80496">
        <ele>594</ele>
        <time>2021-09-07T12:37:05Z</time>
      </trkpt>
      <trkpt lat="46.67402" lon="5.80503">
        <ele>593.6</ele>
        <time>2021-09-07T12:37:10Z</time>
      </trkpt>
      <trkpt lat="46.674" lon="5.8051">
        <ele>593.4</ele>
        <time>2021-09-07T12:37:15Z</time>
      </trkpt>
      <trkpt lat="46.67399" lon="5.80517">
        <ele>593.1</ele>
        <time>2021-09-07T12:37:20Z</time>
      </trkpt>
      <trkpt lat="46.67397" lon="5.80524">
        <ele>593.1</ele>
        <time>2021-09-07T12:37:25Z</time>
      </trkpt>
      <trkpt lat="46.67394" lon="5.8053">
        <ele>593.2</ele>
        <time>2021-09-07T12:37:29Z</time>
      </trkpt>
      <trkpt lat="46.67391" lon="5.80536">
        <ele>592.9</ele>
        <time>2021-09-07T12:37:33Z</time>
      </trkpt>
      <trkpt lat="46.67387" lon="5.80539">
        <ele>592.7</ele>
        <time>2021-09-07T12:37:37Z</time>
      </trkpt>
      <trkpt lat="46.67382" lon="5.80542">
        <ele>592.9</ele>
        <time>2021-09-07T12:37:44Z</time>
      </trkpt>
      <trkpt lat="46.67377" lon="5.80539">
        <ele>591.3</ele>
        <time>2021-09-07T12:37:51Z</time>
      </trkpt>
      <trkpt lat="46.67372" lon="5.80537">
        <ele>590.7</ele>
        <time>2021-09-07T12:37:55Z</time>
      </trkpt>
      <trkpt lat="46.67368" lon="5.8054">
        <ele>589.8</ele>
        <time>2021-09-07T12:38:18Z</time>
      </trkpt>
      <trkpt lat="46.67368" lon="5.80556">
        <ele>590.7</ele>
        <time>2021-09-07T12:38:21Z</time>
      </trkpt>
      <trkpt lat="46.67363" lon="5.80567">
        <ele>591.6</ele>
        <time>2021-09-07T12:38:24Z</time>
      </trkpt>
      <trkpt lat="46.67358" lon="5.80564">
        <ele>592.6</ele>
        <time>2021-09-07T12:38:27Z</time>
      </trkpt>
      <trkpt lat="46.67356" lon="5.80558">
        <ele>595</ele>
        <time>2021-09-07T12:38:33Z</time>
      </trkpt>
      <trkpt lat="46.6735" lon="5.80567">
        <ele>601</ele>
        <time>2021-09-07T12:38:40Z</time>
      </trkpt>
      <trkpt lat="46.67349" lon="5.80574">
        <ele>605.9</ele>
        <time>2021-09-07T12:38:43Z</time>
      </trkpt>
      <trkpt lat="46.67349" lon="5.80568">
        <ele>607.1</ele>
        <time>2021-09-07T12:38:54Z</time>
      </trkpt>
      <trkpt lat="46.67353" lon="5.80571">
        <ele>600.6</ele>
        <time>2021-09-07T12:39:09Z</time>
      </trkpt>
      <trkpt lat="46.67355" lon="5.80578">
        <ele>599.3</ele>
        <time>2021-09-07T12:39:14Z</time>
      </trkpt>
      <trkpt lat="46.67359" lon="5.80581">
        <ele>598.2</ele>
        <time>2021-09-07T12:39:21Z</time>
      </trkpt>
      <trkpt lat="46.67364" lon="5.80582">
        <ele>597.4</ele>
        <time>2021-09-07T12:39:26Z</time>
      </trkpt>
      <trkpt lat="46.67369" lon="5.80585">
        <ele>596.6</ele>
        <time>2021-09-07T12:39:31Z</time>
      </trkpt>
      <trkpt lat="46.67372" lon="5.80591">
        <ele>595.8</ele>
        <time>2021-09-07T12:39:37Z</time>
      </trkpt>
      <trkpt lat="46.67372" lon="5.80598">
        <ele>595</ele>
        <time>2021-09-07T12:39:43Z</time>
      </trkpt>
      <trkpt lat="46.6737" lon="5.80605">
        <ele>594.2</ele>
        <time>2021-09-07T12:39:48Z</time>
      </trkpt>
      <trkpt lat="46.67368" lon="5.80611">
        <ele>593.7</ele>
        <time>2021-09-07T12:39:52Z</time>
      </trkpt>
      <trkpt lat="46.67366" lon="5.80617">
        <ele>593.7</ele>
        <time>2021-09-07T12:39:56Z</time>
      </trkpt>
      <trkpt lat="46.67364" lon="5.80624">
        <ele>593.3</ele>
        <time>2021-09-07T12:40:00Z</time>
      </trkpt>
      <trkpt lat="46.67362" lon="5.80631">
        <ele>593</ele>
        <time>2021-09-07T12:40:04Z</time>
      </trkpt>
      <trkpt lat="46.67361" lon="5.80638">
        <ele>592.8</ele>
        <time>2021-09-07T12:40:09Z</time>
      </trkpt>
      <trkpt lat="46.6736" lon="5.80644">
        <ele>592.8</ele>
        <time>2021-09-07T12:40:14Z</time>
      </trkpt>
      <trkpt lat="46.67357" lon="5.80651">
        <ele>593</ele>
        <time>2021-09-07T12:40:20Z</time>
      </trkpt>
      <trkpt lat="46.67354" lon="5.80657">
        <ele>592.7</ele>
        <time>2021-09-07T12:40:26Z</time>
      </trkpt>
      <trkpt lat="46.67351" lon="5.80663">
        <ele>592.7</ele>
        <time>2021-09-07T12:40:31Z</time>
      </trkpt>
      <trkpt lat="46.6735" lon="5.8067">
        <ele>593.2</ele>
        <time>2021-09-07T12:40:36Z</time>
      </trkpt>
      <trkpt lat="46.67347" lon="5.80675">
        <ele>593.4</ele>
        <time>2021-09-07T12:40:41Z</time>
      </trkpt>
      <trkpt lat="46.67344" lon="5.80681">
        <ele>593.3</ele>
        <time>2021-09-07T12:40:45Z</time>
      </trkpt>
      <trkpt lat="46.6734" lon="5.80686">
        <ele>593.1</ele>
        <time>2021-09-07T12:40:49Z</time>
      </trkpt>
      <trkpt lat="46.67337" lon="5.80693">
        <ele>592.6</ele>
        <time>2021-09-07T12:40:53Z</time>
      </trkpt>
      <trkpt lat="46.67335" lon="5.80699">
        <ele>591.6</ele>
        <time>2021-09-07T12:40:58Z</time>
      </trkpt>
      <trkpt lat="46.67332" lon="5.80705">
        <ele>591.1</ele>
        <time>2021-09-07T12:41:03Z</time>
      </trkpt>
      <trkpt lat="46.67329" lon="5.80712">
        <ele>590.7</ele>
        <time>2021-09-07T12:41:07Z</time>
      </trkpt>
      <trkpt lat="46.67326" lon="5.80718">
        <ele>590.5</ele>
        <time>2021-09-07T12:41:11Z</time>
      </trkpt>
      <trkpt lat="46.67324" lon="5.80725">
        <ele>590.4</ele>
        <time>2021-09-07T12:41:16Z</time>
      </trkpt>
      <trkpt lat="46.67322" lon="5.80732">
        <ele>590.2</ele>
        <time>2021-09-07T12:41:21Z</time>
      </trkpt>
      <trkpt lat="46.67321" lon="5.80739">
        <ele>589.7</ele>
        <time>2021-09-07T12:41:26Z</time>
      </trkpt>
      <trkpt lat="46.67319" lon="5.80745">
        <ele>589.2</ele>
        <time>2021-09-07T12:41:31Z</time>
      </trkpt>
      <trkpt lat="46.67316" lon="5.80751">
        <ele>588.7</ele>
        <time>2021-09-07T12:41:36Z</time>
      </trkpt>
      <trkpt lat="46.67313" lon="5.80756">
        <ele>588.3</ele>
        <time>2021-09-07T12:41:41Z</time>
      </trkpt>
      <trkpt lat="46.6731" lon="5.80762">
        <ele>588</ele>
        <time>2021-09-07T12:41:46Z</time>
      </trkpt>
      <trkpt lat="46.67307" lon="5.80767">
        <ele>588.1</ele>
        <time>2021-09-07T12:41:50Z</time>
      </trkpt>
      <trkpt lat="46.67306" lon="5.80774">
        <ele>588.3</ele>
        <time>2021-09-07T12:41:55Z</time>
      </trkpt>
      <trkpt lat="46.67304" lon="5.8078">
        <ele>588.6</ele>
        <time>2021-09-07T12:42:00Z</time>
      </trkpt>
      <trkpt lat="46.67302" lon="5.80787">
        <ele>588.4</ele>
        <time>2021-09-07T12:42:05Z</time>
      </trkpt>
      <trkpt lat="46.67299" lon="5.80793">
        <ele>588</ele>
        <time>2021-09-07T12:42:10Z</time>
      </trkpt>
      <trkpt lat="46.67297" lon="5.80798">
        <ele>588.3</ele>
        <time>2021-09-07T12:42:14Z</time>
      </trkpt>
      <trkpt lat="46.67294" lon="5.80805">
        <ele>588.9</ele>
        <time>2021-09-07T12:42:19Z</time>
      </trkpt>
      <trkpt lat="46.67292" lon="5.80811">
        <ele>589.7</ele>
        <time>2021-09-07T12:42:25Z</time>
      </trkpt>
      <trkpt lat="46.6729" lon="5.80817">
        <ele>590.3</ele>
        <time>2021-09-07T12:42:29Z</time>
      </trkpt>
      <trkpt lat="46.67288" lon="5.80824">
        <ele>590.6</ele>
        <time>2021-09-07T12:42:34Z</time>
      </trkpt>
      <trkpt lat="46.67287" lon="5.80831">
        <ele>590.8</ele>
        <time>2021-09-07T12:42:39Z</time>
      </trkpt>
      <trkpt lat="46.67285" lon="5.80838">
        <ele>591</ele>
        <time>2021-09-07T12:42:43Z</time>
      </trkpt>
      <trkpt lat="46.67284" lon="5.80845">
        <ele>591.2</ele>
        <time>2021-09-07T12:42:47Z</time>
      </trkpt>
      <trkpt lat="46.67282" lon="5.80852">
        <ele>591.4</ele>
        <time>2021-09-07T12:42:51Z</time>
      </trkpt>
      <trkpt lat="46.67281" lon="5.80858">
        <ele>591.7</ele>
        <time>2021-09-07T12:42:56Z</time>
      </trkpt>
      <trkpt lat="46.6728" lon="5.80865">
        <ele>592</ele>
        <time>2021-09-07T12:43:01Z</time>
      </trkpt>
      <trkpt lat="46.6728" lon="5.80872">
        <ele>592.1</ele>
        <time>2021-09-07T12:43:06Z</time>
      </trkpt>
      <trkpt lat="46.67281" lon="5.8088">
        <ele>592.1</ele>
        <time>2021-09-07T12:43:11Z</time>
      </trkpt>
      <trkpt lat="46.67281" lon="5.80887">
        <ele>592</ele>
        <time>2021-09-07T12:43:15Z</time>
      </trkpt>
      <trkpt lat="46.67281" lon="5.80894">
        <ele>592.1</ele>
        <time>2021-09-07T12:43:19Z</time>
      </trkpt>
      <trkpt lat="46.67281" lon="5.80902">
        <ele>592.2</ele>
        <time>2021-09-07T12:43:23Z</time>
      </trkpt>
      <trkpt lat="46.67281" lon="5.80909">
        <ele>591.7</ele>
        <time>2021-09-07T12:43:34Z</time>
      </trkpt>
      <trkpt lat="46.67281" lon="5.80916">
        <ele>591.8</ele>
        <time>2021-09-07T12:43:48Z</time>
      </trkpt>
      <trkpt lat="46.6728" lon="5.80923">
        <ele>592.4</ele>
        <time>2021-09-07T12:43:53Z</time>
      </trkpt>
      <trkpt lat="46.67279" lon="5.8093">
        <ele>592.1</ele>
        <time>2021-09-07T12:43:58Z</time>
      </trkpt>
      <trkpt lat="46.67277" lon="5.80936">
        <ele>591.3</ele>
        <time>2021-09-07T12:44:03Z</time>
      </trkpt>
      <trkpt lat="46.67274" lon="5.80943">
        <ele>590.9</ele>
        <time>2021-09-07T12:44:09Z</time>
      </trkpt>
      <trkpt lat="46.67273" lon="5.8095">
        <ele>591.1</ele>
        <time>2021-09-07T12:44:13Z</time>
      </trkpt>
      <trkpt lat="46.67271" lon="5.80956">
        <ele>591.2</ele>
        <time>2021-09-07T12:44:18Z</time>
      </trkpt>
      <trkpt lat="46.67269" lon="5.80964">
        <ele>591.8</ele>
        <time>2021-09-07T12:44:23Z</time>
      </trkpt>
      <trkpt lat="46.67268" lon="5.80971">
        <ele>592.2</ele>
        <time>2021-09-07T12:44:28Z</time>
      </trkpt>
      <trkpt lat="46.67266" lon="5.80977">
        <ele>592.1</ele>
        <time>2021-09-07T12:44:33Z</time>
      </trkpt>
      <trkpt lat="46.67263" lon="5.80984">
        <ele>591.5</ele>
        <time>2021-09-07T12:44:38Z</time>
      </trkpt>
      <trkpt lat="46.67261" lon="5.8099">
        <ele>591</ele>
        <time>2021-09-07T12:44:43Z</time>
      </trkpt>
      <trkpt lat="46.67258" lon="5.80997">
        <ele>591.2</ele>
        <time>2021-09-07T12:44:48Z</time>
      </trkpt>
      <trkpt lat="46.67256" lon="5.81003">
        <ele>591.5</ele>
        <time>2021-09-07T12:44:54Z</time>
      </trkpt>
      <trkpt lat="46.67254" lon="5.8101">
        <ele>590.9</ele>
        <time>2021-09-07T12:44:59Z</time>
      </trkpt>
      <trkpt lat="46.67253" lon="5.81017">
        <ele>589.8</ele>
        <time>2021-09-07T12:45:04Z</time>
      </trkpt>
      <trkpt lat="46.67251" lon="5.81024">
        <ele>589.2</ele>
        <time>2021-09-07T12:45:08Z</time>
      </trkpt>
      <trkpt lat="46.6725" lon="5.81031">
        <ele>588.2</ele>
        <time>2021-09-07T12:45:13Z</time>
      </trkpt>
      <trkpt lat="46.67248" lon="5.81038">
        <ele>587.3</ele>
        <time>2021-09-07T12:45:18Z</time>
      </trkpt>
      <trkpt lat="46.67245" lon="5.81045">
        <ele>586.7</ele>
        <time>2021-09-07T12:45:23Z</time>
      </trkpt>
      <trkpt lat="46.67243" lon="5.81052">
        <ele>586</ele>
        <time>2021-09-07T12:45:27Z</time>
      </trkpt>
      <trkpt lat="46.67241" lon="5.81059">
        <ele>585.7</ele>
        <time>2021-09-07T12:45:31Z</time>
      </trkpt>
      <trkpt lat="46.67239" lon="5.81066">
        <ele>585.9</ele>
        <time>2021-09-07T12:45:35Z</time>
      </trkpt>
      <trkpt lat="46.67236" lon="5.81073">
        <ele>585.9</ele>
        <time>2021-09-07T12:45:39Z</time>
      </trkpt>
      <trkpt lat="46.67233" lon="5.81079">
        <ele>586.1</ele>
        <time>2021-09-07T12:45:43Z</time>
      </trkpt>
      <trkpt lat="46.67231" lon="5.81087">
        <ele>587</ele>
        <time>2021-09-07T12:45:47Z</time>
      </trkpt>
      <trkpt lat="46.67228" lon="5.81093">
        <ele>588.8</ele>
        <time>2021-09-07T12:45:53Z</time>
      </trkpt>
      <trkpt lat="46.67225" lon="5.81098">
        <ele>589.5</ele>
        <time>2021-09-07T12:45:59Z</time>
      </trkpt>
      <trkpt lat="46.67223" lon="5.81105">
        <ele>590.1</ele>
        <time>2021-09-07T12:46:05Z</time>
      </trkpt>
      <trkpt lat="46.67221" lon="5.81112">
        <ele>590.3</ele>
        <time>2021-09-07T12:46:10Z</time>
      </trkpt>
      <trkpt lat="46.6722" lon="5.81119">
        <ele>589.9</ele>
        <time>2021-09-07T12:46:14Z</time>
      </trkpt>
      <trkpt lat="46.67219" lon="5.81126">
        <ele>589.4</ele>
        <time>2021-09-07T12:46:19Z</time>
      </trkpt>
      <trkpt lat="46.67216" lon="5.81133">
        <ele>589.9</ele>
        <time>2021-09-07T12:46:24Z</time>
      </trkpt>
      <trkpt lat="46.67213" lon="5.81138">
        <ele>590.7</ele>
        <time>2021-09-07T12:46:28Z</time>
      </trkpt>
      <trkpt lat="46.67211" lon="5.81145">
        <ele>591.9</ele>
        <time>2021-09-07T12:46:33Z</time>
      </trkpt>
      <trkpt lat="46.67209" lon="5.81152">
        <ele>593.5</ele>
        <time>2021-09-07T12:46:38Z</time>
      </trkpt>
      <trkpt lat="46.67206" lon="5.81158">
        <ele>595</ele>
        <time>2021-09-07T12:46:42Z</time>
      </trkpt>
      <trkpt lat="46.67203" lon="5.81164">
        <ele>596.2</ele>
        <time>2021-09-07T12:46:46Z</time>
      </trkpt>
      <trkpt lat="46.672" lon="5.81169">
        <ele>597.1</ele>
        <time>2021-09-07T12:46:50Z</time>
      </trkpt>
      <trkpt lat="46.67197" lon="5.81174">
        <ele>597.9</ele>
        <time>2021-09-07T12:46:54Z</time>
      </trkpt>
      <trkpt lat="46.67195" lon="5.8118">
        <ele>598.7</ele>
        <time>2021-09-07T12:46:59Z</time>
      </trkpt>
      <trkpt lat="46.67193" lon="5.81186">
        <ele>599.2</ele>
        <time>2021-09-07T12:47:06Z</time>
      </trkpt>
      <trkpt lat="46.6719" lon="5.81191">
        <ele>599.7</ele>
        <time>2021-09-07T12:47:11Z</time>
      </trkpt>
      <trkpt lat="46.67186" lon="5.81196">
        <ele>599.8</ele>
        <time>2021-09-07T12:47:16Z</time>
      </trkpt>
      <trkpt lat="46.67182" lon="5.812">
        <ele>599.7</ele>
        <time>2021-09-07T12:47:21Z</time>
      </trkpt>
      <trkpt lat="46.67181" lon="5.81207">
        <ele>599.9</ele>
        <time>2021-09-07T12:47:51Z</time>
      </trkpt>
      <trkpt lat="46.67177" lon="5.81212">
        <ele>599.8</ele>
        <time>2021-09-07T12:47:54Z</time>
      </trkpt>
      <trkpt lat="46.67173" lon="5.81216">
        <ele>600.1</ele>
        <time>2021-09-07T12:47:59Z</time>
      </trkpt>
      <trkpt lat="46.67168" lon="5.81219">
        <ele>600.7</ele>
        <time>2021-09-07T12:48:04Z</time>
      </trkpt>
      <trkpt lat="46.67164" lon="5.81222">
        <ele>601.1</ele>
        <time>2021-09-07T12:48:08Z</time>
      </trkpt>
      <trkpt lat="46.67159" lon="5.81226">
        <ele>601.5</ele>
        <time>2021-09-07T12:48:12Z</time>
      </trkpt>
      <trkpt lat="46.67155" lon="5.81229">
        <ele>601.6</ele>
        <time>2021-09-07T12:48:18Z</time>
      </trkpt>
      <trkpt lat="46.6715" lon="5.81232">
        <ele>601.5</ele>
        <time>2021-09-07T12:48:24Z</time>
      </trkpt>
      <trkpt lat="46.67146" lon="5.81236">
        <ele>601.5</ele>
        <time>2021-09-07T12:48:30Z</time>
      </trkpt>
      <trkpt lat="46.67141" lon="5.81238">
        <ele>601.2</ele>
        <time>2021-09-07T12:48:35Z</time>
      </trkpt>
      <trkpt lat="46.67137" lon="5.81239">
        <ele>601.2</ele>
        <time>2021-09-07T12:48:39Z</time>
      </trkpt>
      <trkpt lat="46.67132" lon="5.81241">
        <ele>601.4</ele>
        <time>2021-09-07T12:48:44Z</time>
      </trkpt>
      <trkpt lat="46.67128" lon="5.81245">
        <ele>602.1</ele>
        <time>2021-09-07T12:48:50Z</time>
      </trkpt>
      <trkpt lat="46.67124" lon="5.81247">
        <ele>603</ele>
        <time>2021-09-07T12:48:56Z</time>
      </trkpt>
      <trkpt lat="46.67119" lon="5.81251">
        <ele>603.6</ele>
        <time>2021-09-07T12:49:03Z</time>
      </trkpt>
      <trkpt lat="46.67114" lon="5.81255">
        <ele>603.7</ele>
        <time>2021-09-07T12:49:08Z</time>
      </trkpt>
      <trkpt lat="46.6711" lon="5.81257">
        <ele>603.8</ele>
        <time>2021-09-07T12:49:12Z</time>
      </trkpt>
      <trkpt lat="46.67105" lon="5.8126">
        <ele>603.5</ele>
        <time>2021-09-07T12:49:17Z</time>
      </trkpt>
      <trkpt lat="46.67101" lon="5.81263">
        <ele>603.3</ele>
        <time>2021-09-07T12:49:22Z</time>
      </trkpt>
      <trkpt lat="46.67097" lon="5.81267">
        <ele>602.9</ele>
        <time>2021-09-07T12:49:26Z</time>
      </trkpt>
      <trkpt lat="46.67095" lon="5.81273">
        <ele>602.6</ele>
        <time>2021-09-07T12:49:29Z</time>
      </trkpt>
      <trkpt lat="46.67092" lon="5.8128">
        <ele>601.9</ele>
        <time>2021-09-07T12:49:34Z</time>
      </trkpt>
      <trkpt lat="46.6709" lon="5.81286">
        <ele>601.5</ele>
        <time>2021-09-07T12:49:38Z</time>
      </trkpt>
      <trkpt lat="46.67087" lon="5.81293">
        <ele>601</ele>
        <time>2021-09-07T12:49:42Z</time>
      </trkpt>
      <trkpt lat="46.67085" lon="5.81299">
        <ele>601.1</ele>
        <time>2021-09-07T12:49:46Z</time>
      </trkpt>
      <trkpt lat="46.67082" lon="5.81305">
        <ele>601.2</ele>
        <time>2021-09-07T12:49:51Z</time>
      </trkpt>
      <trkpt lat="46.67079" lon="5.81311">
        <ele>601</ele>
        <time>2021-09-07T12:49:56Z</time>
      </trkpt>
      <trkpt lat="46.67082" lon="5.81317">
        <ele>602.1</ele>
        <time>2021-09-07T12:50:14Z</time>
      </trkpt>
      <trkpt lat="46.6708" lon="5.81322">
        <ele>601.7</ele>
        <time>2021-09-07T12:50:19Z</time>
      </trkpt>
      <trkpt lat="46.67075" lon="5.81327">
        <ele>600.6</ele>
        <time>2021-09-07T12:50:24Z</time>
      </trkpt>
      <trkpt lat="46.67071" lon="5.81331">
        <ele>600</ele>
        <time>2021-09-07T12:50:29Z</time>
      </trkpt>
      <trkpt lat="46.67067" lon="5.81336">
        <ele>599.8</ele>
        <time>2021-09-07T12:50:34Z</time>
      </trkpt>
      <trkpt lat="46.67064" lon="5.81341">
        <ele>599.9</ele>
        <time>2021-09-07T12:50:39Z</time>
      </trkpt>
      <trkpt lat="46.6706" lon="5.81345">
        <ele>600.3</ele>
        <time>2021-09-07T12:50:44Z</time>
      </trkpt>
      <trkpt lat="46.67055" lon="5.81349">
        <ele>601</ele>
        <time>2021-09-07T12:50:50Z</time>
      </trkpt>
      <trkpt lat="46.67051" lon="5.81353">
        <ele>601.4</ele>
        <time>2021-09-07T12:50:56Z</time>
      </trkpt>
      <trkpt lat="46.67047" lon="5.81358">
        <ele>601.4</ele>
        <time>2021-09-07T12:51:03Z</time>
      </trkpt>
      <trkpt lat="46.67043" lon="5.81362">
        <ele>600.8</ele>
        <time>2021-09-07T12:51:09Z</time>
      </trkpt>
      <trkpt lat="46.67038" lon="5.81362">
        <ele>600.3</ele>
        <time>2021-09-07T12:51:15Z</time>
      </trkpt>
      <trkpt lat="46.67034" lon="5.81358">
        <ele>600.1</ele>
        <time>2021-09-07T12:51:21Z</time>
      </trkpt>
      <trkpt lat="46.6703" lon="5.81354">
        <ele>601.1</ele>
        <time>2021-09-07T12:51:30Z</time>
      </trkpt>
      <trkpt lat="46.67027" lon="5.8135">
        <ele>601.9</ele>
        <time>2021-09-07T12:51:42Z</time>
      </trkpt>
      <trkpt lat="46.67022" lon="5.81351">
        <ele>607.3</ele>
        <time>2021-09-07T12:52:43Z</time>
      </trkpt>
      <trkpt lat="46.67017" lon="5.81348">
        <ele>607.8</ele>
        <time>2021-09-07T12:52:51Z</time>
      </trkpt>
      <trkpt lat="46.67012" lon="5.81346">
        <ele>607.9</ele>
        <time>2021-09-07T12:52:57Z</time>
      </trkpt>
      <trkpt lat="46.67007" lon="5.81346">
        <ele>607.6</ele>
        <time>2021-09-07T12:53:03Z</time>
      </trkpt>
      <trkpt lat="46.67002" lon="5.81346">
        <ele>607.4</ele>
        <time>2021-09-07T12:53:09Z</time>
      </trkpt>
      <trkpt lat="46.66997" lon="5.81348">
        <ele>607.8</ele>
        <time>2021-09-07T12:53:14Z</time>
      </trkpt>
      <trkpt lat="46.66992" lon="5.81349">
        <ele>607.4</ele>
        <time>2021-09-07T12:53:20Z</time>
      </trkpt>
      <trkpt lat="46.66988" lon="5.81352">
        <ele>604.2</ele>
        <time>2021-09-07T12:53:28Z</time>
      </trkpt>
      <trkpt lat="46.66987" lon="5.81359">
        <ele>598.6</ele>
        <time>2021-09-07T12:53:45Z</time>
      </trkpt>
      <trkpt lat="46.66986" lon="5.81366">
        <ele>597.9</ele>
        <time>2021-09-07T12:53:50Z</time>
      </trkpt>
      <trkpt lat="46.66985" lon="5.81373">
        <ele>597.9</ele>
        <time>2021-09-07T12:53:55Z</time>
      </trkpt>
      <trkpt lat="46.66983" lon="5.8138">
        <ele>598.5</ele>
        <time>2021-09-07T12:53:59Z</time>
      </trkpt>
      <trkpt lat="46.6698" lon="5.81387">
        <ele>599.6</ele>
        <time>2021-09-07T12:54:04Z</time>
      </trkpt>
      <trkpt lat="46.66978" lon="5.81394">
        <ele>600.4</ele>
        <time>2021-09-07T12:54:09Z</time>
      </trkpt>
      <trkpt lat="46.66976" lon="5.81401">
        <ele>600.7</ele>
        <time>2021-09-07T12:54:14Z</time>
      </trkpt>
      <trkpt lat="46.66974" lon="5.81407">
        <ele>600.9</ele>
        <time>2021-09-07T12:54:19Z</time>
      </trkpt>
      <trkpt lat="46.66971" lon="5.81414">
        <ele>601.2</ele>
        <time>2021-09-07T12:54:25Z</time>
      </trkpt>
      <trkpt lat="46.6697" lon="5.8142">
        <ele>601.3</ele>
        <time>2021-09-07T12:54:31Z</time>
      </trkpt>
      <trkpt lat="46.66968" lon="5.81427">
        <ele>601.5</ele>
        <time>2021-09-07T12:54:37Z</time>
      </trkpt>
      <trkpt lat="46.66969" lon="5.81434">
        <ele>601</ele>
        <time>2021-09-07T12:54:43Z</time>
      </trkpt>
      <trkpt lat="46.66968" lon="5.81441">
        <ele>600</ele>
        <time>2021-09-07T12:54:49Z</time>
      </trkpt>
      <trkpt lat="46.66967" lon="5.81448">
        <ele>599.3</ele>
        <time>2021-09-07T12:54:54Z</time>
      </trkpt>
      <trkpt lat="46.66965" lon="5.81455">
        <ele>599.4</ele>
        <time>2021-09-07T12:54:59Z</time>
      </trkpt>
      <trkpt lat="46.66964" lon="5.81462">
        <ele>599.8</ele>
        <time>2021-09-07T12:55:04Z</time>
      </trkpt>
      <trkpt lat="46.66964" lon="5.81468">
        <ele>600.2</ele>
        <time>2021-09-07T12:55:09Z</time>
      </trkpt>
      <trkpt lat="46.66961" lon="5.81475">
        <ele>600.9</ele>
        <time>2021-09-07T12:55:16Z</time>
      </trkpt>
      <trkpt lat="46.66958" lon="5.81481">
        <ele>601.1</ele>
        <time>2021-09-07T12:55:21Z</time>
      </trkpt>
      <trkpt lat="46.66955" lon="5.81485">
        <ele>601.2</ele>
        <time>2021-09-07T12:55:27Z</time>
      </trkpt>
      <trkpt lat="46.66951" lon="5.8149">
        <ele>601.4</ele>
        <time>2021-09-07T12:55:32Z</time>
      </trkpt>
      <trkpt lat="46.66948" lon="5.81495">
        <ele>601.7</ele>
        <time>2021-09-07T12:55:37Z</time>
      </trkpt>
      <trkpt lat="46.66945" lon="5.815">
        <ele>601.9</ele>
        <time>2021-09-07T12:55:42Z</time>
      </trkpt>
      <trkpt lat="46.66943" lon="5.81506">
        <ele>602.3</ele>
        <time>2021-09-07T12:55:47Z</time>
      </trkpt>
      <trkpt lat="46.6694" lon="5.81512">
        <ele>602.7</ele>
        <time>2021-09-07T12:55:52Z</time>
      </trkpt>
      <trkpt lat="46.66937" lon="5.81517">
        <ele>603</ele>
        <time>2021-09-07T12:55:57Z</time>
      </trkpt>
      <trkpt lat="46.66933" lon="5.81523">
        <ele>603.7</ele>
        <time>2021-09-07T12:56:02Z</time>
      </trkpt>
      <trkpt lat="46.66929" lon="5.81528">
        <ele>604.8</ele>
        <time>2021-09-07T12:56:07Z</time>
      </trkpt>
      <trkpt lat="46.66925" lon="5.81534">
        <ele>605.7</ele>
        <time>2021-09-07T12:56:12Z</time>
      </trkpt>
      <trkpt lat="46.66922" lon="5.81539">
        <ele>606.3</ele>
        <time>2021-09-07T12:56:16Z</time>
      </trkpt>
      <trkpt lat="46.66919" lon="5.81544">
        <ele>606.8</ele>
        <time>2021-09-07T12:56:21Z</time>
      </trkpt>
      <trkpt lat="46.66916" lon="5.81551">
        <ele>607.3</ele>
        <time>2021-09-07T12:56:26Z</time>
      </trkpt>
      <trkpt lat="46.66912" lon="5.81556">
        <ele>607.6</ele>
        <time>2021-09-07T12:56:31Z</time>
      </trkpt>
      <trkpt lat="46.66908" lon="5.81561">
        <ele>607.8</ele>
        <time>2021-09-07T12:56:36Z</time>
      </trkpt>
      <trkpt lat="46.66905" lon="5.81568">
        <ele>608</ele>
        <time>2021-09-07T12:56:40Z</time>
      </trkpt>
      <trkpt lat="46.66902" lon="5.81573">
        <ele>608.5</ele>
        <time>2021-09-07T12:56:44Z</time>
      </trkpt>
      <trkpt lat="46.66898" lon="5.81578">
        <ele>609.1</ele>
        <time>2021-09-07T12:56:48Z</time>
      </trkpt>
      <trkpt lat="46.66896" lon="5.81584">
        <ele>609.9</ele>
        <time>2021-09-07T12:56:53Z</time>
      </trkpt>
      <trkpt lat="46.66893" lon="5.81591">
        <ele>610.3</ele>
        <time>2021-09-07T12:56:57Z</time>
      </trkpt>
      <trkpt lat="46.6689" lon="5.81596">
        <ele>610.7</ele>
        <time>2021-09-07T12:57:00Z</time>
      </trkpt>
      <trkpt lat="46.66888" lon="5.81602">
        <ele>611.8</ele>
        <time>2021-09-07T12:57:06Z</time>
      </trkpt>
      <trkpt lat="46.66884" lon="5.81607">
        <ele>611.9</ele>
        <time>2021-09-07T12:57:13Z</time>
      </trkpt>
      <trkpt lat="46.66881" lon="5.81612">
        <ele>611.5</ele>
        <time>2021-09-07T12:57:17Z</time>
      </trkpt>
      <trkpt lat="46.66878" lon="5.81618">
        <ele>610.9</ele>
        <time>2021-09-07T12:57:21Z</time>
      </trkpt>
      <trkpt lat="46.66874" lon="5.81623">
        <ele>610.2</ele>
        <time>2021-09-07T12:57:25Z</time>
      </trkpt>
      <trkpt lat="46.66871" lon="5.81627">
        <ele>609.4</ele>
        <time>2021-09-07T12:57:29Z</time>
      </trkpt>
      <trkpt lat="46.66868" lon="5.81633">
        <ele>607.9</ele>
        <time>2021-09-07T12:57:37Z</time>
      </trkpt>
      <trkpt lat="46.66865" lon="5.81638">
        <ele>606.3</ele>
        <time>2021-09-07T12:57:44Z</time>
      </trkpt>
      <trkpt lat="46.66861" lon="5.81643">
        <ele>605</ele>
        <time>2021-09-07T12:57:49Z</time>
      </trkpt>
      <trkpt lat="46.66857" lon="5.81648">
        <ele>604.1</ele>
        <time>2021-09-07T12:57:53Z</time>
      </trkpt>
      <trkpt lat="46.66853" lon="5.81653">
        <ele>603.2</ele>
        <time>2021-09-07T12:57:57Z</time>
      </trkpt>
      <trkpt lat="46.6685" lon="5.81658">
        <ele>602.7</ele>
        <time>2021-09-07T12:58:00Z</time>
      </trkpt>
      <trkpt lat="46.66846" lon="5.81662">
        <ele>602.4</ele>
        <time>2021-09-07T12:58:03Z</time>
      </trkpt>
      <trkpt lat="46.66841" lon="5.81666">
        <ele>602.5</ele>
        <time>2021-09-07T12:58:07Z</time>
      </trkpt>
      <trkpt lat="46.66838" lon="5.81671">
        <ele>602.6</ele>
        <time>2021-09-07T12:58:11Z</time>
      </trkpt>
      <trkpt lat="46.66837" lon="5.81677">
        <ele>602.5</ele>
        <time>2021-09-07T12:58:15Z</time>
      </trkpt>
      <trkpt lat="46.66835" lon="5.81684">
        <ele>601.9</ele>
        <time>2021-09-07T12:58:20Z</time>
      </trkpt>
      <trkpt lat="46.66833" lon="5.81692">
        <ele>600.9</ele>
        <time>2021-09-07T12:58:29Z</time>
      </trkpt>
      <trkpt lat="46.66828" lon="5.81694">
        <ele>601</ele>
        <time>2021-09-07T12:58:35Z</time>
      </trkpt>
      <trkpt lat="46.66825" lon="5.81699">
        <ele>600.9</ele>
        <time>2021-09-07T12:58:40Z</time>
      </trkpt>
      <trkpt lat="46.66821" lon="5.81705">
        <ele>600.7</ele>
        <time>2021-09-07T12:58:45Z</time>
      </trkpt>
      <trkpt lat="46.66819" lon="5.81711">
        <ele>600.2</ele>
        <time>2021-09-07T12:58:50Z</time>
      </trkpt>
      <trkpt lat="46.66817" lon="5.81719">
        <ele>599.6</ele>
        <time>2021-09-07T12:58:55Z</time>
      </trkpt>
      <trkpt lat="46.66815" lon="5.81726">
        <ele>599.3</ele>
        <time>2021-09-07T12:58:59Z</time>
      </trkpt>
      <trkpt lat="46.66813" lon="5.81734">
        <ele>599.4</ele>
        <time>2021-09-07T12:59:03Z</time>
      </trkpt>
      <trkpt lat="46.66813" lon="5.81741">
        <ele>599.1</ele>
        <time>2021-09-07T12:59:08Z</time>
      </trkpt>
      <trkpt lat="46.66812" lon="5.81749">
        <ele>598.9</ele>
        <time>2021-09-07T12:59:14Z</time>
      </trkpt>
      <trkpt lat="46.66813" lon="5.81756">
        <ele>598.7</ele>
        <time>2021-09-07T12:59:19Z</time>
      </trkpt>
      <trkpt lat="46.66814" lon="5.81763">
        <ele>599</ele>
        <time>2021-09-07T12:59:23Z</time>
      </trkpt>
      <trkpt lat="46.66815" lon="5.81771">
        <ele>599</ele>
        <time>2021-09-07T12:59:28Z</time>
      </trkpt>
      <trkpt lat="46.66815" lon="5.81779">
        <ele>598.6</ele>
        <time>2021-09-07T12:59:35Z</time>
      </trkpt>
      <trkpt lat="46.66814" lon="5.81786">
        <ele>598.1</ele>
        <time>2021-09-07T12:59:41Z</time>
      </trkpt>
      <trkpt lat="46.66812" lon="5.81792">
        <ele>597.9</ele>
        <time>2021-09-07T12:59:46Z</time>
      </trkpt>
      <trkpt lat="46.6681" lon="5.818">
        <ele>597.6</ele>
        <time>2021-09-07T12:59:51Z</time>
      </trkpt>
      <trkpt lat="46.6681" lon="5.81808">
        <ele>597.1</ele>
        <time>2021-09-07T12:59:56Z</time>
      </trkpt>
      <trkpt lat="46.66808" lon="5.81814">
        <ele>596.3</ele>
        <time>2021-09-07T13:00:01Z</time>
      </trkpt>
      <trkpt lat="46.66806" lon="5.81821">
        <ele>595.2</ele>
        <time>2021-09-07T13:00:06Z</time>
      </trkpt>
      <trkpt lat="46.66803" lon="5.81827">
        <ele>593.8</ele>
        <time>2021-09-07T13:00:12Z</time>
      </trkpt>
      <trkpt lat="46.66801" lon="5.81833">
        <ele>592.7</ele>
        <time>2021-09-07T13:00:17Z</time>
      </trkpt>
      <trkpt lat="46.66799" lon="5.81839">
        <ele>592.4</ele>
        <time>2021-09-07T13:00:22Z</time>
      </trkpt>
      <trkpt lat="46.66797" lon="5.81846">
        <ele>592.6</ele>
        <time>2021-09-07T13:00:28Z</time>
      </trkpt>
      <trkpt lat="46.66795" lon="5.81853">
        <ele>592.8</ele>
        <time>2021-09-07T13:00:33Z</time>
      </trkpt>
      <trkpt lat="46.66794" lon="5.81859">
        <ele>592.7</ele>
        <time>2021-09-07T13:00:37Z</time>
      </trkpt>
      <trkpt lat="46.66792" lon="5.81866">
        <ele>592.2</ele>
        <time>2021-09-07T13:00:41Z</time>
      </trkpt>
      <trkpt lat="46.66792" lon="5.81872">
        <ele>591.3</ele>
        <time>2021-09-07T13:00:45Z</time>
      </trkpt>
      <trkpt lat="46.66792" lon="5.8188">
        <ele>589.4</ele>
        <time>2021-09-07T13:00:51Z</time>
      </trkpt>
      <trkpt lat="46.6679" lon="5.81887">
        <ele>588.5</ele>
        <time>2021-09-07T13:00:55Z</time>
      </trkpt>
      <trkpt lat="46.66789" lon="5.81894">
        <ele>587.6</ele>
        <time>2021-09-07T13:01:00Z</time>
      </trkpt>
      <trkpt lat="46.66787" lon="5.81901">
        <ele>586.9</ele>
        <time>2021-09-07T13:01:04Z</time>
      </trkpt>
      <trkpt lat="46.66786" lon="5.81908">
        <ele>586.4</ele>
        <time>2021-09-07T13:01:08Z</time>
      </trkpt>
      <trkpt lat="46.66785" lon="5.81915">
        <ele>585.5</ele>
        <time>2021-09-07T13:01:12Z</time>
      </trkpt>
      <trkpt lat="46.66784" lon="5.81922">
        <ele>583.7</ele>
        <time>2021-09-07T13:01:17Z</time>
      </trkpt>
      <trkpt lat="46.66784" lon="5.81929">
        <ele>582</ele>
        <time>2021-09-07T13:01:22Z</time>
      </trkpt>
      <trkpt lat="46.66784" lon="5.81937">
        <ele>580.5</ele>
        <time>2021-09-07T13:01:27Z</time>
      </trkpt>
      <trkpt lat="46.66785" lon="5.81944">
        <ele>579.7</ele>
        <time>2021-09-07T13:01:32Z</time>
      </trkpt>
      <trkpt lat="46.66786" lon="5.81951">
        <ele>579.4</ele>
        <time>2021-09-07T13:01:37Z</time>
      </trkpt>
      <trkpt lat="46.66786" lon="5.81958">
        <ele>579.1</ele>
        <time>2021-09-07T13:01:43Z</time>
      </trkpt>
      <trkpt lat="46.66787" lon="5.81964">
        <ele>578.9</ele>
        <time>2021-09-07T13:01:48Z</time>
      </trkpt>
      <trkpt lat="46.66788" lon="5.81971">
        <ele>578.5</ele>
        <time>2021-09-07T13:01:53Z</time>
      </trkpt>
      <trkpt lat="46.66789" lon="5.81979">
        <ele>578.7</ele>
        <time>2021-09-07T13:01:57Z</time>
      </trkpt>
      <trkpt lat="46.66789" lon="5.81986">
        <ele>579.1</ele>
        <time>2021-09-07T13:02:01Z</time>
      </trkpt>
      <trkpt lat="46.66792" lon="5.81992">
        <ele>579</ele>
        <time>2021-09-07T13:02:06Z</time>
      </trkpt>
      <trkpt lat="46.66794" lon="5.81999">
        <ele>578.4</ele>
        <time>2021-09-07T13:02:11Z</time>
      </trkpt>
      <trkpt lat="46.66797" lon="5.82004">
        <ele>577.6</ele>
        <time>2021-09-07T13:02:16Z</time>
      </trkpt>
      <trkpt lat="46.66801" lon="5.8201">
        <ele>577.5</ele>
        <time>2021-09-07T13:02:22Z</time>
      </trkpt>
      <trkpt lat="46.66803" lon="5.82016">
        <ele>577.6</ele>
        <time>2021-09-07T13:02:27Z</time>
      </trkpt>
      <trkpt lat="46.66805" lon="5.82023">
        <ele>577.6</ele>
        <time>2021-09-07T13:02:32Z</time>
      </trkpt>
      <trkpt lat="46.66806" lon="5.8203">
        <ele>577.8</ele>
        <time>2021-09-07T13:02:37Z</time>
      </trkpt>
      <trkpt lat="46.66806" lon="5.82038">
        <ele>577.1</ele>
        <time>2021-09-07T13:02:42Z</time>
      </trkpt>
      <trkpt lat="46.66807" lon="5.82046">
        <ele>577.1</ele>
        <time>2021-09-07T13:02:46Z</time>
      </trkpt>
      <trkpt lat="46.66807" lon="5.82053">
        <ele>576.9</ele>
        <time>2021-09-07T13:02:51Z</time>
      </trkpt>
      <trkpt lat="46.66807" lon="5.8206">
        <ele>576.5</ele>
        <time>2021-09-07T13:02:56Z</time>
      </trkpt>
      <trkpt lat="46.66806" lon="5.82066">
        <ele>575.9</ele>
        <time>2021-09-07T13:03:01Z</time>
      </trkpt>
      <trkpt lat="46.66805" lon="5.82074">
        <ele>575.3</ele>
        <time>2021-09-07T13:03:06Z</time>
      </trkpt>
      <trkpt lat="46.66803" lon="5.82081">
        <ele>575.7</ele>
        <time>2021-09-07T13:03:12Z</time>
      </trkpt>
      <trkpt lat="46.668" lon="5.82086">
        <ele>575.9</ele>
        <time>2021-09-07T13:03:17Z</time>
      </trkpt>
      <trkpt lat="46.66797" lon="5.8209">
        <ele>576.2</ele>
        <time>2021-09-07T13:03:21Z</time>
      </trkpt>
      <trkpt lat="46.66794" lon="5.82097">
        <ele>576.5</ele>
        <time>2021-09-07T13:03:27Z</time>
      </trkpt>
      <trkpt lat="46.66792" lon="5.82104">
        <ele>577.1</ele>
        <time>2021-09-07T13:03:32Z</time>
      </trkpt>
      <trkpt lat="46.66791" lon="5.82112">
        <ele>577.7</ele>
        <time>2021-09-07T13:03:36Z</time>
      </trkpt>
      <trkpt lat="46.6679" lon="5.8212">
        <ele>578.6</ele>
        <time>2021-09-07T13:03:40Z</time>
      </trkpt>
      <trkpt lat="46.66789" lon="5.82127">
        <ele>579.4</ele>
        <time>2021-09-07T13:03:44Z</time>
      </trkpt>
      <trkpt lat="46.66787" lon="5.82133">
        <ele>580</ele>
        <time>2021-09-07T13:03:48Z</time>
      </trkpt>
      <trkpt lat="46.66785" lon="5.82139">
        <ele>580.4</ele>
        <time>2021-09-07T13:03:52Z</time>
      </trkpt>
      <trkpt lat="46.66783" lon="5.82146">
        <ele>580.7</ele>
        <time>2021-09-07T13:03:58Z</time>
      </trkpt>
      <trkpt lat="46.6678" lon="5.82152">
        <ele>581</ele>
        <time>2021-09-07T13:04:03Z</time>
      </trkpt>
      <trkpt lat="46.66778" lon="5.82158">
        <ele>581.7</ele>
        <time>2021-09-07T13:04:07Z</time>
      </trkpt>
      <trkpt lat="46.66775" lon="5.82164">
        <ele>582.1</ele>
        <time>2021-09-07T13:04:11Z</time>
      </trkpt>
      <trkpt lat="46.66772" lon="5.8217">
        <ele>582.1</ele>
        <time>2021-09-07T13:04:14Z</time>
      </trkpt>
      <trkpt lat="46.6677" lon="5.82176">
        <ele>582.5</ele>
        <time>2021-09-07T13:04:18Z</time>
      </trkpt>
      <trkpt lat="46.66768" lon="5.82183">
        <ele>583.2</ele>
        <time>2021-09-07T13:04:23Z</time>
      </trkpt>
      <trkpt lat="46.66766" lon="5.82189">
        <ele>583.1</ele>
        <time>2021-09-07T13:04:30Z</time>
      </trkpt>
      <trkpt lat="46.66764" lon="5.82196">
        <ele>580.9</ele>
        <time>2021-09-07T13:04:57Z</time>
      </trkpt>
      <trkpt lat="46.66762" lon="5.82202">
        <ele>581.2</ele>
        <time>2021-09-07T13:05:02Z</time>
      </trkpt>
      <trkpt lat="46.66757" lon="5.82208">
        <ele>581.1</ele>
        <time>2021-09-07T13:05:07Z</time>
      </trkpt>
      <trkpt lat="46.66761" lon="5.82214">
        <ele>585.8</ele>
        <time>2021-09-07T13:05:41Z</time>
      </trkpt>
      <trkpt lat="46.66764" lon="5.8222">
        <ele>586.3</ele>
        <time>2021-09-07T13:05:45Z</time>
      </trkpt>
      <trkpt lat="46.66767" lon="5.82226">
        <ele>586</ele>
        <time>2021-09-07T13:05:49Z</time>
      </trkpt>
      <trkpt lat="46.66768" lon="5.82233">
        <ele>585.2</ele>
        <time>2021-09-07T13:05:54Z</time>
      </trkpt>
      <trkpt lat="46.6677" lon="5.8224">
        <ele>585.1</ele>
        <time>2021-09-07T13:05:59Z</time>
      </trkpt>
      <trkpt lat="46.66774" lon="5.82244">
        <ele>586.6</ele>
        <time>2021-09-07T13:06:04Z</time>
      </trkpt>
      <trkpt lat="46.66779" lon="5.82245">
        <ele>588.7</ele>
        <time>2021-09-07T13:06:15Z</time>
      </trkpt>
      <trkpt lat="46.66778" lon="5.82251">
        <ele>588.9</ele>
        <time>2021-09-07T13:06:20Z</time>
      </trkpt>
      <trkpt lat="46.66776" lon="5.82257">
        <ele>588.9</ele>
        <time>2021-09-07T13:06:26Z</time>
      </trkpt>
      <trkpt lat="46.66775" lon="5.82264">
        <ele>588.5</ele>
        <time>2021-09-07T13:06:37Z</time>
      </trkpt>
      <trkpt lat="46.66776" lon="5.82271">
        <ele>587.4</ele>
        <time>2021-09-07T13:06:43Z</time>
      </trkpt>
      <trkpt lat="46.66779" lon="5.82277">
        <ele>585.9</ele>
        <time>2021-09-07T13:06:49Z</time>
      </trkpt>
      <trkpt lat="46.66783" lon="5.82281">
        <ele>585.2</ele>
        <time>2021-09-07T13:06:53Z</time>
      </trkpt>
      <trkpt lat="46.66787" lon="5.82286">
        <ele>585.3</ele>
        <time>2021-09-07T13:06:57Z</time>
      </trkpt>
      <trkpt lat="46.6679" lon="5.82292">
        <ele>585.1</ele>
        <time>2021-09-07T13:07:02Z</time>
      </trkpt>
      <trkpt lat="46.66788" lon="5.82299">
        <ele>583.8</ele>
        <time>2021-09-07T13:07:09Z</time>
      </trkpt>
      <trkpt lat="46.66785" lon="5.82305">
        <ele>582.2</ele>
        <time>2021-09-07T13:07:14Z</time>
      </trkpt>
      <trkpt lat="46.66783" lon="5.82311">
        <ele>581.1</ele>
        <time>2021-09-07T13:07:18Z</time>
      </trkpt>
      <trkpt lat="46.6678" lon="5.82317">
        <ele>580.2</ele>
        <time>2021-09-07T13:07:24Z</time>
      </trkpt>
      <trkpt lat="46.66776" lon="5.82321">
        <ele>579.9</ele>
        <time>2021-09-07T13:07:28Z</time>
      </trkpt>
      <trkpt lat="46.66772" lon="5.82326">
        <ele>579.8</ele>
        <time>2021-09-07T13:07:33Z</time>
      </trkpt>
      <trkpt lat="46.66768" lon="5.8233">
        <ele>579.8</ele>
        <time>2021-09-07T13:07:37Z</time>
      </trkpt>
      <trkpt lat="46.66763" lon="5.82335">
        <ele>579.5</ele>
        <time>2021-09-07T13:07:41Z</time>
      </trkpt>
      <trkpt lat="46.66759" lon="5.82341">
        <ele>579.5</ele>
        <time>2021-09-07T13:07:45Z</time>
      </trkpt>
      <trkpt lat="46.66755" lon="5.82346">
        <ele>579.3</ele>
        <time>2021-09-07T13:07:50Z</time>
      </trkpt>
      <trkpt lat="46.66751" lon="5.82351">
        <ele>578.8</ele>
        <time>2021-09-07T13:07:56Z</time>
      </trkpt>
      <trkpt lat="46.66746" lon="5.82354">
        <ele>578.3</ele>
        <time>2021-09-07T13:08:00Z</time>
      </trkpt>
      <trkpt lat="46.66742" lon="5.82358">
        <ele>578.1</ele>
        <time>2021-09-07T13:08:04Z</time>
      </trkpt>
      <trkpt lat="46.66738" lon="5.82361">
        <ele>578</ele>
        <time>2021-09-07T13:08:09Z</time>
      </trkpt>
      <trkpt lat="46.66734" lon="5.82364">
        <ele>578.2</ele>
        <time>2021-09-07T13:08:13Z</time>
      </trkpt>
      <trkpt lat="46.6673" lon="5.82368">
        <ele>578.4</ele>
        <time>2021-09-07T13:08:18Z</time>
      </trkpt>
      <trkpt lat="46.66727" lon="5.82374">
        <ele>578.4</ele>
        <time>2021-09-07T13:08:24Z</time>
      </trkpt>
      <trkpt lat="46.66723" lon="5.82377">
        <ele>578.3</ele>
        <time>2021-09-07T13:08:29Z</time>
      </trkpt>
      <trkpt lat="46.66718" lon="5.82381">
        <ele>578.8</ele>
        <time>2021-09-07T13:08:33Z</time>
      </trkpt>
      <trkpt lat="46.66714" lon="5.82386">
        <ele>578.5</ele>
        <time>2021-09-07T13:08:38Z</time>
      </trkpt>
      <trkpt lat="46.66711" lon="5.82391">
        <ele>578.4</ele>
        <time>2021-09-07T13:08:42Z</time>
      </trkpt>
      <trkpt lat="46.66708" lon="5.82397">
        <ele>578.7</ele>
        <time>2021-09-07T13:08:46Z</time>
      </trkpt>
      <trkpt lat="46.66704" lon="5.82402">
        <ele>579.1</ele>
        <time>2021-09-07T13:08:51Z</time>
      </trkpt>
      <trkpt lat="46.667" lon="5.82407">
        <ele>579.5</ele>
        <time>2021-09-07T13:08:55Z</time>
      </trkpt>
      <trkpt lat="46.66696" lon="5.82412">
        <ele>579.6</ele>
        <time>2021-09-07T13:09:00Z</time>
      </trkpt>
      <trkpt lat="46.66692" lon="5.82415">
        <ele>579.5</ele>
        <time>2021-09-07T13:09:04Z</time>
      </trkpt>
      <trkpt lat="46.66687" lon="5.82418">
        <ele>579.8</ele>
        <time>2021-09-07T13:09:07Z</time>
      </trkpt>
      <trkpt lat="46.66682" lon="5.82422">
        <ele>581.2</ele>
        <time>2021-09-07T13:09:11Z</time>
      </trkpt>
      <trkpt lat="46.66678" lon="5.82426">
        <ele>582.2</ele>
        <time>2021-09-07T13:09:15Z</time>
      </trkpt>
      <trkpt lat="46.66674" lon="5.8243">
        <ele>582.8</ele>
        <time>2021-09-07T13:09:20Z</time>
      </trkpt>
      <trkpt lat="46.66669" lon="5.82433">
        <ele>583</ele>
        <time>2021-09-07T13:09:25Z</time>
      </trkpt>
      <trkpt lat="46.66665" lon="5.82437">
        <ele>583.3</ele>
        <time>2021-09-07T13:09:30Z</time>
      </trkpt>
      <trkpt lat="46.66661" lon="5.8244">
        <ele>583.1</ele>
        <time>2021-09-07T13:09:34Z</time>
      </trkpt>
      <trkpt lat="46.66657" lon="5.82444">
        <ele>582.6</ele>
        <time>2021-09-07T13:09:38Z</time>
      </trkpt>
      <trkpt lat="46.66653" lon="5.82448">
        <ele>581.6</ele>
        <time>2021-09-07T13:09:43Z</time>
      </trkpt>
      <trkpt lat="46.66649" lon="5.82454">
        <ele>580.9</ele>
        <time>2021-09-07T13:09:48Z</time>
      </trkpt>
      <trkpt lat="46.66645" lon="5.82459">
        <ele>580.7</ele>
        <time>2021-09-07T13:09:54Z</time>
      </trkpt>
      <trkpt lat="46.66641" lon="5.82464">
        <ele>581</ele>
        <time>2021-09-07T13:09:58Z</time>
      </trkpt>
      <trkpt lat="46.66637" lon="5.82469">
        <ele>581.2</ele>
        <time>2021-09-07T13:10:02Z</time>
      </trkpt>
      <trkpt lat="46.66634" lon="5.82474">
        <ele>581.6</ele>
        <time>2021-09-07T13:10:06Z</time>
      </trkpt>
      <trkpt lat="46.66629" lon="5.82478">
        <ele>582.2</ele>
        <time>2021-09-07T13:10:11Z</time>
      </trkpt>
      <trkpt lat="46.66624" lon="5.8248">
        <ele>583.1</ele>
        <time>2021-09-07T13:10:16Z</time>
      </trkpt>
      <trkpt lat="46.66619" lon="5.8248">
        <ele>583.9</ele>
        <time>2021-09-07T13:10:20Z</time>
      </trkpt>
      <trkpt lat="46.66615" lon="5.82482">
        <ele>584.5</ele>
        <time>2021-09-07T13:10:25Z</time>
      </trkpt>
      <trkpt lat="46.6661" lon="5.82485">
        <ele>585.1</ele>
        <time>2021-09-07T13:10:29Z</time>
      </trkpt>
      <trkpt lat="46.66605" lon="5.82488">
        <ele>585.6</ele>
        <time>2021-09-07T13:10:34Z</time>
      </trkpt>
      <trkpt lat="46.666" lon="5.82492">
        <ele>584.9</ele>
        <time>2021-09-07T13:10:39Z</time>
      </trkpt>
      <trkpt lat="46.66595" lon="5.82493">
        <ele>583.7</ele>
        <time>2021-09-07T13:10:44Z</time>
      </trkpt>
      <trkpt lat="46.6659" lon="5.82495">
        <ele>582.1</ele>
        <time>2021-09-07T13:10:49Z</time>
      </trkpt>
      <trkpt lat="46.66586" lon="5.82497">
        <ele>580.9</ele>
        <time>2021-09-07T13:10:54Z</time>
      </trkpt>
      <trkpt lat="46.66581" lon="5.82499">
        <ele>580.1</ele>
        <time>2021-09-07T13:10:58Z</time>
      </trkpt>
      <trkpt lat="46.66577" lon="5.82502">
        <ele>579.9</ele>
        <time>2021-09-07T13:11:02Z</time>
      </trkpt>
      <trkpt lat="46.66572" lon="5.82505">
        <ele>579.6</ele>
        <time>2021-09-07T13:11:07Z</time>
      </trkpt>
      <trkpt lat="46.66567" lon="5.82508">
        <ele>580</ele>
        <time>2021-09-07T13:11:12Z</time>
      </trkpt>
      <trkpt lat="46.66562" lon="5.82512">
        <ele>580.3</ele>
        <time>2021-09-07T13:11:17Z</time>
      </trkpt>
      <trkpt lat="46.66558" lon="5.82516">
        <ele>580.5</ele>
        <time>2021-09-07T13:11:21Z</time>
      </trkpt>
      <trkpt lat="46.66554" lon="5.82521">
        <ele>580.4</ele>
        <time>2021-09-07T13:11:25Z</time>
      </trkpt>
      <trkpt lat="46.6655" lon="5.82526">
        <ele>580.5</ele>
        <time>2021-09-07T13:11:31Z</time>
      </trkpt>
      <trkpt lat="46.66546" lon="5.8253">
        <ele>580.2</ele>
        <time>2021-09-07T13:11:36Z</time>
      </trkpt>
      <trkpt lat="46.66541" lon="5.82533">
        <ele>580.5</ele>
        <time>2021-09-07T13:11:42Z</time>
      </trkpt>
      <trkpt lat="46.66537" lon="5.82537">
        <ele>581.3</ele>
        <time>2021-09-07T13:11:46Z</time>
      </trkpt>
      <trkpt lat="46.66533" lon="5.82541">
        <ele>582</ele>
        <time>2021-09-07T13:11:50Z</time>
      </trkpt>
      <trkpt lat="46.66529" lon="5.82545">
        <ele>582.2</ele>
        <time>2021-09-07T13:11:56Z</time>
      </trkpt>
      <trkpt lat="46.66524" lon="5.82548">
        <ele>582.3</ele>
        <time>2021-09-07T13:12:00Z</time>
      </trkpt>
      <trkpt lat="46.66519" lon="5.82549">
        <ele>582.4</ele>
        <time>2021-09-07T13:12:05Z</time>
      </trkpt>
      <trkpt lat="46.66513" lon="5.82551">
        <ele>582</ele>
        <time>2021-09-07T13:12:10Z</time>
      </trkpt>
      <trkpt lat="46.66508" lon="5.82554">
        <ele>581.8</ele>
        <time>2021-09-07T13:12:14Z</time>
      </trkpt>
      <trkpt lat="46.66504" lon="5.82555">
        <ele>581.7</ele>
        <time>2021-09-07T13:12:17Z</time>
      </trkpt>
      <trkpt lat="46.66499" lon="5.82556">
        <ele>582</ele>
        <time>2021-09-07T13:12:21Z</time>
      </trkpt>
      <trkpt lat="46.66495" lon="5.82557">
        <ele>582.4</ele>
        <time>2021-09-07T13:12:25Z</time>
      </trkpt>
      <trkpt lat="46.6649" lon="5.82558">
        <ele>582.2</ele>
        <time>2021-09-07T13:12:30Z</time>
      </trkpt>
      <trkpt lat="46.66485" lon="5.8256">
        <ele>581.6</ele>
        <time>2021-09-07T13:12:36Z</time>
      </trkpt>
      <trkpt lat="46.66481" lon="5.82562">
        <ele>581.3</ele>
        <time>2021-09-07T13:12:40Z</time>
      </trkpt>
      <trkpt lat="46.66476" lon="5.82565">
        <ele>581</ele>
        <time>2021-09-07T13:12:44Z</time>
      </trkpt>
      <trkpt lat="46.66471" lon="5.82567">
        <ele>580.6</ele>
        <time>2021-09-07T13:12:48Z</time>
      </trkpt>
      <trkpt lat="46.66466" lon="5.82568">
        <ele>580.2</ele>
        <time>2021-09-07T13:12:52Z</time>
      </trkpt>
      <trkpt lat="46.66461" lon="5.82569">
        <ele>579.5</ele>
        <time>2021-09-07T13:12:57Z</time>
      </trkpt>
      <trkpt lat="46.66456" lon="5.82567">
        <ele>579.7</ele>
        <time>2021-09-07T13:13:02Z</time>
      </trkpt>
      <trkpt lat="46.66451" lon="5.82567">
        <ele>581</ele>
        <time>2021-09-07T13:13:08Z</time>
      </trkpt>
      <trkpt lat="46.66446" lon="5.82566">
        <ele>581.8</ele>
        <time>2021-09-07T13:13:14Z</time>
      </trkpt>
      <trkpt lat="46.66442" lon="5.82566">
        <ele>582.1</ele>
        <time>2021-09-07T13:13:18Z</time>
      </trkpt>
      <trkpt lat="46.66437" lon="5.82566">
        <ele>582.6</ele>
        <time>2021-09-07T13:13:22Z</time>
      </trkpt>
      <trkpt lat="46.66433" lon="5.82564">
        <ele>583.7</ele>
        <time>2021-09-07T13:13:27Z</time>
      </trkpt>
      <trkpt lat="46.66428" lon="5.82562">
        <ele>584.8</ele>
        <time>2021-09-07T13:13:33Z</time>
      </trkpt>
      <trkpt lat="46.66423" lon="5.82559">
        <ele>585.5</ele>
        <time>2021-09-07T13:13:39Z</time>
      </trkpt>
      <trkpt lat="46.66418" lon="5.8256">
        <ele>586.2</ele>
        <time>2021-09-07T13:13:44Z</time>
      </trkpt>
      <trkpt lat="46.66412" lon="5.8256">
        <ele>587.2</ele>
        <time>2021-09-07T13:13:49Z</time>
      </trkpt>
      <trkpt lat="46.66407" lon="5.82562">
        <ele>588.2</ele>
        <time>2021-09-07T13:13:54Z</time>
      </trkpt>
      <trkpt lat="46.66403" lon="5.82563">
        <ele>589</ele>
        <time>2021-09-07T13:13:59Z</time>
      </trkpt>
      <trkpt lat="46.66397" lon="5.82565">
        <ele>589.8</ele>
        <time>2021-09-07T13:14:03Z</time>
      </trkpt>
      <trkpt lat="46.66393" lon="5.82569">
        <ele>590.8</ele>
        <time>2021-09-07T13:14:08Z</time>
      </trkpt>
      <trkpt lat="46.6639" lon="5.82573">
        <ele>591.6</ele>
        <time>2021-09-07T13:14:13Z</time>
      </trkpt>
      <trkpt lat="46.66386" lon="5.8258">
        <ele>591.9</ele>
        <time>2021-09-07T13:14:17Z</time>
      </trkpt>
      <trkpt lat="46.66384" lon="5.82586">
        <ele>591.7</ele>
        <time>2021-09-07T13:14:21Z</time>
      </trkpt>
      <trkpt lat="46.66382" lon="5.82592">
        <ele>591.8</ele>
        <time>2021-09-07T13:14:25Z</time>
      </trkpt>
      <trkpt lat="46.6638" lon="5.826">
        <ele>591.9</ele>
        <time>2021-09-07T13:14:30Z</time>
      </trkpt>
      <trkpt lat="46.66378" lon="5.82606">
        <ele>592</ele>
        <time>2021-09-07T13:14:34Z</time>
      </trkpt>
      <trkpt lat="46.66375" lon="5.82612">
        <ele>591.8</ele>
        <time>2021-09-07T13:14:39Z</time>
      </trkpt>
      <trkpt lat="46.66371" lon="5.82617">
        <ele>591.2</ele>
        <time>2021-09-07T13:14:45Z</time>
      </trkpt>
      <trkpt lat="46.66367" lon="5.82613">
        <ele>590.2</ele>
        <time>2021-09-07T13:14:50Z</time>
      </trkpt>
      <trkpt lat="46.66364" lon="5.82606">
        <ele>589.2</ele>
        <time>2021-09-07T13:14:55Z</time>
      </trkpt>
      <trkpt lat="46.66363" lon="5.82599">
        <ele>588.7</ele>
        <time>2021-09-07T13:14:59Z</time>
      </trkpt>
      <trkpt lat="46.66363" lon="5.82592">
        <ele>588.3</ele>
        <time>2021-09-07T13:15:04Z</time>
      </trkpt>
      <trkpt lat="46.66364" lon="5.82584">
        <ele>588</ele>
        <time>2021-09-07T13:15:09Z</time>
      </trkpt>
      <trkpt lat="46.66364" lon="5.82577">
        <ele>587.9</ele>
        <time>2021-09-07T13:15:13Z</time>
      </trkpt>
      <trkpt lat="46.66365" lon="5.82569">
        <ele>588</ele>
        <time>2021-09-07T13:15:17Z</time>
      </trkpt>
      <trkpt lat="46.66366" lon="5.82561">
        <ele>588.6</ele>
        <time>2021-09-07T13:15:24Z</time>
      </trkpt>
      <trkpt lat="46.66367" lon="5.82554">
        <ele>588.6</ele>
        <time>2021-09-07T13:15:31Z</time>
      </trkpt>
      <trkpt lat="46.66367" lon="5.82547">
        <ele>587.9</ele>
        <time>2021-09-07T13:15:36Z</time>
      </trkpt>
      <trkpt lat="46.66368" lon="5.82539">
        <ele>586.8</ele>
        <time>2021-09-07T13:15:41Z</time>
      </trkpt>
      <trkpt lat="46.6637" lon="5.82533">
        <ele>585.8</ele>
        <time>2021-09-07T13:15:45Z</time>
      </trkpt>
      <trkpt lat="46.66371" lon="5.82526">
        <ele>584.4</ele>
        <time>2021-09-07T13:15:50Z</time>
      </trkpt>
      <trkpt lat="46.6637" lon="5.82519">
        <ele>582.7</ele>
        <time>2021-09-07T13:15:56Z</time>
      </trkpt>
      <trkpt lat="46.66371" lon="5.82511">
        <ele>581.5</ele>
        <time>2021-09-07T13:16:00Z</time>
      </trkpt>
      <trkpt lat="46.66373" lon="5.82505">
        <ele>580.2</ele>
        <time>2021-09-07T13:16:04Z</time>
      </trkpt>
      <trkpt lat="46.66375" lon="5.82498">
        <ele>579.3</ele>
        <time>2021-09-07T13:16:08Z</time>
      </trkpt>
      <trkpt lat="46.66376" lon="5.82491">
        <ele>578.1</ele>
        <time>2021-09-07T13:16:13Z</time>
      </trkpt>
      <trkpt lat="46.66377" lon="5.82482">
        <ele>577.8</ele>
        <time>2021-09-07T13:16:18Z</time>
      </trkpt>
      <trkpt lat="46.66377" lon="5.82476">
        <ele>577.8</ele>
        <time>2021-09-07T13:16:22Z</time>
      </trkpt>
      <trkpt lat="46.66378" lon="5.82469">
        <ele>578.1</ele>
        <time>2021-09-07T13:16:26Z</time>
      </trkpt>
      <trkpt lat="46.66378" lon="5.82462">
        <ele>578.1</ele>
        <time>2021-09-07T13:16:30Z</time>
      </trkpt>
      <trkpt lat="46.66378" lon="5.82454">
        <ele>578.5</ele>
        <time>2021-09-07T13:16:34Z</time>
      </trkpt>
      <trkpt lat="46.66375" lon="5.82448">
        <ele>579.3</ele>
        <time>2021-09-07T13:16:38Z</time>
      </trkpt>
      <trkpt lat="46.66375" lon="5.82441">
        <ele>580.4</ele>
        <time>2021-09-07T13:16:43Z</time>
      </trkpt>
      <trkpt lat="46.66374" lon="5.82433">
        <ele>581.1</ele>
        <time>2021-09-07T13:16:48Z</time>
      </trkpt>
      <trkpt lat="46.66373" lon="5.82426">
        <ele>581.5</ele>
        <time>2021-09-07T13:16:52Z</time>
      </trkpt>
      <trkpt lat="46.66373" lon="5.82418">
        <ele>582.1</ele>
        <time>2021-09-07T13:16:57Z</time>
      </trkpt>
      <trkpt lat="46.66373" lon="5.82411">
        <ele>582.1</ele>
        <time>2021-09-07T13:17:01Z</time>
      </trkpt>
      <trkpt lat="46.66374" lon="5.82404">
        <ele>581.8</ele>
        <time>2021-09-07T13:17:05Z</time>
      </trkpt>
      <trkpt lat="46.66374" lon="5.82396">
        <ele>581.8</ele>
        <time>2021-09-07T13:17:10Z</time>
      </trkpt>
      <trkpt lat="46.66374" lon="5.82389">
        <ele>582.6</ele>
        <time>2021-09-07T13:17:14Z</time>
      </trkpt>
      <trkpt lat="46.66374" lon="5.82381">
        <ele>583.7</ele>
        <time>2021-09-07T13:17:20Z</time>
      </trkpt>
      <trkpt lat="46.66374" lon="5.82374">
        <ele>584.2</ele>
        <time>2021-09-07T13:17:25Z</time>
      </trkpt>
      <trkpt lat="46.66374" lon="5.82367">
        <ele>584.3</ele>
        <time>2021-09-07T13:17:29Z</time>
      </trkpt>
      <trkpt lat="46.66372" lon="5.8236">
        <ele>584.5</ele>
        <time>2021-09-07T13:17:34Z</time>
      </trkpt>
      <trkpt lat="46.66373" lon="5.82352">
        <ele>585.3</ele>
        <time>2021-09-07T13:17:40Z</time>
      </trkpt>
      <trkpt lat="46.66374" lon="5.82346">
        <ele>585.5</ele>
        <time>2021-09-07T13:17:45Z</time>
      </trkpt>
      <trkpt lat="46.66374" lon="5.82338">
        <ele>585.3</ele>
        <time>2021-09-07T13:17:50Z</time>
      </trkpt>
      <trkpt lat="46.66374" lon="5.8233">
        <ele>584.3</ele>
        <time>2021-09-07T13:17:54Z</time>
      </trkpt>
      <trkpt lat="46.66375" lon="5.82323">
        <ele>582.6</ele>
        <time>2021-09-07T13:17:59Z</time>
      </trkpt>
      <trkpt lat="46.66376" lon="5.82315">
        <ele>580.1</ele>
        <time>2021-09-07T13:18:04Z</time>
      </trkpt>
      <trkpt lat="46.66377" lon="5.82309">
        <ele>578.2</ele>
        <time>2021-09-07T13:18:08Z</time>
      </trkpt>
      <trkpt lat="46.66377" lon="5.82301">
        <ele>576.9</ele>
        <time>2021-09-07T13:18:13Z</time>
      </trkpt>
      <trkpt lat="46.66378" lon="5.82294">
        <ele>576.3</ele>
        <time>2021-09-07T13:18:18Z</time>
      </trkpt>
      <trkpt lat="46.6638" lon="5.82286">
        <ele>576.4</ele>
        <time>2021-09-07T13:18:24Z</time>
      </trkpt>
      <trkpt lat="46.6638" lon="5.82279">
        <ele>576.7</ele>
        <time>2021-09-07T13:18:29Z</time>
      </trkpt>
      <trkpt lat="46.66379" lon="5.82272">
        <ele>576.8</ele>
        <time>2021-09-07T13:18:33Z</time>
      </trkpt>
      <trkpt lat="46.6638" lon="5.82265">
        <ele>576.8</ele>
        <time>2021-09-07T13:18:37Z</time>
      </trkpt>
      <trkpt lat="46.66381" lon="5.82258">
        <ele>576.6</ele>
        <time>2021-09-07T13:18:41Z</time>
      </trkpt>
      <trkpt lat="46.66381" lon="5.82251">
        <ele>576.2</ele>
        <time>2021-09-07T13:18:45Z</time>
      </trkpt>
      <trkpt lat="46.66379" lon="5.82244">
        <ele>576.9</ele>
        <time>2021-09-07T13:18:50Z</time>
      </trkpt>
      <trkpt lat="46.6638" lon="5.82237">
        <ele>578</ele>
        <time>2021-09-07T13:18:55Z</time>
      </trkpt>
      <trkpt lat="46.66382" lon="5.8223">
        <ele>578.1</ele>
        <time>2021-09-07T13:19:01Z</time>
      </trkpt>
      <trkpt lat="46.66379" lon="5.82223">
        <ele>577.2</ele>
        <time>2021-09-07T13:19:06Z</time>
      </trkpt>
      <trkpt lat="46.66377" lon="5.82216">
        <ele>576.8</ele>
        <time>2021-09-07T13:19:10Z</time>
      </trkpt>
      <trkpt lat="46.66375" lon="5.8221">
        <ele>576.5</ele>
        <time>2021-09-07T13:19:16Z</time>
      </trkpt>
      <trkpt lat="46.66373" lon="5.82204">
        <ele>575.7</ele>
        <time>2021-09-07T13:19:21Z</time>
      </trkpt>
      <trkpt lat="46.66372" lon="5.82196">
        <ele>574.2</ele>
        <time>2021-09-07T13:19:27Z</time>
      </trkpt>
      <trkpt lat="46.66371" lon="5.82189">
        <ele>573.5</ele>
        <time>2021-09-07T13:19:33Z</time>
      </trkpt>
      <trkpt lat="46.66372" lon="5.82182">
        <ele>573.4</ele>
        <time>2021-09-07T13:19:38Z</time>
      </trkpt>
      <trkpt lat="46.66376" lon="5.82177">
        <ele>573.7</ele>
        <time>2021-09-07T13:19:43Z</time>
      </trkpt>
      <trkpt lat="46.66379" lon="5.82172">
        <ele>574.2</ele>
        <time>2021-09-07T13:19:47Z</time>
      </trkpt>
      <trkpt lat="46.6638" lon="5.82165">
        <ele>574.1</ele>
        <time>2021-09-07T13:19:54Z</time>
      </trkpt>
      <trkpt lat="46.66381" lon="5.82158">
        <ele>573.6</ele>
        <time>2021-09-07T13:19:59Z</time>
      </trkpt>
      <trkpt lat="46.66384" lon="5.82151">
        <ele>573.6</ele>
        <time>2021-09-07T13:20:04Z</time>
      </trkpt>
      <trkpt lat="46.66385" lon="5.82143">
        <ele>572.9</ele>
        <time>2021-09-07T13:20:08Z</time>
      </trkpt>
      <trkpt lat="46.66384" lon="5.82136">
        <ele>573</ele>
        <time>2021-09-07T13:20:14Z</time>
      </trkpt>
      <trkpt lat="46.66384" lon="5.82128">
        <ele>573.8</ele>
        <time>2021-09-07T13:20:21Z</time>
      </trkpt>
      <trkpt lat="46.66384" lon="5.82121">
        <ele>574.1</ele>
        <time>2021-09-07T13:20:26Z</time>
      </trkpt>
      <trkpt lat="46.66382" lon="5.82114">
        <ele>574.4</ele>
        <time>2021-09-07T13:20:32Z</time>
      </trkpt>
      <trkpt lat="46.66378" lon="5.82109">
        <ele>574.4</ele>
        <time>2021-09-07T13:20:36Z</time>
      </trkpt>
      <trkpt lat="46.66376" lon="5.82103">
        <ele>574.6</ele>
        <time>2021-09-07T13:20:41Z</time>
      </trkpt>
      <trkpt lat="46.66375" lon="5.82095">
        <ele>576.5</ele>
        <time>2021-09-07T13:21:26Z</time>
      </trkpt>
      <trkpt lat="46.66371" lon="5.82091">
        <ele>577.4</ele>
        <time>2021-09-07T13:21:32Z</time>
      </trkpt>
      <trkpt lat="46.66369" lon="5.82085">
        <ele>578.8</ele>
        <time>2021-09-07T13:21:39Z</time>
      </trkpt>
      <trkpt lat="46.66369" lon="5.82078">
        <ele>579.9</ele>
        <time>2021-09-07T13:21:47Z</time>
      </trkpt>
      <trkpt lat="46.6637" lon="5.82071">
        <ele>580.1</ele>
        <time>2021-09-07T13:21:59Z</time>
      </trkpt>
      <trkpt lat="46.66368" lon="5.82064">
        <ele>579.7</ele>
        <time>2021-09-07T13:22:07Z</time>
      </trkpt>
      <trkpt lat="46.66365" lon="5.82058">
        <ele>579.7</ele>
        <time>2021-09-07T13:22:17Z</time>
      </trkpt>
      <trkpt lat="46.66361" lon="5.82054">
        <ele>580</ele>
        <time>2021-09-07T13:22:22Z</time>
      </trkpt>
      <trkpt lat="46.66356" lon="5.82053">
        <ele>580</ele>
        <time>2021-09-07T13:22:29Z</time>
      </trkpt>
      <trkpt lat="46.66351" lon="5.82052">
        <ele>580.4</ele>
        <time>2021-09-07T13:22:35Z</time>
      </trkpt>
      <trkpt lat="46.66347" lon="5.82048">
        <ele>580.6</ele>
        <time>2021-09-07T13:22:48Z</time>
      </trkpt>
      <trkpt lat="46.66343" lon="5.82044">
        <ele>580.3</ele>
        <time>2021-09-07T13:22:53Z</time>
      </trkpt>
      <trkpt lat="46.66341" lon="5.82038">
        <ele>580.5</ele>
        <time>2021-09-07T13:23:05Z</time>
      </trkpt>
      <trkpt lat="46.66344" lon="5.82033">
        <ele>580.2</ele>
        <time>2021-09-07T13:23:11Z</time>
      </trkpt>
      <trkpt lat="46.66344" lon="5.82022">
        <ele>578.7</ele>
        <time>2021-09-07T13:23:36Z</time>
      </trkpt>
      <trkpt lat="46.66344" lon="5.82015">
        <ele>578.1</ele>
        <time>2021-09-07T13:23:39Z</time>
      </trkpt>
      <trkpt lat="46.66345" lon="5.82008">
        <ele>577.8</ele>
        <time>2021-09-07T13:23:43Z</time>
      </trkpt>
      <trkpt lat="46.66345" lon="5.82">
        <ele>578.1</ele>
        <time>2021-09-07T13:23:50Z</time>
      </trkpt>
      <trkpt lat="46.66341" lon="5.81994">
        <ele>579</ele>
        <time>2021-09-07T13:23:55Z</time>
      </trkpt>
      <trkpt lat="46.66342" lon="5.81987">
        <ele>580.4</ele>
        <time>2021-09-07T13:24:03Z</time>
      </trkpt>
      <trkpt lat="46.66344" lon="5.81981">
        <ele>581.9</ele>
        <time>2021-09-07T13:24:09Z</time>
      </trkpt>
      <trkpt lat="46.66347" lon="5.81975">
        <ele>582.8</ele>
        <time>2021-09-07T13:24:15Z</time>
      </trkpt>
      <trkpt lat="46.66348" lon="5.81968">
        <ele>582.9</ele>
        <time>2021-09-07T13:24:20Z</time>
      </trkpt>
      <trkpt lat="46.66347" lon="5.81961">
        <ele>582.9</ele>
        <time>2021-09-07T13:24:25Z</time>
      </trkpt>
      <trkpt lat="46.66346" lon="5.81953">
        <ele>583.1</ele>
        <time>2021-09-07T13:24:29Z</time>
      </trkpt>
      <trkpt lat="46.66346" lon="5.81947">
        <ele>583.6</ele>
        <time>2021-09-07T13:24:33Z</time>
      </trkpt>
      <trkpt lat="46.66346" lon="5.8194">
        <ele>584.8</ele>
        <time>2021-09-07T13:24:38Z</time>
      </trkpt>
      <trkpt lat="46.66345" lon="5.81933">
        <ele>586</ele>
        <time>2021-09-07T13:24:45Z</time>
      </trkpt>
      <trkpt lat="46.66343" lon="5.81926">
        <ele>586.1</ele>
        <time>2021-09-07T13:24:52Z</time>
      </trkpt>
      <trkpt lat="46.66341" lon="5.8192">
        <ele>585.9</ele>
        <time>2021-09-07T13:24:58Z</time>
      </trkpt>
      <trkpt lat="46.66339" lon="5.81913">
        <ele>586.4</ele>
        <time>2021-09-07T13:25:05Z</time>
      </trkpt>
      <trkpt lat="46.66337" lon="5.81904">
        <ele>587</ele>
        <time>2021-09-07T13:25:19Z</time>
      </trkpt>
      <trkpt lat="46.66336" lon="5.81897">
        <ele>586.4</ele>
        <time>2021-09-07T13:25:24Z</time>
      </trkpt>
      <trkpt lat="46.66333" lon="5.8189">
        <ele>586.1</ele>
        <time>2021-09-07T13:25:30Z</time>
      </trkpt>
      <trkpt lat="46.66329" lon="5.81885">
        <ele>585.9</ele>
        <time>2021-09-07T13:25:35Z</time>
      </trkpt>
      <trkpt lat="46.66326" lon="5.81881">
        <ele>585.6</ele>
        <time>2021-09-07T13:25:40Z</time>
      </trkpt>
      <trkpt lat="46.66322" lon="5.81877">
        <ele>585.4</ele>
        <time>2021-09-07T13:25:45Z</time>
      </trkpt>
      <trkpt lat="46.66319" lon="5.81872">
        <ele>584.8</ele>
        <time>2021-09-07T13:25:51Z</time>
      </trkpt>
      <trkpt lat="46.66318" lon="5.81865">
        <ele>584</ele>
        <time>2021-09-07T13:25:59Z</time>
      </trkpt>
      <trkpt lat="46.66314" lon="5.8186">
        <ele>583.6</ele>
        <time>2021-09-07T13:26:05Z</time>
      </trkpt>
      <trkpt lat="46.6631" lon="5.81855">
        <ele>583.3</ele>
        <time>2021-09-07T13:26:10Z</time>
      </trkpt>
      <trkpt lat="46.66307" lon="5.8185">
        <ele>582.7</ele>
        <time>2021-09-07T13:26:15Z</time>
      </trkpt>
      <trkpt lat="46.66306" lon="5.81842">
        <ele>582.4</ele>
        <time>2021-09-07T13:26:20Z</time>
      </trkpt>
      <trkpt lat="46.66301" lon="5.81838">
        <ele>582.7</ele>
        <time>2021-09-07T13:26:29Z</time>
      </trkpt>
      <trkpt lat="46.66296" lon="5.81835">
        <ele>583.5</ele>
        <time>2021-09-07T13:26:34Z</time>
      </trkpt>
      <trkpt lat="46.66292" lon="5.81831">
        <ele>584.8</ele>
        <time>2021-09-07T13:26:40Z</time>
      </trkpt>
      <trkpt lat="46.66289" lon="5.81826">
        <ele>586.3</ele>
        <time>2021-09-07T13:26:47Z</time>
      </trkpt>
      <trkpt lat="46.66287" lon="5.8182">
        <ele>586.9</ele>
        <time>2021-09-07T13:26:53Z</time>
      </trkpt>
      <trkpt lat="46.66284" lon="5.81814">
        <ele>587.8</ele>
        <time>2021-09-07T13:26:58Z</time>
      </trkpt>
      <trkpt lat="46.6628" lon="5.81808">
        <ele>588.2</ele>
        <time>2021-09-07T13:27:03Z</time>
      </trkpt>
      <trkpt lat="46.66278" lon="5.81801">
        <ele>588</ele>
        <time>2021-09-07T13:27:08Z</time>
      </trkpt>
      <trkpt lat="46.66276" lon="5.81795">
        <ele>587.9</ele>
        <time>2021-09-07T13:27:13Z</time>
      </trkpt>
      <trkpt lat="46.66276" lon="5.81788">
        <ele>588.5</ele>
        <time>2021-09-07T13:27:21Z</time>
      </trkpt>
      <trkpt lat="46.66276" lon="5.81781">
        <ele>589.7</ele>
        <time>2021-09-07T13:27:27Z</time>
      </trkpt>
      <trkpt lat="46.66276" lon="5.81775">
        <ele>590.8</ele>
        <time>2021-09-07T13:27:34Z</time>
      </trkpt>
      <trkpt lat="46.66277" lon="5.81768">
        <ele>590.7</ele>
        <time>2021-09-07T13:27:42Z</time>
      </trkpt>
      <trkpt lat="46.66279" lon="5.81762">
        <ele>590.7</ele>
        <time>2021-09-07T13:27:47Z</time>
      </trkpt>
      <trkpt lat="46.66281" lon="5.81756">
        <ele>591</ele>
        <time>2021-09-07T13:27:51Z</time>
      </trkpt>
      <trkpt lat="46.66284" lon="5.81752">
        <ele>591.5</ele>
        <time>2021-09-07T13:27:56Z</time>
      </trkpt>
      <trkpt lat="46.66289" lon="5.81747">
        <ele>591.7</ele>
        <time>2021-09-07T13:28:01Z</time>
      </trkpt>
      <trkpt lat="46.66294" lon="5.81744">
        <ele>591.8</ele>
        <time>2021-09-07T13:28:06Z</time>
      </trkpt>
      <trkpt lat="46.66298" lon="5.8174">
        <ele>591.7</ele>
        <time>2021-09-07T13:28:12Z</time>
      </trkpt>
      <trkpt lat="46.66302" lon="5.81737">
        <ele>591.4</ele>
        <time>2021-09-07T13:28:19Z</time>
      </trkpt>
      <trkpt lat="46.66306" lon="5.81731">
        <ele>591.9</ele>
        <time>2021-09-07T13:28:25Z</time>
      </trkpt>
      <trkpt lat="46.66307" lon="5.81725">
        <ele>592.6</ele>
        <time>2021-09-07T13:28:31Z</time>
      </trkpt>
      <trkpt lat="46.66309" lon="5.81718">
        <ele>593.3</ele>
        <time>2021-09-07T13:28:37Z</time>
      </trkpt>
      <trkpt lat="46.6631" lon="5.81712">
        <ele>593.4</ele>
        <time>2021-09-07T13:28:42Z</time>
      </trkpt>
      <trkpt lat="46.66312" lon="5.81705">
        <ele>593.5</ele>
        <time>2021-09-07T13:28:47Z</time>
      </trkpt>
      <trkpt lat="46.66313" lon="5.81698">
        <ele>593.9</ele>
        <time>2021-09-07T13:28:55Z</time>
      </trkpt>
      <trkpt lat="46.66313" lon="5.8169">
        <ele>594.3</ele>
        <time>2021-09-07T13:29:01Z</time>
      </trkpt>
      <trkpt lat="46.66311" lon="5.81683">
        <ele>594.6</ele>
        <time>2021-09-07T13:29:06Z</time>
      </trkpt>
      <trkpt lat="46.66312" lon="5.81675">
        <ele>594.5</ele>
        <time>2021-09-07T13:29:13Z</time>
      </trkpt>
      <trkpt lat="46.66313" lon="5.81669">
        <ele>593.8</ele>
        <time>2021-09-07T13:29:18Z</time>
      </trkpt>
      <trkpt lat="46.66313" lon="5.81662">
        <ele>593.6</ele>
        <time>2021-09-07T13:29:23Z</time>
      </trkpt>
      <trkpt lat="46.66311" lon="5.81656">
        <ele>593.6</ele>
        <time>2021-09-07T13:29:28Z</time>
      </trkpt>
      <trkpt lat="46.66308" lon="5.8165">
        <ele>593.4</ele>
        <time>2021-09-07T13:29:34Z</time>
      </trkpt>
      <trkpt lat="46.66304" lon="5.81649">
        <ele>594.1</ele>
        <time>2021-09-07T13:29:43Z</time>
      </trkpt>
      <trkpt lat="46.66299" lon="5.81651">
        <ele>594.3</ele>
        <time>2021-09-07T13:29:51Z</time>
      </trkpt>
      <trkpt lat="46.66295" lon="5.81656">
        <ele>594.4</ele>
        <time>2021-09-07T13:29:57Z</time>
      </trkpt>
      <trkpt lat="46.66292" lon="5.8166">
        <ele>594.3</ele>
        <time>2021-09-07T13:30:03Z</time>
      </trkpt>
      <trkpt lat="46.66288" lon="5.81664">
        <ele>594.2</ele>
        <time>2021-09-07T13:30:07Z</time>
      </trkpt>
      <trkpt lat="46.66283" lon="5.81667">
        <ele>594</ele>
        <time>2021-09-07T13:30:12Z</time>
      </trkpt>
      <trkpt lat="46.6628" lon="5.81672">
        <ele>594.3</ele>
        <time>2021-09-07T13:30:19Z</time>
      </trkpt>
      <trkpt lat="46.66275" lon="5.81674">
        <ele>594.3</ele>
        <time>2021-09-07T13:30:25Z</time>
      </trkpt>
      <trkpt lat="46.66269" lon="5.81674">
        <ele>593.9</ele>
        <time>2021-09-07T13:30:30Z</time>
      </trkpt>
      <trkpt lat="46.66264" lon="5.81672">
        <ele>593.5</ele>
        <time>2021-09-07T13:30:35Z</time>
      </trkpt>
      <trkpt lat="46.66259" lon="5.81672">
        <ele>593.8</ele>
        <time>2021-09-07T13:30:40Z</time>
      </trkpt>
      <trkpt lat="46.66255" lon="5.81669">
        <ele>594</ele>
        <time>2021-09-07T13:30:46Z</time>
      </trkpt>
      <trkpt lat="46.66251" lon="5.81667">
        <ele>593.5</ele>
        <time>2021-09-07T13:30:52Z</time>
      </trkpt>
      <trkpt lat="46.66246" lon="5.81669">
        <ele>593.4</ele>
        <time>2021-09-07T13:30:57Z</time>
      </trkpt>
      <trkpt lat="46.66242" lon="5.81674">
        <ele>593.1</ele>
        <time>2021-09-07T13:31:01Z</time>
      </trkpt>
      <trkpt lat="46.66237" lon="5.81676">
        <ele>592.6</ele>
        <time>2021-09-07T13:31:07Z</time>
      </trkpt>
      <trkpt lat="46.66233" lon="5.81679">
        <ele>592.8</ele>
        <time>2021-09-07T13:31:12Z</time>
      </trkpt>
      <trkpt lat="46.66228" lon="5.81682">
        <ele>593.4</ele>
        <time>2021-09-07T13:31:20Z</time>
      </trkpt>
      <trkpt lat="46.66232" lon="5.81687">
        <ele>595.4</ele>
        <time>2021-09-07T13:31:44Z</time>
      </trkpt>
      <trkpt lat="46.66233" lon="5.81694">
        <ele>595.1</ele>
        <time>2021-09-07T13:31:50Z</time>
      </trkpt>
      <trkpt lat="46.66232" lon="5.817">
        <ele>595.1</ele>
        <time>2021-09-07T13:32:01Z</time>
      </trkpt>
      <trkpt lat="46.66236" lon="5.81698">
        <ele>599.3</ele>
        <time>2021-09-07T13:33:35Z</time>
      </trkpt>
      <trkpt lat="46.66234" lon="5.81704">
        <ele>598.9</ele>
        <time>2021-09-07T13:34:08Z</time>
      </trkpt>
      <trkpt lat="46.66236" lon="5.81698">
        <ele>596.8</ele>
        <time>2021-09-07T13:34:20Z</time>
      </trkpt>
      <trkpt lat="46.66232" lon="5.81692">
        <ele>593.6</ele>
        <time>2021-09-07T13:35:23Z</time>
      </trkpt>
      <trkpt lat="46.6623" lon="5.81685">
        <ele>593.9</ele>
        <time>2021-09-07T13:35:26Z</time>
      </trkpt>
      <trkpt lat="46.6623" lon="5.81678">
        <ele>594.2</ele>
        <time>2021-09-07T13:35:31Z</time>
      </trkpt>
      <trkpt lat="46.66235" lon="5.81674">
        <ele>594</ele>
        <time>2021-09-07T13:35:37Z</time>
      </trkpt>
      <trkpt lat="46.66239" lon="5.81669">
        <ele>593.5</ele>
        <time>2021-09-07T13:35:42Z</time>
      </trkpt>
      <trkpt lat="46.66242" lon="5.81664">
        <ele>592.7</ele>
        <time>2021-09-07T13:35:48Z</time>
      </trkpt>
      <trkpt lat="46.66246" lon="5.81663">
        <ele>592</ele>
        <time>2021-09-07T13:35:53Z</time>
      </trkpt>
      <trkpt lat="46.66251" lon="5.81664">
        <ele>591.4</ele>
        <time>2021-09-07T13:35:57Z</time>
      </trkpt>
      <trkpt lat="46.66256" lon="5.81666">
        <ele>591.2</ele>
        <time>2021-09-07T13:36:02Z</time>
      </trkpt>
      <trkpt lat="46.66261" lon="5.81668">
        <ele>591</ele>
        <time>2021-09-07T13:36:06Z</time>
      </trkpt>
      <trkpt lat="46.66266" lon="5.81669">
        <ele>590.9</ele>
        <time>2021-09-07T13:36:10Z</time>
      </trkpt>
      <trkpt lat="46.6627" lon="5.81672">
        <ele>591.3</ele>
        <time>2021-09-07T13:36:16Z</time>
      </trkpt>
      <trkpt lat="46.66275" lon="5.81674">
        <ele>591.8</ele>
        <time>2021-09-07T13:36:22Z</time>
      </trkpt>
      <trkpt lat="46.6628" lon="5.81674">
        <ele>591.8</ele>
        <time>2021-09-07T13:36:28Z</time>
      </trkpt>
      <trkpt lat="46.66283" lon="5.81669">
        <ele>591.3</ele>
        <time>2021-09-07T13:36:33Z</time>
      </trkpt>
      <trkpt lat="46.66286" lon="5.81663">
        <ele>591.4</ele>
        <time>2021-09-07T13:36:39Z</time>
      </trkpt>
      <trkpt lat="46.6629" lon="5.81659">
        <ele>591</ele>
        <time>2021-09-07T13:36:46Z</time>
      </trkpt>
      <trkpt lat="46.66294" lon="5.81655">
        <ele>591</ele>
        <time>2021-09-07T13:36:54Z</time>
      </trkpt>
      <trkpt lat="46.663" lon="5.8165">
        <ele>589.5</ele>
        <time>2021-09-07T13:37:14Z</time>
      </trkpt>
      <trkpt lat="46.66305" lon="5.81648">
        <ele>588.6</ele>
        <time>2021-09-07T13:37:18Z</time>
      </trkpt>
      <trkpt lat="46.6631" lon="5.81648">
        <ele>587.8</ele>
        <time>2021-09-07T13:37:23Z</time>
      </trkpt>
      <trkpt lat="46.66315" lon="5.81646">
        <ele>587.4</ele>
        <time>2021-09-07T13:37:28Z</time>
      </trkpt>
      <trkpt lat="46.66318" lon="5.81641">
        <ele>587.2</ele>
        <time>2021-09-07T13:37:36Z</time>
      </trkpt>
      <trkpt lat="46.66314" lon="5.81645">
        <ele>590.2</ele>
        <time>2021-09-07T13:38:22Z</time>
      </trkpt>
      <trkpt lat="46.66309" lon="5.81647">
        <ele>589.9</ele>
        <time>2021-09-07T13:38:29Z</time>
      </trkpt>
      <trkpt lat="46.66305" lon="5.81645">
        <ele>589.5</ele>
        <time>2021-09-07T13:38:35Z</time>
      </trkpt>
      <trkpt lat="46.663" lon="5.81646">
        <ele>588.8</ele>
        <time>2021-09-07T13:38:42Z</time>
      </trkpt>
      <trkpt lat="46.66295" lon="5.81649">
        <ele>588.4</ele>
        <time>2021-09-07T13:38:49Z</time>
      </trkpt>
      <trkpt lat="46.66291" lon="5.81649">
        <ele>588.1</ele>
        <time>2021-09-07T13:38:55Z</time>
      </trkpt>
      <trkpt lat="46.66286" lon="5.81648">
        <ele>587.7</ele>
        <time>2021-09-07T13:38:59Z</time>
      </trkpt>
      <trkpt lat="46.66281" lon="5.81647">
        <ele>587.3</ele>
        <time>2021-09-07T13:39:04Z</time>
      </trkpt>
      <trkpt lat="46.66276" lon="5.81647">
        <ele>586.8</ele>
        <time>2021-09-07T13:39:09Z</time>
      </trkpt>
      <trkpt lat="46.66272" lon="5.8165">
        <ele>586.7</ele>
        <time>2021-09-07T13:39:16Z</time>
      </trkpt>
      <trkpt lat="46.66267" lon="5.8165">
        <ele>586.5</ele>
        <time>2021-09-07T13:39:23Z</time>
      </trkpt>
      <trkpt lat="46.66262" lon="5.8165">
        <ele>586.3</ele>
        <time>2021-09-07T13:39:33Z</time>
      </trkpt>
      <trkpt lat="46.66257" lon="5.81649">
        <ele>585.9</ele>
        <time>2021-09-07T13:39:38Z</time>
      </trkpt>
      <trkpt lat="46.66252" lon="5.81648">
        <ele>585.6</ele>
        <time>2021-09-07T13:39:43Z</time>
      </trkpt>
      <trkpt lat="46.66248" lon="5.81647">
        <ele>585.1</ele>
        <time>2021-09-07T13:39:48Z</time>
      </trkpt>
      <trkpt lat="46.66243" lon="5.81645">
        <ele>584.7</ele>
        <time>2021-09-07T13:39:53Z</time>
      </trkpt>
      <trkpt lat="46.66238" lon="5.81644">
        <ele>584.5</ele>
        <time>2021-09-07T13:39:58Z</time>
      </trkpt>
      <trkpt lat="46.66233" lon="5.81643">
        <ele>585.7</ele>
        <time>2021-09-07T13:40:06Z</time>
      </trkpt>
      <trkpt lat="46.66228" lon="5.81642">
        <ele>586.7</ele>
        <time>2021-09-07T13:40:13Z</time>
      </trkpt>
      <trkpt lat="46.66223" lon="5.81638">
        <ele>587.1</ele>
        <time>2021-09-07T13:40:18Z</time>
      </trkpt>
      <trkpt lat="46.66219" lon="5.81634">
        <ele>587.1</ele>
        <time>2021-09-07T13:40:23Z</time>
      </trkpt>
      <trkpt lat="46.66214" lon="5.81633">
        <ele>586.9</ele>
        <time>2021-09-07T13:40:27Z</time>
      </trkpt>
      <trkpt lat="46.6621" lon="5.8163">
        <ele>587.4</ele>
        <time>2021-09-07T13:40:35Z</time>
      </trkpt>
      <trkpt lat="46.66206" lon="5.81626">
        <ele>587.4</ele>
        <time>2021-09-07T13:40:40Z</time>
      </trkpt>
      <trkpt lat="46.66202" lon="5.81621">
        <ele>587.5</ele>
        <time>2021-09-07T13:40:48Z</time>
      </trkpt>
      <trkpt lat="46.66199" lon="5.81616">
        <ele>587</ele>
        <time>2021-09-07T13:40:54Z</time>
      </trkpt>
      <trkpt lat="46.66194" lon="5.81613">
        <ele>586.6</ele>
        <time>2021-09-07T13:41:00Z</time>
      </trkpt>
      <trkpt lat="46.6619" lon="5.81612">
        <ele>586.1</ele>
        <time>2021-09-07T13:41:05Z</time>
      </trkpt>
      <trkpt lat="46.66184" lon="5.81608">
        <ele>585.4</ele>
        <time>2021-09-07T13:41:19Z</time>
      </trkpt>
      <trkpt lat="46.66179" lon="5.81605">
        <ele>585</ele>
        <time>2021-09-07T13:41:22Z</time>
      </trkpt>
      <trkpt lat="46.66178" lon="5.81597">
        <ele>584</ele>
        <time>2021-09-07T13:41:41Z</time>
      </trkpt>
      <trkpt lat="46.66179" lon="5.8159">
        <ele>583.5</ele>
        <time>2021-09-07T13:41:45Z</time>
      </trkpt>
      <trkpt lat="46.66182" lon="5.81586">
        <ele>582.8</ele>
        <time>2021-09-07T13:41:52Z</time>
      </trkpt>
      <trkpt lat="46.66184" lon="5.81593">
        <ele>582.7</ele>
        <time>2021-09-07T13:42:19Z</time>
      </trkpt>
      <trkpt lat="46.6618" lon="5.81597">
        <ele>581.9</ele>
        <time>2021-09-07T13:42:59Z</time>
      </trkpt>
      <trkpt lat="46.66175" lon="5.81598">
        <ele>582</ele>
        <time>2021-09-07T13:43:04Z</time>
      </trkpt>
      <trkpt lat="46.6617" lon="5.81596">
        <ele>582.7</ele>
        <time>2021-09-07T13:43:08Z</time>
      </trkpt>
      <trkpt lat="46.66165" lon="5.81595">
        <ele>583.4</ele>
        <time>2021-09-07T13:43:12Z</time>
      </trkpt>
      <trkpt lat="46.66162" lon="5.8159">
        <ele>583.9</ele>
        <time>2021-09-07T13:43:16Z</time>
      </trkpt>
      <trkpt lat="46.6616" lon="5.81584">
        <ele>584.2</ele>
        <time>2021-09-07T13:43:21Z</time>
      </trkpt>
      <trkpt lat="46.66157" lon="5.81578">
        <ele>584.6</ele>
        <time>2021-09-07T13:43:26Z</time>
      </trkpt>
      <trkpt lat="46.66153" lon="5.81573">
        <ele>584.9</ele>
        <time>2021-09-07T13:43:31Z</time>
      </trkpt>
      <trkpt lat="46.66148" lon="5.8157">
        <ele>584.8</ele>
        <time>2021-09-07T13:43:36Z</time>
      </trkpt>
      <trkpt lat="46.66144" lon="5.81566">
        <ele>585</ele>
        <time>2021-09-07T13:43:42Z</time>
      </trkpt>
      <trkpt lat="46.6614" lon="5.81562">
        <ele>585.3</ele>
        <time>2021-09-07T13:43:48Z</time>
      </trkpt>
      <trkpt lat="46.66137" lon="5.81557">
        <ele>585</ele>
        <time>2021-09-07T13:43:55Z</time>
      </trkpt>
      <trkpt lat="46.66134" lon="5.8155">
        <ele>584.7</ele>
        <time>2021-09-07T13:44:00Z</time>
      </trkpt>
      <trkpt lat="46.66132" lon="5.81543">
        <ele>584.4</ele>
        <time>2021-09-07T13:44:04Z</time>
      </trkpt>
      <trkpt lat="46.6613" lon="5.81537">
        <ele>584</ele>
        <time>2021-09-07T13:44:08Z</time>
      </trkpt>
      <trkpt lat="46.66128" lon="5.81531">
        <ele>583.5</ele>
        <time>2021-09-07T13:44:12Z</time>
      </trkpt>
      <trkpt lat="46.66128" lon="5.81523">
        <ele>583.3</ele>
        <time>2021-09-07T13:44:17Z</time>
      </trkpt>
      <trkpt lat="46.66125" lon="5.81517">
        <ele>583.5</ele>
        <time>2021-09-07T13:44:23Z</time>
      </trkpt>
      <trkpt lat="46.66122" lon="5.81511">
        <ele>583.4</ele>
        <time>2021-09-07T13:44:29Z</time>
      </trkpt>
      <trkpt lat="46.66118" lon="5.81505">
        <ele>582.8</ele>
        <time>2021-09-07T13:44:34Z</time>
      </trkpt>
      <trkpt lat="46.66118" lon="5.81498">
        <ele>581.9</ele>
        <time>2021-09-07T13:44:41Z</time>
      </trkpt>
      <trkpt lat="46.66116" lon="5.81492">
        <ele>581.4</ele>
        <time>2021-09-07T13:44:45Z</time>
      </trkpt>
      <trkpt lat="46.66113" lon="5.81486">
        <ele>580.6</ele>
        <time>2021-09-07T13:44:49Z</time>
      </trkpt>
      <trkpt lat="46.66111" lon="5.8148">
        <ele>579.8</ele>
        <time>2021-09-07T13:44:54Z</time>
      </trkpt>
      <trkpt lat="46.66109" lon="5.81473">
        <ele>579.6</ele>
        <time>2021-09-07T13:44:59Z</time>
      </trkpt>
      <trkpt lat="46.66105" lon="5.81468">
        <ele>579.4</ele>
        <time>2021-09-07T13:45:06Z</time>
      </trkpt>
      <trkpt lat="46.66102" lon="5.81463">
        <ele>578.7</ele>
        <time>2021-09-07T13:45:12Z</time>
      </trkpt>
      <trkpt lat="46.66103" lon="5.81456">
        <ele>577.9</ele>
        <time>2021-09-07T13:45:17Z</time>
      </trkpt>
      <trkpt lat="46.661" lon="5.8145">
        <ele>576.6</ele>
        <time>2021-09-07T13:45:28Z</time>
      </trkpt>
      <trkpt lat="46.66098" lon="5.81444">
        <ele>576.3</ele>
        <time>2021-09-07T13:45:38Z</time>
      </trkpt>
      <trkpt lat="46.66098" lon="5.81435">
        <ele>576.3</ele>
        <time>2021-09-07T13:45:41Z</time>
      </trkpt>
      <trkpt lat="46.66098" lon="5.81428">
        <ele>576.4</ele>
        <time>2021-09-07T13:45:46Z</time>
      </trkpt>
      <trkpt lat="46.661" lon="5.8142">
        <ele>577.3</ele>
        <time>2021-09-07T13:45:51Z</time>
      </trkpt>
      <trkpt lat="46.66101" lon="5.81413">
        <ele>578.6</ele>
        <time>2021-09-07T13:45:56Z</time>
      </trkpt>
      <trkpt lat="46.66103" lon="5.81406">
        <ele>579.6</ele>
        <time>2021-09-07T13:46:01Z</time>
      </trkpt>
      <trkpt lat="46.66103" lon="5.81399">
        <ele>580.6</ele>
        <time>2021-09-07T13:46:07Z</time>
      </trkpt>
      <trkpt lat="46.66102" lon="5.81392">
        <ele>581.6</ele>
        <time>2021-09-07T13:46:13Z</time>
      </trkpt>
      <trkpt lat="46.66104" lon="5.81385">
        <ele>582.5</ele>
        <time>2021-09-07T13:46:18Z</time>
      </trkpt>
      <trkpt lat="46.66107" lon="5.8138">
        <ele>584</ele>
        <time>2021-09-07T13:46:26Z</time>
      </trkpt>
      <trkpt lat="46.66107" lon="5.81373">
        <ele>584.6</ele>
        <time>2021-09-07T13:46:31Z</time>
      </trkpt>
      <trkpt lat="46.66106" lon="5.81366">
        <ele>584.9</ele>
        <time>2021-09-07T13:46:35Z</time>
      </trkpt>
      <trkpt lat="46.66105" lon="5.81358">
        <ele>585.1</ele>
        <time>2021-09-07T13:46:40Z</time>
      </trkpt>
      <trkpt lat="46.66107" lon="5.81352">
        <ele>585.1</ele>
        <time>2021-09-07T13:46:48Z</time>
      </trkpt>
      <trkpt lat="46.66107" lon="5.81345">
        <ele>585.2</ele>
        <time>2021-09-07T13:46:55Z</time>
      </trkpt>
      <trkpt lat="46.66106" lon="5.81337">
        <ele>586.7</ele>
        <time>2021-09-07T13:47:01Z</time>
      </trkpt>
      <trkpt lat="46.66107" lon="5.8133">
        <ele>588.1</ele>
        <time>2021-09-07T13:47:07Z</time>
      </trkpt>
      <trkpt lat="46.66109" lon="5.81324">
        <ele>588.5</ele>
        <time>2021-09-07T13:47:11Z</time>
      </trkpt>
      <trkpt lat="46.66112" lon="5.81318">
        <ele>588.4</ele>
        <time>2021-09-07T13:47:15Z</time>
      </trkpt>
      <trkpt lat="46.66115" lon="5.81312">
        <ele>588.2</ele>
        <time>2021-09-07T13:47:21Z</time>
      </trkpt>
      <trkpt lat="46.66118" lon="5.81306">
        <ele>588</ele>
        <time>2021-09-07T13:47:26Z</time>
      </trkpt>
      <trkpt lat="46.66122" lon="5.813">
        <ele>587.4</ele>
        <time>2021-09-07T13:47:31Z</time>
      </trkpt>
      <trkpt lat="46.66124" lon="5.81294">
        <ele>586.5</ele>
        <time>2021-09-07T13:47:36Z</time>
      </trkpt>
      <trkpt lat="46.66126" lon="5.81286">
        <ele>585</ele>
        <time>2021-09-07T13:47:42Z</time>
      </trkpt>
      <trkpt lat="46.66127" lon="5.8128">
        <ele>583.6</ele>
        <time>2021-09-07T13:47:48Z</time>
      </trkpt>
      <trkpt lat="46.6613" lon="5.81274">
        <ele>583.9</ele>
        <time>2021-09-07T13:47:53Z</time>
      </trkpt>
      <trkpt lat="46.66133" lon="5.8127">
        <ele>584.4</ele>
        <time>2021-09-07T13:47:57Z</time>
      </trkpt>
      <trkpt lat="46.66136" lon="5.81265">
        <ele>585.3</ele>
        <time>2021-09-07T13:48:02Z</time>
      </trkpt>
      <trkpt lat="46.66139" lon="5.81259">
        <ele>585.7</ele>
        <time>2021-09-07T13:48:07Z</time>
      </trkpt>
      <trkpt lat="46.66142" lon="5.81254">
        <ele>585.5</ele>
        <time>2021-09-07T13:48:12Z</time>
      </trkpt>
      <trkpt lat="46.66145" lon="5.81249">
        <ele>585</ele>
        <time>2021-09-07T13:48:17Z</time>
      </trkpt>
      <trkpt lat="46.66148" lon="5.81243">
        <ele>584.6</ele>
        <time>2021-09-07T13:48:22Z</time>
      </trkpt>
      <trkpt lat="46.66151" lon="5.81238">
        <ele>584.1</ele>
        <time>2021-09-07T13:48:28Z</time>
      </trkpt>
      <trkpt lat="46.66154" lon="5.81233">
        <ele>583.9</ele>
        <time>2021-09-07T13:48:34Z</time>
      </trkpt>
      <trkpt lat="46.66158" lon="5.81228">
        <ele>582.9</ele>
        <time>2021-09-07T13:48:42Z</time>
      </trkpt>
      <trkpt lat="46.66161" lon="5.81222">
        <ele>582.3</ele>
        <time>2021-09-07T13:48:48Z</time>
      </trkpt>
      <trkpt lat="46.66165" lon="5.81217">
        <ele>581.5</ele>
        <time>2021-09-07T13:48:53Z</time>
      </trkpt>
      <trkpt lat="46.66168" lon="5.81213">
        <ele>581</ele>
        <time>2021-09-07T13:48:58Z</time>
      </trkpt>
      <trkpt lat="46.66171" lon="5.81207">
        <ele>580.6</ele>
        <time>2021-09-07T13:49:03Z</time>
      </trkpt>
      <trkpt lat="46.66175" lon="5.81203">
        <ele>580.1</ele>
        <time>2021-09-07T13:49:09Z</time>
      </trkpt>
      <trkpt lat="46.6618" lon="5.81199">
        <ele>579.6</ele>
        <time>2021-09-07T13:49:14Z</time>
      </trkpt>
      <trkpt lat="46.66183" lon="5.81195">
        <ele>579.2</ele>
        <time>2021-09-07T13:49:21Z</time>
      </trkpt>
      <trkpt lat="46.66186" lon="5.81189">
        <ele>579.2</ele>
        <time>2021-09-07T13:49:26Z</time>
      </trkpt>
      <trkpt lat="46.6619" lon="5.81184">
        <ele>579.7</ele>
        <time>2021-09-07T13:49:32Z</time>
      </trkpt>
      <trkpt lat="46.66193" lon="5.81178">
        <ele>580.3</ele>
        <time>2021-09-07T13:49:38Z</time>
      </trkpt>
      <trkpt lat="46.66197" lon="5.81174">
        <ele>580.8</ele>
        <time>2021-09-07T13:49:43Z</time>
      </trkpt>
      <trkpt lat="46.662" lon="5.81169">
        <ele>581.3</ele>
        <time>2021-09-07T13:49:48Z</time>
      </trkpt>
      <trkpt lat="46.66203" lon="5.81163">
        <ele>581.7</ele>
        <time>2021-09-07T13:49:52Z</time>
      </trkpt>
      <trkpt lat="46.66206" lon="5.81157">
        <ele>581.9</ele>
        <time>2021-09-07T13:49:56Z</time>
      </trkpt>
      <trkpt lat="46.66209" lon="5.81152">
        <ele>581.6</ele>
        <time>2021-09-07T13:50:00Z</time>
      </trkpt>
      <trkpt lat="46.6621" lon="5.81146">
        <ele>590.3</ele>
        <time>2021-09-07T13:52:27Z</time>
      </trkpt>
      <trkpt lat="46.66215" lon="5.81148">
        <ele>589</ele>
        <time>2021-09-07T13:52:36Z</time>
      </trkpt>
      <trkpt lat="46.66209" lon="5.81146">
        <ele>587.1</ele>
        <time>2021-09-07T13:56:37Z</time>
      </trkpt>
      <trkpt lat="46.66206" lon="5.8115">
        <ele>587.9</ele>
        <time>2021-09-07T13:56:46Z</time>
      </trkpt>
      <trkpt lat="46.66211" lon="5.81144">
        <ele>586.7</ele>
        <time>2021-09-07T13:57:06Z</time>
      </trkpt>
      <trkpt lat="46.66216" lon="5.8114">
        <ele>585</ele>
        <time>2021-09-07T13:57:09Z</time>
      </trkpt>
      <trkpt lat="46.66219" lon="5.81134">
        <ele>582.9</ele>
        <time>2021-09-07T13:57:17Z</time>
      </trkpt>
      <trkpt lat="46.66222" lon="5.81128">
        <ele>583.5</ele>
        <time>2021-09-07T13:57:22Z</time>
      </trkpt>
      <trkpt lat="46.66226" lon="5.81123">
        <ele>584.2</ele>
        <time>2021-09-07T13:57:28Z</time>
      </trkpt>
      <trkpt lat="46.6623" lon="5.8112">
        <ele>585.4</ele>
        <time>2021-09-07T13:57:41Z</time>
      </trkpt>
      <trkpt lat="46.66233" lon="5.81115">
        <ele>585.2</ele>
        <time>2021-09-07T13:57:47Z</time>
      </trkpt>
      <trkpt lat="46.66238" lon="5.81113">
        <ele>584.3</ele>
        <time>2021-09-07T13:57:54Z</time>
      </trkpt>
      <trkpt lat="46.66243" lon="5.8111">
        <ele>582.3</ele>
        <time>2021-09-07T13:58:02Z</time>
      </trkpt>
      <trkpt lat="46.66248" lon="5.81106">
        <ele>581.2</ele>
        <time>2021-09-07T13:58:08Z</time>
      </trkpt>
      <trkpt lat="46.66252" lon="5.81103">
        <ele>581.1</ele>
        <time>2021-09-07T13:58:14Z</time>
      </trkpt>
      <trkpt lat="46.66254" lon="5.81097">
        <ele>581.2</ele>
        <time>2021-09-07T13:58:21Z</time>
      </trkpt>
      <trkpt lat="46.66259" lon="5.81095">
        <ele>581</ele>
        <time>2021-09-07T13:58:27Z</time>
      </trkpt>
      <trkpt lat="46.66263" lon="5.8109">
        <ele>580.3</ele>
        <time>2021-09-07T13:58:34Z</time>
      </trkpt>
      <trkpt lat="46.66266" lon="5.81083">
        <ele>580</ele>
        <time>2021-09-07T13:58:38Z</time>
      </trkpt>
      <trkpt lat="46.66269" lon="5.81077">
        <ele>580.2</ele>
        <time>2021-09-07T13:58:43Z</time>
      </trkpt>
      <trkpt lat="46.66273" lon="5.81075">
        <ele>582.3</ele>
        <time>2021-09-07T13:58:53Z</time>
      </trkpt>
      <trkpt lat="46.66278" lon="5.81071">
        <ele>582.6</ele>
        <time>2021-09-07T13:58:58Z</time>
      </trkpt>
      <trkpt lat="46.66282" lon="5.81067">
        <ele>582.6</ele>
        <time>2021-09-07T13:59:02Z</time>
      </trkpt>
      <trkpt lat="46.66286" lon="5.81061">
        <ele>582.4</ele>
        <time>2021-09-07T13:59:07Z</time>
      </trkpt>
      <trkpt lat="46.6629" lon="5.81057">
        <ele>582.2</ele>
        <time>2021-09-07T13:59:12Z</time>
      </trkpt>
      <trkpt lat="46.66294" lon="5.81054">
        <ele>582.1</ele>
        <time>2021-09-07T13:59:16Z</time>
      </trkpt>
      <trkpt lat="46.66298" lon="5.81049">
        <ele>582.4</ele>
        <time>2021-09-07T13:59:22Z</time>
      </trkpt>
      <trkpt lat="46.663" lon="5.81044">
        <ele>582.3</ele>
        <time>2021-09-07T13:59:34Z</time>
      </trkpt>
      <trkpt lat="46.66303" lon="5.81038">
        <ele>582.1</ele>
        <time>2021-09-07T13:59:40Z</time>
      </trkpt>
      <trkpt lat="46.66304" lon="5.81032">
        <ele>582.3</ele>
        <time>2021-09-07T13:59:45Z</time>
      </trkpt>
      <trkpt lat="46.66306" lon="5.81025">
        <ele>582.5</ele>
        <time>2021-09-07T13:59:50Z</time>
      </trkpt>
      <trkpt lat="46.6631" lon="5.8102">
        <ele>583.2</ele>
        <time>2021-09-07T13:59:58Z</time>
      </trkpt>
      <trkpt lat="46.66315" lon="5.81016">
        <ele>583</ele>
        <time>2021-09-07T14:00:05Z</time>
      </trkpt>
      <trkpt lat="46.66319" lon="5.8101">
        <ele>582.5</ele>
        <time>2021-09-07T14:00:12Z</time>
      </trkpt>
      <trkpt lat="46.66322" lon="5.81004">
        <ele>582.4</ele>
        <time>2021-09-07T14:00:17Z</time>
      </trkpt>
      <trkpt lat="46.66325" lon="5.80997">
        <ele>582.5</ele>
        <time>2021-09-07T14:00:22Z</time>
      </trkpt>
      <trkpt lat="46.66328" lon="5.80991">
        <ele>582.7</ele>
        <time>2021-09-07T14:00:27Z</time>
      </trkpt>
      <trkpt lat="46.6633" lon="5.80984">
        <ele>583</ele>
        <time>2021-09-07T14:00:32Z</time>
      </trkpt>
      <trkpt lat="46.6633" lon="5.80976">
        <ele>584.1</ele>
        <time>2021-09-07T14:00:38Z</time>
      </trkpt>
      <trkpt lat="46.66332" lon="5.80969">
        <ele>585.6</ele>
        <time>2021-09-07T14:00:43Z</time>
      </trkpt>
      <trkpt lat="46.66335" lon="5.80964">
        <ele>587</ele>
        <time>2021-09-07T14:00:49Z</time>
      </trkpt>
      <trkpt lat="46.66339" lon="5.80959">
        <ele>587.7</ele>
        <time>2021-09-07T14:00:55Z</time>
      </trkpt>
      <trkpt lat="46.66343" lon="5.80954">
        <ele>588.6</ele>
        <time>2021-09-07T14:01:03Z</time>
      </trkpt>
      <trkpt lat="46.66346" lon="5.80948">
        <ele>588.5</ele>
        <time>2021-09-07T14:01:08Z</time>
      </trkpt>
      <trkpt lat="46.66349" lon="5.80941">
        <ele>588.5</ele>
        <time>2021-09-07T14:01:14Z</time>
      </trkpt>
      <trkpt lat="46.66351" lon="5.80933">
        <ele>589</ele>
        <time>2021-09-07T14:01:22Z</time>
      </trkpt>
      <trkpt lat="46.66354" lon="5.80927">
        <ele>589.2</ele>
        <time>2021-09-07T14:01:25Z</time>
      </trkpt>
      <trkpt lat="46.66357" lon="5.80923">
        <ele>589.7</ele>
        <time>2021-09-07T14:01:30Z</time>
      </trkpt>
      <trkpt lat="46.6636" lon="5.80917">
        <ele>590.7</ele>
        <time>2021-09-07T14:01:37Z</time>
      </trkpt>
      <trkpt lat="46.66362" lon="5.80911">
        <ele>590.4</ele>
        <time>2021-09-07T14:01:43Z</time>
      </trkpt>
      <trkpt lat="46.66366" lon="5.80905">
        <ele>589.7</ele>
        <time>2021-09-07T14:01:47Z</time>
      </trkpt>
      <trkpt lat="46.6637" lon="5.80901">
        <ele>589</ele>
        <time>2021-09-07T14:01:50Z</time>
      </trkpt>
      <trkpt lat="46.66373" lon="5.80895">
        <ele>588.2</ele>
        <time>2021-09-07T14:01:54Z</time>
      </trkpt>
      <trkpt lat="46.66375" lon="5.80889">
        <ele>587.4</ele>
        <time>2021-09-07T14:01:59Z</time>
      </trkpt>
      <trkpt lat="46.66379" lon="5.80884">
        <ele>586.9</ele>
        <time>2021-09-07T14:02:04Z</time>
      </trkpt>
      <trkpt lat="46.66382" lon="5.80879">
        <ele>586.9</ele>
        <time>2021-09-07T14:02:08Z</time>
      </trkpt>
      <trkpt lat="46.66386" lon="5.80875">
        <ele>587.3</ele>
        <time>2021-09-07T14:02:12Z</time>
      </trkpt>
      <trkpt lat="46.66387" lon="5.80868">
        <ele>587.2</ele>
        <time>2021-09-07T14:02:20Z</time>
      </trkpt>
      <trkpt lat="46.66391" lon="5.80862">
        <ele>586.9</ele>
        <time>2021-09-07T14:02:25Z</time>
      </trkpt>
      <trkpt lat="46.66394" lon="5.80856">
        <ele>586.6</ele>
        <time>2021-09-07T14:02:31Z</time>
      </trkpt>
      <trkpt lat="46.66397" lon="5.8085">
        <ele>586.6</ele>
        <time>2021-09-07T14:02:37Z</time>
      </trkpt>
      <trkpt lat="46.66397" lon="5.80842">
        <ele>587.2</ele>
        <time>2021-09-07T14:02:42Z</time>
      </trkpt>
      <trkpt lat="46.66398" lon="5.80834">
        <ele>586.6</ele>
        <time>2021-09-07T14:02:47Z</time>
      </trkpt>
      <trkpt lat="46.66401" lon="5.80828">
        <ele>586.2</ele>
        <time>2021-09-07T14:02:51Z</time>
      </trkpt>
      <trkpt lat="46.66404" lon="5.80822">
        <ele>586.4</ele>
        <time>2021-09-07T14:02:55Z</time>
      </trkpt>
      <trkpt lat="46.66407" lon="5.80816">
        <ele>587.5</ele>
        <time>2021-09-07T14:03:01Z</time>
      </trkpt>
      <trkpt lat="46.66409" lon="5.8081">
        <ele>587.8</ele>
        <time>2021-09-07T14:03:06Z</time>
      </trkpt>
      <trkpt lat="46.66412" lon="5.80805">
        <ele>588.4</ele>
        <time>2021-09-07T14:03:11Z</time>
      </trkpt>
      <trkpt lat="46.66415" lon="5.80799">
        <ele>589.4</ele>
        <time>2021-09-07T14:03:18Z</time>
      </trkpt>
      <trkpt lat="46.66417" lon="5.80793">
        <ele>589.7</ele>
        <time>2021-09-07T14:03:24Z</time>
      </trkpt>
      <trkpt lat="46.66418" lon="5.80787">
        <ele>589.2</ele>
        <time>2021-09-07T14:03:31Z</time>
      </trkpt>
      <trkpt lat="46.66421" lon="5.8078">
        <ele>588.6</ele>
        <time>2021-09-07T14:03:37Z</time>
      </trkpt>
      <trkpt lat="46.66425" lon="5.80774">
        <ele>588</ele>
        <time>2021-09-07T14:03:42Z</time>
      </trkpt>
      <trkpt lat="46.66429" lon="5.8077">
        <ele>587.5</ele>
        <time>2021-09-07T14:03:46Z</time>
      </trkpt>
      <trkpt lat="46.66433" lon="5.80767">
        <ele>587</ele>
        <time>2021-09-07T14:03:50Z</time>
      </trkpt>
      <trkpt lat="46.66437" lon="5.80764">
        <ele>586.2</ele>
        <time>2021-09-07T14:03:55Z</time>
      </trkpt>
      <trkpt lat="46.66442" lon="5.80762">
        <ele>586.1</ele>
        <time>2021-09-07T14:04:00Z</time>
      </trkpt>
      <trkpt lat="46.66445" lon="5.80756">
        <ele>586.3</ele>
        <time>2021-09-07T14:04:06Z</time>
      </trkpt>
      <trkpt lat="46.66446" lon="5.80748">
        <ele>586</ele>
        <time>2021-09-07T14:04:12Z</time>
      </trkpt>
      <trkpt lat="46.66447" lon="5.80738">
        <ele>584.6</ele>
        <time>2021-09-07T14:04:25Z</time>
      </trkpt>
      <trkpt lat="46.66445" lon="5.80729">
        <ele>584.2</ele>
        <time>2021-09-07T14:04:28Z</time>
      </trkpt>
      <trkpt lat="46.66445" lon="5.80721">
        <ele>583.6</ele>
        <time>2021-09-07T14:04:32Z</time>
      </trkpt>
      <trkpt lat="46.66447" lon="5.80714">
        <ele>582.9</ele>
        <time>2021-09-07T14:04:36Z</time>
      </trkpt>
      <trkpt lat="46.6645" lon="5.80708">
        <ele>582.1</ele>
        <time>2021-09-07T14:04:41Z</time>
      </trkpt>
      <trkpt lat="46.66454" lon="5.80705">
        <ele>581.7</ele>
        <time>2021-09-07T14:04:45Z</time>
      </trkpt>
      <trkpt lat="46.66459" lon="5.80702">
        <ele>581.9</ele>
        <time>2021-09-07T14:04:49Z</time>
      </trkpt>
      <trkpt lat="46.66463" lon="5.80698">
        <ele>582.3</ele>
        <time>2021-09-07T14:04:54Z</time>
      </trkpt>
      <trkpt lat="46.66465" lon="5.80686">
        <ele>584</ele>
        <time>2021-09-07T14:05:14Z</time>
      </trkpt>
      <trkpt lat="46.66467" lon="5.80679">
        <ele>583.6</ele>
        <time>2021-09-07T14:05:17Z</time>
      </trkpt>
      <trkpt lat="46.66469" lon="5.80673">
        <ele>582.8</ele>
        <time>2021-09-07T14:05:23Z</time>
      </trkpt>
      <trkpt lat="46.66472" lon="5.80667">
        <ele>581.8</ele>
        <time>2021-09-07T14:05:27Z</time>
      </trkpt>
      <trkpt lat="46.66475" lon="5.80662">
        <ele>580.8</ele>
        <time>2021-09-07T14:05:33Z</time>
      </trkpt>
      <trkpt lat="46.66479" lon="5.80656">
        <ele>579.7</ele>
        <time>2021-09-07T14:05:39Z</time>
      </trkpt>
      <trkpt lat="46.6648" lon="5.80649">
        <ele>578</ele>
        <time>2021-09-07T14:05:46Z</time>
      </trkpt>
      <trkpt lat="46.66481" lon="5.80642">
        <ele>577.2</ele>
        <time>2021-09-07T14:05:50Z</time>
      </trkpt>
      <trkpt lat="46.66481" lon="5.80634">
        <ele>577.1</ele>
        <time>2021-09-07T14:05:54Z</time>
      </trkpt>
      <trkpt lat="46.66482" lon="5.80628">
        <ele>577.4</ele>
        <time>2021-09-07T14:05:58Z</time>
      </trkpt>
      <trkpt lat="46.66483" lon="5.80621">
        <ele>577.6</ele>
        <time>2021-09-07T14:06:04Z</time>
      </trkpt>
      <trkpt lat="46.66483" lon="5.80612">
        <ele>578.6</ele>
        <time>2021-09-07T14:06:21Z</time>
      </trkpt>
      <trkpt lat="46.6648" lon="5.80606">
        <ele>578.9</ele>
        <time>2021-09-07T14:06:25Z</time>
      </trkpt>
      <trkpt lat="46.66477" lon="5.806">
        <ele>578.9</ele>
        <time>2021-09-07T14:06:30Z</time>
      </trkpt>
      <trkpt lat="46.66475" lon="5.80594">
        <ele>578.8</ele>
        <time>2021-09-07T14:06:34Z</time>
      </trkpt>
      <trkpt lat="46.66473" lon="5.80588">
        <ele>579.2</ele>
        <time>2021-09-07T14:06:38Z</time>
      </trkpt>
      <trkpt lat="46.6647" lon="5.80581">
        <ele>580</ele>
        <time>2021-09-07T14:06:42Z</time>
      </trkpt>
      <trkpt lat="46.66468" lon="5.80575">
        <ele>580.7</ele>
        <time>2021-09-07T14:06:46Z</time>
      </trkpt>
      <trkpt lat="46.66463" lon="5.80572">
        <ele>582</ele>
        <time>2021-09-07T14:07:00Z</time>
      </trkpt>
      <trkpt lat="46.66459" lon="5.80575">
        <ele>582.5</ele>
        <time>2021-09-07T14:07:04Z</time>
      </trkpt>
      <trkpt lat="46.66463" lon="5.80568">
        <ele>583.1</ele>
        <time>2021-09-07T14:07:18Z</time>
      </trkpt>
      <trkpt lat="46.66465" lon="5.80573">
        <ele>583.8</ele>
        <time>2021-09-07T14:08:18Z</time>
      </trkpt>
      <trkpt lat="46.66462" lon="5.80579">
        <ele>583.3</ele>
        <time>2021-09-07T14:08:25Z</time>
      </trkpt>
      <trkpt lat="46.66457" lon="5.80583">
        <ele>583.8</ele>
        <time>2021-09-07T14:08:52Z</time>
      </trkpt>
      <trkpt lat="46.66452" lon="5.80582">
        <ele>583.5</ele>
        <time>2021-09-07T14:08:57Z</time>
      </trkpt>
      <trkpt lat="46.66455" lon="5.80578">
        <ele>582.7</ele>
        <time>2021-09-07T14:09:10Z</time>
      </trkpt>
      <trkpt lat="46.6646" lon="5.8058">
        <ele>584.9</ele>
        <time>2021-09-07T14:09:30Z</time>
      </trkpt>
      <trkpt lat="46.66465" lon="5.80579">
        <ele>585.2</ele>
        <time>2021-09-07T14:09:35Z</time>
      </trkpt>
      <trkpt lat="46.6647" lon="5.80577">
        <ele>586.1</ele>
        <time>2021-09-07T14:09:39Z</time>
      </trkpt>
      <trkpt lat="46.66471" lon="5.8057">
        <ele>586.4</ele>
        <time>2021-09-07T14:09:45Z</time>
      </trkpt>
      <trkpt lat="46.66467" lon="5.80565">
        <ele>586.3</ele>
        <time>2021-09-07T14:09:51Z</time>
      </trkpt>
      <trkpt lat="46.66465" lon="5.80559">
        <ele>586</ele>
        <time>2021-09-07T14:09:56Z</time>
      </trkpt>
      <trkpt lat="46.66463" lon="5.80553">
        <ele>585.7</ele>
        <time>2021-09-07T14:10:02Z</time>
      </trkpt>
      <trkpt lat="46.6646" lon="5.80547">
        <ele>584.6</ele>
        <time>2021-09-07T14:10:09Z</time>
      </trkpt>
      <trkpt lat="46.66458" lon="5.8054">
        <ele>583</ele>
        <time>2021-09-07T14:10:14Z</time>
      </trkpt>
      <trkpt lat="46.66456" lon="5.80533">
        <ele>581.5</ele>
        <time>2021-09-07T14:10:19Z</time>
      </trkpt>
      <trkpt lat="46.66454" lon="5.80527">
        <ele>580.8</ele>
        <time>2021-09-07T14:10:25Z</time>
      </trkpt>
      <trkpt lat="46.66452" lon="5.8052">
        <ele>579.9</ele>
        <time>2021-09-07T14:10:30Z</time>
      </trkpt>
      <trkpt lat="46.6645" lon="5.80514">
        <ele>579.5</ele>
        <time>2021-09-07T14:10:35Z</time>
      </trkpt>
      <trkpt lat="46.66446" lon="5.8051">
        <ele>579.5</ele>
        <time>2021-09-07T14:10:40Z</time>
      </trkpt>
      <trkpt lat="46.66441" lon="5.80507">
        <ele>579.7</ele>
        <time>2021-09-07T14:10:45Z</time>
      </trkpt>
      <trkpt lat="46.66436" lon="5.80504">
        <ele>579.7</ele>
        <time>2021-09-07T14:10:49Z</time>
      </trkpt>
      <trkpt lat="46.66433" lon="5.80499">
        <ele>580.1</ele>
        <time>2021-09-07T14:10:54Z</time>
      </trkpt>
      <trkpt lat="46.66429" lon="5.80495">
        <ele>581.3</ele>
        <time>2021-09-07T14:10:59Z</time>
      </trkpt>
      <trkpt lat="46.66426" lon="5.80489">
        <ele>583.5</ele>
        <time>2021-09-07T14:11:05Z</time>
      </trkpt>
      <trkpt lat="46.66423" lon="5.80483">
        <ele>585.1</ele>
        <time>2021-09-07T14:11:10Z</time>
      </trkpt>
      <trkpt lat="46.6642" lon="5.80478">
        <ele>586.4</ele>
        <time>2021-09-07T14:11:16Z</time>
      </trkpt>
      <trkpt lat="46.66416" lon="5.80473">
        <ele>587.3</ele>
        <time>2021-09-07T14:11:23Z</time>
      </trkpt>
      <trkpt lat="46.66413" lon="5.80467">
        <ele>587.6</ele>
        <time>2021-09-07T14:11:29Z</time>
      </trkpt>
      <trkpt lat="46.66411" lon="5.80461">
        <ele>587.8</ele>
        <time>2021-09-07T14:11:34Z</time>
      </trkpt>
      <trkpt lat="46.66407" lon="5.80457">
        <ele>587.8</ele>
        <time>2021-09-07T14:11:38Z</time>
      </trkpt>
      <trkpt lat="46.66404" lon="5.80453">
        <ele>588.1</ele>
        <time>2021-09-07T14:11:42Z</time>
      </trkpt>
      <trkpt lat="46.66404" lon="5.80445">
        <ele>588.6</ele>
        <time>2021-09-07T14:11:48Z</time>
      </trkpt>
      <trkpt lat="46.66407" lon="5.80438">
        <ele>589.4</ele>
        <time>2021-09-07T14:11:52Z</time>
      </trkpt>
      <trkpt lat="46.66409" lon="5.80432">
        <ele>589.6</ele>
        <time>2021-09-07T14:11:55Z</time>
      </trkpt>
      <trkpt lat="46.66411" lon="5.80425">
        <ele>589.6</ele>
        <time>2021-09-07T14:11:58Z</time>
      </trkpt>
      <trkpt lat="46.66413" lon="5.80419">
        <ele>589.7</ele>
        <time>2021-09-07T14:12:02Z</time>
      </trkpt>
      <trkpt lat="46.66416" lon="5.80412">
        <ele>589.7</ele>
        <time>2021-09-07T14:12:06Z</time>
      </trkpt>
      <trkpt lat="46.6642" lon="5.80407">
        <ele>590.1</ele>
        <time>2021-09-07T14:12:10Z</time>
      </trkpt>
      <trkpt lat="46.66422" lon="5.80401">
        <ele>590.3</ele>
        <time>2021-09-07T14:12:15Z</time>
      </trkpt>
      <trkpt lat="46.66423" lon="5.80395">
        <ele>590</ele>
        <time>2021-09-07T14:12:21Z</time>
      </trkpt>
      <trkpt lat="46.66428" lon="5.80392">
        <ele>590.9</ele>
        <time>2021-09-07T14:12:27Z</time>
      </trkpt>
      <trkpt lat="46.66433" lon="5.8039">
        <ele>592.4</ele>
        <time>2021-09-07T14:12:32Z</time>
      </trkpt>
      <trkpt lat="46.66438" lon="5.80388">
        <ele>594.3</ele>
        <time>2021-09-07T14:12:38Z</time>
      </trkpt>
      <trkpt lat="46.66443" lon="5.80387">
        <ele>595.4</ele>
        <time>2021-09-07T14:12:42Z</time>
      </trkpt>
      <trkpt lat="46.66448" lon="5.80388">
        <ele>596.2</ele>
        <time>2021-09-07T14:12:47Z</time>
      </trkpt>
      <trkpt lat="46.66453" lon="5.80388">
        <ele>596.4</ele>
        <time>2021-09-07T14:12:51Z</time>
      </trkpt>
      <trkpt lat="46.66457" lon="5.80383">
        <ele>596.8</ele>
        <time>2021-09-07T14:12:58Z</time>
      </trkpt>
      <trkpt lat="46.66459" lon="5.80377">
        <ele>597.1</ele>
        <time>2021-09-07T14:13:03Z</time>
      </trkpt>
      <trkpt lat="46.66461" lon="5.80371">
        <ele>597.1</ele>
        <time>2021-09-07T14:13:07Z</time>
      </trkpt>
      <trkpt lat="46.66462" lon="5.80364">
        <ele>596.6</ele>
        <time>2021-09-07T14:13:12Z</time>
      </trkpt>
      <trkpt lat="46.66463" lon="5.80357">
        <ele>595.9</ele>
        <time>2021-09-07T14:13:18Z</time>
      </trkpt>
      <trkpt lat="46.66465" lon="5.8035">
        <ele>595.5</ele>
        <time>2021-09-07T14:13:24Z</time>
      </trkpt>
      <trkpt lat="46.66466" lon="5.80343">
        <ele>594.1</ele>
        <time>2021-09-07T14:13:30Z</time>
      </trkpt>
      <trkpt lat="46.6647" lon="5.80338">
        <ele>593.1</ele>
        <time>2021-09-07T14:13:34Z</time>
      </trkpt>
      <trkpt lat="46.66472" lon="5.80333">
        <ele>592.3</ele>
        <time>2021-09-07T14:13:38Z</time>
      </trkpt>
      <trkpt lat="46.66475" lon="5.80327">
        <ele>591.5</ele>
        <time>2021-09-07T14:13:42Z</time>
      </trkpt>
      <trkpt lat="46.66478" lon="5.80322">
        <ele>590.7</ele>
        <time>2021-09-07T14:13:46Z</time>
      </trkpt>
      <trkpt lat="46.66482" lon="5.80317">
        <ele>589.8</ele>
        <time>2021-09-07T14:13:50Z</time>
      </trkpt>
      <trkpt lat="46.66486" lon="5.80313">
        <ele>588.4</ele>
        <time>2021-09-07T14:13:56Z</time>
      </trkpt>
      <trkpt lat="46.6649" lon="5.80308">
        <ele>587.6</ele>
        <time>2021-09-07T14:14:01Z</time>
      </trkpt>
      <trkpt lat="46.66492" lon="5.80302">
        <ele>586.3</ele>
        <time>2021-09-07T14:14:07Z</time>
      </trkpt>
      <trkpt lat="46.66496" lon="5.80296">
        <ele>586.1</ele>
        <time>2021-09-07T14:14:13Z</time>
      </trkpt>
      <trkpt lat="46.66496" lon="5.80289">
        <ele>586.5</ele>
        <time>2021-09-07T14:14:18Z</time>
      </trkpt>
      <trkpt lat="46.66496" lon="5.80282">
        <ele>587</ele>
        <time>2021-09-07T14:14:22Z</time>
      </trkpt>
      <trkpt lat="46.66497" lon="5.80274">
        <ele>587.2</ele>
        <time>2021-09-07T14:14:27Z</time>
      </trkpt>
      <trkpt lat="46.66497" lon="5.80267">
        <ele>587.5</ele>
        <time>2021-09-07T14:14:32Z</time>
      </trkpt>
      <trkpt lat="46.66496" lon="5.8026">
        <ele>587.7</ele>
        <time>2021-09-07T14:14:37Z</time>
      </trkpt>
      <trkpt lat="46.66495" lon="5.80252">
        <ele>588.2</ele>
        <time>2021-09-07T14:14:42Z</time>
      </trkpt>
      <trkpt lat="46.66494" lon="5.80245">
        <ele>588.9</ele>
        <time>2021-09-07T14:14:47Z</time>
      </trkpt>
      <trkpt lat="46.66495" lon="5.80238">
        <ele>589.5</ele>
        <time>2021-09-07T14:14:53Z</time>
      </trkpt>
      <trkpt lat="46.66496" lon="5.80231">
        <ele>590.3</ele>
        <time>2021-09-07T14:14:59Z</time>
      </trkpt>
      <trkpt lat="46.66498" lon="5.80224">
        <ele>591.2</ele>
        <time>2021-09-07T14:15:04Z</time>
      </trkpt>
      <trkpt lat="46.665" lon="5.80217">
        <ele>591.6</ele>
        <time>2021-09-07T14:15:09Z</time>
      </trkpt>
      <trkpt lat="46.66499" lon="5.8021">
        <ele>591.3</ele>
        <time>2021-09-07T14:15:13Z</time>
      </trkpt>
      <trkpt lat="46.66499" lon="5.80203">
        <ele>590.9</ele>
        <time>2021-09-07T14:15:18Z</time>
      </trkpt>
      <trkpt lat="46.665" lon="5.80195">
        <ele>591</ele>
        <time>2021-09-07T14:15:23Z</time>
      </trkpt>
      <trkpt lat="46.66501" lon="5.80188">
        <ele>591.9</ele>
        <time>2021-09-07T14:15:28Z</time>
      </trkpt>
      <trkpt lat="46.66502" lon="5.80181">
        <ele>592.9</ele>
        <time>2021-09-07T14:15:34Z</time>
      </trkpt>
      <trkpt lat="46.66505" lon="5.80176">
        <ele>594.2</ele>
        <time>2021-09-07T14:15:42Z</time>
      </trkpt>
      <trkpt lat="46.66506" lon="5.80169">
        <ele>595</ele>
        <time>2021-09-07T14:15:48Z</time>
      </trkpt>
      <trkpt lat="46.66507" lon="5.80162">
        <ele>595.3</ele>
        <time>2021-09-07T14:15:54Z</time>
      </trkpt>
      <trkpt lat="46.66509" lon="5.80155">
        <ele>596</ele>
        <time>2021-09-07T14:15:59Z</time>
      </trkpt>
      <trkpt lat="46.66511" lon="5.80149">
        <ele>596.4</ele>
        <time>2021-09-07T14:16:03Z</time>
      </trkpt>
      <trkpt lat="46.66511" lon="5.80142">
        <ele>596.5</ele>
        <time>2021-09-07T14:16:08Z</time>
      </trkpt>
      <trkpt lat="46.66508" lon="5.80136">
        <ele>597.1</ele>
        <time>2021-09-07T14:16:14Z</time>
      </trkpt>
      <trkpt lat="46.66504" lon="5.80131">
        <ele>597.7</ele>
        <time>2021-09-07T14:16:20Z</time>
      </trkpt>
      <trkpt lat="46.665" lon="5.80127">
        <ele>598.2</ele>
        <time>2021-09-07T14:16:25Z</time>
      </trkpt>
      <trkpt lat="46.66496" lon="5.80122">
        <ele>598.5</ele>
        <time>2021-09-07T14:16:30Z</time>
      </trkpt>
      <trkpt lat="46.66492" lon="5.80119">
        <ele>599.3</ele>
        <time>2021-09-07T14:16:35Z</time>
      </trkpt>
      <trkpt lat="46.66488" lon="5.80115">
        <ele>599.8</ele>
        <time>2021-09-07T14:16:39Z</time>
      </trkpt>
      <trkpt lat="46.66484" lon="5.80111">
        <ele>600.2</ele>
        <time>2021-09-07T14:16:45Z</time>
      </trkpt>
      <trkpt lat="46.6648" lon="5.80106">
        <ele>600.5</ele>
        <time>2021-09-07T14:16:50Z</time>
      </trkpt>
      <trkpt lat="46.66476" lon="5.80102">
        <ele>600.6</ele>
        <time>2021-09-07T14:16:57Z</time>
      </trkpt>
      <trkpt lat="46.66472" lon="5.80098">
        <ele>599.9</ele>
        <time>2021-09-07T14:17:03Z</time>
      </trkpt>
      <trkpt lat="46.6647" lon="5.80092">
        <ele>598.7</ele>
        <time>2021-09-07T14:17:09Z</time>
      </trkpt>
      <trkpt lat="46.66468" lon="5.80084">
        <ele>598.3</ele>
        <time>2021-09-07T14:17:15Z</time>
      </trkpt>
      <trkpt lat="46.66467" lon="5.80077">
        <ele>598.5</ele>
        <time>2021-09-07T14:17:20Z</time>
      </trkpt>
      <trkpt lat="46.66466" lon="5.80069">
        <ele>598.9</ele>
        <time>2021-09-07T14:17:25Z</time>
      </trkpt>
      <trkpt lat="46.66466" lon="5.80062">
        <ele>599.6</ele>
        <time>2021-09-07T14:17:31Z</time>
      </trkpt>
      <trkpt lat="46.66467" lon="5.80054">
        <ele>600.4</ele>
        <time>2021-09-07T14:17:42Z</time>
      </trkpt>
      <trkpt lat="46.66467" lon="5.80047">
        <ele>600.7</ele>
        <time>2021-09-07T14:17:45Z</time>
      </trkpt>
      <trkpt lat="46.66469" lon="5.8004">
        <ele>601.1</ele>
        <time>2021-09-07T14:17:48Z</time>
      </trkpt>
      <trkpt lat="46.6647" lon="5.80033">
        <ele>601</ele>
        <time>2021-09-07T14:17:52Z</time>
      </trkpt>
      <trkpt lat="46.66472" lon="5.80026">
        <ele>600.9</ele>
        <time>2021-09-07T14:17:56Z</time>
      </trkpt>
      <trkpt lat="46.66474" lon="5.8002">
        <ele>601.2</ele>
        <time>2021-09-07T14:18:00Z</time>
      </trkpt>
      <trkpt lat="46.66477" lon="5.80013">
        <ele>601.3</ele>
        <time>2021-09-07T14:18:05Z</time>
      </trkpt>
      <trkpt lat="46.66477" lon="5.80006">
        <ele>601.4</ele>
        <time>2021-09-07T14:18:12Z</time>
      </trkpt>
      <trkpt lat="46.66478" lon="5.79999">
        <ele>601.9</ele>
        <time>2021-09-07T14:18:19Z</time>
      </trkpt>
      <trkpt lat="46.66481" lon="5.7999">
        <ele>602.4</ele>
        <time>2021-09-07T14:18:32Z</time>
      </trkpt>
      <trkpt lat="46.66482" lon="5.79983">
        <ele>602.8</ele>
        <time>2021-09-07T14:18:35Z</time>
      </trkpt>
      <trkpt lat="46.66482" lon="5.79976">
        <ele>603.2</ele>
        <time>2021-09-07T14:18:39Z</time>
      </trkpt>
      <trkpt lat="46.66481" lon="5.79968">
        <ele>603.1</ele>
        <time>2021-09-07T14:18:44Z</time>
      </trkpt>
      <trkpt lat="46.66482" lon="5.79961">
        <ele>603.2</ele>
        <time>2021-09-07T14:18:49Z</time>
      </trkpt>
      <trkpt lat="46.66482" lon="5.79954">
        <ele>602.5</ele>
        <time>2021-09-07T14:18:58Z</time>
      </trkpt>
      <trkpt lat="46.66485" lon="5.79949">
        <ele>602.1</ele>
        <time>2021-09-07T14:19:01Z</time>
      </trkpt>
      <trkpt lat="46.66486" lon="5.79942">
        <ele>601.7</ele>
        <time>2021-09-07T14:19:06Z</time>
      </trkpt>
      <trkpt lat="46.66486" lon="5.79934">
        <ele>601.7</ele>
        <time>2021-09-07T14:19:12Z</time>
      </trkpt>
      <trkpt lat="46.66485" lon="5.79927">
        <ele>602.2</ele>
        <time>2021-09-07T14:19:17Z</time>
      </trkpt>
      <trkpt lat="46.66485" lon="5.7992">
        <ele>602.8</ele>
        <time>2021-09-07T14:19:23Z</time>
      </trkpt>
      <trkpt lat="46.66484" lon="5.79912">
        <ele>604.7</ele>
        <time>2021-09-07T14:19:33Z</time>
      </trkpt>
      <trkpt lat="46.66481" lon="5.79906">
        <ele>604.8</ele>
        <time>2021-09-07T14:19:36Z</time>
      </trkpt>
      <trkpt lat="46.66479" lon="5.79899">
        <ele>604.9</ele>
        <time>2021-09-07T14:19:40Z</time>
      </trkpt>
      <trkpt lat="46.66477" lon="5.79894">
        <ele>605</ele>
        <time>2021-09-07T14:19:44Z</time>
      </trkpt>
      <trkpt lat="46.66474" lon="5.79889">
        <ele>604.7</ele>
        <time>2021-09-07T14:19:48Z</time>
      </trkpt>
      <trkpt lat="46.66471" lon="5.79883">
        <ele>605.2</ele>
        <time>2021-09-07T14:19:53Z</time>
      </trkpt>
      <trkpt lat="46.66469" lon="5.79876">
        <ele>606</ele>
        <time>2021-09-07T14:19:58Z</time>
      </trkpt>
      <trkpt lat="46.66469" lon="5.79869">
        <ele>606.6</ele>
        <time>2021-09-07T14:20:02Z</time>
      </trkpt>
      <trkpt lat="46.66471" lon="5.79861">
        <ele>607</ele>
        <time>2021-09-07T14:20:07Z</time>
      </trkpt>
      <trkpt lat="46.66472" lon="5.79854">
        <ele>607.3</ele>
        <time>2021-09-07T14:20:11Z</time>
      </trkpt>
      <trkpt lat="46.66473" lon="5.79847">
        <ele>607.2</ele>
        <time>2021-09-07T14:20:16Z</time>
      </trkpt>
      <trkpt lat="46.66474" lon="5.7984">
        <ele>607</ele>
        <time>2021-09-07T14:20:22Z</time>
      </trkpt>
      <trkpt lat="46.66477" lon="5.7983">
        <ele>605.9</ele>
        <time>2021-09-07T14:20:36Z</time>
      </trkpt>
      <trkpt lat="46.6648" lon="5.79821">
        <ele>604.9</ele>
        <time>2021-09-07T14:20:39Z</time>
      </trkpt>
      <trkpt lat="46.66482" lon="5.79813">
        <ele>603.7</ele>
        <time>2021-09-07T14:20:42Z</time>
      </trkpt>
      <trkpt lat="46.66484" lon="5.79806">
        <ele>602.4</ele>
        <time>2021-09-07T14:20:46Z</time>
      </trkpt>
      <trkpt lat="46.66486" lon="5.79799">
        <ele>601.5</ele>
        <time>2021-09-07T14:20:51Z</time>
      </trkpt>
      <trkpt lat="46.66489" lon="5.79792">
        <ele>601.6</ele>
        <time>2021-09-07T14:20:57Z</time>
      </trkpt>
      <trkpt lat="46.66492" lon="5.79786">
        <ele>602.1</ele>
        <time>2021-09-07T14:21:02Z</time>
      </trkpt>
      <trkpt lat="46.66494" lon="5.79779">
        <ele>602.5</ele>
        <time>2021-09-07T14:21:08Z</time>
      </trkpt>
      <trkpt lat="46.66492" lon="5.79773">
        <ele>602.7</ele>
        <time>2021-09-07T14:21:15Z</time>
      </trkpt>
      <trkpt lat="46.6649" lon="5.79767">
        <ele>601.8</ele>
        <time>2021-09-07T14:21:21Z</time>
      </trkpt>
      <trkpt lat="46.66489" lon="5.7976">
        <ele>601</ele>
        <time>2021-09-07T14:21:27Z</time>
      </trkpt>
      <trkpt lat="46.66492" lon="5.79754">
        <ele>600.4</ele>
        <time>2021-09-07T14:21:32Z</time>
      </trkpt>
      <trkpt lat="46.66496" lon="5.79751">
        <ele>599.6</ele>
        <time>2021-09-07T14:21:37Z</time>
      </trkpt>
      <trkpt lat="46.66491" lon="5.79749">
        <ele>600.2</ele>
        <time>2021-09-07T14:21:55Z</time>
      </trkpt>
      <trkpt lat="46.66488" lon="5.79743">
        <ele>601.3</ele>
        <time>2021-09-07T14:22:01Z</time>
      </trkpt>
      <trkpt lat="46.66486" lon="5.79736">
        <ele>602.1</ele>
        <time>2021-09-07T14:22:06Z</time>
      </trkpt>
      <trkpt lat="46.66484" lon="5.7973">
        <ele>602.7</ele>
        <time>2021-09-07T14:22:12Z</time>
      </trkpt>
      <trkpt lat="46.66484" lon="5.79723">
        <ele>603</ele>
        <time>2021-09-07T14:22:17Z</time>
      </trkpt>
      <trkpt lat="46.66485" lon="5.79716">
        <ele>603.2</ele>
        <time>2021-09-07T14:22:24Z</time>
      </trkpt>
      <trkpt lat="46.66488" lon="5.7971">
        <ele>602.9</ele>
        <time>2021-09-07T14:22:32Z</time>
      </trkpt>
      <trkpt lat="46.66491" lon="5.79704">
        <ele>602.4</ele>
        <time>2021-09-07T14:22:36Z</time>
      </trkpt>
      <trkpt lat="46.66495" lon="5.79698">
        <ele>601.8</ele>
        <time>2021-09-07T14:22:40Z</time>
      </trkpt>
      <trkpt lat="46.66498" lon="5.79693">
        <ele>601.2</ele>
        <time>2021-09-07T14:22:44Z</time>
      </trkpt>
      <trkpt lat="46.66501" lon="5.79687">
        <ele>600.3</ele>
        <time>2021-09-07T14:22:50Z</time>
      </trkpt>
      <trkpt lat="46.66502" lon="5.79681">
        <ele>599.9</ele>
        <time>2021-09-07T14:22:56Z</time>
      </trkpt>
      <trkpt lat="46.66503" lon="5.79674">
        <ele>599.9</ele>
        <time>2021-09-07T14:23:01Z</time>
      </trkpt>
      <trkpt lat="46.66503" lon="5.79667">
        <ele>600.3</ele>
        <time>2021-09-07T14:23:06Z</time>
      </trkpt>
      <trkpt lat="46.66503" lon="5.7966">
        <ele>600.5</ele>
        <time>2021-09-07T14:23:10Z</time>
      </trkpt>
      <trkpt lat="46.66503" lon="5.79651">
        <ele>600.7</ele>
        <time>2021-09-07T14:23:21Z</time>
      </trkpt>
      <trkpt lat="46.665" lon="5.79645">
        <ele>600.7</ele>
        <time>2021-09-07T14:23:25Z</time>
      </trkpt>
      <trkpt lat="46.66499" lon="5.79638">
        <ele>601</ele>
        <time>2021-09-07T14:23:31Z</time>
      </trkpt>
      <trkpt lat="46.66501" lon="5.7963">
        <ele>601.5</ele>
        <time>2021-09-07T14:23:39Z</time>
      </trkpt>
      <trkpt lat="46.66504" lon="5.79623">
        <ele>601.2</ele>
        <time>2021-09-07T14:23:44Z</time>
      </trkpt>
      <trkpt lat="46.66504" lon="5.79615">
        <ele>600.9</ele>
        <time>2021-09-07T14:23:51Z</time>
      </trkpt>
      <trkpt lat="46.66505" lon="5.79608">
        <ele>600.8</ele>
        <time>2021-09-07T14:23:56Z</time>
      </trkpt>
      <trkpt lat="46.66505" lon="5.79601">
        <ele>600.8</ele>
        <time>2021-09-07T14:24:01Z</time>
      </trkpt>
      <trkpt lat="46.66507" lon="5.79595">
        <ele>600.6</ele>
        <time>2021-09-07T14:24:11Z</time>
      </trkpt>
      <trkpt lat="46.66508" lon="5.79588">
        <ele>600</ele>
        <time>2021-09-07T14:24:19Z</time>
      </trkpt>
      <trkpt lat="46.66508" lon="5.7958">
        <ele>599.2</ele>
        <time>2021-09-07T14:24:23Z</time>
      </trkpt>
      <trkpt lat="46.66508" lon="5.79572">
        <ele>598.6</ele>
        <time>2021-09-07T14:24:28Z</time>
      </trkpt>
      <trkpt lat="46.66508" lon="5.79565">
        <ele>597.8</ele>
        <time>2021-09-07T14:24:33Z</time>
      </trkpt>
      <trkpt lat="46.66508" lon="5.79558">
        <ele>596.3</ele>
        <time>2021-09-07T14:24:41Z</time>
      </trkpt>
      <trkpt lat="46.66509" lon="5.79551">
        <ele>595.3</ele>
        <time>2021-09-07T14:24:47Z</time>
      </trkpt>
      <trkpt lat="46.66509" lon="5.79544">
        <ele>595.3</ele>
        <time>2021-09-07T14:24:52Z</time>
      </trkpt>
      <trkpt lat="46.66509" lon="5.79537">
        <ele>594.7</ele>
        <time>2021-09-07T14:25:00Z</time>
      </trkpt>
      <trkpt lat="46.66505" lon="5.7953">
        <ele>593.4</ele>
        <time>2021-09-07T14:25:11Z</time>
      </trkpt>
      <trkpt lat="46.66503" lon="5.79525">
        <ele>593.1</ele>
        <time>2021-09-07T14:25:16Z</time>
      </trkpt>
      <trkpt lat="46.66504" lon="5.79517">
        <ele>592.4</ele>
        <time>2021-09-07T14:25:22Z</time>
      </trkpt>
      <trkpt lat="46.66505" lon="5.7951">
        <ele>591.9</ele>
        <time>2021-09-07T14:25:26Z</time>
      </trkpt>
      <trkpt lat="46.66505" lon="5.79503">
        <ele>591.3</ele>
        <time>2021-09-07T14:25:31Z</time>
      </trkpt>
      <trkpt lat="46.66507" lon="5.79497">
        <ele>590.4</ele>
        <time>2021-09-07T14:25:37Z</time>
      </trkpt>
      <trkpt lat="46.6651" lon="5.79491">
        <ele>589.8</ele>
        <time>2021-09-07T14:25:42Z</time>
      </trkpt>
      <trkpt lat="46.66514" lon="5.79486">
        <ele>589.6</ele>
        <time>2021-09-07T14:25:46Z</time>
      </trkpt>
      <trkpt lat="46.66514" lon="5.79479">
        <ele>588.6</ele>
        <time>2021-09-07T14:25:52Z</time>
      </trkpt>
      <trkpt lat="46.66513" lon="5.79473">
        <ele>588.1</ele>
        <time>2021-09-07T14:25:56Z</time>
      </trkpt>
      <trkpt lat="46.66508" lon="5.79475">
        <ele>585.8</ele>
        <time>2021-09-07T14:31:06Z</time>
      </trkpt>
      <trkpt lat="46.66503" lon="5.79475">
        <ele>583.5</ele>
        <time>2021-09-07T14:31:15Z</time>
      </trkpt>
      <trkpt lat="46.66501" lon="5.79469">
        <ele>583.4</ele>
        <time>2021-09-07T14:31:19Z</time>
      </trkpt>
      <trkpt lat="46.665" lon="5.79462">
        <ele>583.5</ele>
        <time>2021-09-07T14:31:23Z</time>
      </trkpt>
      <trkpt lat="46.66499" lon="5.79453">
        <ele>583.5</ele>
        <time>2021-09-07T14:31:28Z</time>
      </trkpt>
      <trkpt lat="46.66498" lon="5.79447">
        <ele>583.7</ele>
        <time>2021-09-07T14:31:33Z</time>
      </trkpt>
      <trkpt lat="46.66494" lon="5.79442">
        <ele>584.1</ele>
        <time>2021-09-07T14:31:41Z</time>
      </trkpt>
      <trkpt lat="46.66491" lon="5.79432">
        <ele>584.7</ele>
        <time>2021-09-07T14:31:55Z</time>
      </trkpt>
      <trkpt lat="46.6649" lon="5.79426">
        <ele>584.8</ele>
        <time>2021-09-07T14:31:58Z</time>
      </trkpt>
      <trkpt lat="46.66488" lon="5.7942">
        <ele>585.1</ele>
        <time>2021-09-07T14:32:02Z</time>
      </trkpt>
      <trkpt lat="46.66485" lon="5.79415">
        <ele>585.7</ele>
        <time>2021-09-07T14:32:07Z</time>
      </trkpt>
      <trkpt lat="46.66482" lon="5.7941">
        <ele>586.1</ele>
        <time>2021-09-07T14:32:12Z</time>
      </trkpt>
      <trkpt lat="46.66477" lon="5.79406">
        <ele>586.1</ele>
        <time>2021-09-07T14:32:17Z</time>
      </trkpt>
      <trkpt lat="46.66475" lon="5.794">
        <ele>585.9</ele>
        <time>2021-09-07T14:32:24Z</time>
      </trkpt>
      <trkpt lat="46.66474" lon="5.79389">
        <ele>585.4</ele>
        <time>2021-09-07T14:32:39Z</time>
      </trkpt>
      <trkpt lat="46.66474" lon="5.79381">
        <ele>585.3</ele>
        <time>2021-09-07T14:32:42Z</time>
      </trkpt>
      <trkpt lat="46.66473" lon="5.79373">
        <ele>585.5</ele>
        <time>2021-09-07T14:32:46Z</time>
      </trkpt>
      <trkpt lat="46.66472" lon="5.79365">
        <ele>585.9</ele>
        <time>2021-09-07T14:32:50Z</time>
      </trkpt>
      <trkpt lat="46.66471" lon="5.79358">
        <ele>586.5</ele>
        <time>2021-09-07T14:32:55Z</time>
      </trkpt>
      <trkpt lat="46.66469" lon="5.79351">
        <ele>587.3</ele>
        <time>2021-09-07T14:33:01Z</time>
      </trkpt>
      <trkpt lat="46.66465" lon="5.79347">
        <ele>588.1</ele>
        <time>2021-09-07T14:33:08Z</time>
      </trkpt>
      <trkpt lat="46.66464" lon="5.79339">
        <ele>588.8</ele>
        <time>2021-09-07T14:33:22Z</time>
      </trkpt>
      <trkpt lat="46.66464" lon="5.79332">
        <ele>588.9</ele>
        <time>2021-09-07T14:33:25Z</time>
      </trkpt>
      <trkpt lat="46.66465" lon="5.79324">
        <ele>588.8</ele>
        <time>2021-09-07T14:33:29Z</time>
      </trkpt>
      <trkpt lat="46.66466" lon="5.79317">
        <ele>588.7</ele>
        <time>2021-09-07T14:33:33Z</time>
      </trkpt>
      <trkpt lat="46.66465" lon="5.7931">
        <ele>588.6</ele>
        <time>2021-09-07T14:33:38Z</time>
      </trkpt>
      <trkpt lat="46.66465" lon="5.79303">
        <ele>588.6</ele>
        <time>2021-09-07T14:33:45Z</time>
      </trkpt>
      <trkpt lat="46.66465" lon="5.79297">
        <ele>588.8</ele>
        <time>2021-09-07T14:33:50Z</time>
      </trkpt>
      <trkpt lat="46.66466" lon="5.7929">
        <ele>588.6</ele>
        <time>2021-09-07T14:33:55Z</time>
      </trkpt>
      <trkpt lat="46.66467" lon="5.79282">
        <ele>587.9</ele>
        <time>2021-09-07T14:34:01Z</time>
      </trkpt>
      <trkpt lat="46.66468" lon="5.79275">
        <ele>587.1</ele>
        <time>2021-09-07T14:34:07Z</time>
      </trkpt>
      <trkpt lat="46.6647" lon="5.79268">
        <ele>586.4</ele>
        <time>2021-09-07T14:34:12Z</time>
      </trkpt>
      <trkpt lat="46.66471" lon="5.79261">
        <ele>585.9</ele>
        <time>2021-09-07T14:34:17Z</time>
      </trkpt>
      <trkpt lat="46.6647" lon="5.79254">
        <ele>585.3</ele>
        <time>2021-09-07T14:34:22Z</time>
      </trkpt>
      <trkpt lat="46.66471" lon="5.79247">
        <ele>584.6</ele>
        <time>2021-09-07T14:34:28Z</time>
      </trkpt>
      <trkpt lat="46.6647" lon="5.7924">
        <ele>584.4</ele>
        <time>2021-09-07T14:34:33Z</time>
      </trkpt>
      <trkpt lat="46.66471" lon="5.79233">
        <ele>584.3</ele>
        <time>2021-09-07T14:34:37Z</time>
      </trkpt>
      <trkpt lat="46.66473" lon="5.79226">
        <ele>584.1</ele>
        <time>2021-09-07T14:34:42Z</time>
      </trkpt>
      <trkpt lat="46.66474" lon="5.79218">
        <ele>584.1</ele>
        <time>2021-09-07T14:34:47Z</time>
      </trkpt>
      <trkpt lat="46.66474" lon="5.79212">
        <ele>584.3</ele>
        <time>2021-09-07T14:34:51Z</time>
      </trkpt>
      <trkpt lat="46.66474" lon="5.79204">
        <ele>584.6</ele>
        <time>2021-09-07T14:34:56Z</time>
      </trkpt>
      <trkpt lat="46.66473" lon="5.79198">
        <ele>584.5</ele>
        <time>2021-09-07T14:35:02Z</time>
      </trkpt>
      <trkpt lat="46.66473" lon="5.79191">
        <ele>584.2</ele>
        <time>2021-09-07T14:35:07Z</time>
      </trkpt>
      <trkpt lat="46.66474" lon="5.79184">
        <ele>584.4</ele>
        <time>2021-09-07T14:35:12Z</time>
      </trkpt>
      <trkpt lat="46.66476" lon="5.79178">
        <ele>584.6</ele>
        <time>2021-09-07T14:35:18Z</time>
      </trkpt>
      <trkpt lat="46.66476" lon="5.7917">
        <ele>584.6</ele>
        <time>2021-09-07T14:35:25Z</time>
      </trkpt>
      <trkpt lat="46.66475" lon="5.79163">
        <ele>584.7</ele>
        <time>2021-09-07T14:35:31Z</time>
      </trkpt>
      <trkpt lat="46.66473" lon="5.79155">
        <ele>584.6</ele>
        <time>2021-09-07T14:35:44Z</time>
      </trkpt>
      <trkpt lat="46.66472" lon="5.79148">
        <ele>584.6</ele>
        <time>2021-09-07T14:35:47Z</time>
      </trkpt>
      <trkpt lat="46.66472" lon="5.7914">
        <ele>584.9</ele>
        <time>2021-09-07T14:35:53Z</time>
      </trkpt>
      <trkpt lat="46.66472" lon="5.79133">
        <ele>585.6</ele>
        <time>2021-09-07T14:35:58Z</time>
      </trkpt>
      <trkpt lat="46.66471" lon="5.79125">
        <ele>586.6</ele>
        <time>2021-09-07T14:36:04Z</time>
      </trkpt>
      <trkpt lat="46.66469" lon="5.79118">
        <ele>587.3</ele>
        <time>2021-09-07T14:36:11Z</time>
      </trkpt>
      <trkpt lat="46.66469" lon="5.79111">
        <ele>587.6</ele>
        <time>2021-09-07T14:36:19Z</time>
      </trkpt>
      <trkpt lat="46.66474" lon="5.79112">
        <ele>587.2</ele>
        <time>2021-09-07T14:36:25Z</time>
      </trkpt>
      <trkpt lat="46.66478" lon="5.79113">
        <ele>586.3</ele>
        <time>2021-09-07T14:36:30Z</time>
      </trkpt>
      <trkpt lat="46.66483" lon="5.79116">
        <ele>585.4</ele>
        <time>2021-09-07T14:36:36Z</time>
      </trkpt>
      <trkpt lat="46.66487" lon="5.7912">
        <ele>582.9</ele>
        <time>2021-09-07T14:37:21Z</time>
      </trkpt>
      <trkpt lat="46.66484" lon="5.79114">
        <ele>581.4</ele>
        <time>2021-09-07T14:38:38Z</time>
      </trkpt>
      <trkpt lat="46.6648" lon="5.7911">
        <ele>582.3</ele>
        <time>2021-09-07T14:38:45Z</time>
      </trkpt>
      <trkpt lat="46.66475" lon="5.7911">
        <ele>582.1</ele>
        <time>2021-09-07T14:38:52Z</time>
      </trkpt>
      <trkpt lat="46.6647" lon="5.79109">
        <ele>581.8</ele>
        <time>2021-09-07T14:38:57Z</time>
      </trkpt>
      <trkpt lat="46.66465" lon="5.79107">
        <ele>581.6</ele>
        <time>2021-09-07T14:39:01Z</time>
      </trkpt>
      <trkpt lat="46.66462" lon="5.79102">
        <ele>581.1</ele>
        <time>2021-09-07T14:39:06Z</time>
      </trkpt>
      <trkpt lat="46.6646" lon="5.79095">
        <ele>580.6</ele>
        <time>2021-09-07T14:39:12Z</time>
      </trkpt>
      <trkpt lat="46.66459" lon="5.79088">
        <ele>580.1</ele>
        <time>2021-09-07T14:39:17Z</time>
      </trkpt>
      <trkpt lat="46.66456" lon="5.79082">
        <ele>578.7</ele>
        <time>2021-09-07T14:39:25Z</time>
      </trkpt>
      <trkpt lat="46.66451" lon="5.79079">
        <ele>577.7</ele>
        <time>2021-09-07T14:39:31Z</time>
      </trkpt>
      <trkpt lat="46.66448" lon="5.79075">
        <ele>577.3</ele>
        <time>2021-09-07T14:39:36Z</time>
      </trkpt>
      <trkpt lat="46.66444" lon="5.79072">
        <ele>577.2</ele>
        <time>2021-09-07T14:39:40Z</time>
      </trkpt>
      <trkpt lat="46.66439" lon="5.79068">
        <ele>577.3</ele>
        <time>2021-09-07T14:39:45Z</time>
      </trkpt>
      <trkpt lat="46.66435" lon="5.79065">
        <ele>577.3</ele>
        <time>2021-09-07T14:39:51Z</time>
      </trkpt>
      <trkpt lat="46.66431" lon="5.79061">
        <ele>577.1</ele>
        <time>2021-09-07T14:39:58Z</time>
      </trkpt>
      <trkpt lat="46.66425" lon="5.7906">
        <ele>577.2</ele>
        <time>2021-09-07T14:40:07Z</time>
      </trkpt>
      <trkpt lat="46.6642" lon="5.79061">
        <ele>577.3</ele>
        <time>2021-09-07T14:40:18Z</time>
      </trkpt>
      <trkpt lat="46.66415" lon="5.79061">
        <ele>577.1</ele>
        <time>2021-09-07T14:40:21Z</time>
      </trkpt>
      <trkpt lat="46.6641" lon="5.79062">
        <ele>576.8</ele>
        <time>2021-09-07T14:40:26Z</time>
      </trkpt>
      <trkpt lat="46.66405" lon="5.79063">
        <ele>576.3</ele>
        <time>2021-09-07T14:40:33Z</time>
      </trkpt>
      <trkpt lat="46.664" lon="5.79061">
        <ele>576.3</ele>
        <time>2021-09-07T14:40:41Z</time>
      </trkpt>
      <trkpt lat="46.66396" lon="5.79059">
        <ele>575.9</ele>
        <time>2021-09-07T14:40:47Z</time>
      </trkpt>
      <trkpt lat="46.66392" lon="5.7905">
        <ele>575.7</ele>
        <time>2021-09-07T14:41:00Z</time>
      </trkpt>
      <trkpt lat="46.66389" lon="5.79045">
        <ele>575.6</ele>
        <time>2021-09-07T14:41:04Z</time>
      </trkpt>
      <trkpt lat="46.66385" lon="5.7904">
        <ele>575.1</ele>
        <time>2021-09-07T14:41:10Z</time>
      </trkpt>
      <trkpt lat="46.66381" lon="5.79036">
        <ele>575.3</ele>
        <time>2021-09-07T14:41:14Z</time>
      </trkpt>
      <trkpt lat="46.66377" lon="5.79032">
        <ele>575.7</ele>
        <time>2021-09-07T14:41:18Z</time>
      </trkpt>
      <trkpt lat="46.66375" lon="5.79027">
        <ele>576.4</ele>
        <time>2021-09-07T14:41:24Z</time>
      </trkpt>
      <trkpt lat="46.66373" lon="5.7902">
        <ele>576.2</ele>
        <time>2021-09-07T14:41:35Z</time>
      </trkpt>
      <trkpt lat="46.6637" lon="5.79014">
        <ele>574.8</ele>
        <time>2021-09-07T14:41:41Z</time>
      </trkpt>
      <trkpt lat="46.66366" lon="5.7901">
        <ele>572.8</ele>
        <time>2021-09-07T14:41:50Z</time>
      </trkpt>
      <trkpt lat="46.66362" lon="5.79006">
        <ele>571.5</ele>
        <time>2021-09-07T14:41:56Z</time>
      </trkpt>
      <trkpt lat="46.66357" lon="5.79003">
        <ele>570.2</ele>
        <time>2021-09-07T14:42:03Z</time>
      </trkpt>
      <trkpt lat="46.66352" lon="5.79002">
        <ele>569.1</ele>
        <time>2021-09-07T14:42:09Z</time>
      </trkpt>
      <trkpt lat="46.66347" lon="5.79">
        <ele>568.3</ele>
        <time>2021-09-07T14:42:15Z</time>
      </trkpt>
      <trkpt lat="46.66342" lon="5.78997">
        <ele>567.2</ele>
        <time>2021-09-07T14:42:22Z</time>
      </trkpt>
      <trkpt lat="46.66338" lon="5.78994">
        <ele>566.4</ele>
        <time>2021-09-07T14:42:28Z</time>
      </trkpt>
      <trkpt lat="46.66334" lon="5.7899">
        <ele>565.7</ele>
        <time>2021-09-07T14:42:36Z</time>
      </trkpt>
      <trkpt lat="46.6633" lon="5.78985">
        <ele>565.3</ele>
        <time>2021-09-07T14:42:43Z</time>
      </trkpt>
      <trkpt lat="46.66326" lon="5.78982">
        <ele>565.1</ele>
        <time>2021-09-07T14:42:52Z</time>
      </trkpt>
      <trkpt lat="46.66322" lon="5.78979">
        <ele>565</ele>
        <time>2021-09-07T14:42:56Z</time>
      </trkpt>
      <trkpt lat="46.66317" lon="5.78977">
        <ele>564.5</ele>
        <time>2021-09-07T14:43:03Z</time>
      </trkpt>
      <trkpt lat="46.66312" lon="5.78976">
        <ele>564.3</ele>
        <time>2021-09-07T14:43:11Z</time>
      </trkpt>
      <trkpt lat="46.66307" lon="5.78978">
        <ele>564.4</ele>
        <time>2021-09-07T14:43:17Z</time>
      </trkpt>
      <trkpt lat="46.66302" lon="5.78979">
        <ele>564.4</ele>
        <time>2021-09-07T14:43:22Z</time>
      </trkpt>
      <trkpt lat="46.66297" lon="5.78977">
        <ele>563.8</ele>
        <time>2021-09-07T14:43:27Z</time>
      </trkpt>
      <trkpt lat="46.66292" lon="5.78976">
        <ele>562.7</ele>
        <time>2021-09-07T14:43:33Z</time>
      </trkpt>
      <trkpt lat="46.66288" lon="5.78973">
        <ele>562.2</ele>
        <time>2021-09-07T14:43:41Z</time>
      </trkpt>
      <trkpt lat="46.66284" lon="5.78968">
        <ele>561.8</ele>
        <time>2021-09-07T14:43:49Z</time>
      </trkpt>
      <trkpt lat="46.66279" lon="5.78966">
        <ele>561.2</ele>
        <time>2021-09-07T14:43:57Z</time>
      </trkpt>
      <trkpt lat="46.66276" lon="5.78962">
        <ele>560.3</ele>
        <time>2021-09-07T14:44:09Z</time>
      </trkpt>
      <trkpt lat="46.66273" lon="5.78956">
        <ele>560.1</ele>
        <time>2021-09-07T14:44:12Z</time>
      </trkpt>
      <trkpt lat="46.6627" lon="5.7895">
        <ele>559.9</ele>
        <time>2021-09-07T14:44:17Z</time>
      </trkpt>
      <trkpt lat="46.66266" lon="5.78947">
        <ele>559.6</ele>
        <time>2021-09-07T14:44:23Z</time>
      </trkpt>
      <trkpt lat="46.66262" lon="5.78945">
        <ele>558.9</ele>
        <time>2021-09-07T14:44:29Z</time>
      </trkpt>
      <trkpt lat="46.66257" lon="5.78941">
        <ele>557.5</ele>
        <time>2021-09-07T14:44:38Z</time>
      </trkpt>
      <trkpt lat="46.66253" lon="5.78938">
        <ele>557.1</ele>
        <time>2021-09-07T14:44:44Z</time>
      </trkpt>
      <trkpt lat="46.66248" lon="5.78938">
        <ele>556.3</ele>
        <time>2021-09-07T14:44:52Z</time>
      </trkpt>
      <trkpt lat="46.66244" lon="5.78935">
        <ele>555.8</ele>
        <time>2021-09-07T14:44:58Z</time>
      </trkpt>
      <trkpt lat="46.66238" lon="5.78933">
        <ele>555.4</ele>
        <time>2021-09-07T14:45:03Z</time>
      </trkpt>
      <trkpt lat="46.66234" lon="5.78931">
        <ele>555</ele>
        <time>2021-09-07T14:45:07Z</time>
      </trkpt>
      <trkpt lat="46.66229" lon="5.78928">
        <ele>554.1</ele>
        <time>2021-09-07T14:45:12Z</time>
      </trkpt>
      <trkpt lat="46.66227" lon="5.78922">
        <ele>553.1</ele>
        <time>2021-09-07T14:45:18Z</time>
      </trkpt>
      <trkpt lat="46.66226" lon="5.78915">
        <ele>550.3</ele>
        <time>2021-09-07T14:45:28Z</time>
      </trkpt>
      <trkpt lat="46.66227" lon="5.78908">
        <ele>549.3</ele>
        <time>2021-09-07T14:45:33Z</time>
      </trkpt>
      <trkpt lat="46.66228" lon="5.789">
        <ele>548.9</ele>
        <time>2021-09-07T14:45:37Z</time>
      </trkpt>
      <trkpt lat="46.66231" lon="5.78894">
        <ele>549</ele>
        <time>2021-09-07T14:45:42Z</time>
      </trkpt>
      <trkpt lat="46.66234" lon="5.78888">
        <ele>549.4</ele>
        <time>2021-09-07T14:45:48Z</time>
      </trkpt>
      <trkpt lat="46.66239" lon="5.78888">
        <ele>549.9</ele>
        <time>2021-09-07T14:45:53Z</time>
      </trkpt>
      <trkpt lat="46.66244" lon="5.78887">
        <ele>550.1</ele>
        <time>2021-09-07T14:45:57Z</time>
      </trkpt>
      <trkpt lat="46.66248" lon="5.78888">
        <ele>550.3</ele>
        <time>2021-09-07T14:46:03Z</time>
      </trkpt>
      <trkpt lat="46.66253" lon="5.78892">
        <ele>549.7</ele>
        <time>2021-09-07T14:46:12Z</time>
      </trkpt>
      <trkpt lat="46.66258" lon="5.78893">
        <ele>548.7</ele>
        <time>2021-09-07T14:46:18Z</time>
      </trkpt>
      <trkpt lat="46.66263" lon="5.78891">
        <ele>548</ele>
        <time>2021-09-07T14:46:26Z</time>
      </trkpt>
      <trkpt lat="46.66267" lon="5.78885">
        <ele>547.7</ele>
        <time>2021-09-07T14:46:33Z</time>
      </trkpt>
      <trkpt lat="46.66272" lon="5.78882">
        <ele>547.1</ele>
        <time>2021-09-07T14:46:40Z</time>
      </trkpt>
      <trkpt lat="46.66274" lon="5.78877">
        <ele>547.2</ele>
        <time>2021-09-07T14:46:50Z</time>
      </trkpt>
      <trkpt lat="46.66279" lon="5.78873">
        <ele>546</ele>
        <time>2021-09-07T14:46:57Z</time>
      </trkpt>
      <trkpt lat="46.66283" lon="5.7887">
        <ele>544.6</ele>
        <time>2021-09-07T14:47:02Z</time>
      </trkpt>
      <trkpt lat="46.66287" lon="5.78866">
        <ele>541.7</ele>
        <time>2021-09-07T14:47:09Z</time>
      </trkpt>
      <trkpt lat="46.66292" lon="5.78864">
        <ele>538.2</ele>
        <time>2021-09-07T14:47:17Z</time>
      </trkpt>
      <trkpt lat="46.66297" lon="5.78865">
        <ele>536.3</ele>
        <time>2021-09-07T14:47:23Z</time>
      </trkpt>
      <trkpt lat="46.66302" lon="5.78865">
        <ele>534.7</ele>
        <time>2021-09-07T14:47:29Z</time>
      </trkpt>
      <trkpt lat="46.66306" lon="5.78861">
        <ele>533.4</ele>
        <time>2021-09-07T14:47:35Z</time>
      </trkpt>
      <trkpt lat="46.66311" lon="5.78858">
        <ele>532.2</ele>
        <time>2021-09-07T14:47:43Z</time>
      </trkpt>
      <trkpt lat="46.66314" lon="5.78854">
        <ele>531.5</ele>
        <time>2021-09-07T14:47:51Z</time>
      </trkpt>
      <trkpt lat="46.66317" lon="5.78847">
        <ele>531.2</ele>
        <time>2021-09-07T14:47:57Z</time>
      </trkpt>
      <trkpt lat="46.66319" lon="5.7884">
        <ele>530.1</ele>
        <time>2021-09-07T14:48:03Z</time>
      </trkpt>
      <trkpt lat="46.66323" lon="5.78836">
        <ele>528.9</ele>
        <time>2021-09-07T14:48:09Z</time>
      </trkpt>
      <trkpt lat="46.66327" lon="5.78835">
        <ele>527.2</ele>
        <time>2021-09-07T14:48:15Z</time>
      </trkpt>
      <trkpt lat="46.66331" lon="5.78832">
        <ele>525.8</ele>
        <time>2021-09-07T14:48:21Z</time>
      </trkpt>
      <trkpt lat="46.66335" lon="5.78828">
        <ele>524.7</ele>
        <time>2021-09-07T14:48:27Z</time>
      </trkpt>
      <trkpt lat="46.6634" lon="5.78828">
        <ele>523.9</ele>
        <time>2021-09-07T14:48:33Z</time>
      </trkpt>
      <trkpt lat="46.66345" lon="5.78826">
        <ele>523.1</ele>
        <time>2021-09-07T14:48:39Z</time>
      </trkpt>
      <trkpt lat="46.66349" lon="5.78823">
        <ele>522.2</ele>
        <time>2021-09-07T14:48:45Z</time>
      </trkpt>
      <trkpt lat="46.66353" lon="5.78818">
        <ele>521.2</ele>
        <time>2021-09-07T14:48:51Z</time>
      </trkpt>
      <trkpt lat="46.66356" lon="5.78814">
        <ele>520</ele>
        <time>2021-09-07T14:48:56Z</time>
      </trkpt>
      <trkpt lat="46.6636" lon="5.7881">
        <ele>518.3</ele>
        <time>2021-09-07T14:49:02Z</time>
      </trkpt>
      <trkpt lat="46.66363" lon="5.78804">
        <ele>517.3</ele>
        <time>2021-09-07T14:49:08Z</time>
      </trkpt>
      <trkpt lat="46.66365" lon="5.78797">
        <ele>517.1</ele>
        <time>2021-09-07T14:49:12Z</time>
      </trkpt>
      <trkpt lat="46.66368" lon="5.78792">
        <ele>516.5</ele>
        <time>2021-09-07T14:49:17Z</time>
      </trkpt>
      <trkpt lat="46.66373" lon="5.78789">
        <ele>516</ele>
        <time>2021-09-07T14:49:23Z</time>
      </trkpt>
      <trkpt lat="46.66377" lon="5.7879">
        <ele>515.5</ele>
        <time>2021-09-07T14:49:27Z</time>
      </trkpt>
      <trkpt lat="46.66382" lon="5.78791">
        <ele>514.8</ele>
        <time>2021-09-07T14:49:32Z</time>
      </trkpt>
      <trkpt lat="46.66387" lon="5.78792">
        <ele>514.7</ele>
        <time>2021-09-07T14:49:37Z</time>
      </trkpt>
      <trkpt lat="46.66392" lon="5.78792">
        <ele>514.8</ele>
        <time>2021-09-07T14:49:41Z</time>
      </trkpt>
      <trkpt lat="46.66397" lon="5.78793">
        <ele>515</ele>
        <time>2021-09-07T14:49:45Z</time>
      </trkpt>
      <trkpt lat="46.66402" lon="5.78794">
        <ele>515.3</ele>
        <time>2021-09-07T14:49:49Z</time>
      </trkpt>
      <trkpt lat="46.66407" lon="5.78794">
        <ele>515.6</ele>
        <time>2021-09-07T14:49:54Z</time>
      </trkpt>
      <trkpt lat="46.66412" lon="5.78792">
        <ele>516</ele>
        <time>2021-09-07T14:49:59Z</time>
      </trkpt>
      <trkpt lat="46.66417" lon="5.78792">
        <ele>516.5</ele>
        <time>2021-09-07T14:50:04Z</time>
      </trkpt>
      <trkpt lat="46.66422" lon="5.78791">
        <ele>516.9</ele>
        <time>2021-09-07T14:50:08Z</time>
      </trkpt>
      <trkpt lat="46.66427" lon="5.78791">
        <ele>517.2</ele>
        <time>2021-09-07T14:50:12Z</time>
      </trkpt>
      <trkpt lat="46.66433" lon="5.7879">
        <ele>517.3</ele>
        <time>2021-09-07T14:50:17Z</time>
      </trkpt>
      <trkpt lat="46.66438" lon="5.78789">
        <ele>517.3</ele>
        <time>2021-09-07T14:50:21Z</time>
      </trkpt>
      <trkpt lat="46.66443" lon="5.78788">
        <ele>517.3</ele>
        <time>2021-09-07T14:50:26Z</time>
      </trkpt>
      <trkpt lat="46.66449" lon="5.78789">
        <ele>517.4</ele>
        <time>2021-09-07T14:50:31Z</time>
      </trkpt>
      <trkpt lat="46.66454" lon="5.7879">
        <ele>517.8</ele>
        <time>2021-09-07T14:50:35Z</time>
      </trkpt>
      <trkpt lat="46.66458" lon="5.78794">
        <ele>519</ele>
        <time>2021-09-07T14:50:39Z</time>
      </trkpt>
      <trkpt lat="46.66462" lon="5.78798">
        <ele>520</ele>
        <time>2021-09-07T14:50:43Z</time>
      </trkpt>
      <trkpt lat="46.66467" lon="5.78802">
        <ele>521.2</ele>
        <time>2021-09-07T14:50:48Z</time>
      </trkpt>
      <trkpt lat="46.66472" lon="5.78802">
        <ele>521.4</ele>
        <time>2021-09-07T14:50:54Z</time>
      </trkpt>
      <trkpt lat="46.66477" lon="5.78803">
        <ele>521.3</ele>
        <time>2021-09-07T14:50:59Z</time>
      </trkpt>
      <trkpt lat="46.66482" lon="5.78805">
        <ele>520.7</ele>
        <time>2021-09-07T14:51:05Z</time>
      </trkpt>
      <trkpt lat="46.66486" lon="5.78809">
        <ele>519.9</ele>
        <time>2021-09-07T14:51:16Z</time>
      </trkpt>
      <trkpt lat="46.66491" lon="5.78809">
        <ele>519</ele>
        <time>2021-09-07T14:51:22Z</time>
      </trkpt>
      <trkpt lat="46.66494" lon="5.78814">
        <ele>517.8</ele>
        <time>2021-09-07T14:51:28Z</time>
      </trkpt>
      <trkpt lat="46.66498" lon="5.78819">
        <ele>517.2</ele>
        <time>2021-09-07T14:51:33Z</time>
      </trkpt>
      <trkpt lat="46.66503" lon="5.78824">
        <ele>517.5</ele>
        <time>2021-09-07T14:51:38Z</time>
      </trkpt>
      <trkpt lat="46.66506" lon="5.78828">
        <ele>517.9</ele>
        <time>2021-09-07T14:51:42Z</time>
      </trkpt>
      <trkpt lat="46.6651" lon="5.78832">
        <ele>518.1</ele>
        <time>2021-09-07T14:51:46Z</time>
      </trkpt>
      <trkpt lat="46.66514" lon="5.78828">
        <ele>517</ele>
        <time>2021-09-07T14:52:02Z</time>
      </trkpt>
      <trkpt lat="46.66515" lon="5.78836">
        <ele>516.1</ele>
        <time>2021-09-07T14:52:12Z</time>
      </trkpt>
      <trkpt lat="46.66518" lon="5.78841">
        <ele>515.3</ele>
        <time>2021-09-07T14:52:17Z</time>
      </trkpt>
      <trkpt lat="46.6652" lon="5.78848">
        <ele>514.2</ele>
        <time>2021-09-07T14:52:22Z</time>
      </trkpt>
      <trkpt lat="46.66523" lon="5.78854">
        <ele>513.4</ele>
        <time>2021-09-07T14:52:26Z</time>
      </trkpt>
      <trkpt lat="46.66526" lon="5.7886">
        <ele>512.6</ele>
        <time>2021-09-07T14:52:30Z</time>
      </trkpt>
      <trkpt lat="46.66529" lon="5.78865">
        <ele>510.9</ele>
        <time>2021-09-07T14:52:36Z</time>
      </trkpt>
      <trkpt lat="46.66531" lon="5.78872">
        <ele>508.4</ele>
        <time>2021-09-07T14:52:44Z</time>
      </trkpt>
      <trkpt lat="46.66536" lon="5.78876">
        <ele>507</ele>
        <time>2021-09-07T14:52:51Z</time>
      </trkpt>
      <trkpt lat="46.6654" lon="5.7888">
        <ele>506.9</ele>
        <time>2021-09-07T14:52:57Z</time>
      </trkpt>
      <trkpt lat="46.66544" lon="5.78883">
        <ele>507.9</ele>
        <time>2021-09-07T14:53:03Z</time>
      </trkpt>
      <trkpt lat="46.66547" lon="5.78889">
        <ele>506.7</ele>
        <time>2021-09-07T14:53:14Z</time>
      </trkpt>
      <trkpt lat="46.66548" lon="5.78896">
        <ele>505.5</ele>
        <time>2021-09-07T14:53:19Z</time>
      </trkpt>
      <trkpt lat="46.66549" lon="5.78902">
        <ele>504.4</ele>
        <time>2021-09-07T14:53:24Z</time>
      </trkpt>
      <trkpt lat="46.66551" lon="5.78908">
        <ele>503.4</ele>
        <time>2021-09-07T14:53:29Z</time>
      </trkpt>
      <trkpt lat="46.66553" lon="5.78915">
        <ele>502.6</ele>
        <time>2021-09-07T14:53:35Z</time>
      </trkpt>
      <trkpt lat="46.66555" lon="5.78923">
        <ele>501.7</ele>
        <time>2021-09-07T14:53:41Z</time>
      </trkpt>
      <trkpt lat="46.66556" lon="5.7893">
        <ele>500.6</ele>
        <time>2021-09-07T14:53:47Z</time>
      </trkpt>
      <trkpt lat="46.66558" lon="5.78936">
        <ele>500</ele>
        <time>2021-09-07T14:53:52Z</time>
      </trkpt>
      <trkpt lat="46.66559" lon="5.78943">
        <ele>499.7</ele>
        <time>2021-09-07T14:53:57Z</time>
      </trkpt>
      <trkpt lat="46.6656" lon="5.7895">
        <ele>499.4</ele>
        <time>2021-09-07T14:54:02Z</time>
      </trkpt>
      <trkpt lat="46.66561" lon="5.78957">
        <ele>499.4</ele>
        <time>2021-09-07T14:54:07Z</time>
      </trkpt>
      <trkpt lat="46.66562" lon="5.78964">
        <ele>499.1</ele>
        <time>2021-09-07T14:54:13Z</time>
      </trkpt>
      <trkpt lat="46.66563" lon="5.78971">
        <ele>498.9</ele>
        <time>2021-09-07T14:54:17Z</time>
      </trkpt>
      <trkpt lat="46.66563" lon="5.78977">
        <ele>498.7</ele>
        <time>2021-09-07T14:54:20Z</time>
      </trkpt>
      <trkpt lat="46.66564" lon="5.78985">
        <ele>498.7</ele>
        <time>2021-09-07T14:54:24Z</time>
      </trkpt>
      <trkpt lat="46.66566" lon="5.78992">
        <ele>498.5</ele>
        <time>2021-09-07T14:54:29Z</time>
      </trkpt>
      <trkpt lat="46.66568" lon="5.78999">
        <ele>498.4</ele>
        <time>2021-09-07T14:54:33Z</time>
      </trkpt>
      <trkpt lat="46.6657" lon="5.79004">
        <ele>498.3</ele>
        <time>2021-09-07T14:54:37Z</time>
      </trkpt>
      <trkpt lat="46.66573" lon="5.7901">
        <ele>498.9</ele>
        <time>2021-09-07T14:54:41Z</time>
      </trkpt>
      <trkpt lat="46.66577" lon="5.79014">
        <ele>499.4</ele>
        <time>2021-09-07T14:54:45Z</time>
      </trkpt>
      <trkpt lat="46.6658" lon="5.79019">
        <ele>499.7</ele>
        <time>2021-09-07T14:54:49Z</time>
      </trkpt>
      <trkpt lat="46.66583" lon="5.79024">
        <ele>499.5</ele>
        <time>2021-09-07T14:54:53Z</time>
      </trkpt>
      <trkpt lat="46.66585" lon="5.79031">
        <ele>498.9</ele>
        <time>2021-09-07T14:54:57Z</time>
      </trkpt>
      <trkpt lat="46.66587" lon="5.79038">
        <ele>498.2</ele>
        <time>2021-09-07T14:55:01Z</time>
      </trkpt>
      <trkpt lat="46.66588" lon="5.79045">
        <ele>497.6</ele>
        <time>2021-09-07T14:55:06Z</time>
      </trkpt>
      <trkpt lat="46.6659" lon="5.79052">
        <ele>496.6</ele>
        <time>2021-09-07T14:55:15Z</time>
      </trkpt>
      <trkpt lat="46.6659" lon="5.79059">
        <ele>495.9</ele>
        <time>2021-09-07T14:55:20Z</time>
      </trkpt>
      <trkpt lat="46.66591" lon="5.79066">
        <ele>495.3</ele>
        <time>2021-09-07T14:55:24Z</time>
      </trkpt>
      <trkpt lat="46.66591" lon="5.79073">
        <ele>494.3</ele>
        <time>2021-09-07T14:55:29Z</time>
      </trkpt>
      <trkpt lat="46.66592" lon="5.7908">
        <ele>493.3</ele>
        <time>2021-09-07T14:55:34Z</time>
      </trkpt>
      <trkpt lat="46.66592" lon="5.79087">
        <ele>492.8</ele>
        <time>2021-09-07T14:55:39Z</time>
      </trkpt>
      <trkpt lat="46.66592" lon="5.79095">
        <ele>492.7</ele>
        <time>2021-09-07T14:55:45Z</time>
      </trkpt>
      <trkpt lat="46.66592" lon="5.79102">
        <ele>493</ele>
        <time>2021-09-07T14:55:49Z</time>
      </trkpt>
      <trkpt lat="46.66592" lon="5.7911">
        <ele>493.4</ele>
        <time>2021-09-07T14:55:54Z</time>
      </trkpt>
      <trkpt lat="46.66591" lon="5.79117">
        <ele>493.4</ele>
        <time>2021-09-07T14:55:59Z</time>
      </trkpt>
      <trkpt lat="46.66591" lon="5.79125">
        <ele>492.9</ele>
        <time>2021-09-07T14:56:05Z</time>
      </trkpt>
      <trkpt lat="46.66592" lon="5.79131">
        <ele>492.1</ele>
        <time>2021-09-07T14:56:11Z</time>
      </trkpt>
      <trkpt lat="46.66594" lon="5.79138">
        <ele>491.2</ele>
        <time>2021-09-07T14:56:18Z</time>
      </trkpt>
      <trkpt lat="46.66597" lon="5.79144">
        <ele>490.8</ele>
        <time>2021-09-07T14:56:22Z</time>
      </trkpt>
      <trkpt lat="46.666" lon="5.7915">
        <ele>490.4</ele>
        <time>2021-09-07T14:56:26Z</time>
      </trkpt>
      <trkpt lat="46.66601" lon="5.79157">
        <ele>489.8</ele>
        <time>2021-09-07T14:56:31Z</time>
      </trkpt>
      <trkpt lat="46.66602" lon="5.79163">
        <ele>489.5</ele>
        <time>2021-09-07T14:56:36Z</time>
      </trkpt>
      <trkpt lat="46.66604" lon="5.79169">
        <ele>489.8</ele>
        <time>2021-09-07T14:56:42Z</time>
      </trkpt>
      <trkpt lat="46.66602" lon="5.79176">
        <ele>490.5</ele>
        <time>2021-09-07T14:56:47Z</time>
      </trkpt>
      <trkpt lat="46.66598" lon="5.79182">
        <ele>491.1</ele>
        <time>2021-09-07T14:56:51Z</time>
      </trkpt>
      <trkpt lat="46.66595" lon="5.79188">
        <ele>492.2</ele>
        <time>2021-09-07T14:56:56Z</time>
      </trkpt>
      <trkpt lat="46.66594" lon="5.79196">
        <ele>494.1</ele>
        <time>2021-09-07T14:57:02Z</time>
      </trkpt>
      <trkpt lat="46.66593" lon="5.79203">
        <ele>495.5</ele>
        <time>2021-09-07T14:57:08Z</time>
      </trkpt>
      <trkpt lat="46.66594" lon="5.79211">
        <ele>496.7</ele>
        <time>2021-09-07T14:57:13Z</time>
      </trkpt>
      <trkpt lat="46.66595" lon="5.79217">
        <ele>497.4</ele>
        <time>2021-09-07T14:57:17Z</time>
      </trkpt>
      <trkpt lat="46.66596" lon="5.79225">
        <ele>498.5</ele>
        <time>2021-09-07T14:57:23Z</time>
      </trkpt>
      <trkpt lat="46.66594" lon="5.79231">
        <ele>499.2</ele>
        <time>2021-09-07T14:57:30Z</time>
      </trkpt>
      <trkpt lat="46.66593" lon="5.79237">
        <ele>499.4</ele>
        <time>2021-09-07T14:57:36Z</time>
      </trkpt>
      <trkpt lat="46.66594" lon="5.79244">
        <ele>499.4</ele>
        <time>2021-09-07T14:57:41Z</time>
      </trkpt>
      <trkpt lat="46.66595" lon="5.79251">
        <ele>499.6</ele>
        <time>2021-09-07T14:57:45Z</time>
      </trkpt>
      <trkpt lat="46.66597" lon="5.79258">
        <ele>499.7</ele>
        <time>2021-09-07T14:57:49Z</time>
      </trkpt>
      <trkpt lat="46.66599" lon="5.79266">
        <ele>499.5</ele>
        <time>2021-09-07T14:57:52Z</time>
      </trkpt>
      <trkpt lat="46.666" lon="5.79273">
        <ele>499.2</ele>
        <time>2021-09-07T14:57:55Z</time>
      </trkpt>
      <trkpt lat="46.66602" lon="5.7928">
        <ele>498.9</ele>
        <time>2021-09-07T14:57:59Z</time>
      </trkpt>
      <trkpt lat="46.66604" lon="5.79287">
        <ele>498.4</ele>
        <time>2021-09-07T14:58:03Z</time>
      </trkpt>
      <trkpt lat="46.66604" lon="5.79295">
        <ele>497.7</ele>
        <time>2021-09-07T14:58:08Z</time>
      </trkpt>
      <trkpt lat="46.66605" lon="5.79302">
        <ele>497.1</ele>
        <time>2021-09-07T14:58:12Z</time>
      </trkpt>
      <trkpt lat="46.66607" lon="5.79309">
        <ele>496.4</ele>
        <time>2021-09-07T14:58:17Z</time>
      </trkpt>
      <trkpt lat="46.66609" lon="5.79315">
        <ele>495.6</ele>
        <time>2021-09-07T14:58:22Z</time>
      </trkpt>
      <trkpt lat="46.66609" lon="5.79323">
        <ele>494.8</ele>
        <time>2021-09-07T14:58:28Z</time>
      </trkpt>
      <trkpt lat="46.66609" lon="5.79329">
        <ele>494.2</ele>
        <time>2021-09-07T14:58:32Z</time>
      </trkpt>
      <trkpt lat="46.66607" lon="5.79336">
        <ele>493.8</ele>
        <time>2021-09-07T14:58:36Z</time>
      </trkpt>
      <trkpt lat="46.66607" lon="5.79344">
        <ele>493.9</ele>
        <time>2021-09-07T14:58:40Z</time>
      </trkpt>
      <trkpt lat="46.66607" lon="5.79351">
        <ele>494.1</ele>
        <time>2021-09-07T14:58:44Z</time>
      </trkpt>
      <trkpt lat="46.66608" lon="5.79358">
        <ele>494.2</ele>
        <time>2021-09-07T14:58:49Z</time>
      </trkpt>
      <trkpt lat="46.66608" lon="5.79366">
        <ele>494.3</ele>
        <time>2021-09-07T14:58:54Z</time>
      </trkpt>
      <trkpt lat="46.66609" lon="5.79372">
        <ele>494.3</ele>
        <time>2021-09-07T14:58:58Z</time>
      </trkpt>
      <trkpt lat="46.6661" lon="5.79379">
        <ele>494.7</ele>
        <time>2021-09-07T14:59:02Z</time>
      </trkpt>
      <trkpt lat="46.66611" lon="5.79386">
        <ele>495.4</ele>
        <time>2021-09-07T14:59:07Z</time>
      </trkpt>
      <trkpt lat="46.66613" lon="5.79393">
        <ele>495.7</ele>
        <time>2021-09-07T14:59:12Z</time>
      </trkpt>
      <trkpt lat="46.66612" lon="5.794">
        <ele>495.9</ele>
        <time>2021-09-07T14:59:17Z</time>
      </trkpt>
      <trkpt lat="46.66612" lon="5.79408">
        <ele>495.9</ele>
        <time>2021-09-07T14:59:23Z</time>
      </trkpt>
      <trkpt lat="46.66613" lon="5.79415">
        <ele>495.9</ele>
        <time>2021-09-07T14:59:28Z</time>
      </trkpt>
      <trkpt lat="46.66614" lon="5.79422">
        <ele>496</ele>
        <time>2021-09-07T14:59:32Z</time>
      </trkpt>
      <trkpt lat="46.66615" lon="5.7943">
        <ele>496.2</ele>
        <time>2021-09-07T14:59:37Z</time>
      </trkpt>
      <trkpt lat="46.66615" lon="5.79437">
        <ele>496.3</ele>
        <time>2021-09-07T14:59:41Z</time>
      </trkpt>
      <trkpt lat="46.66615" lon="5.79444">
        <ele>495.9</ele>
        <time>2021-09-07T14:59:45Z</time>
      </trkpt>
      <trkpt lat="46.66616" lon="5.79452">
        <ele>495.3</ele>
        <time>2021-09-07T14:59:50Z</time>
      </trkpt>
      <trkpt lat="46.66616" lon="5.7946">
        <ele>494.9</ele>
        <time>2021-09-07T14:59:55Z</time>
      </trkpt>
      <trkpt lat="46.66616" lon="5.79467">
        <ele>494.8</ele>
        <time>2021-09-07T15:00:00Z</time>
      </trkpt>
      <trkpt lat="46.66616" lon="5.79475">
        <ele>494.8</ele>
        <time>2021-09-07T15:00:04Z</time>
      </trkpt>
      <trkpt lat="46.66616" lon="5.79482">
        <ele>494.8</ele>
        <time>2021-09-07T15:00:08Z</time>
      </trkpt>
      <trkpt lat="46.66616" lon="5.7949">
        <ele>495.2</ele>
        <time>2021-09-07T15:00:12Z</time>
      </trkpt>
      <trkpt lat="46.66618" lon="5.79497">
        <ele>495.5</ele>
        <time>2021-09-07T15:00:16Z</time>
      </trkpt>
      <trkpt lat="46.6662" lon="5.79503">
        <ele>495.9</ele>
        <time>2021-09-07T15:00:20Z</time>
      </trkpt>
      <trkpt lat="46.6662" lon="5.79511">
        <ele>496.5</ele>
        <time>2021-09-07T15:00:25Z</time>
      </trkpt>
      <trkpt lat="46.6662" lon="5.79519">
        <ele>496.8</ele>
        <time>2021-09-07T15:00:30Z</time>
      </trkpt>
      <trkpt lat="46.6662" lon="5.79526">
        <ele>496.7</ele>
        <time>2021-09-07T15:00:35Z</time>
      </trkpt>
      <trkpt lat="46.66622" lon="5.79533">
        <ele>496.3</ele>
        <time>2021-09-07T15:00:40Z</time>
      </trkpt>
      <trkpt lat="46.66622" lon="5.79541">
        <ele>495.9</ele>
        <time>2021-09-07T15:00:46Z</time>
      </trkpt>
      <trkpt lat="46.66621" lon="5.79548">
        <ele>495.4</ele>
        <time>2021-09-07T15:00:51Z</time>
      </trkpt>
      <trkpt lat="46.6662" lon="5.79555">
        <ele>494.9</ele>
        <time>2021-09-07T15:00:55Z</time>
      </trkpt>
      <trkpt lat="46.66621" lon="5.79563">
        <ele>494.2</ele>
        <time>2021-09-07T15:01:00Z</time>
      </trkpt>
      <trkpt lat="46.66623" lon="5.79569">
        <ele>493.5</ele>
        <time>2021-09-07T15:01:04Z</time>
      </trkpt>
      <trkpt lat="46.66625" lon="5.79577">
        <ele>492.8</ele>
        <time>2021-09-07T15:01:08Z</time>
      </trkpt>
      <trkpt lat="46.66626" lon="5.79584">
        <ele>492</ele>
        <time>2021-09-07T15:01:12Z</time>
      </trkpt>
      <trkpt lat="46.66625" lon="5.79591">
        <ele>491</ele>
        <time>2021-09-07T15:01:17Z</time>
      </trkpt>
      <trkpt lat="46.66623" lon="5.79599">
        <ele>489.5</ele>
        <time>2021-09-07T15:01:22Z</time>
      </trkpt>
      <trkpt lat="46.66623" lon="5.79607">
        <ele>488.7</ele>
        <time>2021-09-07T15:01:27Z</time>
      </trkpt>
      <trkpt lat="46.66623" lon="5.79614">
        <ele>488.4</ele>
        <time>2021-09-07T15:01:32Z</time>
      </trkpt>
      <trkpt lat="46.66623" lon="5.79621">
        <ele>488.4</ele>
        <time>2021-09-07T15:01:37Z</time>
      </trkpt>
      <trkpt lat="46.66623" lon="5.79628">
        <ele>488.1</ele>
        <time>2021-09-07T15:01:42Z</time>
      </trkpt>
      <trkpt lat="46.66624" lon="5.79634">
        <ele>487.8</ele>
        <time>2021-09-07T15:01:46Z</time>
      </trkpt>
      <trkpt lat="46.66625" lon="5.79641">
        <ele>487.5</ele>
        <time>2021-09-07T15:01:50Z</time>
      </trkpt>
      <trkpt lat="46.66624" lon="5.79648">
        <ele>487.1</ele>
        <time>2021-09-07T15:01:54Z</time>
      </trkpt>
      <trkpt lat="46.66623" lon="5.79655">
        <ele>486.4</ele>
        <time>2021-09-07T15:01:59Z</time>
      </trkpt>
      <trkpt lat="46.66622" lon="5.79662">
        <ele>485.7</ele>
        <time>2021-09-07T15:02:04Z</time>
      </trkpt>
      <trkpt lat="46.66622" lon="5.7967">
        <ele>485.1</ele>
        <time>2021-09-07T15:02:08Z</time>
      </trkpt>
      <trkpt lat="46.66622" lon="5.79676">
        <ele>484.5</ele>
        <time>2021-09-07T15:02:12Z</time>
      </trkpt>
      <trkpt lat="46.66621" lon="5.79683">
        <ele>484.3</ele>
        <time>2021-09-07T15:02:16Z</time>
      </trkpt>
      <trkpt lat="46.66622" lon="5.7969">
        <ele>483.8</ele>
        <time>2021-09-07T15:02:21Z</time>
      </trkpt>
      <trkpt lat="46.66622" lon="5.79697">
        <ele>483.5</ele>
        <time>2021-09-07T15:02:27Z</time>
      </trkpt>
      <trkpt lat="46.66623" lon="5.79704">
        <ele>483.6</ele>
        <time>2021-09-07T15:02:32Z</time>
      </trkpt>
      <trkpt lat="46.66622" lon="5.79712">
        <ele>483.6</ele>
        <time>2021-09-07T15:02:37Z</time>
      </trkpt>
      <trkpt lat="46.66621" lon="5.7972">
        <ele>483.3</ele>
        <time>2021-09-07T15:02:42Z</time>
      </trkpt>
      <trkpt lat="46.66621" lon="5.79727">
        <ele>482.9</ele>
        <time>2021-09-07T15:02:46Z</time>
      </trkpt>
      <trkpt lat="46.66621" lon="5.79735">
        <ele>482.7</ele>
        <time>2021-09-07T15:02:51Z</time>
      </trkpt>
      <trkpt lat="46.6662" lon="5.79744">
        <ele>482.2</ele>
        <time>2021-09-07T15:02:56Z</time>
      </trkpt>
      <trkpt lat="46.66619" lon="5.79751">
        <ele>481.7</ele>
        <time>2021-09-07T15:03:01Z</time>
      </trkpt>
      <trkpt lat="46.6662" lon="5.79758">
        <ele>481.1</ele>
        <time>2021-09-07T15:03:06Z</time>
      </trkpt>
      <trkpt lat="46.66622" lon="5.79766">
        <ele>480.4</ele>
        <time>2021-09-07T15:03:11Z</time>
      </trkpt>
      <trkpt lat="46.66623" lon="5.79773">
        <ele>480</ele>
        <time>2021-09-07T15:03:15Z</time>
      </trkpt>
      <trkpt lat="46.66623" lon="5.7978">
        <ele>479.9</ele>
        <time>2021-09-07T15:03:19Z</time>
      </trkpt>
      <trkpt lat="46.66624" lon="5.79787">
        <ele>480</ele>
        <time>2021-09-07T15:03:24Z</time>
      </trkpt>
      <trkpt lat="46.66624" lon="5.79794">
        <ele>480.5</ele>
        <time>2021-09-07T15:03:29Z</time>
      </trkpt>
      <trkpt lat="46.66624" lon="5.79801">
        <ele>481</ele>
        <time>2021-09-07T15:03:33Z</time>
      </trkpt>
      <trkpt lat="46.66624" lon="5.79809">
        <ele>481.3</ele>
        <time>2021-09-07T15:03:37Z</time>
      </trkpt>
      <trkpt lat="46.66623" lon="5.79815">
        <ele>481.5</ele>
        <time>2021-09-07T15:03:42Z</time>
      </trkpt>
      <trkpt lat="46.66623" lon="5.79823">
        <ele>481.8</ele>
        <time>2021-09-07T15:03:47Z</time>
      </trkpt>
      <trkpt lat="46.66623" lon="5.79831">
        <ele>482</ele>
        <time>2021-09-07T15:03:52Z</time>
      </trkpt>
      <trkpt lat="46.66623" lon="5.79838">
        <ele>482.2</ele>
        <time>2021-09-07T15:03:56Z</time>
      </trkpt>
      <trkpt lat="46.66623" lon="5.79846">
        <ele>483.1</ele>
        <time>2021-09-07T15:04:01Z</time>
      </trkpt>
      <trkpt lat="46.66623" lon="5.79852">
        <ele>484.2</ele>
        <time>2021-09-07T15:04:05Z</time>
      </trkpt>
      <trkpt lat="46.66622" lon="5.7986">
        <ele>485.6</ele>
        <time>2021-09-07T15:04:10Z</time>
      </trkpt>
      <trkpt lat="46.66623" lon="5.79867">
        <ele>486.9</ele>
        <time>2021-09-07T15:04:15Z</time>
      </trkpt>
      <trkpt lat="46.66621" lon="5.79874">
        <ele>487.8</ele>
        <time>2021-09-07T15:04:20Z</time>
      </trkpt>
      <trkpt lat="46.66621" lon="5.79881">
        <ele>488.6</ele>
        <time>2021-09-07T15:04:24Z</time>
      </trkpt>
      <trkpt lat="46.6662" lon="5.79889">
        <ele>489.3</ele>
        <time>2021-09-07T15:04:28Z</time>
      </trkpt>
      <trkpt lat="46.6662" lon="5.79896">
        <ele>490.1</ele>
        <time>2021-09-07T15:04:32Z</time>
      </trkpt>
      <trkpt lat="46.66619" lon="5.79904">
        <ele>490.5</ele>
        <time>2021-09-07T15:04:36Z</time>
      </trkpt>
      <trkpt lat="46.66618" lon="5.79911">
        <ele>490.3</ele>
        <time>2021-09-07T15:04:40Z</time>
      </trkpt>
      <trkpt lat="46.66619" lon="5.79917">
        <ele>490.2</ele>
        <time>2021-09-07T15:04:45Z</time>
      </trkpt>
      <trkpt lat="46.66619" lon="5.79924">
        <ele>490</ele>
        <time>2021-09-07T15:04:49Z</time>
      </trkpt>
      <trkpt lat="46.66619" lon="5.79931">
        <ele>489.9</ele>
        <time>2021-09-07T15:04:54Z</time>
      </trkpt>
      <trkpt lat="46.66618" lon="5.79939">
        <ele>490</ele>
        <time>2021-09-07T15:04:59Z</time>
      </trkpt>
      <trkpt lat="46.66618" lon="5.79945">
        <ele>490.3</ele>
        <time>2021-09-07T15:05:04Z</time>
      </trkpt>
      <trkpt lat="46.66619" lon="5.79953">
        <ele>490.6</ele>
        <time>2021-09-07T15:05:09Z</time>
      </trkpt>
      <trkpt lat="46.66617" lon="5.7996">
        <ele>490.5</ele>
        <time>2021-09-07T15:05:14Z</time>
      </trkpt>
      <trkpt lat="46.66617" lon="5.79967">
        <ele>490</ele>
        <time>2021-09-07T15:05:18Z</time>
      </trkpt>
      <trkpt lat="46.66618" lon="5.79974">
        <ele>489.2</ele>
        <time>2021-09-07T15:05:24Z</time>
      </trkpt>
      <trkpt lat="46.6662" lon="5.79982">
        <ele>488.5</ele>
        <time>2021-09-07T15:05:29Z</time>
      </trkpt>
      <trkpt lat="46.66621" lon="5.79989">
        <ele>487.9</ele>
        <time>2021-09-07T15:05:34Z</time>
      </trkpt>
      <trkpt lat="46.66622" lon="5.79996">
        <ele>487.5</ele>
        <time>2021-09-07T15:05:39Z</time>
      </trkpt>
      <trkpt lat="46.66622" lon="5.80003">
        <ele>487.3</ele>
        <time>2021-09-07T15:05:44Z</time>
      </trkpt>
      <trkpt lat="46.66623" lon="5.8001">
        <ele>487.5</ele>
        <time>2021-09-07T15:05:48Z</time>
      </trkpt>
      <trkpt lat="46.66623" lon="5.80018">
        <ele>487.5</ele>
        <time>2021-09-07T15:05:53Z</time>
      </trkpt>
      <trkpt lat="46.66621" lon="5.80024">
        <ele>486.9</ele>
        <time>2021-09-07T15:05:58Z</time>
      </trkpt>
      <trkpt lat="46.66621" lon="5.80032">
        <ele>486.6</ele>
        <time>2021-09-07T15:06:03Z</time>
      </trkpt>
      <trkpt lat="46.66623" lon="5.80039">
        <ele>486.6</ele>
        <time>2021-09-07T15:06:07Z</time>
      </trkpt>
      <trkpt lat="46.66623" lon="5.80047">
        <ele>486.6</ele>
        <time>2021-09-07T15:06:11Z</time>
      </trkpt>
      <trkpt lat="46.66622" lon="5.80053">
        <ele>486.7</ele>
        <time>2021-09-07T15:06:16Z</time>
      </trkpt>
      <trkpt lat="46.66622" lon="5.80061">
        <ele>487</ele>
        <time>2021-09-07T15:06:21Z</time>
      </trkpt>
      <trkpt lat="46.6662" lon="5.80067">
        <ele>487.5</ele>
        <time>2021-09-07T15:06:25Z</time>
      </trkpt>
      <trkpt lat="46.66618" lon="5.80074">
        <ele>488.1</ele>
        <time>2021-09-07T15:06:30Z</time>
      </trkpt>
      <trkpt lat="46.66617" lon="5.80081">
        <ele>489.1</ele>
        <time>2021-09-07T15:06:34Z</time>
      </trkpt>
      <trkpt lat="46.66616" lon="5.80089">
        <ele>490.9</ele>
        <time>2021-09-07T15:06:38Z</time>
      </trkpt>
      <trkpt lat="46.66616" lon="5.80096">
        <ele>492.4</ele>
        <time>2021-09-07T15:06:42Z</time>
      </trkpt>
      <trkpt lat="46.66617" lon="5.80103">
        <ele>493.9</ele>
        <time>2021-09-07T15:06:47Z</time>
      </trkpt>
      <trkpt lat="46.66617" lon="5.80111">
        <ele>494.7</ele>
        <time>2021-09-07T15:06:52Z</time>
      </trkpt>
      <trkpt lat="46.66618" lon="5.80119">
        <ele>494.9</ele>
        <time>2021-09-07T15:06:57Z</time>
      </trkpt>
      <trkpt lat="46.66618" lon="5.80125">
        <ele>494.7</ele>
        <time>2021-09-07T15:07:02Z</time>
      </trkpt>
      <trkpt lat="46.66618" lon="5.80132">
        <ele>493.9</ele>
        <time>2021-09-07T15:07:07Z</time>
      </trkpt>
      <trkpt lat="46.66617" lon="5.80138">
        <ele>493</ele>
        <time>2021-09-07T15:07:11Z</time>
      </trkpt>
      <trkpt lat="46.66615" lon="5.80146">
        <ele>492.1</ele>
        <time>2021-09-07T15:07:15Z</time>
      </trkpt>
      <trkpt lat="46.66613" lon="5.80152">
        <ele>491.7</ele>
        <time>2021-09-07T15:07:19Z</time>
      </trkpt>
      <trkpt lat="46.66612" lon="5.8016">
        <ele>490.6</ele>
        <time>2021-09-07T15:07:24Z</time>
      </trkpt>
      <trkpt lat="46.66609" lon="5.80165">
        <ele>489.7</ele>
        <time>2021-09-07T15:07:28Z</time>
      </trkpt>
      <trkpt lat="46.66607" lon="5.80173">
        <ele>488.5</ele>
        <time>2021-09-07T15:07:33Z</time>
      </trkpt>
      <trkpt lat="46.66606" lon="5.8018">
        <ele>487.1</ele>
        <time>2021-09-07T15:07:38Z</time>
      </trkpt>
      <trkpt lat="46.66606" lon="5.80187">
        <ele>486.2</ele>
        <time>2021-09-07T15:07:43Z</time>
      </trkpt>
      <trkpt lat="46.66603" lon="5.80194">
        <ele>485.5</ele>
        <time>2021-09-07T15:07:48Z</time>
      </trkpt>
      <trkpt lat="46.66601" lon="5.802">
        <ele>484.6</ele>
        <time>2021-09-07T15:07:53Z</time>
      </trkpt>
      <trkpt lat="46.66597" lon="5.80203">
        <ele>483</ele>
        <time>2021-09-07T15:07:58Z</time>
      </trkpt>
      <trkpt lat="46.66594" lon="5.8021">
        <ele>481.4</ele>
        <time>2021-09-07T15:08:03Z</time>
      </trkpt>
      <trkpt lat="46.66593" lon="5.80218">
        <ele>480.9</ele>
        <time>2021-09-07T15:08:07Z</time>
      </trkpt>
      <trkpt lat="46.66592" lon="5.80225">
        <ele>480.7</ele>
        <time>2021-09-07T15:08:11Z</time>
      </trkpt>
      <trkpt lat="46.66591" lon="5.80233">
        <ele>480.3</ele>
        <time>2021-09-07T15:08:15Z</time>
      </trkpt>
      <trkpt lat="46.66589" lon="5.80239">
        <ele>479.4</ele>
        <time>2021-09-07T15:08:19Z</time>
      </trkpt>
      <trkpt lat="46.66586" lon="5.80247">
        <ele>478.2</ele>
        <time>2021-09-07T15:08:24Z</time>
      </trkpt>
      <trkpt lat="46.66585" lon="5.80254">
        <ele>477.1</ele>
        <time>2021-09-07T15:08:29Z</time>
      </trkpt>
      <trkpt lat="46.66584" lon="5.80261">
        <ele>476.4</ele>
        <time>2021-09-07T15:08:34Z</time>
      </trkpt>
      <trkpt lat="46.66584" lon="5.80267">
        <ele>476.4</ele>
        <time>2021-09-07T15:08:38Z</time>
      </trkpt>
      <trkpt lat="46.66583" lon="5.80274">
        <ele>476.7</ele>
        <time>2021-09-07T15:08:43Z</time>
      </trkpt>
      <trkpt lat="46.66583" lon="5.80281">
        <ele>477.1</ele>
        <time>2021-09-07T15:08:47Z</time>
      </trkpt>
      <trkpt lat="46.66582" lon="5.80288">
        <ele>477.4</ele>
        <time>2021-09-07T15:08:52Z</time>
      </trkpt>
      <trkpt lat="46.6658" lon="5.80296">
        <ele>477.4</ele>
        <time>2021-09-07T15:08:57Z</time>
      </trkpt>
      <trkpt lat="46.66578" lon="5.80303">
        <ele>477.5</ele>
        <time>2021-09-07T15:09:02Z</time>
      </trkpt>
      <trkpt lat="46.66577" lon="5.8031">
        <ele>477.6</ele>
        <time>2021-09-07T15:09:07Z</time>
      </trkpt>
      <trkpt lat="46.66575" lon="5.80316">
        <ele>477.7</ele>
        <time>2021-09-07T15:09:11Z</time>
      </trkpt>
      <trkpt lat="46.66572" lon="5.80323">
        <ele>477.5</ele>
        <time>2021-09-07T15:09:16Z</time>
      </trkpt>
      <trkpt lat="46.66571" lon="5.8033">
        <ele>477.8</ele>
        <time>2021-09-07T15:09:21Z</time>
      </trkpt>
      <trkpt lat="46.6657" lon="5.80336">
        <ele>478.1</ele>
        <time>2021-09-07T15:09:25Z</time>
      </trkpt>
      <trkpt lat="46.66569" lon="5.80343">
        <ele>478.2</ele>
        <time>2021-09-07T15:09:29Z</time>
      </trkpt>
      <trkpt lat="46.66569" lon="5.8035">
        <ele>478</ele>
        <time>2021-09-07T15:09:34Z</time>
      </trkpt>
      <trkpt lat="46.66569" lon="5.80358">
        <ele>477.6</ele>
        <time>2021-09-07T15:09:39Z</time>
      </trkpt>
      <trkpt lat="46.66569" lon="5.80365">
        <ele>477.4</ele>
        <time>2021-09-07T15:09:43Z</time>
      </trkpt>
      <trkpt lat="46.66569" lon="5.80372">
        <ele>477.4</ele>
        <time>2021-09-07T15:09:47Z</time>
      </trkpt>
      <trkpt lat="46.66567" lon="5.80379">
        <ele>477.3</ele>
        <time>2021-09-07T15:09:51Z</time>
      </trkpt>
      <trkpt lat="46.66566" lon="5.80385">
        <ele>477.1</ele>
        <time>2021-09-07T15:09:56Z</time>
      </trkpt>
      <trkpt lat="46.66566" lon="5.80392">
        <ele>476.9</ele>
        <time>2021-09-07T15:10:02Z</time>
      </trkpt>
      <trkpt lat="46.66566" lon="5.80399">
        <ele>476.7</ele>
        <time>2021-09-07T15:10:07Z</time>
      </trkpt>
      <trkpt lat="46.66566" lon="5.80407">
        <ele>476.6</ele>
        <time>2021-09-07T15:10:11Z</time>
      </trkpt>
      <trkpt lat="46.66567" lon="5.80414">
        <ele>476.6</ele>
        <time>2021-09-07T15:10:17Z</time>
      </trkpt>
      <trkpt lat="46.66568" lon="5.8042">
        <ele>476.6</ele>
        <time>2021-09-07T15:10:21Z</time>
      </trkpt>
      <trkpt lat="46.66567" lon="5.80428">
        <ele>476.5</ele>
        <time>2021-09-07T15:10:25Z</time>
      </trkpt>
      <trkpt lat="46.66568" lon="5.80436">
        <ele>476.6</ele>
        <time>2021-09-07T15:10:29Z</time>
      </trkpt>
      <trkpt lat="46.66569" lon="5.80442">
        <ele>476.7</ele>
        <time>2021-09-07T15:10:32Z</time>
      </trkpt>
      <trkpt lat="46.66571" lon="5.80449">
        <ele>477.1</ele>
        <time>2021-09-07T15:10:36Z</time>
      </trkpt>
      <trkpt lat="46.66572" lon="5.80457">
        <ele>478</ele>
        <time>2021-09-07T15:10:41Z</time>
      </trkpt>
      <trkpt lat="46.66573" lon="5.80464">
        <ele>478.4</ele>
        <time>2021-09-07T15:10:45Z</time>
      </trkpt>
      <trkpt lat="46.66573" lon="5.80471">
        <ele>478.7</ele>
        <time>2021-09-07T15:10:49Z</time>
      </trkpt>
      <trkpt lat="46.66572" lon="5.80478">
        <ele>478.5</ele>
        <time>2021-09-07T15:10:53Z</time>
      </trkpt>
      <trkpt lat="46.66574" lon="5.80485">
        <ele>478.3</ele>
        <time>2021-09-07T15:10:57Z</time>
      </trkpt>
      <trkpt lat="46.66574" lon="5.80493">
        <ele>477.5</ele>
        <time>2021-09-07T15:11:02Z</time>
      </trkpt>
      <trkpt lat="46.66575" lon="5.805">
        <ele>477.2</ele>
        <time>2021-09-07T15:11:06Z</time>
      </trkpt>
      <trkpt lat="46.66576" lon="5.80506">
        <ele>476.9</ele>
        <time>2021-09-07T15:11:10Z</time>
      </trkpt>
      <trkpt lat="46.66576" lon="5.80513">
        <ele>476.8</ele>
        <time>2021-09-07T15:11:15Z</time>
      </trkpt>
      <trkpt lat="46.66575" lon="5.8052">
        <ele>476.8</ele>
        <time>2021-09-07T15:11:20Z</time>
      </trkpt>
      <trkpt lat="46.66575" lon="5.80527">
        <ele>476.9</ele>
        <time>2021-09-07T15:11:25Z</time>
      </trkpt>
      <trkpt lat="46.66575" lon="5.80534">
        <ele>477</ele>
        <time>2021-09-07T15:11:30Z</time>
      </trkpt>
      <trkpt lat="46.66575" lon="5.80541">
        <ele>477.2</ele>
        <time>2021-09-07T15:11:35Z</time>
      </trkpt>
      <trkpt lat="46.66575" lon="5.80548">
        <ele>477.4</ele>
        <time>2021-09-07T15:11:40Z</time>
      </trkpt>
      <trkpt lat="46.66574" lon="5.80556">
        <ele>477.1</ele>
        <time>2021-09-07T15:11:46Z</time>
      </trkpt>
      <trkpt lat="46.66574" lon="5.80563">
        <ele>476.5</ele>
        <time>2021-09-07T15:11:51Z</time>
      </trkpt>
      <trkpt lat="46.66573" lon="5.80571">
        <ele>476</ele>
        <time>2021-09-07T15:11:57Z</time>
      </trkpt>
      <trkpt lat="46.66573" lon="5.80578">
        <ele>475.7</ele>
        <time>2021-09-07T15:12:03Z</time>
      </trkpt>
      <trkpt lat="46.66572" lon="5.80585">
        <ele>475.6</ele>
        <time>2021-09-07T15:12:08Z</time>
      </trkpt>
      <trkpt lat="46.6657" lon="5.80591">
        <ele>475</ele>
        <time>2021-09-07T15:12:12Z</time>
      </trkpt>
      <trkpt lat="46.66568" lon="5.80599">
        <ele>474.6</ele>
        <time>2021-09-07T15:12:16Z</time>
      </trkpt>
      <trkpt lat="46.66568" lon="5.80606">
        <ele>474.5</ele>
        <time>2021-09-07T15:12:20Z</time>
      </trkpt>
      <trkpt lat="46.6657" lon="5.80613">
        <ele>474.6</ele>
        <time>2021-09-07T15:12:24Z</time>
      </trkpt>
      <trkpt lat="46.66569" lon="5.8062">
        <ele>475</ele>
        <time>2021-09-07T15:12:28Z</time>
      </trkpt>
      <trkpt lat="46.66569" lon="5.80628">
        <ele>475.7</ele>
        <time>2021-09-07T15:12:32Z</time>
      </trkpt>
      <trkpt lat="46.66567" lon="5.80636">
        <ele>476.7</ele>
        <time>2021-09-07T15:12:36Z</time>
      </trkpt>
      <trkpt lat="46.66567" lon="5.80643">
        <ele>478.2</ele>
        <time>2021-09-07T15:12:40Z</time>
      </trkpt>
      <trkpt lat="46.66566" lon="5.80651">
        <ele>480.4</ele>
        <time>2021-09-07T15:12:46Z</time>
      </trkpt>
      <trkpt lat="46.66565" lon="5.80658">
        <ele>481.8</ele>
        <time>2021-09-07T15:12:51Z</time>
      </trkpt>
      <trkpt lat="46.66563" lon="5.80664">
        <ele>483.2</ele>
        <time>2021-09-07T15:12:56Z</time>
      </trkpt>
      <trkpt lat="46.66563" lon="5.80672">
        <ele>484.4</ele>
        <time>2021-09-07T15:13:01Z</time>
      </trkpt>
      <trkpt lat="46.66561" lon="5.80679">
        <ele>485.7</ele>
        <time>2021-09-07T15:13:06Z</time>
      </trkpt>
      <trkpt lat="46.66558" lon="5.80684">
        <ele>486.7</ele>
        <time>2021-09-07T15:13:10Z</time>
      </trkpt>
      <trkpt lat="46.66557" lon="5.80691">
        <ele>487.9</ele>
        <time>2021-09-07T15:13:14Z</time>
      </trkpt>
      <trkpt lat="46.66556" lon="5.80699">
        <ele>489.2</ele>
        <time>2021-09-07T15:13:19Z</time>
      </trkpt>
      <trkpt lat="46.66555" lon="5.80706">
        <ele>490</ele>
        <time>2021-09-07T15:13:24Z</time>
      </trkpt>
      <trkpt lat="46.66551" lon="5.80711">
        <ele>490.2</ele>
        <time>2021-09-07T15:13:28Z</time>
      </trkpt>
      <trkpt lat="46.66549" lon="5.80717">
        <ele>489.9</ele>
        <time>2021-09-07T15:13:32Z</time>
      </trkpt>
      <trkpt lat="46.66547" lon="5.80724">
        <ele>489.5</ele>
        <time>2021-09-07T15:13:36Z</time>
      </trkpt>
      <trkpt lat="46.66545" lon="5.80731">
        <ele>488.7</ele>
        <time>2021-09-07T15:13:41Z</time>
      </trkpt>
      <trkpt lat="46.66544" lon="5.80738">
        <ele>488.1</ele>
        <time>2021-09-07T15:13:45Z</time>
      </trkpt>
      <trkpt lat="46.66543" lon="5.80745">
        <ele>487.4</ele>
        <time>2021-09-07T15:13:49Z</time>
      </trkpt>
      <trkpt lat="46.6654" lon="5.80751">
        <ele>486.8</ele>
        <time>2021-09-07T15:13:55Z</time>
      </trkpt>
      <trkpt lat="46.66538" lon="5.80756">
        <ele>486.2</ele>
        <time>2021-09-07T15:14:00Z</time>
      </trkpt>
      <trkpt lat="46.66536" lon="5.80764">
        <ele>485.1</ele>
        <time>2021-09-07T15:14:06Z</time>
      </trkpt>
      <trkpt lat="46.66533" lon="5.80769">
        <ele>484.2</ele>
        <time>2021-09-07T15:14:10Z</time>
      </trkpt>
      <trkpt lat="46.66532" lon="5.80776">
        <ele>483.4</ele>
        <time>2021-09-07T15:14:14Z</time>
      </trkpt>
      <trkpt lat="46.66529" lon="5.80781">
        <ele>482.8</ele>
        <time>2021-09-07T15:14:18Z</time>
      </trkpt>
      <trkpt lat="46.66526" lon="5.80786">
        <ele>482.5</ele>
        <time>2021-09-07T15:14:22Z</time>
      </trkpt>
      <trkpt lat="46.66521" lon="5.80791">
        <ele>482.3</ele>
        <time>2021-09-07T15:14:27Z</time>
      </trkpt>
      <trkpt lat="46.66518" lon="5.80797">
        <ele>482.2</ele>
        <time>2021-09-07T15:14:32Z</time>
      </trkpt>
      <trkpt lat="46.66517" lon="5.80804">
        <ele>482.4</ele>
        <time>2021-09-07T15:14:36Z</time>
      </trkpt>
      <trkpt lat="46.66514" lon="5.8081">
        <ele>482.4</ele>
        <time>2021-09-07T15:14:40Z</time>
      </trkpt>
      <trkpt lat="46.66512" lon="5.80817">
        <ele>482</ele>
        <time>2021-09-07T15:14:44Z</time>
      </trkpt>
      <trkpt lat="46.6651" lon="5.80823">
        <ele>481.8</ele>
        <time>2021-09-07T15:14:47Z</time>
      </trkpt>
      <trkpt lat="46.66506" lon="5.80829">
        <ele>481.3</ele>
        <time>2021-09-07T15:14:51Z</time>
      </trkpt>
      <trkpt lat="46.66507" lon="5.80836">
        <ele>480.8</ele>
        <time>2021-09-07T15:15:01Z</time>
      </trkpt>
      <trkpt lat="46.66504" lon="5.80842">
        <ele>481</ele>
        <time>2021-09-07T15:15:13Z</time>
      </trkpt>
      <trkpt lat="46.66503" lon="5.80848">
        <ele>481.9</ele>
        <time>2021-09-07T15:15:20Z</time>
      </trkpt>
      <trkpt lat="46.66507" lon="5.80851">
        <ele>483.2</ele>
        <time>2021-09-07T15:15:25Z</time>
      </trkpt>
      <trkpt lat="46.66503" lon="5.80854">
        <ele>484.2</ele>
        <time>2021-09-07T15:15:34Z</time>
      </trkpt>
      <trkpt lat="46.66498" lon="5.80853">
        <ele>484.1</ele>
        <time>2021-09-07T15:15:43Z</time>
      </trkpt>
      <trkpt lat="46.66493" lon="5.80854">
        <ele>483.3</ele>
        <time>2021-09-07T15:15:47Z</time>
      </trkpt>
      <trkpt lat="46.66491" lon="5.8086">
        <ele>483.7</ele>
        <time>2021-09-07T15:15:54Z</time>
      </trkpt>
      <trkpt lat="46.66493" lon="5.80866">
        <ele>483.7</ele>
        <time>2021-09-07T15:15:58Z</time>
      </trkpt>
      <trkpt lat="46.66492" lon="5.80873">
        <ele>483.9</ele>
        <time>2021-09-07T15:16:03Z</time>
      </trkpt>
      <trkpt lat="46.66489" lon="5.80878">
        <ele>484.8</ele>
        <time>2021-09-07T15:16:09Z</time>
      </trkpt>
      <trkpt lat="46.66486" lon="5.80884">
        <ele>486.1</ele>
        <time>2021-09-07T15:16:14Z</time>
      </trkpt>
      <trkpt lat="46.66483" lon="5.8089">
        <ele>486.7</ele>
        <time>2021-09-07T15:16:19Z</time>
      </trkpt>
      <trkpt lat="46.66478" lon="5.80892">
        <ele>486.2</ele>
        <time>2021-09-07T15:16:25Z</time>
      </trkpt>
      <trkpt lat="46.66477" lon="5.80899">
        <ele>486.2</ele>
        <time>2021-09-07T15:16:28Z</time>
      </trkpt>
      <trkpt lat="46.66476" lon="5.80905">
        <ele>486.3</ele>
        <time>2021-09-07T15:16:31Z</time>
      </trkpt>
      <trkpt lat="46.66472" lon="5.8091">
        <ele>485.7</ele>
        <time>2021-09-07T15:16:34Z</time>
      </trkpt>
      <trkpt lat="46.66467" lon="5.80913">
        <ele>484.3</ele>
        <time>2021-09-07T15:16:37Z</time>
      </trkpt>
      <trkpt lat="46.66463" lon="5.80917">
        <ele>482.7</ele>
        <time>2021-09-07T15:16:42Z</time>
      </trkpt>
      <trkpt lat="46.66462" lon="5.80924">
        <ele>481.5</ele>
        <time>2021-09-07T15:16:48Z</time>
      </trkpt>
      <trkpt lat="46.66462" lon="5.80931">
        <ele>481.6</ele>
        <time>2021-09-07T15:16:53Z</time>
      </trkpt>
      <trkpt lat="46.66462" lon="5.80938">
        <ele>482.7</ele>
        <time>2021-09-07T15:16:57Z</time>
      </trkpt>
      <trkpt lat="46.66462" lon="5.80945">
        <ele>483.7</ele>
        <time>2021-09-07T15:17:01Z</time>
      </trkpt>
      <trkpt lat="46.6646" lon="5.80951">
        <ele>484.6</ele>
        <time>2021-09-07T15:17:07Z</time>
      </trkpt>
      <trkpt lat="46.66457" lon="5.80957">
        <ele>484.5</ele>
        <time>2021-09-07T15:17:13Z</time>
      </trkpt>
      <trkpt lat="46.66454" lon="5.80962">
        <ele>484.1</ele>
        <time>2021-09-07T15:17:17Z</time>
      </trkpt>
      <trkpt lat="46.66452" lon="5.80969">
        <ele>483.9</ele>
        <time>2021-09-07T15:17:24Z</time>
      </trkpt>
      <trkpt lat="46.6645" lon="5.80975">
        <ele>483.8</ele>
        <time>2021-09-07T15:17:29Z</time>
      </trkpt>
      <trkpt lat="46.66448" lon="5.80981">
        <ele>483.4</ele>
        <time>2021-09-07T15:17:33Z</time>
      </trkpt>
      <trkpt lat="46.66444" lon="5.80988">
        <ele>482.9</ele>
        <time>2021-09-07T15:17:37Z</time>
      </trkpt>
      <trkpt lat="46.6644" lon="5.80995">
        <ele>482.2</ele>
        <time>2021-09-07T15:17:42Z</time>
      </trkpt>
      <trkpt lat="46.66438" lon="5.81">
        <ele>481.9</ele>
        <time>2021-09-07T15:17:46Z</time>
      </trkpt>
      <trkpt lat="46.66435" lon="5.81006">
        <ele>481.9</ele>
        <time>2021-09-07T15:17:49Z</time>
      </trkpt>
      <trkpt lat="46.66432" lon="5.81012">
        <ele>482.1</ele>
        <time>2021-09-07T15:17:53Z</time>
      </trkpt>
      <trkpt lat="46.66429" lon="5.81018">
        <ele>482</ele>
        <time>2021-09-07T15:17:57Z</time>
      </trkpt>
      <trkpt lat="46.66427" lon="5.81024">
        <ele>481.9</ele>
        <time>2021-09-07T15:18:02Z</time>
      </trkpt>
      <trkpt lat="46.66425" lon="5.81031">
        <ele>482.2</ele>
        <time>2021-09-07T15:18:07Z</time>
      </trkpt>
      <trkpt lat="46.66422" lon="5.81037">
        <ele>482.6</ele>
        <time>2021-09-07T15:18:12Z</time>
      </trkpt>
      <trkpt lat="46.6642" lon="5.81043">
        <ele>483.1</ele>
        <time>2021-09-07T15:18:17Z</time>
      </trkpt>
      <trkpt lat="46.66417" lon="5.81049">
        <ele>483.7</ele>
        <time>2021-09-07T15:18:22Z</time>
      </trkpt>
      <trkpt lat="46.66414" lon="5.81055">
        <ele>484</ele>
        <time>2021-09-07T15:18:28Z</time>
      </trkpt>
      <trkpt lat="46.6641" lon="5.81061">
        <ele>483.6</ele>
        <time>2021-09-07T15:18:32Z</time>
      </trkpt>
      <trkpt lat="46.66407" lon="5.81068">
        <ele>483.6</ele>
        <time>2021-09-07T15:18:36Z</time>
      </trkpt>
      <trkpt lat="46.66406" lon="5.81074">
        <ele>483.9</ele>
        <time>2021-09-07T15:18:40Z</time>
      </trkpt>
      <trkpt lat="46.66403" lon="5.81081">
        <ele>484</ele>
        <time>2021-09-07T15:18:45Z</time>
      </trkpt>
      <trkpt lat="46.66402" lon="5.81089">
        <ele>483.8</ele>
        <time>2021-09-07T15:18:50Z</time>
      </trkpt>
      <trkpt lat="46.66398" lon="5.81094">
        <ele>483.6</ele>
        <time>2021-09-07T15:18:56Z</time>
      </trkpt>
      <trkpt lat="46.66396" lon="5.81103">
        <ele>484.3</ele>
        <time>2021-09-07T15:19:00Z</time>
      </trkpt>
      <trkpt lat="46.66396" lon="5.81112">
        <ele>485.1</ele>
        <time>2021-09-07T15:19:03Z</time>
      </trkpt>
      <trkpt lat="46.66397" lon="5.8112">
        <ele>486.4</ele>
        <time>2021-09-07T15:19:07Z</time>
      </trkpt>
      <trkpt lat="46.66399" lon="5.81126">
        <ele>487.3</ele>
        <time>2021-09-07T15:19:14Z</time>
      </trkpt>
      <trkpt lat="46.66398" lon="5.81133">
        <ele>488.2</ele>
        <time>2021-09-07T15:19:23Z</time>
      </trkpt>
      <trkpt lat="46.664" lon="5.8114">
        <ele>488</ele>
        <time>2021-09-07T15:19:29Z</time>
      </trkpt>
      <trkpt lat="46.66403" lon="5.81146">
        <ele>487.5</ele>
        <time>2021-09-07T15:19:34Z</time>
      </trkpt>
      <trkpt lat="46.66406" lon="5.81154">
        <ele>487</ele>
        <time>2021-09-07T15:19:38Z</time>
      </trkpt>
      <trkpt lat="46.66407" lon="5.81161">
        <ele>487.1</ele>
        <time>2021-09-07T15:19:42Z</time>
      </trkpt>
      <trkpt lat="46.66408" lon="5.81168">
        <ele>488.4</ele>
        <time>2021-09-07T15:19:51Z</time>
      </trkpt>
      <trkpt lat="46.6641" lon="5.81175">
        <ele>489.1</ele>
        <time>2021-09-07T15:19:56Z</time>
      </trkpt>
      <trkpt lat="46.66412" lon="5.81181">
        <ele>489.5</ele>
        <time>2021-09-07T15:20:02Z</time>
      </trkpt>
      <trkpt lat="46.66414" lon="5.81187">
        <ele>489.8</ele>
        <time>2021-09-07T15:20:06Z</time>
      </trkpt>
      <trkpt lat="46.66417" lon="5.81193">
        <ele>489.9</ele>
        <time>2021-09-07T15:20:10Z</time>
      </trkpt>
      <trkpt lat="46.6642" lon="5.81199">
        <ele>489.7</ele>
        <time>2021-09-07T15:20:14Z</time>
      </trkpt>
      <trkpt lat="46.66423" lon="5.81205">
        <ele>489.3</ele>
        <time>2021-09-07T15:20:18Z</time>
      </trkpt>
      <trkpt lat="46.66427" lon="5.81211">
        <ele>487.9</ele>
        <time>2021-09-07T15:20:23Z</time>
      </trkpt>
      <trkpt lat="46.66428" lon="5.81217">
        <ele>486</ele>
        <time>2021-09-07T15:20:27Z</time>
      </trkpt>
      <trkpt lat="46.6643" lon="5.81224">
        <ele>482.7</ele>
        <time>2021-09-07T15:20:33Z</time>
      </trkpt>
      <trkpt lat="46.66432" lon="5.81231">
        <ele>480.2</ele>
        <time>2021-09-07T15:20:38Z</time>
      </trkpt>
      <trkpt lat="46.66435" lon="5.81236">
        <ele>479.3</ele>
        <time>2021-09-07T15:20:42Z</time>
      </trkpt>
      <trkpt lat="46.66437" lon="5.81243">
        <ele>478.7</ele>
        <time>2021-09-07T15:20:46Z</time>
      </trkpt>
      <trkpt lat="46.66441" lon="5.81249">
        <ele>478.5</ele>
        <time>2021-09-07T15:20:50Z</time>
      </trkpt>
      <trkpt lat="46.66444" lon="5.81255">
        <ele>479.1</ele>
        <time>2021-09-07T15:20:55Z</time>
      </trkpt>
      <trkpt lat="46.66446" lon="5.81261">
        <ele>480</ele>
        <time>2021-09-07T15:21:00Z</time>
      </trkpt>
      <trkpt lat="46.66448" lon="5.81268">
        <ele>481.1</ele>
        <time>2021-09-07T15:21:05Z</time>
      </trkpt>
      <trkpt lat="46.6645" lon="5.81274">
        <ele>481.9</ele>
        <time>2021-09-07T15:21:10Z</time>
      </trkpt>
      <trkpt lat="46.66453" lon="5.8128">
        <ele>482.7</ele>
        <time>2021-09-07T15:21:14Z</time>
      </trkpt>
      <trkpt lat="46.66456" lon="5.81286">
        <ele>483.7</ele>
        <time>2021-09-07T15:21:18Z</time>
      </trkpt>
      <trkpt lat="46.66458" lon="5.81292">
        <ele>485.1</ele>
        <time>2021-09-07T15:21:23Z</time>
      </trkpt>
      <trkpt lat="46.66459" lon="5.81299">
        <ele>486.2</ele>
        <time>2021-09-07T15:21:28Z</time>
      </trkpt>
      <trkpt lat="46.6646" lon="5.81306">
        <ele>486.5</ele>
        <time>2021-09-07T15:21:33Z</time>
      </trkpt>
      <trkpt lat="46.66462" lon="5.81314">
        <ele>485.6</ele>
        <time>2021-09-07T15:21:38Z</time>
      </trkpt>
      <trkpt lat="46.66464" lon="5.8132">
        <ele>484.8</ele>
        <time>2021-09-07T15:21:43Z</time>
      </trkpt>
      <trkpt lat="46.66467" lon="5.81325">
        <ele>483.6</ele>
        <time>2021-09-07T15:21:49Z</time>
      </trkpt>
      <trkpt lat="46.66471" lon="5.81329">
        <ele>482.6</ele>
        <time>2021-09-07T15:21:54Z</time>
      </trkpt>
      <trkpt lat="46.66474" lon="5.81336">
        <ele>481.6</ele>
        <time>2021-09-07T15:21:59Z</time>
      </trkpt>
      <trkpt lat="46.66476" lon="5.81343">
        <ele>480.5</ele>
        <time>2021-09-07T15:22:05Z</time>
      </trkpt>
      <trkpt lat="46.66479" lon="5.81348">
        <ele>479.1</ele>
        <time>2021-09-07T15:22:12Z</time>
      </trkpt>
      <trkpt lat="46.66481" lon="5.81355">
        <ele>477.4</ele>
        <time>2021-09-07T15:22:17Z</time>
      </trkpt>
      <trkpt lat="46.66483" lon="5.81362">
        <ele>475.6</ele>
        <time>2021-09-07T15:22:24Z</time>
      </trkpt>
      <trkpt lat="46.66484" lon="5.81369">
        <ele>475.2</ele>
        <time>2021-09-07T15:22:28Z</time>
      </trkpt>
      <trkpt lat="46.66487" lon="5.81376">
        <ele>475.6</ele>
        <time>2021-09-07T15:22:32Z</time>
      </trkpt>
      <trkpt lat="46.66491" lon="5.81381">
        <ele>476.2</ele>
        <time>2021-09-07T15:22:36Z</time>
      </trkpt>
      <trkpt lat="46.66494" lon="5.81388">
        <ele>476.5</ele>
        <time>2021-09-07T15:22:41Z</time>
      </trkpt>
      <trkpt lat="46.66494" lon="5.81395">
        <ele>476.7</ele>
        <time>2021-09-07T15:22:45Z</time>
      </trkpt>
      <trkpt lat="46.66497" lon="5.81402">
        <ele>476.6</ele>
        <time>2021-09-07T15:22:49Z</time>
      </trkpt>
      <trkpt lat="46.665" lon="5.81408">
        <ele>477</ele>
        <time>2021-09-07T15:22:53Z</time>
      </trkpt>
      <trkpt lat="46.66503" lon="5.81415">
        <ele>477.7</ele>
        <time>2021-09-07T15:22:57Z</time>
      </trkpt>
      <trkpt lat="46.66506" lon="5.81422">
        <ele>479</ele>
        <time>2021-09-07T15:23:01Z</time>
      </trkpt>
      <trkpt lat="46.66509" lon="5.81429">
        <ele>480.7</ele>
        <time>2021-09-07T15:23:05Z</time>
      </trkpt>
      <trkpt lat="46.66512" lon="5.81434">
        <ele>483.2</ele>
        <time>2021-09-07T15:23:10Z</time>
      </trkpt>
      <trkpt lat="46.66515" lon="5.8144">
        <ele>485.5</ele>
        <time>2021-09-07T15:23:16Z</time>
      </trkpt>
      <trkpt lat="46.66517" lon="5.81446">
        <ele>486.6</ele>
        <time>2021-09-07T15:23:21Z</time>
      </trkpt>
      <trkpt lat="46.6652" lon="5.81453">
        <ele>486.4</ele>
        <time>2021-09-07T15:23:26Z</time>
      </trkpt>
      <trkpt lat="46.66525" lon="5.81456">
        <ele>485.3</ele>
        <time>2021-09-07T15:23:31Z</time>
      </trkpt>
      <trkpt lat="46.66529" lon="5.81461">
        <ele>484.3</ele>
        <time>2021-09-07T15:23:36Z</time>
      </trkpt>
      <trkpt lat="46.66532" lon="5.81465">
        <ele>484.2</ele>
        <time>2021-09-07T15:23:41Z</time>
      </trkpt>
      <trkpt lat="46.66537" lon="5.81466">
        <ele>484.8</ele>
        <time>2021-09-07T15:23:47Z</time>
      </trkpt>
      <trkpt lat="46.66542" lon="5.81467">
        <ele>484.7</ele>
        <time>2021-09-07T15:23:51Z</time>
      </trkpt>
      <trkpt lat="46.66547" lon="5.81468">
        <ele>484.9</ele>
        <time>2021-09-07T15:23:56Z</time>
      </trkpt>
      <trkpt lat="46.66552" lon="5.81469">
        <ele>485.4</ele>
        <time>2021-09-07T15:24:00Z</time>
      </trkpt>
      <trkpt lat="46.66557" lon="5.81471">
        <ele>486.1</ele>
        <time>2021-09-07T15:24:04Z</time>
      </trkpt>
      <trkpt lat="46.66562" lon="5.81473">
        <ele>487</ele>
        <time>2021-09-07T15:24:08Z</time>
      </trkpt>
      <trkpt lat="46.66567" lon="5.81475">
        <ele>487.1</ele>
        <time>2021-09-07T15:24:13Z</time>
      </trkpt>
      <trkpt lat="46.66572" lon="5.81475">
        <ele>487.2</ele>
        <time>2021-09-07T15:24:17Z</time>
      </trkpt>
      <trkpt lat="46.66577" lon="5.81476">
        <ele>487.5</ele>
        <time>2021-09-07T15:24:21Z</time>
      </trkpt>
      <trkpt lat="46.66581" lon="5.81477">
        <ele>487.8</ele>
        <time>2021-09-07T15:24:26Z</time>
      </trkpt>
      <trkpt lat="46.66586" lon="5.81479">
        <ele>487.9</ele>
        <time>2021-09-07T15:24:31Z</time>
      </trkpt>
      <trkpt lat="46.66592" lon="5.81479">
        <ele>488.4</ele>
        <time>2021-09-07T15:24:36Z</time>
      </trkpt>
      <trkpt lat="46.66597" lon="5.8148">
        <ele>489.4</ele>
        <time>2021-09-07T15:24:40Z</time>
      </trkpt>
      <trkpt lat="46.66602" lon="5.81481">
        <ele>490</ele>
        <time>2021-09-07T15:24:44Z</time>
      </trkpt>
      <trkpt lat="46.66607" lon="5.81482">
        <ele>490.7</ele>
        <time>2021-09-07T15:24:48Z</time>
      </trkpt>
      <trkpt lat="46.66612" lon="5.81483">
        <ele>491.8</ele>
        <time>2021-09-07T15:24:52Z</time>
      </trkpt>
      <trkpt lat="46.66616" lon="5.81484">
        <ele>493.1</ele>
        <time>2021-09-07T15:24:56Z</time>
      </trkpt>
      <trkpt lat="46.66621" lon="5.81485">
        <ele>493.9</ele>
        <time>2021-09-07T15:24:59Z</time>
      </trkpt>
      <trkpt lat="46.66626" lon="5.81487">
        <ele>494.4</ele>
        <time>2021-09-07T15:25:03Z</time>
      </trkpt>
      <trkpt lat="46.66631" lon="5.81488">
        <ele>494.7</ele>
        <time>2021-09-07T15:25:07Z</time>
      </trkpt>
      <trkpt lat="46.66636" lon="5.81489">
        <ele>495</ele>
        <time>2021-09-07T15:25:11Z</time>
      </trkpt>
      <trkpt lat="46.66641" lon="5.8149">
        <ele>495.3</ele>
        <time>2021-09-07T15:25:15Z</time>
      </trkpt>
      <trkpt lat="46.66646" lon="5.8149">
        <ele>495.8</ele>
        <time>2021-09-07T15:25:19Z</time>
      </trkpt>
      <trkpt lat="46.66651" lon="5.81491">
        <ele>496.4</ele>
        <time>2021-09-07T15:25:24Z</time>
      </trkpt>
      <trkpt lat="46.66656" lon="5.81492">
        <ele>496.7</ele>
        <time>2021-09-07T15:25:28Z</time>
      </trkpt>
      <trkpt lat="46.66662" lon="5.81494">
        <ele>497</ele>
        <time>2021-09-07T15:25:32Z</time>
      </trkpt>
      <trkpt lat="46.66667" lon="5.81495">
        <ele>497.3</ele>
        <time>2021-09-07T15:25:36Z</time>
      </trkpt>
      <trkpt lat="46.66672" lon="5.81497">
        <ele>497.4</ele>
        <time>2021-09-07T15:25:41Z</time>
      </trkpt>
      <trkpt lat="46.66677" lon="5.81499">
        <ele>496.3</ele>
        <time>2021-09-07T15:25:49Z</time>
      </trkpt>
      <trkpt lat="46.66681" lon="5.815">
        <ele>495.5</ele>
        <time>2021-09-07T15:25:54Z</time>
      </trkpt>
      <trkpt lat="46.66687" lon="5.81501">
        <ele>495</ele>
        <time>2021-09-07T15:25:59Z</time>
      </trkpt>
      <trkpt lat="46.66691" lon="5.81502">
        <ele>494.7</ele>
        <time>2021-09-07T15:26:03Z</time>
      </trkpt>
      <trkpt lat="46.66696" lon="5.81504">
        <ele>494.5</ele>
        <time>2021-09-07T15:26:08Z</time>
      </trkpt>
      <trkpt lat="46.66701" lon="5.81505">
        <ele>494.2</ele>
        <time>2021-09-07T15:26:13Z</time>
      </trkpt>
      <trkpt lat="46.66706" lon="5.81505">
        <ele>493.2</ele>
        <time>2021-09-07T15:26:18Z</time>
      </trkpt>
      <trkpt lat="46.66711" lon="5.81503">
        <ele>492.8</ele>
        <time>2021-09-07T15:26:25Z</time>
      </trkpt>
      <trkpt lat="46.66716" lon="5.81502">
        <ele>493.1</ele>
        <time>2021-09-07T15:26:30Z</time>
      </trkpt>
      <trkpt lat="46.66722" lon="5.81503">
        <ele>494</ele>
        <time>2021-09-07T15:26:35Z</time>
      </trkpt>
      <trkpt lat="46.66726" lon="5.81504">
        <ele>495.3</ele>
        <time>2021-09-07T15:26:40Z</time>
      </trkpt>
      <trkpt lat="46.66731" lon="5.81508">
        <ele>496.2</ele>
        <time>2021-09-07T15:26:46Z</time>
      </trkpt>
      <trkpt lat="46.66736" lon="5.81511">
        <ele>496.5</ele>
        <time>2021-09-07T15:26:49Z</time>
      </trkpt>
      <trkpt lat="46.66741" lon="5.81512">
        <ele>496.5</ele>
        <time>2021-09-07T15:26:52Z</time>
      </trkpt>
      <trkpt lat="46.66745" lon="5.81507">
        <ele>496.7</ele>
        <time>2021-09-07T15:26:58Z</time>
      </trkpt>
      <trkpt lat="46.66747" lon="5.81501">
        <ele>496.8</ele>
        <time>2021-09-07T15:27:03Z</time>
      </trkpt>
      <trkpt lat="46.66748" lon="5.81494">
        <ele>496.7</ele>
        <time>2021-09-07T15:27:08Z</time>
      </trkpt>
      <trkpt lat="46.66752" lon="5.81489">
        <ele>496.9</ele>
        <time>2021-09-07T15:27:13Z</time>
      </trkpt>
      <trkpt lat="46.66755" lon="5.81484">
        <ele>497.5</ele>
        <time>2021-09-07T15:27:17Z</time>
      </trkpt>
      <trkpt lat="46.66758" lon="5.81478">
        <ele>498.1</ele>
        <time>2021-09-07T15:27:21Z</time>
      </trkpt>
      <trkpt lat="46.66761" lon="5.81471">
        <ele>498.7</ele>
        <time>2021-09-07T15:27:26Z</time>
      </trkpt>
      <trkpt lat="46.66763" lon="5.81465">
        <ele>498.8</ele>
        <time>2021-09-07T15:27:31Z</time>
      </trkpt>
      <trkpt lat="46.66767" lon="5.8146">
        <ele>497.6</ele>
        <time>2021-09-07T15:27:36Z</time>
      </trkpt>
      <trkpt lat="46.66771" lon="5.81455">
        <ele>496.2</ele>
        <time>2021-09-07T15:27:40Z</time>
      </trkpt>
      <trkpt lat="46.66773" lon="5.81449">
        <ele>494.5</ele>
        <time>2021-09-07T15:27:45Z</time>
      </trkpt>
      <trkpt lat="46.66776" lon="5.81444">
        <ele>490.9</ele>
        <time>2021-09-07T15:27:53Z</time>
      </trkpt>
      <trkpt lat="46.66781" lon="5.81439">
        <ele>488.7</ele>
        <time>2021-09-07T15:27:59Z</time>
      </trkpt>
      <trkpt lat="46.66785" lon="5.81435">
        <ele>487</ele>
        <time>2021-09-07T15:28:04Z</time>
      </trkpt>
      <trkpt lat="46.66789" lon="5.81429">
        <ele>485.2</ele>
        <time>2021-09-07T15:28:09Z</time>
      </trkpt>
      <trkpt lat="46.66792" lon="5.81424">
        <ele>484</ele>
        <time>2021-09-07T15:28:13Z</time>
      </trkpt>
      <trkpt lat="46.66797" lon="5.81421">
        <ele>482.9</ele>
        <time>2021-09-07T15:28:17Z</time>
      </trkpt>
      <trkpt lat="46.66801" lon="5.81417">
        <ele>481.9</ele>
        <time>2021-09-07T15:28:21Z</time>
      </trkpt>
      <trkpt lat="46.66804" lon="5.81412">
        <ele>481.6</ele>
        <time>2021-09-07T15:28:26Z</time>
      </trkpt>
      <trkpt lat="46.66807" lon="5.81407">
        <ele>481.2</ele>
        <time>2021-09-07T15:28:31Z</time>
      </trkpt>
      <trkpt lat="46.66811" lon="5.81401">
        <ele>480.9</ele>
        <time>2021-09-07T15:28:36Z</time>
      </trkpt>
      <trkpt lat="46.66815" lon="5.81396">
        <ele>480.7</ele>
        <time>2021-09-07T15:28:40Z</time>
      </trkpt>
      <trkpt lat="46.66818" lon="5.81391">
        <ele>480.5</ele>
        <time>2021-09-07T15:28:45Z</time>
      </trkpt>
      <trkpt lat="46.66822" lon="5.81385">
        <ele>480.2</ele>
        <time>2021-09-07T15:28:50Z</time>
      </trkpt>
      <trkpt lat="46.66825" lon="5.8138">
        <ele>479.9</ele>
        <time>2021-09-07T15:28:55Z</time>
      </trkpt>
      <trkpt lat="46.66828" lon="5.81375">
        <ele>479.8</ele>
        <time>2021-09-07T15:29:00Z</time>
      </trkpt>
      <trkpt lat="46.66831" lon="5.81369">
        <ele>479.8</ele>
        <time>2021-09-07T15:29:05Z</time>
      </trkpt>
      <trkpt lat="46.66834" lon="5.81363">
        <ele>479.7</ele>
        <time>2021-09-07T15:29:08Z</time>
      </trkpt>
      <trkpt lat="46.66838" lon="5.81358">
        <ele>479.7</ele>
        <time>2021-09-07T15:29:11Z</time>
      </trkpt>
      <trkpt lat="46.66841" lon="5.81353">
        <ele>479.5</ele>
        <time>2021-09-07T15:29:16Z</time>
      </trkpt>
      <trkpt lat="46.66846" lon="5.81349">
        <ele>479.5</ele>
        <time>2021-09-07T15:29:21Z</time>
      </trkpt>
      <trkpt lat="46.6685" lon="5.81343">
        <ele>479.1</ele>
        <time>2021-09-07T15:29:28Z</time>
      </trkpt>
      <trkpt lat="46.66854" lon="5.81338">
        <ele>478.5</ele>
        <time>2021-09-07T15:29:34Z</time>
      </trkpt>
      <trkpt lat="46.66857" lon="5.81331">
        <ele>478</ele>
        <time>2021-09-07T15:29:39Z</time>
      </trkpt>
      <trkpt lat="46.66861" lon="5.81325">
        <ele>477.5</ele>
        <time>2021-09-07T15:29:43Z</time>
      </trkpt>
      <trkpt lat="46.66864" lon="5.81319">
        <ele>477.1</ele>
        <time>2021-09-07T15:29:47Z</time>
      </trkpt>
      <trkpt lat="46.66867" lon="5.81313">
        <ele>477.2</ele>
        <time>2021-09-07T15:29:51Z</time>
      </trkpt>
      <trkpt lat="46.66871" lon="5.81309">
        <ele>477.2</ele>
        <time>2021-09-07T15:29:55Z</time>
      </trkpt>
      <trkpt lat="46.66874" lon="5.81303">
        <ele>477.2</ele>
        <time>2021-09-07T15:29:59Z</time>
      </trkpt>
      <trkpt lat="46.66878" lon="5.81297">
        <ele>477.7</ele>
        <time>2021-09-07T15:30:02Z</time>
      </trkpt>
      <trkpt lat="46.6688" lon="5.81291">
        <ele>478.3</ele>
        <time>2021-09-07T15:30:05Z</time>
      </trkpt>
      <trkpt lat="46.66881" lon="5.81285">
        <ele>480.8</ele>
        <time>2021-09-07T15:30:11Z</time>
      </trkpt>
      <trkpt lat="46.6688" lon="5.81278">
        <ele>482.1</ele>
        <time>2021-09-07T15:30:16Z</time>
      </trkpt>
      <trkpt lat="46.66883" lon="5.81271">
        <ele>483.2</ele>
        <time>2021-09-07T15:30:21Z</time>
      </trkpt>
      <trkpt lat="46.66886" lon="5.81266">
        <ele>484.1</ele>
        <time>2021-09-07T15:30:25Z</time>
      </trkpt>
      <trkpt lat="46.66891" lon="5.81263">
        <ele>485.7</ele>
        <time>2021-09-07T15:30:30Z</time>
      </trkpt>
      <trkpt lat="46.66896" lon="5.8126">
        <ele>487.1</ele>
        <time>2021-09-07T15:30:34Z</time>
      </trkpt>
      <trkpt lat="46.66899" lon="5.81254">
        <ele>488.2</ele>
        <time>2021-09-07T15:30:38Z</time>
      </trkpt>
      <trkpt lat="46.669" lon="5.81247">
        <ele>489.3</ele>
        <time>2021-09-07T15:30:43Z</time>
      </trkpt>
      <trkpt lat="46.66904" lon="5.81242">
        <ele>490.9</ele>
        <time>2021-09-07T15:30:49Z</time>
      </trkpt>
      <trkpt lat="46.66907" lon="5.81237">
        <ele>491.8</ele>
        <time>2021-09-07T15:30:54Z</time>
      </trkpt>
      <trkpt lat="46.6691" lon="5.8123">
        <ele>491.8</ele>
        <time>2021-09-07T15:30:58Z</time>
      </trkpt>
      <trkpt lat="46.6691" lon="5.81223">
        <ele>491.5</ele>
        <time>2021-09-07T15:31:02Z</time>
      </trkpt>
      <trkpt lat="46.66909" lon="5.81216">
        <ele>490.9</ele>
        <time>2021-09-07T15:31:09Z</time>
      </trkpt>
      <trkpt lat="46.66912" lon="5.81222">
        <ele>489.8</ele>
        <time>2021-09-07T15:31:31Z</time>
      </trkpt>
      <trkpt lat="46.66916" lon="5.81225">
        <ele>489.7</ele>
        <time>2021-09-07T15:31:34Z</time>
      </trkpt>
      <trkpt lat="46.66916" lon="5.81232">
        <ele>490.1</ele>
        <time>2021-09-07T15:31:41Z</time>
      </trkpt>
      <trkpt lat="46.66914" lon="5.81238">
        <ele>490.7</ele>
        <time>2021-09-07T15:31:45Z</time>
      </trkpt>
      <trkpt lat="46.66909" lon="5.81244">
        <ele>491.8</ele>
        <time>2021-09-07T15:31:48Z</time>
      </trkpt>
      <trkpt lat="46.66904" lon="5.81248">
        <ele>493.1</ele>
        <time>2021-09-07T15:31:51Z</time>
      </trkpt>
      <trkpt lat="46.669" lon="5.81253">
        <ele>494.3</ele>
        <time>2021-09-07T15:31:54Z</time>
      </trkpt>
      <trkpt lat="46.66902" lon="5.81258">
        <ele>496.6</ele>
        <time>2021-09-07T15:32:07Z</time>
      </trkpt>
      <trkpt lat="46.66896" lon="5.8126">
        <ele>496.3</ele>
        <time>2021-09-07T15:32:39Z</time>
      </trkpt>
      <trkpt lat="46.66892" lon="5.81259">
        <ele>497.1</ele>
        <time>2021-09-07T15:32:43Z</time>
      </trkpt>
      <trkpt lat="46.66894" lon="5.81252">
        <ele>497.1</ele>
        <time>2021-09-07T15:32:46Z</time>
      </trkpt>
      <trkpt lat="46.66897" lon="5.81247">
        <ele>496.9</ele>
        <time>2021-09-07T15:32:49Z</time>
      </trkpt>
      <trkpt lat="46.66902" lon="5.81247">
        <ele>495.9</ele>
        <time>2021-09-07T15:32:53Z</time>
      </trkpt>
      <trkpt lat="46.66907" lon="5.81246">
        <ele>494.9</ele>
        <time>2021-09-07T15:32:56Z</time>
      </trkpt>
      <trkpt lat="46.66912" lon="5.81244">
        <ele>494.2</ele>
        <time>2021-09-07T15:32:59Z</time>
      </trkpt>
      <trkpt lat="46.66909" lon="5.81238">
        <ele>494.1</ele>
        <time>2021-09-07T15:33:27Z</time>
      </trkpt>
      <trkpt lat="46.66905" lon="5.81238">
        <ele>495.1</ele>
        <time>2021-09-07T15:33:30Z</time>
      </trkpt>
      <trkpt lat="46.669" lon="5.81239">
        <ele>497.6</ele>
        <time>2021-09-07T15:33:44Z</time>
      </trkpt>
      <trkpt lat="46.66898" lon="5.81244">
        <ele>497.5</ele>
        <time>2021-09-07T15:34:12Z</time>
      </trkpt>
      <trkpt lat="46.66901" lon="5.81249">
        <ele>496.7</ele>
        <time>2021-09-07T15:34:20Z</time>
      </trkpt>
      <trkpt lat="46.66903" lon="5.81242">
        <ele>497.4</ele>
        <time>2021-09-07T15:35:06Z</time>
      </trkpt>
      <trkpt lat="46.669" lon="5.8125">
        <ele>496.8</ele>
        <time>2021-09-07T15:35:34Z</time>
      </trkpt>
      <trkpt lat="46.66897" lon="5.81256">
        <ele>495.8</ele>
        <time>2021-09-07T15:35:39Z</time>
      </trkpt>
      <trkpt lat="46.66896" lon="5.8125">
        <ele>494.6</ele>
        <time>2021-09-07T15:36:02Z</time>
      </trkpt>
      <trkpt lat="46.66902" lon="5.8125">
        <ele>492</ele>
        <time>2021-09-07T15:36:35Z</time>
      </trkpt>
      <trkpt lat="46.66908" lon="5.81252">
        <ele>492.1</ele>
        <time>2021-09-07T15:36:38Z</time>
      </trkpt>
      <trkpt lat="46.66911" lon="5.81255">
        <ele>491.8</ele>
        <time>2021-09-07T15:37:08Z</time>
      </trkpt>
      <trkpt lat="46.66907" lon="5.81258">
        <ele>492.5</ele>
        <time>2021-09-07T15:37:26Z</time>
      </trkpt>
      <trkpt lat="46.66911" lon="5.81255">
        <ele>494.7</ele>
        <time>2021-09-07T15:38:02Z</time>
      </trkpt>
      <trkpt lat="46.66917" lon="5.81257">
        <ele>495.5</ele>
        <time>2021-09-07T15:38:07Z</time>
      </trkpt>
      <trkpt lat="46.66919" lon="5.81251">
        <ele>497.1</ele>
        <time>2021-09-07T15:38:17Z</time>
      </trkpt>
      <trkpt lat="46.66921" lon="5.81245">
        <ele>498</ele>
        <time>2021-09-07T15:38:23Z</time>
      </trkpt>
      <trkpt lat="46.66923" lon="5.81239">
        <ele>498.4</ele>
        <time>2021-09-07T15:38:29Z</time>
      </trkpt>
      <trkpt lat="46.66925" lon="5.81232">
        <ele>498.3</ele>
        <time>2021-09-07T15:38:37Z</time>
      </trkpt>
      <trkpt lat="46.66928" lon="5.81226">
        <ele>498.6</ele>
        <time>2021-09-07T15:38:42Z</time>
      </trkpt>
      <trkpt lat="46.66932" lon="5.81222">
        <ele>499.9</ele>
        <time>2021-09-07T15:38:47Z</time>
      </trkpt>
      <trkpt lat="46.66936" lon="5.81216">
        <ele>501.1</ele>
        <time>2021-09-07T15:38:52Z</time>
      </trkpt>
      <trkpt lat="46.66939" lon="5.81209">
        <ele>502.2</ele>
        <time>2021-09-07T15:38:56Z</time>
      </trkpt>
      <trkpt lat="46.66942" lon="5.81204">
        <ele>503.3</ele>
        <time>2021-09-07T15:39:00Z</time>
      </trkpt>
      <trkpt lat="46.66946" lon="5.81199">
        <ele>504.3</ele>
        <time>2021-09-07T15:39:05Z</time>
      </trkpt>
      <trkpt lat="46.66949" lon="5.81194">
        <ele>505.2</ele>
        <time>2021-09-07T15:39:10Z</time>
      </trkpt>
      <trkpt lat="46.66952" lon="5.8119">
        <ele>505.6</ele>
        <time>2021-09-07T15:39:14Z</time>
      </trkpt>
      <trkpt lat="46.66956" lon="5.81185">
        <ele>505.7</ele>
        <time>2021-09-07T15:39:18Z</time>
      </trkpt>
      <trkpt lat="46.6696" lon="5.8118">
        <ele>505.5</ele>
        <time>2021-09-07T15:39:22Z</time>
      </trkpt>
      <trkpt lat="46.66963" lon="5.81174">
        <ele>505.6</ele>
        <time>2021-09-07T15:39:27Z</time>
      </trkpt>
      <trkpt lat="46.66966" lon="5.81167">
        <ele>505.7</ele>
        <time>2021-09-07T15:39:33Z</time>
      </trkpt>
      <trkpt lat="46.66969" lon="5.81162">
        <ele>505.2</ele>
        <time>2021-09-07T15:39:38Z</time>
      </trkpt>
      <trkpt lat="46.66973" lon="5.81158">
        <ele>503.7</ele>
        <time>2021-09-07T15:39:44Z</time>
      </trkpt>
      <trkpt lat="46.66977" lon="5.81155">
        <ele>502.8</ele>
        <time>2021-09-07T15:39:49Z</time>
      </trkpt>
      <trkpt lat="46.6698" lon="5.81149">
        <ele>502.3</ele>
        <time>2021-09-07T15:39:53Z</time>
      </trkpt>
      <trkpt lat="46.66984" lon="5.81143">
        <ele>501.9</ele>
        <time>2021-09-07T15:39:57Z</time>
      </trkpt>
      <trkpt lat="46.66987" lon="5.81139">
        <ele>501.7</ele>
        <time>2021-09-07T15:40:01Z</time>
      </trkpt>
      <trkpt lat="46.66989" lon="5.81131">
        <ele>502.1</ele>
        <time>2021-09-07T15:40:06Z</time>
      </trkpt>
      <trkpt lat="46.66991" lon="5.81125">
        <ele>502.5</ele>
        <time>2021-09-07T15:40:10Z</time>
      </trkpt>
      <trkpt lat="46.66993" lon="5.81119">
        <ele>502.9</ele>
        <time>2021-09-07T15:40:15Z</time>
      </trkpt>
      <trkpt lat="46.66995" lon="5.81113">
        <ele>503.6</ele>
        <time>2021-09-07T15:40:20Z</time>
      </trkpt>
      <trkpt lat="46.66998" lon="5.81106">
        <ele>504.6</ele>
        <time>2021-09-07T15:40:26Z</time>
      </trkpt>
      <trkpt lat="46.67002" lon="5.811">
        <ele>505</ele>
        <time>2021-09-07T15:40:31Z</time>
      </trkpt>
      <trkpt lat="46.67006" lon="5.81096">
        <ele>504.9</ele>
        <time>2021-09-07T15:40:35Z</time>
      </trkpt>
      <trkpt lat="46.6701" lon="5.81091">
        <ele>504.9</ele>
        <time>2021-09-07T15:40:40Z</time>
      </trkpt>
      <trkpt lat="46.67014" lon="5.81088">
        <ele>505.3</ele>
        <time>2021-09-07T15:40:44Z</time>
      </trkpt>
      <trkpt lat="46.67018" lon="5.81084">
        <ele>505.1</ele>
        <time>2021-09-07T15:40:48Z</time>
      </trkpt>
      <trkpt lat="46.67021" lon="5.81079">
        <ele>504.9</ele>
        <time>2021-09-07T15:40:52Z</time>
      </trkpt>
      <trkpt lat="46.67025" lon="5.81073">
        <ele>505</ele>
        <time>2021-09-07T15:40:57Z</time>
      </trkpt>
      <trkpt lat="46.67028" lon="5.81068">
        <ele>505.8</ele>
        <time>2021-09-07T15:41:02Z</time>
      </trkpt>
      <trkpt lat="46.67032" lon="5.81065">
        <ele>505.7</ele>
        <time>2021-09-07T15:41:07Z</time>
      </trkpt>
      <trkpt lat="46.67037" lon="5.81063">
        <ele>504.4</ele>
        <time>2021-09-07T15:41:12Z</time>
      </trkpt>
      <trkpt lat="46.67041" lon="5.81058">
        <ele>502.4</ele>
        <time>2021-09-07T15:41:18Z</time>
      </trkpt>
      <trkpt lat="46.67045" lon="5.81054">
        <ele>501.1</ele>
        <time>2021-09-07T15:41:23Z</time>
      </trkpt>
      <trkpt lat="46.67048" lon="5.81049">
        <ele>499.9</ele>
        <time>2021-09-07T15:41:27Z</time>
      </trkpt>
      <trkpt lat="46.6705" lon="5.81042">
        <ele>499</ele>
        <time>2021-09-07T15:41:31Z</time>
      </trkpt>
      <trkpt lat="46.67054" lon="5.81037">
        <ele>498.7</ele>
        <time>2021-09-07T15:41:36Z</time>
      </trkpt>
      <trkpt lat="46.67059" lon="5.81034">
        <ele>499.1</ele>
        <time>2021-09-07T15:41:41Z</time>
      </trkpt>
      <trkpt lat="46.67063" lon="5.8103">
        <ele>499.3</ele>
        <time>2021-09-07T15:41:45Z</time>
      </trkpt>
      <trkpt lat="46.67066" lon="5.81025">
        <ele>499.8</ele>
        <time>2021-09-07T15:41:49Z</time>
      </trkpt>
      <trkpt lat="46.6707" lon="5.81022">
        <ele>500.4</ele>
        <time>2021-09-07T15:41:53Z</time>
      </trkpt>
      <trkpt lat="46.67074" lon="5.81016">
        <ele>501.5</ele>
        <time>2021-09-07T15:41:58Z</time>
      </trkpt>
      <trkpt lat="46.67078" lon="5.81011">
        <ele>502.3</ele>
        <time>2021-09-07T15:42:02Z</time>
      </trkpt>
      <trkpt lat="46.67082" lon="5.81007">
        <ele>503.4</ele>
        <time>2021-09-07T15:42:06Z</time>
      </trkpt>
      <trkpt lat="46.67086" lon="5.81003">
        <ele>504.6</ele>
        <time>2021-09-07T15:42:11Z</time>
      </trkpt>
      <trkpt lat="46.67091" lon="5.81">
        <ele>505.2</ele>
        <time>2021-09-07T15:42:16Z</time>
      </trkpt>
      <trkpt lat="46.67095" lon="5.80995">
        <ele>505.3</ele>
        <time>2021-09-07T15:42:21Z</time>
      </trkpt>
      <trkpt lat="46.67098" lon="5.80991">
        <ele>505</ele>
        <time>2021-09-07T15:42:26Z</time>
      </trkpt>
      <trkpt lat="46.67103" lon="5.80986">
        <ele>504.3</ele>
        <time>2021-09-07T15:42:31Z</time>
      </trkpt>
      <trkpt lat="46.67105" lon="5.80979">
        <ele>503.4</ele>
        <time>2021-09-07T15:42:36Z</time>
      </trkpt>
      <trkpt lat="46.67109" lon="5.80973">
        <ele>502.2</ele>
        <time>2021-09-07T15:42:41Z</time>
      </trkpt>
      <trkpt lat="46.67113" lon="5.80968">
        <ele>500.9</ele>
        <time>2021-09-07T15:42:46Z</time>
      </trkpt>
      <trkpt lat="46.67116" lon="5.80962">
        <ele>500</ele>
        <time>2021-09-07T15:42:51Z</time>
      </trkpt>
      <trkpt lat="46.67119" lon="5.80957">
        <ele>499.7</ele>
        <time>2021-09-07T15:42:56Z</time>
      </trkpt>
      <trkpt lat="46.67124" lon="5.80952">
        <ele>499.6</ele>
        <time>2021-09-07T15:43:00Z</time>
      </trkpt>
      <trkpt lat="46.67127" lon="5.80947">
        <ele>499.6</ele>
        <time>2021-09-07T15:43:05Z</time>
      </trkpt>
      <trkpt lat="46.67131" lon="5.80942">
        <ele>499.6</ele>
        <time>2021-09-07T15:43:11Z</time>
      </trkpt>
      <trkpt lat="46.67135" lon="5.80936">
        <ele>499.1</ele>
        <time>2021-09-07T15:43:16Z</time>
      </trkpt>
      <trkpt lat="46.67137" lon="5.8093">
        <ele>499</ele>
        <time>2021-09-07T15:43:20Z</time>
      </trkpt>
      <trkpt lat="46.67139" lon="5.80923">
        <ele>499.3</ele>
        <time>2021-09-07T15:43:24Z</time>
      </trkpt>
      <trkpt lat="46.67142" lon="5.80916">
        <ele>499.7</ele>
        <time>2021-09-07T15:43:28Z</time>
      </trkpt>
      <trkpt lat="46.67145" lon="5.80911">
        <ele>500</ele>
        <time>2021-09-07T15:43:32Z</time>
      </trkpt>
      <trkpt lat="46.67147" lon="5.80904">
        <ele>500.1</ele>
        <time>2021-09-07T15:43:38Z</time>
      </trkpt>
      <trkpt lat="46.67148" lon="5.80897">
        <ele>499.5</ele>
        <time>2021-09-07T15:43:43Z</time>
      </trkpt>
      <trkpt lat="46.67149" lon="5.80891">
        <ele>499.3</ele>
        <time>2021-09-07T15:43:48Z</time>
      </trkpt>
      <trkpt lat="46.6715" lon="5.80883">
        <ele>499</ele>
        <time>2021-09-07T15:43:53Z</time>
      </trkpt>
      <trkpt lat="46.67151" lon="5.80876">
        <ele>498.7</ele>
        <time>2021-09-07T15:43:57Z</time>
      </trkpt>
      <trkpt lat="46.67153" lon="5.80868">
        <ele>498.4</ele>
        <time>2021-09-07T15:44:02Z</time>
      </trkpt>
      <trkpt lat="46.67154" lon="5.80861">
        <ele>498.4</ele>
        <time>2021-09-07T15:44:06Z</time>
      </trkpt>
      <trkpt lat="46.67155" lon="5.80853">
        <ele>498.5</ele>
        <time>2021-09-07T15:44:10Z</time>
      </trkpt>
      <trkpt lat="46.67155" lon="5.80846">
        <ele>499</ele>
        <time>2021-09-07T15:44:15Z</time>
      </trkpt>
      <trkpt lat="46.67156" lon="5.80839">
        <ele>499.1</ele>
        <time>2021-09-07T15:44:20Z</time>
      </trkpt>
      <trkpt lat="46.67157" lon="5.80832">
        <ele>499</ele>
        <time>2021-09-07T15:44:25Z</time>
      </trkpt>
      <trkpt lat="46.67159" lon="5.80825">
        <ele>499.1</ele>
        <time>2021-09-07T15:44:30Z</time>
      </trkpt>
      <trkpt lat="46.67161" lon="5.80817">
        <ele>499.1</ele>
        <time>2021-09-07T15:44:35Z</time>
      </trkpt>
      <trkpt lat="46.67164" lon="5.80811">
        <ele>499.1</ele>
        <time>2021-09-07T15:44:39Z</time>
      </trkpt>
      <trkpt lat="46.67165" lon="5.80805">
        <ele>499.3</ele>
        <time>2021-09-07T15:44:43Z</time>
      </trkpt>
      <trkpt lat="46.67167" lon="5.80799">
        <ele>500</ele>
        <time>2021-09-07T15:44:47Z</time>
      </trkpt>
      <trkpt lat="46.67169" lon="5.80792">
        <ele>500.6</ele>
        <time>2021-09-07T15:44:51Z</time>
      </trkpt>
      <trkpt lat="46.67171" lon="5.80786">
        <ele>501.4</ele>
        <time>2021-09-07T15:44:56Z</time>
      </trkpt>
      <trkpt lat="46.67173" lon="5.80779">
        <ele>501.8</ele>
        <time>2021-09-07T15:45:01Z</time>
      </trkpt>
      <trkpt lat="46.67174" lon="5.80772">
        <ele>501.8</ele>
        <time>2021-09-07T15:45:05Z</time>
      </trkpt>
      <trkpt lat="46.67176" lon="5.80765">
        <ele>502.3</ele>
        <time>2021-09-07T15:45:10Z</time>
      </trkpt>
      <trkpt lat="46.67179" lon="5.8076">
        <ele>502.1</ele>
        <time>2021-09-07T15:45:15Z</time>
      </trkpt>
      <trkpt lat="46.67182" lon="5.80753">
        <ele>501.1</ele>
        <time>2021-09-07T15:45:21Z</time>
      </trkpt>
      <trkpt lat="46.67184" lon="5.80747">
        <ele>500.1</ele>
        <time>2021-09-07T15:45:26Z</time>
      </trkpt>
      <trkpt lat="46.67187" lon="5.80741">
        <ele>498.6</ele>
        <time>2021-09-07T15:45:31Z</time>
      </trkpt>
      <trkpt lat="46.67189" lon="5.80734">
        <ele>497.4</ele>
        <time>2021-09-07T15:45:35Z</time>
      </trkpt>
      <trkpt lat="46.6719" lon="5.80725">
        <ele>496.5</ele>
        <time>2021-09-07T15:45:39Z</time>
      </trkpt>
      <trkpt lat="46.6719" lon="5.80718">
        <ele>496.8</ele>
        <time>2021-09-07T15:45:43Z</time>
      </trkpt>
      <trkpt lat="46.67191" lon="5.8071">
        <ele>497.4</ele>
        <time>2021-09-07T15:45:48Z</time>
      </trkpt>
      <trkpt lat="46.67193" lon="5.80702">
        <ele>498.1</ele>
        <time>2021-09-07T15:45:52Z</time>
      </trkpt>
      <trkpt lat="46.67195" lon="5.80695">
        <ele>498.3</ele>
        <time>2021-09-07T15:45:56Z</time>
      </trkpt>
      <trkpt lat="46.67196" lon="5.80687">
        <ele>498.5</ele>
        <time>2021-09-07T15:46:01Z</time>
      </trkpt>
      <trkpt lat="46.67197" lon="5.8068">
        <ele>499.4</ele>
        <time>2021-09-07T15:46:05Z</time>
      </trkpt>
      <trkpt lat="46.67198" lon="5.80672">
        <ele>500.5</ele>
        <time>2021-09-07T15:46:12Z</time>
      </trkpt>
      <trkpt lat="46.67199" lon="5.80664">
        <ele>500.5</ele>
        <time>2021-09-07T15:46:17Z</time>
      </trkpt>
      <trkpt lat="46.67201" lon="5.80658">
        <ele>499.3</ele>
        <time>2021-09-07T15:46:22Z</time>
      </trkpt>
      <trkpt lat="46.67203" lon="5.8065">
        <ele>498.7</ele>
        <time>2021-09-07T15:46:28Z</time>
      </trkpt>
      <trkpt lat="46.67204" lon="5.80644">
        <ele>498.5</ele>
        <time>2021-09-07T15:46:32Z</time>
      </trkpt>
      <trkpt lat="46.67204" lon="5.80636">
        <ele>498.2</ele>
        <time>2021-09-07T15:46:36Z</time>
      </trkpt>
      <trkpt lat="46.67206" lon="5.8063">
        <ele>497.6</ele>
        <time>2021-09-07T15:46:42Z</time>
      </trkpt>
      <trkpt lat="46.67207" lon="5.80623">
        <ele>496.7</ele>
        <time>2021-09-07T15:46:47Z</time>
      </trkpt>
      <trkpt lat="46.67208" lon="5.80616">
        <ele>496.5</ele>
        <time>2021-09-07T15:46:51Z</time>
      </trkpt>
      <trkpt lat="46.6721" lon="5.80609">
        <ele>496.4</ele>
        <time>2021-09-07T15:46:55Z</time>
      </trkpt>
      <trkpt lat="46.6721" lon="5.80603">
        <ele>496.2</ele>
        <time>2021-09-07T15:46:59Z</time>
      </trkpt>
      <trkpt lat="46.67212" lon="5.80596">
        <ele>496.4</ele>
        <time>2021-09-07T15:47:05Z</time>
      </trkpt>
      <trkpt lat="46.67214" lon="5.80589">
        <ele>496.9</ele>
        <time>2021-09-07T15:47:11Z</time>
      </trkpt>
      <trkpt lat="46.67214" lon="5.80582">
        <ele>497.2</ele>
        <time>2021-09-07T15:47:15Z</time>
      </trkpt>
      <trkpt lat="46.67215" lon="5.80574">
        <ele>497.3</ele>
        <time>2021-09-07T15:47:19Z</time>
      </trkpt>
      <trkpt lat="46.67217" lon="5.80566">
        <ele>497.3</ele>
        <time>2021-09-07T15:47:23Z</time>
      </trkpt>
      <trkpt lat="46.6722" lon="5.8056">
        <ele>497.5</ele>
        <time>2021-09-07T15:47:28Z</time>
      </trkpt>
      <trkpt lat="46.67222" lon="5.80554">
        <ele>497.7</ele>
        <time>2021-09-07T15:47:33Z</time>
      </trkpt>
      <trkpt lat="46.67222" lon="5.80546">
        <ele>497.7</ele>
        <time>2021-09-07T15:47:38Z</time>
      </trkpt>
      <trkpt lat="46.67221" lon="5.80538">
        <ele>498.1</ele>
        <time>2021-09-07T15:47:42Z</time>
      </trkpt>
      <trkpt lat="46.6722" lon="5.80532">
        <ele>498.5</ele>
        <time>2021-09-07T15:47:45Z</time>
      </trkpt>
      <trkpt lat="46.6722" lon="5.80525">
        <ele>499</ele>
        <time>2021-09-07T15:47:48Z</time>
      </trkpt>
      <trkpt lat="46.67221" lon="5.80518">
        <ele>500</ele>
        <time>2021-09-07T15:47:52Z</time>
      </trkpt>
      <trkpt lat="46.67222" lon="5.80511">
        <ele>501.1</ele>
        <time>2021-09-07T15:47:56Z</time>
      </trkpt>
      <trkpt lat="46.67224" lon="5.80505">
        <ele>502.4</ele>
        <time>2021-09-07T15:48:00Z</time>
      </trkpt>
      <trkpt lat="46.67224" lon="5.80498">
        <ele>503.1</ele>
        <time>2021-09-07T15:48:04Z</time>
      </trkpt>
      <trkpt lat="46.67224" lon="5.80491">
        <ele>503.4</ele>
        <time>2021-09-07T15:48:09Z</time>
      </trkpt>
      <trkpt lat="46.67226" lon="5.80484">
        <ele>503.2</ele>
        <time>2021-09-07T15:48:13Z</time>
      </trkpt>
      <trkpt lat="46.67227" lon="5.80477">
        <ele>502.7</ele>
        <time>2021-09-07T15:48:17Z</time>
      </trkpt>
      <trkpt lat="46.67229" lon="5.80471">
        <ele>501.9</ele>
        <time>2021-09-07T15:48:22Z</time>
      </trkpt>
      <trkpt lat="46.67231" lon="5.80465">
        <ele>500.7</ele>
        <time>2021-09-07T15:48:28Z</time>
      </trkpt>
      <trkpt lat="46.67233" lon="5.80457">
        <ele>500.2</ele>
        <time>2021-09-07T15:48:33Z</time>
      </trkpt>
      <trkpt lat="46.67235" lon="5.80451">
        <ele>500.3</ele>
        <time>2021-09-07T15:48:39Z</time>
      </trkpt>
      <trkpt lat="46.67235" lon="5.80443">
        <ele>500.7</ele>
        <time>2021-09-07T15:48:44Z</time>
      </trkpt>
      <trkpt lat="46.67235" lon="5.80435">
        <ele>501.1</ele>
        <time>2021-09-07T15:48:48Z</time>
      </trkpt>
      <trkpt lat="46.67237" lon="5.80427">
        <ele>501.6</ele>
        <time>2021-09-07T15:48:52Z</time>
      </trkpt>
      <trkpt lat="46.67238" lon="5.80419">
        <ele>501.9</ele>
        <time>2021-09-07T15:48:56Z</time>
      </trkpt>
      <trkpt lat="46.67241" lon="5.80412">
        <ele>502.1</ele>
        <time>2021-09-07T15:49:01Z</time>
      </trkpt>
      <trkpt lat="46.67243" lon="5.80406">
        <ele>502.2</ele>
        <time>2021-09-07T15:49:05Z</time>
      </trkpt>
      <trkpt lat="46.67245" lon="5.804">
        <ele>502.2</ele>
        <time>2021-09-07T15:49:09Z</time>
      </trkpt>
      <trkpt lat="46.67247" lon="5.80394">
        <ele>501.9</ele>
        <time>2021-09-07T15:49:13Z</time>
      </trkpt>
      <trkpt lat="46.67249" lon="5.80388">
        <ele>501.9</ele>
        <time>2021-09-07T15:49:17Z</time>
      </trkpt>
      <trkpt lat="46.67251" lon="5.80382">
        <ele>501.8</ele>
        <time>2021-09-07T15:49:21Z</time>
      </trkpt>
      <trkpt lat="46.67253" lon="5.80376">
        <ele>501.5</ele>
        <time>2021-09-07T15:49:25Z</time>
      </trkpt>
      <trkpt lat="46.67254" lon="5.8037">
        <ele>501.3</ele>
        <time>2021-09-07T15:49:29Z</time>
      </trkpt>
      <trkpt lat="46.67257" lon="5.80363">
        <ele>501.3</ele>
        <time>2021-09-07T15:49:33Z</time>
      </trkpt>
      <trkpt lat="46.67258" lon="5.80356">
        <ele>501.3</ele>
        <time>2021-09-07T15:49:37Z</time>
      </trkpt>
      <trkpt lat="46.6726" lon="5.80349">
        <ele>501.5</ele>
        <time>2021-09-07T15:49:42Z</time>
      </trkpt>
      <trkpt lat="46.67262" lon="5.80342">
        <ele>501.5</ele>
        <time>2021-09-07T15:49:47Z</time>
      </trkpt>
      <trkpt lat="46.67263" lon="5.80334">
        <ele>501.6</ele>
        <time>2021-09-07T15:49:53Z</time>
      </trkpt>
      <trkpt lat="46.67265" lon="5.80328">
        <ele>501.3</ele>
        <time>2021-09-07T15:49:58Z</time>
      </trkpt>
      <trkpt lat="46.67268" lon="5.80321">
        <ele>500.5</ele>
        <time>2021-09-07T15:50:03Z</time>
      </trkpt>
      <trkpt lat="46.6727" lon="5.80314">
        <ele>499.9</ele>
        <time>2021-09-07T15:50:08Z</time>
      </trkpt>
      <trkpt lat="46.67272" lon="5.80306">
        <ele>499.8</ele>
        <time>2021-09-07T15:50:13Z</time>
      </trkpt>
      <trkpt lat="46.67274" lon="5.80299">
        <ele>499.8</ele>
        <time>2021-09-07T15:50:17Z</time>
      </trkpt>
      <trkpt lat="46.67276" lon="5.80293">
        <ele>499.9</ele>
        <time>2021-09-07T15:50:21Z</time>
      </trkpt>
      <trkpt lat="46.67277" lon="5.80287">
        <ele>499.7</ele>
        <time>2021-09-07T15:50:25Z</time>
      </trkpt>
      <trkpt lat="46.67279" lon="5.80279">
        <ele>499.3</ele>
        <time>2021-09-07T15:50:29Z</time>
      </trkpt>
      <trkpt lat="46.67281" lon="5.80273">
        <ele>499</ele>
        <time>2021-09-07T15:50:33Z</time>
      </trkpt>
      <trkpt lat="46.67284" lon="5.80267">
        <ele>498.7</ele>
        <time>2021-09-07T15:50:37Z</time>
      </trkpt>
      <trkpt lat="46.67286" lon="5.80261">
        <ele>498.6</ele>
        <time>2021-09-07T15:50:41Z</time>
      </trkpt>
      <trkpt lat="46.67288" lon="5.80255">
        <ele>498.6</ele>
        <time>2021-09-07T15:50:47Z</time>
      </trkpt>
      <trkpt lat="46.67289" lon="5.80247">
        <ele>498.9</ele>
        <time>2021-09-07T15:50:52Z</time>
      </trkpt>
      <trkpt lat="46.6729" lon="5.8024">
        <ele>499.6</ele>
        <time>2021-09-07T15:50:56Z</time>
      </trkpt>
      <trkpt lat="46.67291" lon="5.80232">
        <ele>500.5</ele>
        <time>2021-09-07T15:51:00Z</time>
      </trkpt>
      <trkpt lat="46.67291" lon="5.80224">
        <ele>501.4</ele>
        <time>2021-09-07T15:51:04Z</time>
      </trkpt>
      <trkpt lat="46.67292" lon="5.80216">
        <ele>502.2</ele>
        <time>2021-09-07T15:51:09Z</time>
      </trkpt>
      <trkpt lat="46.67294" lon="5.80209">
        <ele>502.6</ele>
        <time>2021-09-07T15:51:13Z</time>
      </trkpt>
      <trkpt lat="46.67294" lon="5.80202">
        <ele>502.4</ele>
        <time>2021-09-07T15:51:17Z</time>
      </trkpt>
      <trkpt lat="46.67294" lon="5.80194">
        <ele>501.9</ele>
        <time>2021-09-07T15:51:22Z</time>
      </trkpt>
      <trkpt lat="46.67296" lon="5.80187">
        <ele>501.2</ele>
        <time>2021-09-07T15:51:26Z</time>
      </trkpt>
      <trkpt lat="46.67297" lon="5.8018">
        <ele>500.5</ele>
        <time>2021-09-07T15:51:30Z</time>
      </trkpt>
      <trkpt lat="46.67299" lon="5.80173">
        <ele>499.9</ele>
        <time>2021-09-07T15:51:35Z</time>
      </trkpt>
      <trkpt lat="46.67302" lon="5.80166">
        <ele>499.8</ele>
        <time>2021-09-07T15:51:40Z</time>
      </trkpt>
      <trkpt lat="46.67304" lon="5.8016">
        <ele>499.5</ele>
        <time>2021-09-07T15:51:45Z</time>
      </trkpt>
      <trkpt lat="46.67305" lon="5.80153">
        <ele>498.9</ele>
        <time>2021-09-07T15:51:50Z</time>
      </trkpt>
      <trkpt lat="46.67306" lon="5.80146">
        <ele>498.5</ele>
        <time>2021-09-07T15:51:54Z</time>
      </trkpt>
      <trkpt lat="46.67308" lon="5.80139">
        <ele>498.1</ele>
        <time>2021-09-07T15:51:57Z</time>
      </trkpt>
      <trkpt lat="46.67309" lon="5.80133">
        <ele>497.8</ele>
        <time>2021-09-07T15:52:00Z</time>
      </trkpt>
      <trkpt lat="46.6731" lon="5.80125">
        <ele>497.4</ele>
        <time>2021-09-07T15:52:05Z</time>
      </trkpt>
      <trkpt lat="46.67312" lon="5.80119">
        <ele>497</ele>
        <time>2021-09-07T15:52:10Z</time>
      </trkpt>
      <trkpt lat="46.67315" lon="5.80112">
        <ele>496.2</ele>
        <time>2021-09-07T15:52:15Z</time>
      </trkpt>
      <trkpt lat="46.67315" lon="5.80105">
        <ele>494.9</ele>
        <time>2021-09-07T15:52:21Z</time>
      </trkpt>
      <trkpt lat="46.67316" lon="5.80097">
        <ele>494.1</ele>
        <time>2021-09-07T15:52:27Z</time>
      </trkpt>
      <trkpt lat="46.67316" lon="5.80091">
        <ele>493.7</ele>
        <time>2021-09-07T15:52:33Z</time>
      </trkpt>
      <trkpt lat="46.67318" lon="5.80084">
        <ele>493.4</ele>
        <time>2021-09-07T15:52:41Z</time>
      </trkpt>
      <trkpt lat="46.67319" lon="5.80077">
        <ele>492.3</ele>
        <time>2021-09-07T15:52:47Z</time>
      </trkpt>
      <trkpt lat="46.6732" lon="5.80069">
        <ele>491.7</ele>
        <time>2021-09-07T15:52:51Z</time>
      </trkpt>
      <trkpt lat="46.6732" lon="5.80062">
        <ele>491.6</ele>
        <time>2021-09-07T15:52:54Z</time>
      </trkpt>
      <trkpt lat="46.6732" lon="5.80053">
        <ele>491.6</ele>
        <time>2021-09-07T15:52:57Z</time>
      </trkpt>
      <trkpt lat="46.6732" lon="5.80046">
        <ele>491.6</ele>
        <time>2021-09-07T15:53:00Z</time>
      </trkpt>
      <trkpt lat="46.6732" lon="5.80039">
        <ele>491.3</ele>
        <time>2021-09-07T15:53:04Z</time>
      </trkpt>
      <trkpt lat="46.67319" lon="5.80032">
        <ele>490.9</ele>
        <time>2021-09-07T15:53:08Z</time>
      </trkpt>
      <trkpt lat="46.6732" lon="5.80024">
        <ele>490.5</ele>
        <time>2021-09-07T15:53:12Z</time>
      </trkpt>
      <trkpt lat="46.67321" lon="5.80017">
        <ele>490.1</ele>
        <time>2021-09-07T15:53:17Z</time>
      </trkpt>
      <trkpt lat="46.67319" lon="5.8001">
        <ele>490.1</ele>
        <time>2021-09-07T15:53:22Z</time>
      </trkpt>
      <trkpt lat="46.67319" lon="5.80003">
        <ele>490.1</ele>
        <time>2021-09-07T15:53:26Z</time>
      </trkpt>
      <trkpt lat="46.67319" lon="5.79996">
        <ele>490</ele>
        <time>2021-09-07T15:53:30Z</time>
      </trkpt>
      <trkpt lat="46.6732" lon="5.79989">
        <ele>489.4</ele>
        <time>2021-09-07T15:53:36Z</time>
      </trkpt>
      <trkpt lat="46.67321" lon="5.79982">
        <ele>489.2</ele>
        <time>2021-09-07T15:53:40Z</time>
      </trkpt>
      <trkpt lat="46.67321" lon="5.79975">
        <ele>489.1</ele>
        <time>2021-09-07T15:53:44Z</time>
      </trkpt>
      <trkpt lat="46.6732" lon="5.79966">
        <ele>489.6</ele>
        <time>2021-09-07T15:53:48Z</time>
      </trkpt>
      <trkpt lat="46.67321" lon="5.79959">
        <ele>490.4</ele>
        <time>2021-09-07T15:53:52Z</time>
      </trkpt>
      <trkpt lat="46.67322" lon="5.79952">
        <ele>490.7</ele>
        <time>2021-09-07T15:53:57Z</time>
      </trkpt>
      <trkpt lat="46.67321" lon="5.79944">
        <ele>491.1</ele>
        <time>2021-09-07T15:54:02Z</time>
      </trkpt>
      <trkpt lat="46.6732" lon="5.79937">
        <ele>491.3</ele>
        <time>2021-09-07T15:54:07Z</time>
      </trkpt>
      <trkpt lat="46.67324" lon="5.79931">
        <ele>491.2</ele>
        <time>2021-09-07T15:54:11Z</time>
      </trkpt>
      <trkpt lat="46.67321" lon="5.79924">
        <ele>498.2</ele>
        <time>2021-09-07T15:54:36Z</time>
      </trkpt>
      <trkpt lat="46.67321" lon="5.79917">
        <ele>499.5</ele>
        <time>2021-09-07T15:54:42Z</time>
      </trkpt>
      <trkpt lat="46.6732" lon="5.7991">
        <ele>500.3</ele>
        <time>2021-09-07T15:54:48Z</time>
      </trkpt>
      <trkpt lat="46.67317" lon="5.79904">
        <ele>501</ele>
        <time>2021-09-07T15:54:52Z</time>
      </trkpt>
      <trkpt lat="46.67319" lon="5.79896">
        <ele>501.6</ele>
        <time>2021-09-07T15:54:56Z</time>
      </trkpt>
      <trkpt lat="46.6732" lon="5.79888">
        <ele>502.3</ele>
        <time>2021-09-07T15:55:00Z</time>
      </trkpt>
      <trkpt lat="46.67321" lon="5.79881">
        <ele>502.4</ele>
        <time>2021-09-07T15:55:05Z</time>
      </trkpt>
      <trkpt lat="46.67321" lon="5.79873">
        <ele>501.9</ele>
        <time>2021-09-07T15:55:10Z</time>
      </trkpt>
      <trkpt lat="46.6732" lon="5.79867">
        <ele>501.7</ele>
        <time>2021-09-07T15:55:13Z</time>
      </trkpt>
      <trkpt lat="46.67319" lon="5.79859">
        <ele>501.7</ele>
        <time>2021-09-07T15:55:16Z</time>
      </trkpt>
      <trkpt lat="46.67318" lon="5.79852">
        <ele>501.6</ele>
        <time>2021-09-07T15:55:20Z</time>
      </trkpt>
      <trkpt lat="46.67317" lon="5.79845">
        <ele>500.7</ele>
        <time>2021-09-07T15:55:25Z</time>
      </trkpt>
      <trkpt lat="46.67316" lon="5.79837">
        <ele>499.2</ele>
        <time>2021-09-07T15:55:30Z</time>
      </trkpt>
      <trkpt lat="46.67317" lon="5.79831">
        <ele>498.3</ele>
        <time>2021-09-07T15:55:34Z</time>
      </trkpt>
      <trkpt lat="46.67319" lon="5.79824">
        <ele>497</ele>
        <time>2021-09-07T15:55:40Z</time>
      </trkpt>
      <trkpt lat="46.67322" lon="5.79818">
        <ele>496.3</ele>
        <time>2021-09-07T15:55:45Z</time>
      </trkpt>
      <trkpt lat="46.67323" lon="5.79811">
        <ele>495.6</ele>
        <time>2021-09-07T15:55:52Z</time>
      </trkpt>
      <trkpt lat="46.67323" lon="5.79804">
        <ele>494.8</ele>
        <time>2021-09-07T15:55:57Z</time>
      </trkpt>
      <trkpt lat="46.67325" lon="5.79797">
        <ele>493.7</ele>
        <time>2021-09-07T15:56:01Z</time>
      </trkpt>
      <trkpt lat="46.67324" lon="5.7979">
        <ele>493.1</ele>
        <time>2021-09-07T15:56:05Z</time>
      </trkpt>
      <trkpt lat="46.67325" lon="5.79783">
        <ele>493</ele>
        <time>2021-09-07T15:56:09Z</time>
      </trkpt>
      <trkpt lat="46.67325" lon="5.79776">
        <ele>493.3</ele>
        <time>2021-09-07T15:56:14Z</time>
      </trkpt>
      <trkpt lat="46.67325" lon="5.79768">
        <ele>492.7</ele>
        <time>2021-09-07T15:56:24Z</time>
      </trkpt>
      <trkpt lat="46.67325" lon="5.79761">
        <ele>492.2</ele>
        <time>2021-09-07T15:56:29Z</time>
      </trkpt>
      <trkpt lat="46.67325" lon="5.79753">
        <ele>491.7</ele>
        <time>2021-09-07T15:56:34Z</time>
      </trkpt>
      <trkpt lat="46.67325" lon="5.79744">
        <ele>491.3</ele>
        <time>2021-09-07T15:56:38Z</time>
      </trkpt>
      <trkpt lat="46.67325" lon="5.79737">
        <ele>491.2</ele>
        <time>2021-09-07T15:56:41Z</time>
      </trkpt>
      <trkpt lat="46.67326" lon="5.7973">
        <ele>491.5</ele>
        <time>2021-09-07T15:56:45Z</time>
      </trkpt>
      <trkpt lat="46.67327" lon="5.79723">
        <ele>492.2</ele>
        <time>2021-09-07T15:56:49Z</time>
      </trkpt>
      <trkpt lat="46.67328" lon="5.79716">
        <ele>493.3</ele>
        <time>2021-09-07T15:56:53Z</time>
      </trkpt>
      <trkpt lat="46.67328" lon="5.79708">
        <ele>494.5</ele>
        <time>2021-09-07T15:56:59Z</time>
      </trkpt>
      <trkpt lat="46.67329" lon="5.79701">
        <ele>495.3</ele>
        <time>2021-09-07T15:57:04Z</time>
      </trkpt>
      <trkpt lat="46.67328" lon="5.79693">
        <ele>496</ele>
        <time>2021-09-07T15:57:08Z</time>
      </trkpt>
      <trkpt lat="46.67326" lon="5.79685">
        <ele>496.4</ele>
        <time>2021-09-07T15:57:11Z</time>
      </trkpt>
      <trkpt lat="46.67325" lon="5.79678">
        <ele>497</ele>
        <time>2021-09-07T15:57:14Z</time>
      </trkpt>
      <trkpt lat="46.67325" lon="5.79671">
        <ele>497.5</ele>
        <time>2021-09-07T15:57:18Z</time>
      </trkpt>
      <trkpt lat="46.67325" lon="5.79664">
        <ele>498.1</ele>
        <time>2021-09-07T15:57:23Z</time>
      </trkpt>
      <trkpt lat="46.67325" lon="5.79657">
        <ele>498.6</ele>
        <time>2021-09-07T15:57:28Z</time>
      </trkpt>
      <trkpt lat="46.67325" lon="5.79649">
        <ele>498.7</ele>
        <time>2021-09-07T15:57:33Z</time>
      </trkpt>
      <trkpt lat="46.67324" lon="5.79641">
        <ele>498.6</ele>
        <time>2021-09-07T15:57:38Z</time>
      </trkpt>
      <trkpt lat="46.67322" lon="5.79635">
        <ele>498.9</ele>
        <time>2021-09-07T15:57:42Z</time>
      </trkpt>
      <trkpt lat="46.67323" lon="5.79628">
        <ele>498.8</ele>
        <time>2021-09-07T15:57:47Z</time>
      </trkpt>
      <trkpt lat="46.67323" lon="5.79621">
        <ele>499</ele>
        <time>2021-09-07T15:57:51Z</time>
      </trkpt>
      <trkpt lat="46.67324" lon="5.79613">
        <ele>499.1</ele>
        <time>2021-09-07T15:57:55Z</time>
      </trkpt>
      <trkpt lat="46.67324" lon="5.79606">
        <ele>499.2</ele>
        <time>2021-09-07T15:57:58Z</time>
      </trkpt>
      <trkpt lat="46.67323" lon="5.79599">
        <ele>499.3</ele>
        <time>2021-09-07T15:58:01Z</time>
      </trkpt>
      <trkpt lat="46.67323" lon="5.79592">
        <ele>499.5</ele>
        <time>2021-09-07T15:58:05Z</time>
      </trkpt>
      <trkpt lat="46.67324" lon="5.79584">
        <ele>499.5</ele>
        <time>2021-09-07T15:58:10Z</time>
      </trkpt>
      <trkpt lat="46.67325" lon="5.79577">
        <ele>499.5</ele>
        <time>2021-09-07T15:58:15Z</time>
      </trkpt>
      <trkpt lat="46.67326" lon="5.79569">
        <ele>499.6</ele>
        <time>2021-09-07T15:58:20Z</time>
      </trkpt>
      <trkpt lat="46.67326" lon="5.79562">
        <ele>499.3</ele>
        <time>2021-09-07T15:58:25Z</time>
      </trkpt>
      <trkpt lat="46.67328" lon="5.79556">
        <ele>498.8</ele>
        <time>2021-09-07T15:58:30Z</time>
      </trkpt>
      <trkpt lat="46.67329" lon="5.79548">
        <ele>498.6</ele>
        <time>2021-09-07T15:58:34Z</time>
      </trkpt>
      <trkpt lat="46.67329" lon="5.7954">
        <ele>498.5</ele>
        <time>2021-09-07T15:58:38Z</time>
      </trkpt>
      <trkpt lat="46.67328" lon="5.79531">
        <ele>498.6</ele>
        <time>2021-09-07T15:58:42Z</time>
      </trkpt>
      <trkpt lat="46.67329" lon="5.79523">
        <ele>499.1</ele>
        <time>2021-09-07T15:58:46Z</time>
      </trkpt>
      <trkpt lat="46.6733" lon="5.79516">
        <ele>499.2</ele>
        <time>2021-09-07T15:58:50Z</time>
      </trkpt>
      <trkpt lat="46.67332" lon="5.7951">
        <ele>498.9</ele>
        <time>2021-09-07T15:58:54Z</time>
      </trkpt>
      <trkpt lat="46.67333" lon="5.79502">
        <ele>498.9</ele>
        <time>2021-09-07T15:58:59Z</time>
      </trkpt>
      <trkpt lat="46.67335" lon="5.79495">
        <ele>499.9</ele>
        <time>2021-09-07T15:59:04Z</time>
      </trkpt>
      <trkpt lat="46.67337" lon="5.79488">
        <ele>501</ele>
        <time>2021-09-07T15:59:10Z</time>
      </trkpt>
      <trkpt lat="46.6734" lon="5.79482">
        <ele>501.7</ele>
        <time>2021-09-07T15:59:14Z</time>
      </trkpt>
      <trkpt lat="46.67343" lon="5.79476">
        <ele>502.2</ele>
        <time>2021-09-07T15:59:18Z</time>
      </trkpt>
      <trkpt lat="46.67346" lon="5.7947">
        <ele>502.2</ele>
        <time>2021-09-07T15:59:23Z</time>
      </trkpt>
      <trkpt lat="46.67349" lon="5.79464">
        <ele>501.9</ele>
        <time>2021-09-07T15:59:28Z</time>
      </trkpt>
      <trkpt lat="46.67352" lon="5.79459">
        <ele>501.8</ele>
        <time>2021-09-07T15:59:32Z</time>
      </trkpt>
      <trkpt lat="46.67356" lon="5.79454">
        <ele>501.7</ele>
        <time>2021-09-07T15:59:36Z</time>
      </trkpt>
      <trkpt lat="46.67359" lon="5.79448">
        <ele>501.1</ele>
        <time>2021-09-07T15:59:41Z</time>
      </trkpt>
      <trkpt lat="46.67364" lon="5.79446">
        <ele>500.2</ele>
        <time>2021-09-07T15:59:46Z</time>
      </trkpt>
      <trkpt lat="46.67367" lon="5.79441">
        <ele>499.3</ele>
        <time>2021-09-07T15:59:51Z</time>
      </trkpt>
      <trkpt lat="46.67371" lon="5.79436">
        <ele>498.7</ele>
        <time>2021-09-07T15:59:55Z</time>
      </trkpt>
      <trkpt lat="46.67375" lon="5.7943">
        <ele>498.1</ele>
        <time>2021-09-07T16:00:00Z</time>
      </trkpt>
      <trkpt lat="46.67378" lon="5.79424">
        <ele>497.7</ele>
        <time>2021-09-07T16:00:05Z</time>
      </trkpt>
      <trkpt lat="46.67381" lon="5.79419">
        <ele>497.7</ele>
        <time>2021-09-07T16:00:10Z</time>
      </trkpt>
      <trkpt lat="46.67384" lon="5.79413">
        <ele>498.1</ele>
        <time>2021-09-07T16:00:14Z</time>
      </trkpt>
      <trkpt lat="46.67387" lon="5.79407">
        <ele>498.8</ele>
        <time>2021-09-07T16:00:18Z</time>
      </trkpt>
      <trkpt lat="46.67389" lon="5.79401">
        <ele>499.5</ele>
        <time>2021-09-07T16:00:22Z</time>
      </trkpt>
      <trkpt lat="46.67391" lon="5.79394">
        <ele>500.1</ele>
        <time>2021-09-07T16:00:26Z</time>
      </trkpt>
      <trkpt lat="46.67394" lon="5.79388">
        <ele>500</ele>
        <time>2021-09-07T16:00:31Z</time>
      </trkpt>
      <trkpt lat="46.67398" lon="5.79383">
        <ele>499.5</ele>
        <time>2021-09-07T16:00:36Z</time>
      </trkpt>
      <trkpt lat="46.67401" lon="5.79378">
        <ele>498.8</ele>
        <time>2021-09-07T16:00:40Z</time>
      </trkpt>
      <trkpt lat="46.67404" lon="5.79373">
        <ele>498.4</ele>
        <time>2021-09-07T16:00:44Z</time>
      </trkpt>
      <trkpt lat="46.67408" lon="5.79368">
        <ele>498.5</ele>
        <time>2021-09-07T16:00:48Z</time>
      </trkpt>
      <trkpt lat="46.6741" lon="5.79361">
        <ele>498.8</ele>
        <time>2021-09-07T16:00:53Z</time>
      </trkpt>
      <trkpt lat="46.67412" lon="5.79355">
        <ele>499.1</ele>
        <time>2021-09-07T16:00:57Z</time>
      </trkpt>
      <trkpt lat="46.67413" lon="5.79347">
        <ele>499.5</ele>
        <time>2021-09-07T16:01:02Z</time>
      </trkpt>
      <trkpt lat="46.67416" lon="5.7934">
        <ele>500.6</ele>
        <time>2021-09-07T16:01:07Z</time>
      </trkpt>
      <trkpt lat="46.67418" lon="5.79333">
        <ele>501.5</ele>
        <time>2021-09-07T16:01:11Z</time>
      </trkpt>
      <trkpt lat="46.67421" lon="5.79326">
        <ele>502.3</ele>
        <time>2021-09-07T16:01:15Z</time>
      </trkpt>
      <trkpt lat="46.67424" lon="5.7932">
        <ele>502.7</ele>
        <time>2021-09-07T16:01:20Z</time>
      </trkpt>
      <trkpt lat="46.67425" lon="5.79314">
        <ele>502.5</ele>
        <time>2021-09-07T16:01:27Z</time>
      </trkpt>
      <trkpt lat="46.67427" lon="5.79306">
        <ele>502.1</ele>
        <time>2021-09-07T16:01:32Z</time>
      </trkpt>
      <trkpt lat="46.67429" lon="5.793">
        <ele>502</ele>
        <time>2021-09-07T16:01:36Z</time>
      </trkpt>
      <trkpt lat="46.6743" lon="5.79293">
        <ele>502.1</ele>
        <time>2021-09-07T16:01:41Z</time>
      </trkpt>
      <trkpt lat="46.67433" lon="5.79287">
        <ele>502.2</ele>
        <time>2021-09-07T16:01:45Z</time>
      </trkpt>
      <trkpt lat="46.67433" lon="5.79279">
        <ele>502</ele>
        <time>2021-09-07T16:01:51Z</time>
      </trkpt>
      <trkpt lat="46.67434" lon="5.79272">
        <ele>501.8</ele>
        <time>2021-09-07T16:01:56Z</time>
      </trkpt>
      <trkpt lat="46.67437" lon="5.79265">
        <ele>501.7</ele>
        <time>2021-09-07T16:02:00Z</time>
      </trkpt>
      <trkpt lat="46.6744" lon="5.7926">
        <ele>501.7</ele>
        <time>2021-09-07T16:02:04Z</time>
      </trkpt>
      <trkpt lat="46.67443" lon="5.79254">
        <ele>501.8</ele>
        <time>2021-09-07T16:02:09Z</time>
      </trkpt>
      <trkpt lat="46.67443" lon="5.79246">
        <ele>501.5</ele>
        <time>2021-09-07T16:02:15Z</time>
      </trkpt>
      <trkpt lat="46.67446" lon="5.7924">
        <ele>500.8</ele>
        <time>2021-09-07T16:02:21Z</time>
      </trkpt>
      <trkpt lat="46.67448" lon="5.79233">
        <ele>500.5</ele>
        <time>2021-09-07T16:02:25Z</time>
      </trkpt>
      <trkpt lat="46.67449" lon="5.79226">
        <ele>500.4</ele>
        <time>2021-09-07T16:02:29Z</time>
      </trkpt>
      <trkpt lat="46.67452" lon="5.79219">
        <ele>500.1</ele>
        <time>2021-09-07T16:02:33Z</time>
      </trkpt>
      <trkpt lat="46.67454" lon="5.79213">
        <ele>500.2</ele>
        <time>2021-09-07T16:02:36Z</time>
      </trkpt>
      <trkpt lat="46.67456" lon="5.79206">
        <ele>500.5</ele>
        <time>2021-09-07T16:02:40Z</time>
      </trkpt>
      <trkpt lat="46.67459" lon="5.79199">
        <ele>500.3</ele>
        <time>2021-09-07T16:02:45Z</time>
      </trkpt>
      <trkpt lat="46.67463" lon="5.79199">
        <ele>499.9</ele>
        <time>2021-09-07T16:02:59Z</time>
      </trkpt>
      <trkpt lat="46.67466" lon="5.79204">
        <ele>499.5</ele>
        <time>2021-09-07T16:03:04Z</time>
      </trkpt>
      <trkpt lat="46.67469" lon="5.79209">
        <ele>499.2</ele>
        <time>2021-09-07T16:03:09Z</time>
      </trkpt>
      <trkpt lat="46.67474" lon="5.7921">
        <ele>498.7</ele>
        <time>2021-09-07T16:03:16Z</time>
      </trkpt>
      <trkpt lat="46.67479" lon="5.79209">
        <ele>498.3</ele>
        <time>2021-09-07T16:03:21Z</time>
      </trkpt>
      <trkpt lat="46.67481" lon="5.79202">
        <ele>498.1</ele>
        <time>2021-09-07T16:03:32Z</time>
      </trkpt>
      <trkpt lat="46.67483" lon="5.79195">
        <ele>498.4</ele>
        <time>2021-09-07T16:03:38Z</time>
      </trkpt>
      <trkpt lat="46.67488" lon="5.79191">
        <ele>498.3</ele>
        <time>2021-09-07T16:03:43Z</time>
      </trkpt>
      <trkpt lat="46.67491" lon="5.79185">
        <ele>497.6</ele>
        <time>2021-09-07T16:03:49Z</time>
      </trkpt>
      <trkpt lat="46.67492" lon="5.79178">
        <ele>497</ele>
        <time>2021-09-07T16:03:55Z</time>
      </trkpt>
      <trkpt lat="46.67494" lon="5.79172">
        <ele>496.8</ele>
        <time>2021-09-07T16:03:59Z</time>
      </trkpt>
      <trkpt lat="46.67495" lon="5.79165">
        <ele>496.6</ele>
        <time>2021-09-07T16:04:04Z</time>
      </trkpt>
      <trkpt lat="46.67496" lon="5.79157">
        <ele>496.3</ele>
        <time>2021-09-07T16:04:09Z</time>
      </trkpt>
      <trkpt lat="46.67497" lon="5.79149">
        <ele>496.5</ele>
        <time>2021-09-07T16:04:13Z</time>
      </trkpt>
      <trkpt lat="46.67499" lon="5.79141">
        <ele>496.7</ele>
        <time>2021-09-07T16:04:17Z</time>
      </trkpt>
      <trkpt lat="46.67501" lon="5.79134">
        <ele>496.8</ele>
        <time>2021-09-07T16:04:21Z</time>
      </trkpt>
      <trkpt lat="46.67503" lon="5.79127">
        <ele>497</ele>
        <time>2021-09-07T16:04:26Z</time>
      </trkpt>
      <trkpt lat="46.67505" lon="5.7912">
        <ele>497</ele>
        <time>2021-09-07T16:04:30Z</time>
      </trkpt>
      <trkpt lat="46.67508" lon="5.79115">
        <ele>496.9</ele>
        <time>2021-09-07T16:04:34Z</time>
      </trkpt>
      <trkpt lat="46.67511" lon="5.79109">
        <ele>496.4</ele>
        <time>2021-09-07T16:04:40Z</time>
      </trkpt>
      <trkpt lat="46.67513" lon="5.79102">
        <ele>496.1</ele>
        <time>2021-09-07T16:04:46Z</time>
      </trkpt>
      <trkpt lat="46.67515" lon="5.79095">
        <ele>496.3</ele>
        <time>2021-09-07T16:04:51Z</time>
      </trkpt>
      <trkpt lat="46.67516" lon="5.79087">
        <ele>496.7</ele>
        <time>2021-09-07T16:04:56Z</time>
      </trkpt>
      <trkpt lat="46.67519" lon="5.79079">
        <ele>496.9</ele>
        <time>2021-09-07T16:05:00Z</time>
      </trkpt>
      <trkpt lat="46.67521" lon="5.79073">
        <ele>496.8</ele>
        <time>2021-09-07T16:05:03Z</time>
      </trkpt>
      <trkpt lat="46.67524" lon="5.79067">
        <ele>496.9</ele>
        <time>2021-09-07T16:05:07Z</time>
      </trkpt>
      <trkpt lat="46.67527" lon="5.79062">
        <ele>497.1</ele>
        <time>2021-09-07T16:05:12Z</time>
      </trkpt>
      <trkpt lat="46.6753" lon="5.79056">
        <ele>497.2</ele>
        <time>2021-09-07T16:05:17Z</time>
      </trkpt>
      <trkpt lat="46.67534" lon="5.7905">
        <ele>497.3</ele>
        <time>2021-09-07T16:05:22Z</time>
      </trkpt>
      <trkpt lat="46.67538" lon="5.79048">
        <ele>497.3</ele>
        <time>2021-09-07T16:05:26Z</time>
      </trkpt>
      <trkpt lat="46.67543" lon="5.79048">
        <ele>497</ele>
        <time>2021-09-07T16:05:31Z</time>
      </trkpt>
      <trkpt lat="46.67548" lon="5.79049">
        <ele>497</ele>
        <time>2021-09-07T16:05:36Z</time>
      </trkpt>
      <trkpt lat="46.67552" lon="5.79052">
        <ele>496.2</ele>
        <time>2021-09-07T16:05:46Z</time>
      </trkpt>
      <trkpt lat="46.67557" lon="5.79054">
        <ele>497.1</ele>
        <time>2021-09-07T16:05:52Z</time>
      </trkpt>
      <trkpt lat="46.67561" lon="5.79058">
        <ele>498.7</ele>
        <time>2021-09-07T16:05:59Z</time>
      </trkpt>
      <trkpt lat="46.67565" lon="5.79061">
        <ele>500.5</ele>
        <time>2021-09-07T16:06:10Z</time>
      </trkpt>
      <trkpt lat="46.6757" lon="5.79063">
        <ele>501.3</ele>
        <time>2021-09-07T16:06:16Z</time>
      </trkpt>
      <trkpt lat="46.67574" lon="5.79062">
        <ele>503.3</ele>
        <time>2021-09-07T16:06:27Z</time>
      </trkpt>
      <trkpt lat="46.67579" lon="5.79064">
        <ele>504</ele>
        <time>2021-09-07T16:06:32Z</time>
      </trkpt>
      <trkpt lat="46.67583" lon="5.79069">
        <ele>510.3</ele>
        <time>2021-09-07T16:07:02Z</time>
      </trkpt>
      <trkpt lat="46.67588" lon="5.7907">
        <ele>510.8</ele>
        <time>2021-09-07T16:07:07Z</time>
      </trkpt>
      <trkpt lat="46.67592" lon="5.79073">
        <ele>511.1</ele>
        <time>2021-09-07T16:07:14Z</time>
      </trkpt>
      <trkpt lat="46.67594" lon="5.79066">
        <ele>510.4</ele>
        <time>2021-09-07T16:07:33Z</time>
      </trkpt>
      <trkpt lat="46.67597" lon="5.79062">
        <ele>510.2</ele>
        <time>2021-09-07T16:07:37Z</time>
      </trkpt>
      <trkpt lat="46.676" lon="5.79057">
        <ele>510</ele>
        <time>2021-09-07T16:07:42Z</time>
      </trkpt>
      <trkpt lat="46.67605" lon="5.79052">
        <ele>510.2</ele>
        <time>2021-09-07T16:07:46Z</time>
      </trkpt>
      <trkpt lat="46.67608" lon="5.79048">
        <ele>511</ele>
        <time>2021-09-07T16:08:00Z</time>
      </trkpt>
      <trkpt lat="46.67613" lon="5.79044">
        <ele>511.2</ele>
        <time>2021-09-07T16:08:05Z</time>
      </trkpt>
      <trkpt lat="46.67617" lon="5.79039">
        <ele>511.6</ele>
        <time>2021-09-07T16:08:10Z</time>
      </trkpt>
      <trkpt lat="46.67619" lon="5.79033">
        <ele>511.9</ele>
        <time>2021-09-07T16:08:15Z</time>
      </trkpt>
      <trkpt lat="46.67622" lon="5.79026">
        <ele>511.9</ele>
        <time>2021-09-07T16:08:20Z</time>
      </trkpt>
      <trkpt lat="46.67624" lon="5.79019">
        <ele>512.2</ele>
        <time>2021-09-07T16:08:25Z</time>
      </trkpt>
      <trkpt lat="46.67625" lon="5.79012">
        <ele>512.4</ele>
        <time>2021-09-07T16:08:29Z</time>
      </trkpt>
      <trkpt lat="46.67627" lon="5.79005">
        <ele>512.6</ele>
        <time>2021-09-07T16:08:34Z</time>
      </trkpt>
      <trkpt lat="46.67631" lon="5.78999">
        <ele>512.7</ele>
        <time>2021-09-07T16:08:39Z</time>
      </trkpt>
      <trkpt lat="46.67635" lon="5.78996">
        <ele>512</ele>
        <time>2021-09-07T16:08:44Z</time>
      </trkpt>
      <trkpt lat="46.67637" lon="5.7899">
        <ele>511.5</ele>
        <time>2021-09-07T16:08:48Z</time>
      </trkpt>
      <trkpt lat="46.67639" lon="5.78982">
        <ele>510.8</ele>
        <time>2021-09-07T16:08:52Z</time>
      </trkpt>
      <trkpt lat="46.67641" lon="5.78976">
        <ele>509.7</ele>
        <time>2021-09-07T16:08:57Z</time>
      </trkpt>
      <trkpt lat="46.67644" lon="5.7897">
        <ele>508.8</ele>
        <time>2021-09-07T16:09:02Z</time>
      </trkpt>
      <trkpt lat="46.67647" lon="5.78965">
        <ele>507.8</ele>
        <time>2021-09-07T16:09:07Z</time>
      </trkpt>
      <trkpt lat="46.6765" lon="5.78959">
        <ele>506.9</ele>
        <time>2021-09-07T16:09:12Z</time>
      </trkpt>
      <trkpt lat="46.67652" lon="5.78952">
        <ele>505.6</ele>
        <time>2021-09-07T16:09:17Z</time>
      </trkpt>
      <trkpt lat="46.67655" lon="5.78945">
        <ele>504.4</ele>
        <time>2021-09-07T16:09:22Z</time>
      </trkpt>
      <trkpt lat="46.67658" lon="5.78939">
        <ele>503.7</ele>
        <time>2021-09-07T16:09:27Z</time>
      </trkpt>
      <trkpt lat="46.6766" lon="5.78932">
        <ele>503.3</ele>
        <time>2021-09-07T16:09:31Z</time>
      </trkpt>
      <trkpt lat="46.67663" lon="5.78925">
        <ele>503.2</ele>
        <time>2021-09-07T16:09:35Z</time>
      </trkpt>
      <trkpt lat="46.67666" lon="5.7892">
        <ele>503.3</ele>
        <time>2021-09-07T16:09:39Z</time>
      </trkpt>
      <trkpt lat="46.67667" lon="5.78913">
        <ele>504.1</ele>
        <time>2021-09-07T16:09:44Z</time>
      </trkpt>
      <trkpt lat="46.67672" lon="5.78915">
        <ele>514</ele>
        <time>2021-09-07T16:10:42Z</time>
      </trkpt>
      <trkpt lat="46.67673" lon="5.78908">
        <ele>515.1</ele>
        <time>2021-09-07T16:11:53Z</time>
      </trkpt>
      <trkpt lat="46.67676" lon="5.78901">
        <ele>512.6</ele>
        <time>2021-09-07T16:11:59Z</time>
      </trkpt>
      <trkpt lat="46.67679" lon="5.78896">
        <ele>511.2</ele>
        <time>2021-09-07T16:12:04Z</time>
      </trkpt>
      <trkpt lat="46.67681" lon="5.7889">
        <ele>510.8</ele>
        <time>2021-09-07T16:12:08Z</time>
      </trkpt>
      <trkpt lat="46.67684" lon="5.78885">
        <ele>510.3</ele>
        <time>2021-09-07T16:12:12Z</time>
      </trkpt>
      <trkpt lat="46.67687" lon="5.78879">
        <ele>509.7</ele>
        <time>2021-09-07T16:12:17Z</time>
      </trkpt>
      <trkpt lat="46.6769" lon="5.78873">
        <ele>508.8</ele>
        <time>2021-09-07T16:12:22Z</time>
      </trkpt>
      <trkpt lat="46.67693" lon="5.78867">
        <ele>507.9</ele>
        <time>2021-09-07T16:12:28Z</time>
      </trkpt>
      <trkpt lat="46.67696" lon="5.78861">
        <ele>507.6</ele>
        <time>2021-09-07T16:12:33Z</time>
      </trkpt>
      <trkpt lat="46.677" lon="5.78856">
        <ele>506.9</ele>
        <time>2021-09-07T16:12:38Z</time>
      </trkpt>
      <trkpt lat="46.67702" lon="5.78849">
        <ele>506.6</ele>
        <time>2021-09-07T16:12:42Z</time>
      </trkpt>
      <trkpt lat="46.67704" lon="5.78842">
        <ele>506.7</ele>
        <time>2021-09-07T16:12:46Z</time>
      </trkpt>
      <trkpt lat="46.67704" lon="5.78835">
        <ele>506.9</ele>
        <time>2021-09-07T16:12:49Z</time>
      </trkpt>
      <trkpt lat="46.67704" lon="5.78827">
        <ele>507.4</ele>
        <time>2021-09-07T16:12:53Z</time>
      </trkpt>
      <trkpt lat="46.67706" lon="5.7882">
        <ele>507.6</ele>
        <time>2021-09-07T16:12:59Z</time>
      </trkpt>
      <trkpt lat="46.67708" lon="5.78814">
        <ele>507.6</ele>
        <time>2021-09-07T16:13:03Z</time>
      </trkpt>
      <trkpt lat="46.67709" lon="5.78807">
        <ele>508</ele>
        <time>2021-09-07T16:13:07Z</time>
      </trkpt>
      <trkpt lat="46.6771" lon="5.788">
        <ele>508.5</ele>
        <time>2021-09-07T16:13:11Z</time>
      </trkpt>
      <trkpt lat="46.67712" lon="5.78793">
        <ele>508.9</ele>
        <time>2021-09-07T16:13:15Z</time>
      </trkpt>
      <trkpt lat="46.67713" lon="5.78786">
        <ele>508.8</ele>
        <time>2021-09-07T16:13:19Z</time>
      </trkpt>
      <trkpt lat="46.67715" lon="5.78778">
        <ele>508.3</ele>
        <time>2021-09-07T16:13:23Z</time>
      </trkpt>
      <trkpt lat="46.67716" lon="5.7877">
        <ele>507.5</ele>
        <time>2021-09-07T16:13:27Z</time>
      </trkpt>
      <trkpt lat="46.67717" lon="5.78762">
        <ele>506.5</ele>
        <time>2021-09-07T16:13:31Z</time>
      </trkpt>
      <trkpt lat="46.67716" lon="5.78755">
        <ele>505.6</ele>
        <time>2021-09-07T16:13:35Z</time>
      </trkpt>
      <trkpt lat="46.67717" lon="5.78747">
        <ele>504.8</ele>
        <time>2021-09-07T16:13:39Z</time>
      </trkpt>
      <trkpt lat="46.67718" lon="5.78739">
        <ele>504.3</ele>
        <time>2021-09-07T16:13:44Z</time>
      </trkpt>
      <trkpt lat="46.67718" lon="5.78732">
        <ele>504.2</ele>
        <time>2021-09-07T16:13:48Z</time>
      </trkpt>
      <trkpt lat="46.67718" lon="5.78725">
        <ele>504.1</ele>
        <time>2021-09-07T16:13:53Z</time>
      </trkpt>
      <trkpt lat="46.67719" lon="5.78718">
        <ele>504.2</ele>
        <time>2021-09-07T16:13:59Z</time>
      </trkpt>
      <trkpt lat="46.6772" lon="5.78709">
        <ele>503.5</ele>
        <time>2021-09-07T16:14:04Z</time>
      </trkpt>
      <trkpt lat="46.67721" lon="5.78701">
        <ele>502.9</ele>
        <time>2021-09-07T16:14:08Z</time>
      </trkpt>
      <trkpt lat="46.67722" lon="5.78695">
        <ele>502.6</ele>
        <time>2021-09-07T16:14:12Z</time>
      </trkpt>
      <trkpt lat="46.67723" lon="5.78689">
        <ele>502</ele>
        <time>2021-09-07T16:14:17Z</time>
      </trkpt>
      <trkpt lat="46.67724" lon="5.78681">
        <ele>500.8</ele>
        <time>2021-09-07T16:14:23Z</time>
      </trkpt>
      <trkpt lat="46.67724" lon="5.78673">
        <ele>499.9</ele>
        <time>2021-09-07T16:14:27Z</time>
      </trkpt>
      <trkpt lat="46.67724" lon="5.78665">
        <ele>499.4</ele>
        <time>2021-09-07T16:14:31Z</time>
      </trkpt>
      <trkpt lat="46.67724" lon="5.78658">
        <ele>499</ele>
        <time>2021-09-07T16:14:35Z</time>
      </trkpt>
      <trkpt lat="46.67724" lon="5.78651">
        <ele>499.2</ele>
        <time>2021-09-07T16:14:38Z</time>
      </trkpt>
      <trkpt lat="46.67724" lon="5.78644">
        <ele>499.8</ele>
        <time>2021-09-07T16:14:41Z</time>
      </trkpt>
      <trkpt lat="46.67723" lon="5.78636">
        <ele>501</ele>
        <time>2021-09-07T16:14:45Z</time>
      </trkpt>
      <trkpt lat="46.67723" lon="5.78628">
        <ele>502.2</ele>
        <time>2021-09-07T16:14:50Z</time>
      </trkpt>
      <trkpt lat="46.67723" lon="5.78621">
        <ele>503.3</ele>
        <time>2021-09-07T16:14:55Z</time>
      </trkpt>
      <trkpt lat="46.67723" lon="5.78613">
        <ele>504</ele>
        <time>2021-09-07T16:15:00Z</time>
      </trkpt>
      <trkpt lat="46.67725" lon="5.78606">
        <ele>504.8</ele>
        <time>2021-09-07T16:15:05Z</time>
      </trkpt>
      <trkpt lat="46.67725" lon="5.78599">
        <ele>505.4</ele>
        <time>2021-09-07T16:15:11Z</time>
      </trkpt>
      <trkpt lat="46.67726" lon="5.78592">
        <ele>505.5</ele>
        <time>2021-09-07T16:15:16Z</time>
      </trkpt>
      <trkpt lat="46.67727" lon="5.78586">
        <ele>504.7</ele>
        <time>2021-09-07T16:15:22Z</time>
      </trkpt>
      <trkpt lat="46.67729" lon="5.78579">
        <ele>503.6</ele>
        <time>2021-09-07T16:15:26Z</time>
      </trkpt>
      <trkpt lat="46.67731" lon="5.78572">
        <ele>502.3</ele>
        <time>2021-09-07T16:15:31Z</time>
      </trkpt>
      <trkpt lat="46.67732" lon="5.78565">
        <ele>501.6</ele>
        <time>2021-09-07T16:15:36Z</time>
      </trkpt>
      <trkpt lat="46.67733" lon="5.78558">
        <ele>501.3</ele>
        <time>2021-09-07T16:15:40Z</time>
      </trkpt>
      <trkpt lat="46.67734" lon="5.78551">
        <ele>501.1</ele>
        <time>2021-09-07T16:15:44Z</time>
      </trkpt>
      <trkpt lat="46.67735" lon="5.78543">
        <ele>501</ele>
        <time>2021-09-07T16:15:48Z</time>
      </trkpt>
      <trkpt lat="46.67736" lon="5.78535">
        <ele>501.1</ele>
        <time>2021-09-07T16:15:52Z</time>
      </trkpt>
      <trkpt lat="46.67737" lon="5.78527">
        <ele>501.1</ele>
        <time>2021-09-07T16:15:56Z</time>
      </trkpt>
      <trkpt lat="46.67737" lon="5.78519">
        <ele>501.8</ele>
        <time>2021-09-07T16:16:00Z</time>
      </trkpt>
      <trkpt lat="46.67739" lon="5.78512">
        <ele>502.5</ele>
        <time>2021-09-07T16:16:04Z</time>
      </trkpt>
      <trkpt lat="46.6774" lon="5.78505">
        <ele>503.4</ele>
        <time>2021-09-07T16:16:08Z</time>
      </trkpt>
      <trkpt lat="46.67742" lon="5.78499">
        <ele>504.1</ele>
        <time>2021-09-07T16:16:12Z</time>
      </trkpt>
      <trkpt lat="46.67744" lon="5.78492">
        <ele>504.5</ele>
        <time>2021-09-07T16:16:16Z</time>
      </trkpt>
      <trkpt lat="46.67746" lon="5.78486">
        <ele>504.6</ele>
        <time>2021-09-07T16:16:19Z</time>
      </trkpt>
      <trkpt lat="46.67747" lon="5.78479">
        <ele>504.6</ele>
        <time>2021-09-07T16:16:23Z</time>
      </trkpt>
      <trkpt lat="46.67749" lon="5.78472">
        <ele>504.3</ele>
        <time>2021-09-07T16:16:27Z</time>
      </trkpt>
      <trkpt lat="46.67751" lon="5.78465">
        <ele>504</ele>
        <time>2021-09-07T16:16:31Z</time>
      </trkpt>
      <trkpt lat="46.67753" lon="5.78458">
        <ele>503.6</ele>
        <time>2021-09-07T16:16:35Z</time>
      </trkpt>
      <trkpt lat="46.67754" lon="5.7845">
        <ele>503.1</ele>
        <time>2021-09-07T16:16:39Z</time>
      </trkpt>
      <trkpt lat="46.67756" lon="5.78444">
        <ele>502.9</ele>
        <time>2021-09-07T16:16:43Z</time>
      </trkpt>
      <trkpt lat="46.67758" lon="5.78438">
        <ele>502.4</ele>
        <time>2021-09-07T16:16:48Z</time>
      </trkpt>
      <trkpt lat="46.67761" lon="5.78433">
        <ele>501</ele>
        <time>2021-09-07T16:16:54Z</time>
      </trkpt>
      <trkpt lat="46.67764" lon="5.78426">
        <ele>499.9</ele>
        <time>2021-09-07T16:17:00Z</time>
      </trkpt>
      <trkpt lat="46.67767" lon="5.7842">
        <ele>499.8</ele>
        <time>2021-09-07T16:17:04Z</time>
      </trkpt>
      <trkpt lat="46.6777" lon="5.78413">
        <ele>499.5</ele>
        <time>2021-09-07T16:17:08Z</time>
      </trkpt>
      <trkpt lat="46.67772" lon="5.78405">
        <ele>499.5</ele>
        <time>2021-09-07T16:17:12Z</time>
      </trkpt>
      <trkpt lat="46.67774" lon="5.78399">
        <ele>499.8</ele>
        <time>2021-09-07T16:17:16Z</time>
      </trkpt>
      <trkpt lat="46.67777" lon="5.78392">
        <ele>500.1</ele>
        <time>2021-09-07T16:17:21Z</time>
      </trkpt>
      <trkpt lat="46.67779" lon="5.78386">
        <ele>500.4</ele>
        <time>2021-09-07T16:17:25Z</time>
      </trkpt>
      <trkpt lat="46.67783" lon="5.78381">
        <ele>500.4</ele>
        <time>2021-09-07T16:17:30Z</time>
      </trkpt>
      <trkpt lat="46.67787" lon="5.78375">
        <ele>499.7</ele>
        <time>2021-09-07T16:17:35Z</time>
      </trkpt>
      <trkpt lat="46.67791" lon="5.7837">
        <ele>499.1</ele>
        <time>2021-09-07T16:17:40Z</time>
      </trkpt>
      <trkpt lat="46.67793" lon="5.78363">
        <ele>499.2</ele>
        <time>2021-09-07T16:17:45Z</time>
      </trkpt>
      <trkpt lat="46.67795" lon="5.78358">
        <ele>499.2</ele>
        <time>2021-09-07T16:17:49Z</time>
      </trkpt>
      <trkpt lat="46.67799" lon="5.78352">
        <ele>499.2</ele>
        <time>2021-09-07T16:17:53Z</time>
      </trkpt>
      <trkpt lat="46.67802" lon="5.78347">
        <ele>498.8</ele>
        <time>2021-09-07T16:17:57Z</time>
      </trkpt>
      <trkpt lat="46.67805" lon="5.78342">
        <ele>498.1</ele>
        <time>2021-09-07T16:18:01Z</time>
      </trkpt>
      <trkpt lat="46.67809" lon="5.78336">
        <ele>497.2</ele>
        <time>2021-09-07T16:18:06Z</time>
      </trkpt>
      <trkpt lat="46.67812" lon="5.78331">
        <ele>497</ele>
        <time>2021-09-07T16:18:11Z</time>
      </trkpt>
      <trkpt lat="46.67816" lon="5.78326">
        <ele>496.8</ele>
        <time>2021-09-07T16:18:15Z</time>
      </trkpt>
      <trkpt lat="46.6782" lon="5.78321">
        <ele>496.9</ele>
        <time>2021-09-07T16:18:19Z</time>
      </trkpt>
      <trkpt lat="46.67823" lon="5.78315">
        <ele>497</ele>
        <time>2021-09-07T16:18:23Z</time>
      </trkpt>
      <trkpt lat="46.67827" lon="5.7831">
        <ele>497.1</ele>
        <time>2021-09-07T16:18:27Z</time>
      </trkpt>
      <trkpt lat="46.6783" lon="5.78305">
        <ele>497</ele>
        <time>2021-09-07T16:18:31Z</time>
      </trkpt>
      <trkpt lat="46.67835" lon="5.78301">
        <ele>497.2</ele>
        <time>2021-09-07T16:18:35Z</time>
      </trkpt>
      <trkpt lat="46.67839" lon="5.78297">
        <ele>497.3</ele>
        <time>2021-09-07T16:18:40Z</time>
      </trkpt>
      <trkpt lat="46.67843" lon="5.78293">
        <ele>497.4</ele>
        <time>2021-09-07T16:18:44Z</time>
      </trkpt>
      <trkpt lat="46.67847" lon="5.78289">
        <ele>497.5</ele>
        <time>2021-09-07T16:18:48Z</time>
      </trkpt>
      <trkpt lat="46.67851" lon="5.78285">
        <ele>497.1</ele>
        <time>2021-09-07T16:18:54Z</time>
      </trkpt>
      <trkpt lat="46.67855" lon="5.78281">
        <ele>496.4</ele>
        <time>2021-09-07T16:19:00Z</time>
      </trkpt>
      <trkpt lat="46.67859" lon="5.78277">
        <ele>495.9</ele>
        <time>2021-09-07T16:19:05Z</time>
      </trkpt>
      <trkpt lat="46.67864" lon="5.78275">
        <ele>495.8</ele>
        <time>2021-09-07T16:19:09Z</time>
      </trkpt>
      <trkpt lat="46.67869" lon="5.78271">
        <ele>495.8</ele>
        <time>2021-09-07T16:19:13Z</time>
      </trkpt>
      <trkpt lat="46.67873" lon="5.78265">
        <ele>495.7</ele>
        <time>2021-09-07T16:19:18Z</time>
      </trkpt>
      <trkpt lat="46.67876" lon="5.78259">
        <ele>495.2</ele>
        <time>2021-09-07T16:19:23Z</time>
      </trkpt>
      <trkpt lat="46.67879" lon="5.78253">
        <ele>495</ele>
        <time>2021-09-07T16:19:28Z</time>
      </trkpt>
      <trkpt lat="46.67882" lon="5.78246">
        <ele>494.5</ele>
        <time>2021-09-07T16:19:32Z</time>
      </trkpt>
      <trkpt lat="46.67884" lon="5.78239">
        <ele>493.8</ele>
        <time>2021-09-07T16:19:37Z</time>
      </trkpt>
      <trkpt lat="46.67886" lon="5.78233">
        <ele>493.5</ele>
        <time>2021-09-07T16:19:41Z</time>
      </trkpt>
      <trkpt lat="46.67889" lon="5.78227">
        <ele>493.2</ele>
        <time>2021-09-07T16:19:46Z</time>
      </trkpt>
      <trkpt lat="46.67891" lon="5.7822">
        <ele>492.9</ele>
        <time>2021-09-07T16:19:51Z</time>
      </trkpt>
      <trkpt lat="46.67893" lon="5.78214">
        <ele>492.5</ele>
        <time>2021-09-07T16:19:56Z</time>
      </trkpt>
      <trkpt lat="46.67896" lon="5.78207">
        <ele>491.7</ele>
        <time>2021-09-07T16:20:02Z</time>
      </trkpt>
      <trkpt lat="46.67897" lon="5.782">
        <ele>490.6</ele>
        <time>2021-09-07T16:20:07Z</time>
      </trkpt>
      <trkpt lat="46.67899" lon="5.78194">
        <ele>489.6</ele>
        <time>2021-09-07T16:20:11Z</time>
      </trkpt>
      <trkpt lat="46.679" lon="5.78187">
        <ele>488.9</ele>
        <time>2021-09-07T16:20:16Z</time>
      </trkpt>
      <trkpt lat="46.67901" lon="5.78179">
        <ele>488.6</ele>
        <time>2021-09-07T16:20:21Z</time>
      </trkpt>
      <trkpt lat="46.67903" lon="5.78172">
        <ele>488.5</ele>
        <time>2021-09-07T16:20:26Z</time>
      </trkpt>
      <trkpt lat="46.67904" lon="5.78165">
        <ele>488.8</ele>
        <time>2021-09-07T16:20:32Z</time>
      </trkpt>
      <trkpt lat="46.67905" lon="5.78159">
        <ele>488.8</ele>
        <time>2021-09-07T16:20:37Z</time>
      </trkpt>
      <trkpt lat="46.67905" lon="5.78152">
        <ele>488.8</ele>
        <time>2021-09-07T16:20:42Z</time>
      </trkpt>
      <trkpt lat="46.67905" lon="5.78144">
        <ele>488.7</ele>
        <time>2021-09-07T16:20:46Z</time>
      </trkpt>
      <trkpt lat="46.67904" lon="5.78137">
        <ele>488.5</ele>
        <time>2021-09-07T16:20:50Z</time>
      </trkpt>
      <trkpt lat="46.67904" lon="5.7813">
        <ele>488.4</ele>
        <time>2021-09-07T16:20:54Z</time>
      </trkpt>
      <trkpt lat="46.67904" lon="5.78123">
        <ele>487.8</ele>
        <time>2021-09-07T16:21:00Z</time>
      </trkpt>
      <trkpt lat="46.67904" lon="5.78115">
        <ele>486.6</ele>
        <time>2021-09-07T16:21:06Z</time>
      </trkpt>
      <trkpt lat="46.67906" lon="5.78108">
        <ele>486.4</ele>
        <time>2021-09-07T16:21:09Z</time>
      </trkpt>
      <trkpt lat="46.67906" lon="5.78101">
        <ele>486</ele>
        <time>2021-09-07T16:21:13Z</time>
      </trkpt>
      <trkpt lat="46.67907" lon="5.78093">
        <ele>485.2</ele>
        <time>2021-09-07T16:21:18Z</time>
      </trkpt>
      <trkpt lat="46.67907" lon="5.78086">
        <ele>484.5</ele>
        <time>2021-09-07T16:21:22Z</time>
      </trkpt>
      <trkpt lat="46.67907" lon="5.78079">
        <ele>484.3</ele>
        <time>2021-09-07T16:21:26Z</time>
      </trkpt>
      <trkpt lat="46.67908" lon="5.78072">
        <ele>484.4</ele>
        <time>2021-09-07T16:21:30Z</time>
      </trkpt>
      <trkpt lat="46.6791" lon="5.78065">
        <ele>484.6</ele>
        <time>2021-09-07T16:21:34Z</time>
      </trkpt>
      <trkpt lat="46.67911" lon="5.78058">
        <ele>484.5</ele>
        <time>2021-09-07T16:21:39Z</time>
      </trkpt>
      <trkpt lat="46.67913" lon="5.78051">
        <ele>484.5</ele>
        <time>2021-09-07T16:21:43Z</time>
      </trkpt>
      <trkpt lat="46.67915" lon="5.78045">
        <ele>484.5</ele>
        <time>2021-09-07T16:21:47Z</time>
      </trkpt>
      <trkpt lat="46.67919" lon="5.7804">
        <ele>483.6</ele>
        <time>2021-09-07T16:21:52Z</time>
      </trkpt>
      <trkpt lat="46.67921" lon="5.78034">
        <ele>482.3</ele>
        <time>2021-09-07T16:21:57Z</time>
      </trkpt>
      <trkpt lat="46.67924" lon="5.78028">
        <ele>481.6</ele>
        <time>2021-09-07T16:22:01Z</time>
      </trkpt>
      <trkpt lat="46.67927" lon="5.78022">
        <ele>480.6</ele>
        <time>2021-09-07T16:22:07Z</time>
      </trkpt>
      <trkpt lat="46.6793" lon="5.78016">
        <ele>480.1</ele>
        <time>2021-09-07T16:22:11Z</time>
      </trkpt>
      <trkpt lat="46.67932" lon="5.78009">
        <ele>479.6</ele>
        <time>2021-09-07T16:22:15Z</time>
      </trkpt>
      <trkpt lat="46.67933" lon="5.78002">
        <ele>479.2</ele>
        <time>2021-09-07T16:22:19Z</time>
      </trkpt>
      <trkpt lat="46.6793" lon="5.77997">
        <ele>479.2</ele>
        <time>2021-09-07T16:22:26Z</time>
      </trkpt>
      <trkpt lat="46.67925" lon="5.78">
        <ele>480.3</ele>
        <time>2021-09-07T16:22:32Z</time>
      </trkpt>
      <trkpt lat="46.67922" lon="5.78005">
        <ele>481.8</ele>
        <time>2021-09-07T16:22:38Z</time>
      </trkpt>
      <trkpt lat="46.67918" lon="5.7801">
        <ele>482.5</ele>
        <time>2021-09-07T16:22:43Z</time>
      </trkpt>
      <trkpt lat="46.67914" lon="5.78014">
        <ele>483</ele>
        <time>2021-09-07T16:22:48Z</time>
      </trkpt>
      <trkpt lat="46.67909" lon="5.78013">
        <ele>482.7</ele>
        <time>2021-09-07T16:22:55Z</time>
      </trkpt>
      <trkpt lat="46.67906" lon="5.78007">
        <ele>482.7</ele>
        <time>2021-09-07T16:22:59Z</time>
      </trkpt>
      <trkpt lat="46.67904" lon="5.78001">
        <ele>483</ele>
        <time>2021-09-07T16:23:03Z</time>
      </trkpt>
      <trkpt lat="46.67904" lon="5.77994">
        <ele>482.8</ele>
        <time>2021-09-07T16:23:11Z</time>
      </trkpt>
      <trkpt lat="46.67903" lon="5.77986">
        <ele>481.5</ele>
        <time>2021-09-07T16:23:17Z</time>
      </trkpt>
      <trkpt lat="46.67901" lon="5.7798">
        <ele>479.8</ele>
        <time>2021-09-07T16:23:22Z</time>
      </trkpt>
      <trkpt lat="46.67902" lon="5.77973">
        <ele>478</ele>
        <time>2021-09-07T16:23:27Z</time>
      </trkpt>
      <trkpt lat="46.67903" lon="5.77965">
        <ele>477.1</ele>
        <time>2021-09-07T16:23:31Z</time>
      </trkpt>
      <trkpt lat="46.67902" lon="5.77959">
        <ele>476.7</ele>
        <time>2021-09-07T16:23:35Z</time>
      </trkpt>
      <trkpt lat="46.67899" lon="5.77952">
        <ele>476.9</ele>
        <time>2021-09-07T16:23:40Z</time>
      </trkpt>
      <trkpt lat="46.67896" lon="5.77945">
        <ele>477.7</ele>
        <time>2021-09-07T16:23:45Z</time>
      </trkpt>
      <trkpt lat="46.67893" lon="5.7794">
        <ele>479.4</ele>
        <time>2021-09-07T16:23:50Z</time>
      </trkpt>
      <trkpt lat="46.67888" lon="5.77939">
        <ele>481.2</ele>
        <time>2021-09-07T16:23:55Z</time>
      </trkpt>
      <trkpt lat="46.67883" lon="5.77942">
        <ele>482.8</ele>
        <time>2021-09-07T16:24:01Z</time>
      </trkpt>
      <trkpt lat="46.67878" lon="5.77945">
        <ele>483.5</ele>
        <time>2021-09-07T16:24:07Z</time>
      </trkpt>
      <trkpt lat="46.67873" lon="5.77948">
        <ele>484.1</ele>
        <time>2021-09-07T16:24:12Z</time>
      </trkpt>
      <trkpt lat="46.67869" lon="5.77951">
        <ele>484.5</ele>
        <time>2021-09-07T16:24:18Z</time>
      </trkpt>
    </trkseg>
  </trk>
</gpx>